﻿_id	dev_id	dev_model	dev_manufactor	dev_serial	dev_latitude	dev_longitude	dev_street	dev_street_no	dev_city	dev_name	id	dev_send_time	dev_state	dev_state_description	dev_temperature	dev_humidity	dev_pressure	dev_pm_1	dev_pm_2_5	dev_pm_10
1	363171	Vazduh	Libelium	0004A30B0021DF70	44.979	16.7091	""	""	Prijedor	""	29830215	2024-12-31T23:57:15	3	NO ERROR	-3.05	100	1017.26	38.74	59.63	116.41
2	363171	Vazduh	Libelium	0004A30B0021DF70	44.979	16.7091	""	""	Prijedor	""	29830457	2025-01-01T00:57:57	3	NO ERROR	-2.92	100	1016.76	15.89	29.45	109.77
3	363171	Vazduh	Libelium	0004A30B0021DF70	44.979	16.7091	""	""	Prijedor	""	29830765	2025-01-01T01:58:39	3	NO ERROR	-3.42	100	1016.76	8.54	16.9	60.92
4	363171	Vazduh	Libelium	0004A30B0021DF70	44.979	16.7091	""	""	Prijedor	""	29831000	2025-01-01T02:59:22	3	NO ERROR	-3.31	100	1016.59	8.58	13.84	69.78
5	363171	Vazduh	Libelium	0004A30B0021DF70	44.979	16.7091	""	""	Prijedor	""	29831257	2025-01-01T04:00:04	3	NO ERROR	-3.33	100	1016.32	7.9	10.71	18.51
6	363171	Vazduh	Libelium	0004A30B0021DF70	44.979	16.7091	""	""	Prijedor	""	29831599	2025-01-01T05:00:46	3	NO ERROR	-4.22	100	1016.1	3.89	10.62	37.79
7	363171	Vazduh	Libelium	0004A30B0021DF70	44.979	16.7091	""	""	Prijedor	""	29831908	2025-01-01T06:01:28	3	NO ERROR	-4.06	100	1016.1	3.79	15.52	61.02
8	363171	Vazduh	Libelium	0004A30B0021DF70	44.979	16.7091	""	""	Prijedor	""	29832218	2025-01-01T07:02:10	3	NO ERROR	-4.69	100	1016.13	1.6	4.46	11.84
9	363171	Vazduh	Libelium	0004A30B0021DF70	44.979	16.7091	""	""	Prijedor	""	29832540	2025-01-01T08:02:52	3	NO ERROR	-4.78	100	1016.27	7.74	15.15	40.28
10	363171	Vazduh	Libelium	0004A30B0021DF70	44.979	16.7091	""	""	Prijedor	""	29832775	2025-01-01T09:03:34	3	NO ERROR	-3.68	100	1016.36	0.44	0.63	1.1
11	363171	Vazduh	Libelium	0004A30B0021DF70	44.979	16.7091	""	""	Prijedor	""	29833048	2025-01-01T10:04:16	3	NO ERROR	-2.96	100	1016.43	3.36	7.72	15.7
12	363171	Vazduh	Libelium	0004A30B0021DF70	44.979	16.7091	""	""	Prijedor	""	29833378	2025-01-01T11:04:58	3	NO ERROR	-2.53	100	1015.88	1.13	1.9	2.34
13	363171	Vazduh	Libelium	0004A30B0021DF70	44.979	16.7091	""	""	Prijedor	""	29833642	2025-01-01T12:05:40	3	NO ERROR	-1.04	100	1014.99	0.42	0.45	0.45
14	363171	Vazduh	Libelium	0004A30B0021DF70	44.979	16.7091	""	""	Prijedor	""	29833969	2025-01-01T13:06:22	3	NO ERROR	1.25	100	1014	0.38	0.4	0.4
15	363171	Vazduh	Libelium	0004A30B0021DF70	44.979	16.7091	""	""	Prijedor	""	29834358	2025-01-01T14:07:04	3	NO ERROR	2.78	100	1013.23	0.56	0.62	0.62
16	363171	Vazduh	Libelium	0004A30B0021DF70	44.979	16.7091	""	""	Prijedor	""	29834662	2025-01-01T15:07:47	3	NO ERROR	6.62	100	1012.82	0.1	0.1	0.1
17	363171	Vazduh	Libelium	0004A30B0021DF70	44.979	16.7091	""	""	Prijedor	""	29834932	2025-01-01T16:08:29	3	NO ERROR	2.16	100	1012.67	0.08	0.09	0.09
18	363171	Vazduh	Libelium	0004A30B0021DF70	44.979	16.7091	""	""	Prijedor	""	29835232	2025-01-01T17:09:17	3	NO ERROR	0.66	100	1012.46	0.88	1	1
19	363171	Vazduh	Libelium	0004A30B0021DF70	44.979	16.7091	""	""	Prijedor	""	29835519	2025-01-01T18:09:59	3	NO ERROR	-0.34	100	1012.6	1.84	2.08	2.08
20	363171	Vazduh	Libelium	0004A30B0021DF70	44.979	16.7091	""	""	Prijedor	""	29835782	2025-01-01T19:10:41	3	NO ERROR	-0.8	100	1012.52	2.18	2.43	2.43
21	363171	Vazduh	Libelium	0004A30B0021DF70	44.979	16.7091	""	""	Prijedor	""	29836077	2025-01-01T20:11:23	3	NO ERROR	-1.66	100	1012.62	1.93	2.1	2.1
22	363171	Vazduh	Libelium	0004A30B0021DF70	44.979	16.7091	""	""	Prijedor	""	29836387	2025-01-01T21:12:05	3	NO ERROR	-1.92	100	1012.64	0.57	0.61	0.61
23	363171	Vazduh	Libelium	0004A30B0021DF70	44.979	16.7091	""	""	Prijedor	""	29836678	2025-01-01T22:12:47	3	NO ERROR	-2.1	100	1012.44	0.45	0.53	0.53
24	363171	Vazduh	Libelium	0004A30B0021DF70	44.979	16.7091	""	""	Prijedor	""	29837016	2025-01-01T23:13:29	3	NO ERROR	-3.19	100	1012.37	1.01	1.33	1.54
25	363171	Vazduh	Libelium	0004A30B0021DF70	44.979	16.7091	""	""	Prijedor	""	29837260	2025-01-02T00:14:11	3	NO ERROR	-3.39	100	1011.92	11.22	39.85	233.63
26	363171	Vazduh	Libelium	0004A30B0021DF70	44.979	16.7091	""	""	Prijedor	""	29837506	2025-01-02T01:14:53	3	NO ERROR	-3.39	100	1011.58	6.2	24.49	106.61
27	363171	Vazduh	Libelium	0004A30B0021DF70	44.979	16.7091	""	""	Prijedor	""	29837805	2025-01-02T02:15:36	3	NO ERROR	-3.24	100	1011.19	79.62	138.56	316.47
28	363171	Vazduh	Libelium	0004A30B0021DF70	44.979	16.7091	""	""	Prijedor	""	29838047	2025-01-02T03:16:18	3	NO ERROR	-3.61	100	1010.64	161.64	232.3	483.15
29	363171	Vazduh	Libelium	0004A30B0021DF70	44.979	16.7091	""	""	Prijedor	""	29838308	2025-01-02T04:17:00	3	NO ERROR	-4.16	100	1010.11	0.88	2.65	14.46
30	363171	Vazduh	Libelium	0004A30B0021DF70	44.979	16.7091	""	""	Prijedor	""	29838701	2025-01-02T05:17:42	3	NO ERROR	-4.79	100	1009.78	0.65	0.68	0.68
31	363171	Vazduh	Libelium	0004A30B0021DF70	44.979	16.7091	""	""	Prijedor	""	29838993	2025-01-02T06:18:24	3	NO ERROR	-4.82	100	1009.44	0.37	0.47	0.47
32	363171	Vazduh	Libelium	0004A30B0021DF70	44.979	16.7091	""	""	Prijedor	""	29839291	2025-01-02T07:19:06	3	NO ERROR	-4.8	100	1009.1	0.11	0.17	0.17
33	363171	Vazduh	Libelium	0004A30B0021DF70	44.979	16.7091	""	""	Prijedor	""	29839623	2025-01-02T08:19:48	3	NO ERROR	-3.96	100	1008.95	0.03	0.03	0.03
34	363171	Vazduh	Libelium	0004A30B0021DF70	44.979	16.7091	""	""	Prijedor	""	29839844	2025-01-02T09:20:30	3	NO ERROR	-1.55	100	1008.76	0.02	0.02	0.02
35	363171	Vazduh	Libelium	0004A30B0021DF70	44.979	16.7091	""	""	Prijedor	""	29840100	2025-01-02T10:21:12	3	NO ERROR	1.4	100	1008.29	0.08	0.09	0.09
36	363171	Vazduh	Libelium	0004A30B0021DF70	44.979	16.7091	""	""	Prijedor	""	29840445	2025-01-02T11:21:54	3	NO ERROR	3.89	100	1007.18	0.02	0.02	0.02
37	363171	Vazduh	Libelium	0004A30B0021DF70	44.979	16.7091	""	""	Prijedor	""	29840760	2025-01-02T12:22:49	3	NO ERROR	7.15	100	1005.88	0.05	0.05	0.05
38	363171	Vazduh	Libelium	0004A30B0021DF70	44.979	16.7091	""	""	Prijedor	""	29844856	2025-01-03T01:32:01	3	NO ERROR	10.01	97.5	997.42	0	0	0
39	363171	Vazduh	Libelium	0004A30B0021DF70	44.979	16.7091	""	""	Prijedor	""	29845138	2025-01-03T02:32:43	3	NO ERROR	9.23	100	997.17	0.02	0.02	0.02
40	363171	Vazduh	Libelium	0004A30B0021DF70	44.979	16.7091	""	""	Prijedor	""	29845359	2025-01-03T03:33:26	3	NO ERROR	7.46	100	996.77	0.06	0.07	0.07
41	363171	Vazduh	Libelium	0004A30B0021DF70	44.979	16.7091	""	""	Prijedor	""	29845671	2025-01-03T04:34:08	3	NO ERROR	7.38	100	996.73	0.02	0.02	0.02
42	363171	Vazduh	Libelium	0004A30B0021DF70	44.979	16.7091	""	""	Prijedor	""	29846002	2025-01-03T05:34:50	3	NO ERROR	7.07	100	996.7	0	0	0
43	363171	Vazduh	Libelium	0004A30B0021DF70	44.979	16.7091	""	""	Prijedor	""	29846274	2025-01-03T06:35:44	3	NO ERROR	3.04	100	998.83	0	0.07	0.15
44	363171	Vazduh	Libelium	0004A30B0021DF70	44.979	16.7091	""	""	Prijedor	""	29846535	2025-01-03T07:36:26	3	NO ERROR	2.09	100	1000.11	0	0	0
45	363171	Vazduh	Libelium	0004A30B0021DF70	44.979	16.7091	""	""	Prijedor	""	29846835	2025-01-03T08:37:08	3	NO ERROR	2.19	100	1002.55	0	0	0
46	363171	Vazduh	Libelium	0004A30B0021DF70	44.979	16.7091	""	""	Prijedor	""	29847036	2025-01-03T09:37:50	3	NO ERROR	1.37	100	1004.35	0	0	0
47	363171	Vazduh	Libelium	0004A30B0021DF70	44.979	16.7091	""	""	Prijedor	""	29847304	2025-01-03T10:38:32	3	NO ERROR	1.16	100	1004.91	0.02	0.02	0.02
48	363171	Vazduh	Libelium	0004A30B0021DF70	44.979	16.7091	""	""	Prijedor	""	29847600	2025-01-03T11:39:14	3	NO ERROR	1.01	100	1004.74	1.11	1.25	1.25
49	363171	Vazduh	Libelium	0004A30B0021DF70	44.979	16.7091	""	""	Prijedor	""	29847904	2025-01-03T12:40:09	3	NO ERROR	0.81	100	1004.2	0.37	0.49	0.49
50	363171	Vazduh	Libelium	0004A30B0021DF70	44.979	16.7091	""	""	Prijedor	""	29848214	2025-01-03T13:40:57	3	NO ERROR	1.26	100	1004.17	0.19	0.22	0.22
51	363171	Vazduh	Libelium	0004A30B0021DF70	44.979	16.7091	""	""	Prijedor	""	29848542	2025-01-03T14:41:39	3	NO ERROR	1.08	100	1004	0.54	0.62	0.62
52	363171	Vazduh	Libelium	0004A30B0021DF70	44.979	16.7091	""	""	Prijedor	""	29848813	2025-01-03T15:42:33	3	NO ERROR	0.97	100	1004.09	0.03	0.03	0.03
53	363171	Vazduh	Libelium	0004A30B0021DF70	44.979	16.7091	""	""	Prijedor	""	29849096	2025-01-03T16:43:15	3	NO ERROR	0.95	100	1004.34	0.07	0.09	0.09
54	363171	Vazduh	Libelium	0004A30B0021DF70	44.979	16.7091	""	""	Prijedor	""	29849349	2025-01-03T17:43:57	3	NO ERROR	0.79	100	1004.51	0.03	0.05	0.05
55	363171	Vazduh	Libelium	0004A30B0021DF70	44.979	16.7091	""	""	Prijedor	""	29849594	2025-01-03T18:44:39	3	NO ERROR	0.02	100	1004.84	0.39	0.59	0.6
56	363171	Vazduh	Libelium	0004A30B0021DF70	44.979	16.7091	""	""	Prijedor	""	29849860	2025-01-03T19:45:27	3	NO ERROR	-0.82	100	1005.25	7.29	10.73	25.99
57	363171	Vazduh	Libelium	0004A30B0021DF70	44.979	16.7091	""	""	Prijedor	""	29850207	2025-01-03T20:46:09	3	NO ERROR	-0.7	100	1005.36	72.89	129.23	312.36
58	363171	Vazduh	Libelium	0004A30B0021DF70	44.979	16.7091	""	""	Prijedor	""	29850481	2025-01-03T21:46:51	3	NO ERROR	-0.76	100	1005.66	6.49	33.76	255.05
59	363171	Vazduh	Libelium	0004A30B0021DF70	44.979	16.7091	""	""	Prijedor	""	29850803	2025-01-03T22:47:33	3	NO ERROR	-1.11	100	1006.35	20.89	46.46	395.57
60	363171	Vazduh	Libelium	0004A30B0021DF70	44.979	16.7091	""	""	Prijedor	""	29851107	2025-01-03T23:48:15	3	NO ERROR	-1.22	100	1006.61	19.75	35.93	96.87
61	363171	Vazduh	Libelium	0004A30B0021DF70	44.979	16.7091	""	""	Prijedor	""	29851368	2025-01-04T00:48:57	3	NO ERROR	-1.48	100	1006.96	3.2	10.36	85.92
62	363171	Vazduh	Libelium	0004A30B0021DF70	44.979	16.7091	""	""	Prijedor	""	29851625	2025-01-04T01:49:40	3	NO ERROR	-1.57	100	1007.56	1.17	2.98	14.27
63	363171	Vazduh	Libelium	0004A30B0021DF70	44.979	16.7091	""	""	Prijedor	""	29851899	2025-01-04T02:50:22	3	NO ERROR	-1.59	100	1007.69	1.88	4.04	42.18
64	363171	Vazduh	Libelium	0004A30B0021DF70	44.979	16.7091	""	""	Prijedor	""	29852148	2025-01-04T03:51:04	3	NO ERROR	-1.45	100	1007.97	0.4	1.15	4.23
65	363171	Vazduh	Libelium	0004A30B0021DF70	44.979	16.7091	""	""	Prijedor	""	29852491	2025-01-04T04:51:58	3	NO ERROR	-1.65	100	1008.21	0.26	0.44	0.62
66	363171	Vazduh	Libelium	0004A30B0021DF70	44.979	16.7091	""	""	Prijedor	""	29852800	2025-01-04T05:52:40	3	NO ERROR	-1.68	100	1008.78	0.57	0.8	0.94
67	363171	Vazduh	Libelium	0004A30B0021DF70	44.979	16.7091	""	""	Prijedor	""	29853078	2025-01-04T06:53:22	3	NO ERROR	-1.81	100	1009.64	0.35	0.69	1.26
68	363171	Vazduh	Libelium	0004A30B0021DF70	44.979	16.7091	""	""	Prijedor	""	29853371	2025-01-04T07:54:04	3	NO ERROR	-1.92	100	1010.31	0.19	0.4	1.14
69	363171	Vazduh	Libelium	0004A30B0021DF70	44.979	16.7091	""	""	Prijedor	""	29853653	2025-01-04T08:54:46	3	NO ERROR	-1.82	100	1010.74	0.31	0.5	0.65
70	363171	Vazduh	Libelium	0004A30B0021DF70	44.979	16.7091	""	""	Prijedor	""	29853908	2025-01-04T09:55:28	3	NO ERROR	-1.94	100	1011.47	0.31	0.33	0.33
71	363171	Vazduh	Libelium	0004A30B0021DF70	44.979	16.7091	""	""	Prijedor	""	29854206	2025-01-04T10:56:10	3	NO ERROR	-1.5	100	1011.38	0.1	0.12	0.12
72	363171	Vazduh	Libelium	0004A30B0021DF70	44.979	16.7091	""	""	Prijedor	""	29854508	2025-01-04T11:56:52	3	NO ERROR	-1.24	100	1010.91	0.02	0.02	0.02
73	363171	Vazduh	Libelium	0004A30B0021DF70	44.979	16.7091	""	""	Prijedor	""	29854821	2025-01-04T12:57:35	3	NO ERROR	-1.48	100	1010.41	0	0	0
74	363171	Vazduh	Libelium	0004A30B0021DF70	44.979	16.7091	""	""	Prijedor	""	29855173	2025-01-04T13:58:17	3	NO ERROR	-1.36	100	1009.95	0.06	0.07	0.07
75	363171	Vazduh	Libelium	0004A30B0021DF70	44.979	16.7091	""	""	Prijedor	""	29855488	2025-01-04T14:58:59	3	NO ERROR	-1.39	100	1009.73	0.02	0.02	0.02
76	363171	Vazduh	Libelium	0004A30B0021DF70	44.979	16.7091	""	""	Prijedor	""	29855758	2025-01-04T15:59:41	3	NO ERROR	-1.29	100	1009.56	0.05	0.05	0.05
77	363171	Vazduh	Libelium	0004A30B0021DF70	44.979	16.7091	""	""	Prijedor	""	29856027	2025-01-04T17:00:23	3	NO ERROR	-1.99	100	1009.22	0	0	0
78	363171	Vazduh	Libelium	0004A30B0021DF70	44.979	16.7091	""	""	Prijedor	""	29856292	2025-01-04T18:01:05	3	NO ERROR	-2.63	100	1009.09	0.03	0.03	0.03
79	363171	Vazduh	Libelium	0004A30B0021DF70	44.979	16.7091	""	""	Prijedor	""	29856511	2025-01-04T19:01:53	3	NO ERROR	-2.76	100	1008.62	0.28	0.49	0.53
80	363171	Vazduh	Libelium	0004A30B0021DF70	44.979	16.7091	""	""	Prijedor	""	29856820	2025-01-04T20:02:35	3	NO ERROR	-2.45	100	1008.54	0.02	0.02	0.02
81	363171	Vazduh	Libelium	0004A30B0021DF70	44.979	16.7091	""	""	Prijedor	""	29857141	2025-01-04T21:03:17	3	NO ERROR	-2.42	100	1007.5	0.18	0.19	0.19
82	363171	Vazduh	Libelium	0004A30B0021DF70	44.979	16.7091	""	""	Prijedor	""	29857411	2025-01-04T22:03:59	3	NO ERROR	-2.41	100	1008	0.03	0.06	0.06
83	363171	Vazduh	Libelium	0004A30B0021DF70	44.979	16.7091	""	""	Prijedor	""	29857748	2025-01-04T23:04:41	3	NO ERROR	-2.3	100	1007.41	0.07	0.07	0.07
84	363171	Vazduh	Libelium	0004A30B0021DF70	44.979	16.7091	""	""	Prijedor	""	29857999	2025-01-05T00:05:24	3	NO ERROR	-2.01	100	1006.38	0	0	0
85	363171	Vazduh	Libelium	0004A30B0021DF70	44.979	16.7091	""	""	Prijedor	""	29858223	2025-01-05T01:06:06	3	NO ERROR	-2.45	100	1005.91	0.03	0.03	0.03
86	363171	Vazduh	Libelium	0004A30B0021DF70	44.979	16.7091	""	""	Prijedor	""	29858504	2025-01-05T02:06:48	3	NO ERROR	-2.57	100	1005.84	0.03	0.03	0.03
87	363171	Vazduh	Libelium	0004A30B0021DF70	44.979	16.7091	""	""	Prijedor	""	29858755	2025-01-05T03:07:30	3	NO ERROR	-2.94	100	1005.32	0.05	0.05	0.05
88	363171	Vazduh	Libelium	0004A30B0021DF70	44.979	16.7091	""	""	Prijedor	""	29859014	2025-01-05T04:08:12	3	NO ERROR	-3.56	100	1005.03	0.34	0.71	2.39
89	363171	Vazduh	Libelium	0004A30B0021DF70	44.979	16.7091	""	""	Prijedor	""	29859377	2025-01-05T05:09:00	3	NO ERROR	-3.69	100	1004.42	0.14	0.14	0.14
90	363171	Vazduh	Libelium	0004A30B0021DF70	44.979	16.7091	""	""	Prijedor	""	29859693	2025-01-05T06:09:42	3	NO ERROR	-3.74	100	1004.2	0.2	0.22	0.22
91	363171	Vazduh	Libelium	0004A30B0021DF70	44.979	16.7091	""	""	Prijedor	""	29859961	2025-01-05T07:10:30	3	NO ERROR	-3.67	100	1004.09	0.07	0.07	0.07
92	363171	Vazduh	Libelium	0004A30B0021DF70	44.979	16.7091	""	""	Prijedor	""	29860258	2025-01-05T08:11:12	3	NO ERROR	-3.49	100	1003.88	0.02	0.02	0.02
93	363171	Vazduh	Libelium	0004A30B0021DF70	44.979	16.7091	""	""	Prijedor	""	29860498	2025-01-05T09:12:01	3	NO ERROR	-2.4	100	1003.48	0.03	0.03	0.03
94	363171	Vazduh	Libelium	0004A30B0021DF70	44.979	16.7091	""	""	Prijedor	""	29860775	2025-01-05T10:12:43	3	NO ERROR	-1.66	100	1003.16	0.07	0.07	0.07
95	363171	Vazduh	Libelium	0004A30B0021DF70	44.979	16.7091	""	""	Prijedor	""	29861096	2025-01-05T11:13:25	3	NO ERROR	-0.73	100	1002.38	0.03	0.04	0.05
96	363171	Vazduh	Libelium	0004A30B0021DF70	44.979	16.7091	""	""	Prijedor	""	29861381	2025-01-05T12:14:07	3	NO ERROR	0.72	100	1001.61	0.26	0.28	0.28
97	363171	Vazduh	Libelium	0004A30B0021DF70	44.979	16.7091	""	""	Prijedor	""	29861726	2025-01-05T13:14:49	3	NO ERROR	2.51	100	1000.58	0.02	0.02	0.02
98	363171	Vazduh	Libelium	0004A30B0021DF70	44.979	16.7091	""	""	Prijedor	""	29862108	2025-01-05T14:15:31	3	NO ERROR	2.9	100	1000.07	0.09	0.12	0.12
99	363171	Vazduh	Libelium	0004A30B0021DF70	44.979	16.7091	""	""	Prijedor	""	29862456	2025-01-05T15:16:13	3	NO ERROR	2.25	100	999.79	0	0	0
100	363171	Vazduh	Libelium	0004A30B0021DF70	44.979	16.7091	""	""	Prijedor	""	29862736	2025-01-05T16:16:55	3	NO ERROR	1.31	100	999.63	0.15	0.29	0.37
101	363171	Vazduh	Libelium	0004A30B0021DF70	44.979	16.7091	""	""	Prijedor	""	29863022	2025-01-05T17:17:37	3	NO ERROR	1.36	100	999.79	0.16	0.17	0.17
102	363171	Vazduh	Libelium	0004A30B0021DF70	44.979	16.7091	""	""	Prijedor	""	29863310	2025-01-05T18:18:19	3	NO ERROR	1.62	100	1000.07	0.1	0.1	0.1
103	363171	Vazduh	Libelium	0004A30B0021DF70	44.979	16.7091	""	""	Prijedor	""	29863549	2025-01-05T19:19:07	3	NO ERROR	1.43	100	1000.03	0.54	0.56	0.56
104	363171	Vazduh	Libelium	0004A30B0021DF70	44.979	16.7091	""	""	Prijedor	""	29863867	2025-01-05T20:19:49	3	NO ERROR	1.04	100	999.82	0.95	1.12	1.12
105	363171	Vazduh	Libelium	0004A30B0021DF70	44.979	16.7091	""	""	Prijedor	""	29864191	2025-01-05T21:20:31	3	NO ERROR	0.97	100	999.94	0.42	0.44	0.44
106	363171	Vazduh	Libelium	0004A30B0021DF70	44.979	16.7091	""	""	Prijedor	""	29864479	2025-01-05T22:21:13	3	NO ERROR	1.2	100	999.72	0.51	0.53	0.53
107	363171	Vazduh	Libelium	0004A30B0021DF70	44.979	16.7091	""	""	Prijedor	""	29864833	2025-01-05T23:22:08	3	NO ERROR	1.1	100	999.7	0.69	0.83	0.83
108	363171	Vazduh	Libelium	0004A30B0021DF70	44.979	16.7091	""	""	Prijedor	""	29865068	2025-01-06T00:22:50	3	NO ERROR	2.29	100	999.32	0.42	0.49	0.49
109	363171	Vazduh	Libelium	0004A30B0021DF70	44.979	16.7091	""	""	Prijedor	""	29865279	2025-01-06T01:23:32	3	NO ERROR	1.73	100	999.14	0.19	0.22	0.22
110	363171	Vazduh	Libelium	0004A30B0021DF70	44.979	16.7091	""	""	Prijedor	""	29865590	2025-01-06T02:24:14	3	NO ERROR	1.23	100	999.03	0.45	0.5	0.5
111	363171	Vazduh	Libelium	0004A30B0021DF70	44.979	16.7091	""	""	Prijedor	""	29865836	2025-01-06T03:24:56	3	NO ERROR	1.18	100	998.46	0.15	0.15	0.15
112	363171	Vazduh	Libelium	0004A30B0021DF70	44.979	16.7091	""	""	Prijedor	""	29866130	2025-01-06T04:25:38	3	NO ERROR	1.71	100	998.49	0.22	0.22	0.22
113	363171	Vazduh	Libelium	0004A30B0021DF70	44.979	16.7091	""	""	Prijedor	""	29866469	2025-01-06T05:26:20	3	NO ERROR	3.08	100	997.89	0.06	0.06	0.06
114	363171	Vazduh	Libelium	0004A30B0021DF70	44.979	16.7091	""	""	Prijedor	""	29866758	2025-01-06T06:27:02	3	NO ERROR	7.66	100	997.81	0.03	0.03	0.03
115	363171	Vazduh	Libelium	0004A30B0021DF70	44.979	16.7091	""	""	Prijedor	""	29867051	2025-01-06T07:27:44	3	NO ERROR	7.18	100	997.8	0.02	0.02	0.02
116	363171	Vazduh	Libelium	0004A30B0021DF70	44.979	16.7091	""	""	Prijedor	""	29867368	2025-01-06T08:28:26	3	NO ERROR	9.42	100	997.7	0.03	0.03	0.03
117	363171	Vazduh	Libelium	0004A30B0021DF70	44.979	16.7091	""	""	Prijedor	""	29880355	2025-01-08T02:59:06	3	NO ERROR	6.74	100	997.02	0.23	0.24	0.24
118	363171	Vazduh	Libelium	0004A30B0021DF70	44.979	16.7091	""	""	Prijedor	""	29880600	2025-01-08T03:59:47	3	NO ERROR	6.04	100	997.18	0.24	0.34	0.36
119	363171	Vazduh	Libelium	0004A30B0021DF70	44.979	16.7091	""	""	Prijedor	""	29880943	2025-01-08T05:00:30	3	NO ERROR	4.84	100	997.27	0.38	0.53	0.53
120	363171	Vazduh	Libelium	0004A30B0021DF70	44.979	16.7091	""	""	Prijedor	""	29881252	2025-01-08T06:01:12	3	NO ERROR	4.34	100	997.33	0.07	0.08	0.08
121	363171	Vazduh	Libelium	0004A30B0021DF70	44.979	16.7091	""	""	Prijedor	""	29881542	2025-01-08T07:01:54	3	NO ERROR	3.75	100	997.82	0.04	0.07	0.07
122	363171	Vazduh	Libelium	0004A30B0021DF70	44.979	16.7091	""	""	Prijedor	""	29881864	2025-01-08T08:02:42	3	NO ERROR	3.28	100	998.36	0.07	0.15	0.45
123	363171	Vazduh	Libelium	0004A30B0021DF70	44.979	16.7091	""	""	Prijedor	""	29882111	2025-01-08T09:03:24	3	NO ERROR	4.63	100	998.43	0.22	0.23	0.23
124	363171	Vazduh	Libelium	0004A30B0021DF70	44.979	16.7091	""	""	Prijedor	""	29882693	2025-01-08T10:04:06	3	NO ERROR	6.78	100	998.95	0.02	0.02	0.02
125	363171	Vazduh	Libelium	0004A30B0021DF70	44.979	16.7091	""	""	Prijedor	""	29883018	2025-01-08T11:04:54	3	NO ERROR	9.98	100	998.33	0.18	0.19	0.19
126	363171	Vazduh	Libelium	0004A30B0021DF70	44.979	16.7091	""	""	Prijedor	""	29883305	2025-01-08T12:05:36	3	NO ERROR	15.18	82.8	997.87	0.02	0.02	0.02
127	363171	Vazduh	Libelium	0004A30B0021DF70	44.979	16.7091	""	""	Prijedor	""	29883656	2025-01-08T13:06:18	3	NO ERROR	16.72	66.5	997.26	0.13	0.17	0.17
128	363171	Vazduh	Libelium	0004A30B0021DF70	44.979	16.7091	""	""	Prijedor	""	29884087	2025-01-08T14:07:00	3	NO ERROR	16.6	63.7	997.34	0.1	0.11	0.11
129	363171	Vazduh	Libelium	0004A30B0021DF70	44.979	16.7091	""	""	Prijedor	""	29884436	2025-01-08T15:07:42	3	NO ERROR	18.18	58	997.81	0.13	0.18	0.18
130	363171	Vazduh	Libelium	0004A30B0021DF70	44.979	16.7091	""	""	Prijedor	""	29884738	2025-01-08T16:08:24	3	NO ERROR	14.03	67	998.32	0.07	0.09	0.09
131	363171	Vazduh	Libelium	0004A30B0021DF70	44.979	16.7091	""	""	Prijedor	""	29885096	2025-01-08T17:09:06	3	NO ERROR	13.06	73.6	998.92	0.08	0.11	0.11
132	363171	Vazduh	Libelium	0004A30B0021DF70	44.979	16.7091	""	""	Prijedor	""	29885420	2025-01-08T18:09:49	3	NO ERROR	11.49	83	999.2	0.36	0.44	0.44
133	363171	Vazduh	Libelium	0004A30B0021DF70	44.979	16.7091	""	""	Prijedor	""	29885682	2025-01-08T19:10:31	3	NO ERROR	9.71	98	999.39	0.83	0.95	0.95
134	363171	Vazduh	Libelium	0004A30B0021DF70	44.979	16.7091	""	""	Prijedor	""	29886069	2025-01-08T20:11:13	3	NO ERROR	7.92	100	1000.2	0.34	0.51	0.54
135	363171	Vazduh	Libelium	0004A30B0021DF70	44.979	16.7091	""	""	Prijedor	""	29886449	2025-01-08T21:11:55	3	NO ERROR	6.98	100	1000.23	0.43	0.66	0.7
136	363171	Vazduh	Libelium	0004A30B0021DF70	44.979	16.7091	""	""	Prijedor	""	29886734	2025-01-08T22:12:37	3	NO ERROR	6.19	100	1000.3	0.18	0.19	0.19
137	363171	Vazduh	Libelium	0004A30B0021DF70	44.979	16.7091	""	""	Prijedor	""	29887086	2025-01-08T23:13:19	3	NO ERROR	5.87	100	1000.07	0.13	0.23	0.25
138	363171	Vazduh	Libelium	0004A30B0021DF70	44.979	16.7091	""	""	Prijedor	""	29887345	2025-01-09T00:14:01	3	NO ERROR	6.45	100	999.67	0.16	0.23	0.24
139	363171	Vazduh	Libelium	0004A30B0021DF70	44.979	16.7091	""	""	Prijedor	""	29887568	2025-01-09T01:14:43	3	NO ERROR	6.59	100	999.27	0.34	0.54	0.72
140	363171	Vazduh	Libelium	0004A30B0021DF70	44.979	16.7091	""	""	Prijedor	""	29887888	2025-01-09T02:15:25	3	NO ERROR	5.89	100	999.05	0.02	0.02	0.02
141	363171	Vazduh	Libelium	0004A30B0021DF70	44.979	16.7091	""	""	Prijedor	""	29888166	2025-01-09T03:16:07	3	NO ERROR	6.95	100	998.29	0.27	0.35	0.35
142	363171	Vazduh	Libelium	0004A30B0021DF70	44.979	16.7091	""	""	Prijedor	""	29888435	2025-01-09T04:16:49	3	NO ERROR	6.79	100	997.78	0.07	0.14	0.14
143	363171	Vazduh	Libelium	0004A30B0021DF70	44.979	16.7091	""	""	Prijedor	""	29888819	2025-01-09T05:17:31	3	NO ERROR	7.04	100	997.13	0.05	0.05	0.05
144	363171	Vazduh	Libelium	0004A30B0021DF70	44.979	16.7091	""	""	Prijedor	""	29889148	2025-01-09T06:18:13	3	NO ERROR	6.93	100	997.4	0.17	0.18	0.18
145	363171	Vazduh	Libelium	0004A30B0021DF70	44.979	16.7091	""	""	Prijedor	""	29889448	2025-01-09T07:18:56	3	NO ERROR	7.27	100	997.19	0.02	0.02	0.02
146	363171	Vazduh	Libelium	0004A30B0021DF70	44.979	16.7091	""	""	Prijedor	""	29889766	2025-01-09T08:19:38	3	NO ERROR	6.55	100	997.14	0.11	0.17	0.18
147	363171	Vazduh	Libelium	0004A30B0021DF70	44.979	16.7091	""	""	Prijedor	""	29890033	2025-01-09T09:20:20	3	NO ERROR	9.96	100	997.02	0.14	0.16	0.16
148	363171	Vazduh	Libelium	0004A30B0021DF70	44.979	16.7091	""	""	Prijedor	""	29890315	2025-01-09T10:21:08	3	NO ERROR	9.89	100	996.95	0.23	0.3	0.3
149	363171	Vazduh	Libelium	0004A30B0021DF70	44.979	16.7091	""	""	Prijedor	""	29890663	2025-01-09T11:21:50	3	NO ERROR	11.03	100	996.34	0.33	0.41	0.41
150	363171	Vazduh	Libelium	0004A30B0021DF70	44.979	16.7091	""	""	Prijedor	""	29890968	2025-01-09T12:22:32	3	NO ERROR	12.03	100	995.49	0.37	0.54	0.54
151	363171	Vazduh	Libelium	0004A30B0021DF70	44.979	16.7091	""	""	Prijedor	""	29891260	2025-01-09T13:23:14	3	NO ERROR	15.61	80	994.71	0.1	0.13	0.13
152	363171	Vazduh	Libelium	0004A30B0021DF70	44.979	16.7091	""	""	Prijedor	""	29891627	2025-01-09T14:23:56	3	NO ERROR	15.39	77.1	994.64	0.1	0.11	0.11
153	363171	Vazduh	Libelium	0004A30B0021DF70	44.979	16.7091	""	""	Prijedor	""	29891932	2025-01-09T15:24:38	3	NO ERROR	17.65	71.1	994.53	0.04	0.04	0.04
154	363171	Vazduh	Libelium	0004A30B0021DF70	44.979	16.7091	""	""	Prijedor	""	29892185	2025-01-09T16:25:20	3	NO ERROR	14.44	81	994.24	0	0	0
155	363171	Vazduh	Libelium	0004A30B0021DF70	44.979	16.7091	""	""	Prijedor	""	29892456	2025-01-09T17:26:02	3	NO ERROR	13.84	86.3	993.92	0.1	0.14	0.14
156	363171	Vazduh	Libelium	0004A30B0021DF70	44.979	16.7091	""	""	Prijedor	""	29892757	2025-01-09T18:26:50	3	NO ERROR	13.39	89.4	993.93	0.29	0.47	0.47
157	363171	Vazduh	Libelium	0004A30B0021DF70	44.979	16.7091	""	""	Prijedor	""	29893050	2025-01-09T19:27:32	3	NO ERROR	12.5	96.4	993.52	0.04	0.05	0.05
158	363171	Vazduh	Libelium	0004A30B0021DF70	44.979	16.7091	""	""	Prijedor	""	29893435	2025-01-09T20:28:14	3	NO ERROR	10.41	100	993.14	0.38	0.54	0.55
159	363171	Vazduh	Libelium	0004A30B0021DF70	44.979	16.7091	""	""	Prijedor	""	29893763	2025-01-09T21:28:56	3	NO ERROR	9.98	100	992.74	0.11	0.13	0.13
160	363171	Vazduh	Libelium	0004A30B0021DF70	44.979	16.7091	""	""	Prijedor	""	29894121	2025-01-09T22:29:39	3	NO ERROR	10.44	100	992.73	0.06	0.12	0.13
161	363171	Vazduh	Libelium	0004A30B0021DF70	44.979	16.7091	""	""	Prijedor	""	29894484	2025-01-09T23:30:21	3	NO ERROR	8.84	100	992.32	0.11	0.12	0.12
162	363171	Vazduh	Libelium	0004A30B0021DF70	44.979	16.7091	""	""	Prijedor	""	29894809	2025-01-10T00:31:09	3	NO ERROR	7.71	100	991.83	0.05	0.05	0.05
163	363171	Vazduh	Libelium	0004A30B0021DF70	44.979	16.7091	""	""	Prijedor	""	29895110	2025-01-10T01:31:51	3	NO ERROR	9.12	100	991.96	0.13	0.16	0.16
164	363171	Vazduh	Libelium	0004A30B0021DF70	44.979	16.7091	""	""	Prijedor	""	29895443	2025-01-10T02:32:33	3	NO ERROR	9.13	100	992.27	0.03	0.03	0.03
165	363171	Vazduh	Libelium	0004A30B0021DF70	44.979	16.7091	""	""	Prijedor	""	29895733	2025-01-10T03:33:15	3	NO ERROR	11.41	100	992.52	0.05	0.05	0.05
166	363171	Vazduh	Libelium	0004A30B0021DF70	44.979	16.7091	""	""	Prijedor	""	29896132	2025-01-10T04:34:09	3	NO ERROR	12.5	100	992.48	0.05	0.07	0.07
167	363171	Vazduh	Libelium	0004A30B0021DF70	44.979	16.7091	""	""	Prijedor	""	29896589	2025-01-10T05:34:51	3	NO ERROR	11.94	100	993.17	0.43	0.54	0.55
168	363171	Vazduh	Libelium	0004A30B0021DF70	44.979	16.7091	""	""	Prijedor	""	29897018	2025-01-10T06:35:39	3	NO ERROR	5.94	100	995.56	0.11	0.16	0.16
169	363171	Vazduh	Libelium	0004A30B0021DF70	44.979	16.7091	""	""	Prijedor	""	29897335	2025-01-10T07:36:21	3	NO ERROR	1.91	100	998.36	0.46	0.97	1.22
170	363171	Vazduh	Libelium	0004A30B0021DF70	44.979	16.7091	""	""	Prijedor	""	29897671	2025-01-10T08:37:03	3	NO ERROR	1.62	100	1003.01	0	0	0
171	363171	Vazduh	Libelium	0004A30B0021DF70	44.979	16.7091	""	""	Prijedor	""	29897922	2025-01-10T09:37:45	3	NO ERROR	1.38	100	1005.27	0.15	0.16	0.16
172	363171	Vazduh	Libelium	0004A30B0021DF70	44.979	16.7091	""	""	Prijedor	""	29898183	2025-01-10T10:38:28	3	NO ERROR	2.23	100	1005.8	0	0	0
173	363171	Vazduh	Libelium	0004A30B0021DF70	44.979	16.7091	""	""	Prijedor	""	29898466	2025-01-10T11:39:10	3	NO ERROR	2.22	100	1005.55	0	0	0
174	363171	Vazduh	Libelium	0004A30B0021DF70	44.979	16.7091	""	""	Prijedor	""	29898801	2025-01-10T12:39:52	3	NO ERROR	2.09	100	1005.62	0.08	0.09	0.09
175	363171	Vazduh	Libelium	0004A30B0021DF70	44.979	16.7091	""	""	Prijedor	""	29899121	2025-01-10T13:40:46	3	NO ERROR	2.25	100	1005.18	0.03	0.03	0.03
176	363171	Vazduh	Libelium	0004A30B0021DF70	44.979	16.7091	""	""	Prijedor	""	29899424	2025-01-10T14:41:28	3	NO ERROR	2.41	100	1005.42	0	0	0
177	363171	Vazduh	Libelium	0004A30B0021DF70	44.979	16.7091	""	""	Prijedor	""	29899708	2025-01-10T15:42:10	3	NO ERROR	2.43	100	1005.35	0.02	0.02	0.02
178	363171	Vazduh	Libelium	0004A30B0021DF70	44.979	16.7091	""	""	Prijedor	""	29900005	2025-01-10T16:42:52	3	NO ERROR	2.19	100	1004.89	0.07	0.09	0.09
179	363171	Vazduh	Libelium	0004A30B0021DF70	44.979	16.7091	""	""	Prijedor	""	29900259	2025-01-10T17:43:34	3	NO ERROR	2.16	100	1005.04	0.02	0.02	0.02
180	363171	Vazduh	Libelium	0004A30B0021DF70	44.979	16.7091	""	""	Prijedor	""	29900506	2025-01-10T18:44:16	3	NO ERROR	2.17	100	1004.99	0.03	0.03	0.03
181	363171	Vazduh	Libelium	0004A30B0021DF70	44.979	16.7091	""	""	Prijedor	""	29900787	2025-01-10T19:45:04	3	NO ERROR	2.07	100	1005.03	0.06	0.07	0.07
182	363171	Vazduh	Libelium	0004A30B0021DF70	44.979	16.7091	""	""	Prijedor	""	29901099	2025-01-10T20:45:46	3	NO ERROR	1.86	100	1005.1	0	0	0
183	363171	Vazduh	Libelium	0004A30B0021DF70	44.979	16.7091	""	""	Prijedor	""	29901388	2025-01-10T21:46:28	3	NO ERROR	1.37	100	1004.7	0.16	0.18	0.18
184	363171	Vazduh	Libelium	0004A30B0021DF70	44.979	16.7091	""	""	Prijedor	""	29901689	2025-01-10T22:47:11	3	NO ERROR	0.41	100	1004.36	0.03	0.03	0.03
185	363171	Vazduh	Libelium	0004A30B0021DF70	44.979	16.7091	""	""	Prijedor	""	29901939	2025-01-10T23:47:53	3	NO ERROR	0.64	100	1004.01	0.03	0.03	0.03
186	363171	Vazduh	Libelium	0004A30B0021DF70	44.979	16.7091	""	""	Prijedor	""	29902212	2025-01-11T00:48:35	3	NO ERROR	-0.22	100	1004	0	0	0
187	363171	Vazduh	Libelium	0004A30B0021DF70	44.979	16.7091	""	""	Prijedor	""	29902492	2025-01-11T01:49:17	3	NO ERROR	-0.09	100	1003.53	0	0	0
188	363171	Vazduh	Libelium	0004A30B0021DF70	44.979	16.7091	""	""	Prijedor	""	29902728	2025-01-11T02:49:59	3	NO ERROR	-1.44	100	1003.63	0.03	0.05	0.05
189	363171	Vazduh	Libelium	0004A30B0021DF70	44.979	16.7091	""	""	Prijedor	""	29902985	2025-01-11T03:50:41	3	NO ERROR	-1.38	100	1003.4	11.17	37.9	189.29
190	363171	Vazduh	Libelium	0004A30B0021DF70	44.979	16.7091	""	""	Prijedor	""	29903315	2025-01-11T04:51:29	3	NO ERROR	-1.15	100	1004.11	0.67	0.77	0.77
191	363171	Vazduh	Libelium	0004A30B0021DF70	44.979	16.7091	""	""	Prijedor	""	29903632	2025-01-11T05:52:17	3	NO ERROR	-1.28	100	1004.31	1.11	2.29	6.47
192	363171	Vazduh	Libelium	0004A30B0021DF70	44.979	16.7091	""	""	Prijedor	""	29903926	2025-01-11T06:52:59	3	NO ERROR	-0.93	100	1004.64	1.16	2.1	12.83
193	363171	Vazduh	Libelium	0004A30B0021DF70	44.979	16.7091	""	""	Prijedor	""	29904220	2025-01-11T07:53:41	3	NO ERROR	-0.55	100	1005.33	0.05	0.05	0.05
194	363171	Vazduh	Libelium	0004A30B0021DF70	44.979	16.7091	""	""	Prijedor	""	29904488	2025-01-11T08:54:36	3	NO ERROR	-0.72	100	1005.8	0.18	0.21	0.21
195	363171	Vazduh	Libelium	0004A30B0021DF70	44.979	16.7091	""	""	Prijedor	""	29904760	2025-01-11T09:55:18	3	NO ERROR	-0.52	100	1006.06	0.05	0.15	0.46
196	363171	Vazduh	Libelium	0004A30B0021DF70	44.979	16.7091	""	""	Prijedor	""	29905059	2025-01-11T10:56:00	3	NO ERROR	-0.08	100	1006.72	0	0	0
197	363171	Vazduh	Libelium	0004A30B0021DF70	44.979	16.7091	""	""	Prijedor	""	29905320	2025-01-11T11:56:42	3	NO ERROR	0.49	100	1006.17	0.05	0.05	0.05
198	363171	Vazduh	Libelium	0004A30B0021DF70	44.979	16.7091	""	""	Prijedor	""	29905639	2025-01-11T12:57:24	3	NO ERROR	0.22	100	1006.07	0	0	0
199	363171	Vazduh	Libelium	0004A30B0021DF70	44.979	16.7091	""	""	Prijedor	""	29905992	2025-01-11T13:58:06	3	NO ERROR	0.75	100	1005.72	0	0	0
200	363171	Vazduh	Libelium	0004A30B0021DF70	44.979	16.7091	""	""	Prijedor	""	29906281	2025-01-11T14:58:48	3	NO ERROR	0.45	100	1005.62	0.04	0.08	0.09
201	363171	Vazduh	Libelium	0004A30B0021DF70	44.979	16.7091	""	""	Prijedor	""	29906540	2025-01-11T15:59:30	3	NO ERROR	-0.31	100	1006.11	0.02	0.02	0.02
202	363171	Vazduh	Libelium	0004A30B0021DF70	44.979	16.7091	""	""	Prijedor	""	29916290	2025-01-13T02:23:45	3	NO ERROR	1.28	95.8	1017.46	0.17	0.19	0.19
203	363171	Vazduh	Libelium	0004A30B0021DF70	44.979	16.7091	""	""	Prijedor	""	29916515	2025-01-13T03:24:27	3	NO ERROR	0.99	95.8	1017.64	0.08	0.09	0.09
204	363171	Vazduh	Libelium	0004A30B0021DF70	44.979	16.7091	""	""	Prijedor	""	29916798	2025-01-13T04:25:09	3	NO ERROR	0.83	96.6	1017.99	0	0	0
205	363171	Vazduh	Libelium	0004A30B0021DF70	44.979	16.7091	""	""	Prijedor	""	29917149	2025-01-13T05:25:57	3	NO ERROR	0.76	93.1	1018.41	0.02	0.02	0.02
206	363171	Vazduh	Libelium	0004A30B0021DF70	44.979	16.7091	""	""	Prijedor	""	29917421	2025-01-13T06:26:39	3	NO ERROR	0.63	94.2	1018.95	0.05	0.05	0.05
207	363171	Vazduh	Libelium	0004A30B0021DF70	44.979	16.7091	""	""	Prijedor	""	29917686	2025-01-13T07:27:22	3	NO ERROR	0.62	95.4	1019.55	0.15	0.18	0.18
208	363171	Vazduh	Libelium	0004A30B0021DF70	44.979	16.7091	""	""	Prijedor	""	29917990	2025-01-13T08:28:04	3	NO ERROR	0.87	94.3	1020.11	0.03	0.03	0.03
209	363171	Vazduh	Libelium	0004A30B0021DF70	44.979	16.7091	""	""	Prijedor	""	29918208	2025-01-13T09:28:58	3	NO ERROR	1.15	92.2	1020.52	0	0	0
210	363171	Vazduh	Libelium	0004A30B0021DF70	44.979	16.7091	""	""	Prijedor	""	29918472	2025-01-13T10:29:40	3	NO ERROR	1.35	91.2	1020.79	0.08	0.1	0.1
211	363171	Vazduh	Libelium	0004A30B0021DF70	44.979	16.7091	""	""	Prijedor	""	29918772	2025-01-13T11:30:22	3	NO ERROR	1.67	90.3	1020.43	0.07	0.11	0.12
212	363171	Vazduh	Libelium	0004A30B0021DF70	44.979	16.7091	""	""	Prijedor	""	29919071	2025-01-13T12:31:04	3	NO ERROR	1.66	92.1	1020.36	0	0	0
213	363171	Vazduh	Libelium	0004A30B0021DF70	44.979	16.7091	""	""	Prijedor	""	29919381	2025-01-13T13:31:46	3	NO ERROR	1.81	92.6	1020.38	0	0	0
214	363171	Vazduh	Libelium	0004A30B0021DF70	44.979	16.7091	""	""	Prijedor	""	29919721	2025-01-13T14:32:28	3	NO ERROR	1.93	94.5	1020.45	0	0	0
215	363171	Vazduh	Libelium	0004A30B0021DF70	44.979	16.7091	""	""	Prijedor	""	29919995	2025-01-13T15:33:16	3	NO ERROR	2.12	96.1	1021.03	0.03	0.06	0.06
216	363171	Vazduh	Libelium	0004A30B0021DF70	44.979	16.7091	""	""	Prijedor	""	29920284	2025-01-13T16:34:11	3	NO ERROR	1.99	98.6	1021.38	0.09	0.11	0.11
217	363171	Vazduh	Libelium	0004A30B0021DF70	44.979	16.7091	""	""	Prijedor	""	29920552	2025-01-13T17:34:52	3	NO ERROR	2.03	100	1022.1	0.02	0.02	0.02
218	363171	Vazduh	Libelium	0004A30B0021DF70	44.979	16.7091	""	""	Prijedor	""	29920779	2025-01-13T18:35:34	3	NO ERROR	1.99	100	1022.09	0.02	0.02	0.02
219	363171	Vazduh	Libelium	0004A30B0021DF70	44.979	16.7091	""	""	Prijedor	""	29921031	2025-01-13T19:36:17	3	NO ERROR	1.86	100	1022.17	0.04	0.07	0.07
220	363171	Vazduh	Libelium	0004A30B0021DF70	44.979	16.7091	""	""	Prijedor	""	29921377	2025-01-13T20:37:05	3	NO ERROR	1.82	100	1022.54	0.18	0.26	0.26
221	363171	Vazduh	Libelium	0004A30B0021DF70	44.979	16.7091	""	""	Prijedor	""	29921661	2025-01-13T21:37:47	3	NO ERROR	1.69	100	1022.51	0.03	0.05	0.05
222	363171	Vazduh	Libelium	0004A30B0021DF70	44.979	16.7091	""	""	Prijedor	""	29921937	2025-01-13T22:38:29	3	NO ERROR	1.64	100	1022.82	0	0	0
223	363171	Vazduh	Libelium	0004A30B0021DF70	44.979	16.7091	""	""	Prijedor	""	29922229	2025-01-13T23:39:11	3	NO ERROR	1.32	100	1022.68	0	0	0
224	363171	Vazduh	Libelium	0004A30B0021DF70	44.979	16.7091	""	""	Prijedor	""	29922501	2025-01-14T00:39:53	3	NO ERROR	1.24	100	1022.55	0	0	0
225	363171	Vazduh	Libelium	0004A30B0021DF70	44.979	16.7091	""	""	Prijedor	""	29922768	2025-01-14T01:40:41	3	NO ERROR	1.13	100	1022.26	0.03	0.03	0.03
226	363171	Vazduh	Libelium	0004A30B0021DF70	44.979	16.7091	""	""	Prijedor	""	29923014	2025-01-14T02:41:23	3	NO ERROR	0.84	100	1022.19	0.05	0.05	0.05
227	363171	Vazduh	Libelium	0004A30B0021DF70	44.979	16.7091	""	""	Prijedor	""	29923252	2025-01-14T03:42:05	3	NO ERROR	0.86	100	1021.69	0.03	0.03	0.03
228	363171	Vazduh	Libelium	0004A30B0021DF70	44.979	16.7091	""	""	Prijedor	""	29923577	2025-01-14T04:42:53	3	NO ERROR	0.59	100	1021.53	0.02	0.02	0.02
229	363171	Vazduh	Libelium	0004A30B0021DF70	44.979	16.7091	""	""	Prijedor	""	29923878	2025-01-14T05:43:35	3	NO ERROR	0.31	100	1021.3	0.04	0.07	0.07
230	363171	Vazduh	Libelium	0004A30B0021DF70	44.979	16.7091	""	""	Prijedor	""	29924169	2025-01-14T06:44:17	3	NO ERROR	0.03	100	1021.56	0.07	0.09	0.09
231	363171	Vazduh	Libelium	0004A30B0021DF70	44.979	16.7091	""	""	Prijedor	""	29924454	2025-01-14T07:45:00	3	NO ERROR	-0.79	100	1021.94	0	0	0
232	363171	Vazduh	Libelium	0004A30B0021DF70	44.979	16.7091	""	""	Prijedor	""	29924739	2025-01-14T08:45:42	3	NO ERROR	-0.43	100	1022.52	0.02	0.02	0.02
233	363171	Vazduh	Libelium	0004A30B0021DF70	44.979	16.7091	""	""	Prijedor	""	29924990	2025-01-14T09:46:24	3	NO ERROR	1.15	100	1022.46	0.03	0.03	0.03
234	363171	Vazduh	Libelium	0004A30B0021DF70	44.979	16.7091	""	""	Prijedor	""	29925285	2025-01-14T10:47:06	3	NO ERROR	2.59	98.9	1021.9	0.07	0.09	0.09
235	363171	Vazduh	Libelium	0004A30B0021DF70	44.979	16.7091	""	""	Prijedor	""	29925563	2025-01-14T11:47:48	3	NO ERROR	2.66	96.3	1021.33	0.02	0.02	0.02
236	363171	Vazduh	Libelium	0004A30B0021DF70	44.979	16.7091	""	""	Prijedor	""	29925936	2025-01-14T12:48:30	3	NO ERROR	3.68	89.9	1020.83	0.02	0.02	0.02
237	363171	Vazduh	Libelium	0004A30B0021DF70	44.979	16.7091	""	""	Prijedor	""	29926310	2025-01-14T13:49:12	3	NO ERROR	3.3	84.2	1020.23	0	0.04	0.06
238	363171	Vazduh	Libelium	0004A30B0021DF70	44.979	16.7091	""	""	Prijedor	""	29926655	2025-01-14T14:50:00	3	NO ERROR	3.57	82	1019.67	0.03	0.06	0.06
239	363171	Vazduh	Libelium	0004A30B0021DF70	44.979	16.7091	""	""	Prijedor	""	29926940	2025-01-14T15:50:42	3	NO ERROR	3.53	79.2	1019.2	0	0	0
240	363171	Vazduh	Libelium	0004A30B0021DF70	44.979	16.7091	""	""	Prijedor	""	29927249	2025-01-14T16:51:24	3	NO ERROR	1.99	94.9	1018.69	0.03	0.06	0.06
241	363171	Vazduh	Libelium	0004A30B0021DF70	44.979	16.7091	""	""	Prijedor	""	29927532	2025-01-14T17:52:06	3	NO ERROR	0.87	100	1018.49	0	0	0
242	363171	Vazduh	Libelium	0004A30B0021DF70	44.979	16.7091	""	""	Prijedor	""	29927792	2025-01-14T18:52:55	3	NO ERROR	-0.43	100	1018.34	0.02	0.02	0.02
243	363171	Vazduh	Libelium	0004A30B0021DF70	44.979	16.7091	""	""	Prijedor	""	29928108	2025-01-14T19:53:37	3	NO ERROR	-1	100	1017.97	0.02	0.02	0.02
244	363171	Vazduh	Libelium	0004A30B0021DF70	44.979	16.7091	""	""	Prijedor	""	29928441	2025-01-14T20:54:19	3	NO ERROR	-2.24	100	1017.8	0.22	0.43	0.64
245	363171	Vazduh	Libelium	0004A30B0021DF70	44.979	16.7091	""	""	Prijedor	""	29928707	2025-01-14T21:55:01	3	NO ERROR	-2.9	100	1017.32	0.08	0.09	0.09
246	363171	Vazduh	Libelium	0004A30B0021DF70	44.979	16.7091	""	""	Prijedor	""	29929029	2025-01-14T22:55:43	3	NO ERROR	-3.46	100	1017.09	0.16	0.18	0.18
247	363171	Vazduh	Libelium	0004A30B0021DF70	44.979	16.7091	""	""	Prijedor	""	29929310	2025-01-14T23:56:25	3	NO ERROR	-4.23	100	1016.5	0.13	0.16	0.16
248	363171	Vazduh	Libelium	0004A30B0021DF70	44.979	16.7091	""	""	Prijedor	""	29929552	2025-01-15T00:57:07	3	NO ERROR	-3.88	100	1015.71	0.1	0.11	0.11
249	363171	Vazduh	Libelium	0004A30B0021DF70	44.979	16.7091	""	""	Prijedor	""	29929829	2025-01-15T01:57:49	3	NO ERROR	-4.94	100	1015.52	0.08	0.09	0.09
250	363171	Vazduh	Libelium	0004A30B0021DF70	44.979	16.7091	""	""	Prijedor	""	29930050	2025-01-15T02:58:31	3	NO ERROR	-4.71	100	1014.89	0.1	0.13	0.13
251	363171	Vazduh	Libelium	0004A30B0021DF70	44.979	16.7091	""	""	Prijedor	""	29930297	2025-01-15T03:59:13	3	NO ERROR	-4.3	100	1014.19	0.51	0.55	0.55
252	363171	Vazduh	Libelium	0004A30B0021DF70	44.979	16.7091	""	""	Prijedor	""	29930653	2025-01-15T04:59:55	3	NO ERROR	-4.12	100	1013.1	0.1	0.11	0.11
253	363171	Vazduh	Libelium	0004A30B0021DF70	44.979	16.7091	""	""	Prijedor	""	29930949	2025-01-15T06:00:38	3	NO ERROR	-3.94	100	1012.83	0.02	0.02	0.02
254	363171	Vazduh	Libelium	0004A30B0021DF70	44.979	16.7091	""	""	Prijedor	""	29931223	2025-01-15T07:01:26	3	NO ERROR	-3.61	100	1012.87	0.02	0.02	0.02
255	363171	Vazduh	Libelium	0004A30B0021DF70	44.979	16.7091	""	""	Prijedor	""	29931550	2025-01-15T08:02:08	3	NO ERROR	-3.26	100	1012.61	0.12	0.14	0.14
256	363171	Vazduh	Libelium	0004A30B0021DF70	44.979	16.7091	""	""	Prijedor	""	29931827	2025-01-15T09:02:50	3	NO ERROR	-2.34	100	1013.4	0	0	0
257	363171	Vazduh	Libelium	0004A30B0021DF70	44.979	16.7091	""	""	Prijedor	""	29932074	2025-01-15T10:03:32	3	NO ERROR	-1.33	100	1013.55	0	0	0
258	363171	Vazduh	Libelium	0004A30B0021DF70	44.979	16.7091	""	""	Prijedor	""	29932360	2025-01-15T11:04:14	3	NO ERROR	-0.36	100	1013.35	0	0.04	0.06
259	363171	Vazduh	Libelium	0004A30B0021DF70	44.979	16.7091	""	""	Prijedor	""	29932643	2025-01-15T12:04:56	3	NO ERROR	0.79	100	1012.73	0.04	0.07	0.07
260	363171	Vazduh	Libelium	0004A30B0021DF70	44.979	16.7091	""	""	Prijedor	""	29932979	2025-01-15T13:05:38	3	NO ERROR	1.53	87.9	1012.15	0	0	0
261	363171	Vazduh	Libelium	0004A30B0021DF70	44.979	16.7091	""	""	Prijedor	""	29933363	2025-01-15T14:06:20	3	NO ERROR	0.85	100	1012.04	0.01	0.03	0.04
262	363171	Vazduh	Libelium	0004A30B0021DF70	44.979	16.7091	""	""	Prijedor	""	29933657	2025-01-15T15:07:02	3	NO ERROR	0.76	100	1011.95	0.02	0.02	0.02
263	363171	Vazduh	Libelium	0004A30B0021DF70	44.979	16.7091	""	""	Prijedor	""	29933931	2025-01-15T16:07:51	3	NO ERROR	0.6	100	1012.23	0	0	0
264	363171	Vazduh	Libelium	0004A30B0021DF70	44.979	16.7091	""	""	Prijedor	""	29934203	2025-01-15T17:08:33	3	NO ERROR	0.21	100	1012.61	0.07	0.12	0.12
265	363171	Vazduh	Libelium	0004A30B0021DF70	44.979	16.7091	""	""	Prijedor	""	29934455	2025-01-15T18:09:15	3	NO ERROR	0.02	100	1013	0.02	0.02	0.02
266	363171	Vazduh	Libelium	0004A30B0021DF70	44.979	16.7091	""	""	Prijedor	""	29934693	2025-01-15T19:09:57	3	NO ERROR	0.22	100	1013.52	0.03	0.03	0.03
267	363171	Vazduh	Libelium	0004A30B0021DF70	44.979	16.7091	""	""	Prijedor	""	29935014	2025-01-15T20:10:45	3	NO ERROR	0.02	100	1014.05	0	0	0
268	363171	Vazduh	Libelium	0004A30B0021DF70	44.979	16.7091	""	""	Prijedor	""	29935321	2025-01-15T21:11:27	3	NO ERROR	-0.12	100	1014.64	0.02	0.02	0.02
269	363171	Vazduh	Libelium	0004A30B0021DF70	44.979	16.7091	""	""	Prijedor	""	29935650	2025-01-15T22:12:09	3	NO ERROR	0.11	100	1015.24	0.02	0.06	0.07
270	363171	Vazduh	Libelium	0004A30B0021DF70	44.979	16.7091	""	""	Prijedor	""	29935967	2025-01-15T23:12:51	3	NO ERROR	-0.15	100	1015.79	0.09	0.13	0.14
271	363171	Vazduh	Libelium	0004A30B0021DF70	44.979	16.7091	""	""	Prijedor	""	29936197	2025-01-16T00:13:33	3	NO ERROR	-0.17	100	1015.84	0	0	0
272	363171	Vazduh	Libelium	0004A30B0021DF70	44.979	16.7091	""	""	Prijedor	""	29936441	2025-01-16T01:14:15	3	NO ERROR	-0.26	100	1016.23	0.03	0.06	0.06
273	363171	Vazduh	Libelium	0004A30B0021DF70	44.979	16.7091	""	""	Prijedor	""	29936748	2025-01-16T02:14:57	3	NO ERROR	-0.16	100	1017.04	0.12	0.14	0.14
274	363171	Vazduh	Libelium	0004A30B0021DF70	44.979	16.7091	""	""	Prijedor	""	29936964	2025-01-16T03:15:39	3	NO ERROR	-0.02	100	1017.57	0.02	0.02	0.02
275	363171	Vazduh	Libelium	0004A30B0021DF70	44.979	16.7091	""	""	Prijedor	""	29937255	2025-01-16T04:16:22	3	NO ERROR	-0.09	100	1018.07	0	0	0
276	363171	Vazduh	Libelium	0004A30B0021DF70	44.979	16.7091	""	""	Prijedor	""	29937597	2025-01-16T05:17:04	3	NO ERROR	-0.01	100	1018.88	0.02	0.02	0.02
277	363171	Vazduh	Libelium	0004A30B0021DF70	44.979	16.7091	""	""	Prijedor	""	29937881	2025-01-16T06:17:46	3	NO ERROR	0.18	100	1019.72	0.02	0.02	0.02
278	363171	Vazduh	Libelium	0004A30B0021DF70	44.979	16.7091	""	""	Prijedor	""	29938176	2025-01-16T07:18:34	3	NO ERROR	0.14	100	1020.4	0.05	0.08	0.08
279	363171	Vazduh	Libelium	0004A30B0021DF70	44.979	16.7091	""	""	Prijedor	""	29938484	2025-01-16T08:19:16	3	NO ERROR	0.23	100	1021.1	0	0	0
280	363171	Vazduh	Libelium	0004A30B0021DF70	44.979	16.7091	""	""	Prijedor	""	29938691	2025-01-16T09:19:58	3	NO ERROR	0.47	100	1021.91	0	0	0
281	363171	Vazduh	Libelium	0004A30B0021DF70	44.979	16.7091	""	""	Prijedor	""	29938975	2025-01-16T10:20:46	3	NO ERROR	0.86	100	1023.16	0	0	0
282	363171	Vazduh	Libelium	0004A30B0021DF70	44.979	16.7091	""	""	Prijedor	""	29939320	2025-01-16T11:21:28	3	NO ERROR	1.67	100	1023.38	0.02	0.02	0.02
283	363171	Vazduh	Libelium	0004A30B0021DF70	44.979	16.7091	""	""	Prijedor	""	29939595	2025-01-16T12:22:10	3	NO ERROR	1.74	100	1023.53	0.03	0.05	0.05
284	363171	Vazduh	Libelium	0004A30B0021DF70	44.979	16.7091	""	""	Prijedor	""	29939910	2025-01-16T13:22:52	3	NO ERROR	1.59	99.2	1023.3	0.02	0.02	0.02
285	363171	Vazduh	Libelium	0004A30B0021DF70	44.979	16.7091	""	""	Prijedor	""	29940261	2025-01-16T14:23:34	3	NO ERROR	1.31	98.8	1023.49	0.13	0.15	0.15
286	363171	Vazduh	Libelium	0004A30B0021DF70	44.979	16.7091	""	""	Prijedor	""	29940523	2025-01-16T15:24:16	3	NO ERROR	1.01	99.9	1023.78	0.02	0.02	0.02
287	363171	Vazduh	Libelium	0004A30B0021DF70	44.979	16.7091	""	""	Prijedor	""	29940804	2025-01-16T16:24:59	3	NO ERROR	0.79	100	1024.1	0.01	0.03	0.03
288	363171	Vazduh	Libelium	0004A30B0021DF70	44.979	16.7091	""	""	Prijedor	""	29941086	2025-01-16T17:25:41	3	NO ERROR	0.61	100	1024.47	0.02	0.02	0.02
289	363171	Vazduh	Libelium	0004A30B0021DF70	44.979	16.7091	""	""	Prijedor	""	29941316	2025-01-16T18:26:23	3	NO ERROR	0.56	100	1024.83	0.26	0.29	0.29
290	363171	Vazduh	Libelium	0004A30B0021DF70	44.979	16.7091	""	""	Prijedor	""	29941575	2025-01-16T19:27:11	3	NO ERROR	0.57	100	1025.38	0.07	0.07	0.07
291	363171	Vazduh	Libelium	0004A30B0021DF70	44.979	16.7091	""	""	Prijedor	""	29941920	2025-01-16T20:27:53	3	NO ERROR	0.63	99.6	1025.57	0.04	0.05	0.05
292	363171	Vazduh	Libelium	0004A30B0021DF70	44.979	16.7091	""	""	Prijedor	""	29942188	2025-01-16T21:28:35	3	NO ERROR	0.4	100	1025.86	0.06	0.06	0.06
293	363171	Vazduh	Libelium	0004A30B0021DF70	44.979	16.7091	""	""	Prijedor	""	29942489	2025-01-16T22:29:17	3	NO ERROR	0.31	100	1026.15	0.03	0.03	0.03
294	363171	Vazduh	Libelium	0004A30B0021DF70	44.979	16.7091	""	""	Prijedor	""	29942821	2025-01-16T23:29:59	3	NO ERROR	0.13	100	1026.23	0.02	0.02	0.02
295	363171	Vazduh	Libelium	0004A30B0021DF70	44.979	16.7091	""	""	Prijedor	""	29943095	2025-01-17T00:30:41	3	NO ERROR	-0.07	99.2	1026.29	0.02	0.02	0.02
296	363171	Vazduh	Libelium	0004A30B0021DF70	44.979	16.7091	""	""	Prijedor	""	29943338	2025-01-17T01:31:23	3	NO ERROR	-0.36	99.5	1026.44	0.02	0.02	0.02
297	363171	Vazduh	Libelium	0004A30B0021DF70	44.979	16.7091	""	""	Prijedor	""	29943639	2025-01-17T02:32:05	3	NO ERROR	-0.39	100	1026.24	0.1	0.11	0.11
298	363171	Vazduh	Libelium	0004A30B0021DF70	44.979	16.7091	""	""	Prijedor	""	29943861	2025-01-17T03:32:48	3	NO ERROR	-0.27	100	1026.07	0.05	0.08	0.08
299	363171	Vazduh	Libelium	0004A30B0021DF70	44.979	16.7091	""	""	Prijedor	""	29944201	2025-01-17T04:33:30	3	NO ERROR	-0.36	100	1026.02	0.12	0.15	0.15
300	363171	Vazduh	Libelium	0004A30B0021DF70	44.979	16.7091	""	""	Prijedor	""	29944545	2025-01-17T05:34:12	3	NO ERROR	-0.34	100	1025.72	0	0	0
301	363171	Vazduh	Libelium	0004A30B0021DF70	44.979	16.7091	""	""	Prijedor	""	29944835	2025-01-17T06:34:54	3	NO ERROR	-0.42	100	1025.92	0.08	0.09	0.09
302	363171	Vazduh	Libelium	0004A30B0021DF70	44.979	16.7091	""	""	Prijedor	""	29945155	2025-01-17T07:35:36	3	NO ERROR	-0.41	100	1026.2	0.03	0.09	0.11
303	363171	Vazduh	Libelium	0004A30B0021DF70	44.979	16.7091	""	""	Prijedor	""	29945479	2025-01-17T08:36:18	3	NO ERROR	-0.22	100	1026.68	0.14	0.18	0.18
304	363171	Vazduh	Libelium	0004A30B0021DF70	44.979	16.7091	""	""	Prijedor	""	29945709	2025-01-17T09:37:00	3	NO ERROR	0.23	100	1026.82	0.08	0.11	0.11
305	363171	Vazduh	Libelium	0004A30B0021DF70	44.979	16.7091	""	""	Prijedor	""	29945998	2025-01-17T10:37:48	3	NO ERROR	0.5	100	1027.09	0.18	0.23	0.23
306	363171	Vazduh	Libelium	0004A30B0021DF70	44.979	16.7091	""	""	Prijedor	""	29946326	2025-01-17T11:38:30	3	NO ERROR	1.14	96.9	1026.74	0.2	0.22	0.22
307	363171	Vazduh	Libelium	0004A30B0021DF70	44.979	16.7091	""	""	Prijedor	""	29946618	2025-01-17T12:39:25	3	NO ERROR	1.08	98.6	1026.14	0.02	0.02	0.02
308	363171	Vazduh	Libelium	0004A30B0021DF70	44.979	16.7091	""	""	Prijedor	""	29946955	2025-01-17T13:40:06	3	NO ERROR	1.28	98.8	1025.24	0.03	0.03	0.03
309	363171	Vazduh	Libelium	0004A30B0021DF70	44.979	16.7091	""	""	Prijedor	""	29947246	2025-01-17T14:40:48	3	NO ERROR	0.92	100	1025.19	0.18	0.19	0.19
310	363171	Vazduh	Libelium	0004A30B0021DF70	44.979	16.7091	""	""	Prijedor	""	29947482	2025-01-17T15:41:31	3	NO ERROR	0.78	100	1025.04	0.25	0.44	0.59
311	363171	Vazduh	Libelium	0004A30B0021DF70	44.979	16.7091	""	""	Prijedor	""	29947789	2025-01-17T16:42:13	3	NO ERROR	0.66	100	1024.83	0.06	0.06	0.06
312	363171	Vazduh	Libelium	0004A30B0021DF70	44.979	16.7091	""	""	Prijedor	""	29948040	2025-01-17T17:42:55	3	NO ERROR	0.55	100	1024.78	0.13	0.15	0.15
313	363171	Vazduh	Libelium	0004A30B0021DF70	44.979	16.7091	""	""	Prijedor	""	29948263	2025-01-17T18:43:37	3	NO ERROR	0.54	100	1024.96	0.36	0.38	0.38
314	363171	Vazduh	Libelium	0004A30B0021DF70	44.979	16.7091	""	""	Prijedor	""	29948519	2025-01-17T19:44:19	3	NO ERROR	0.41	100	1024.74	0.24	0.26	0.26
315	363171	Vazduh	Libelium	0004A30B0021DF70	44.979	16.7091	""	""	Prijedor	""	29948859	2025-01-17T20:45:01	3	NO ERROR	0.12	100	1024.72	0.08	0.09	0.09
316	363171	Vazduh	Libelium	0004A30B0021DF70	44.979	16.7091	""	""	Prijedor	""	29949141	2025-01-17T21:45:43	3	NO ERROR	0.24	100	1024.67	0.06	0.08	0.08
317	363171	Vazduh	Libelium	0004A30B0021DF70	44.979	16.7091	""	""	Prijedor	""	29949436	2025-01-17T22:46:25	3	NO ERROR	0.12	100	1024.61	0.04	0.07	0.07
318	363171	Vazduh	Libelium	0004A30B0021DF70	44.979	16.7091	""	""	Prijedor	""	29949708	2025-01-17T23:47:07	3	NO ERROR	-0.01	100	1024.32	0.02	0.02	0.02
319	363171	Vazduh	Libelium	0004A30B0021DF70	44.979	16.7091	""	""	Prijedor	""	29949964	2025-01-18T00:47:49	3	NO ERROR	0.08	100	1024.08	0	0	0
320	363171	Vazduh	Libelium	0004A30B0021DF70	44.979	16.7091	""	""	Prijedor	""	29950230	2025-01-18T01:48:31	3	NO ERROR	0.03	100	1023.91	0.1	0.1	0.1
321	363171	Vazduh	Libelium	0004A30B0021DF70	44.979	16.7091	""	""	Prijedor	""	29950496	2025-01-18T02:49:13	3	NO ERROR	-0.15	100	1023.46	0.05	0.08	0.08
322	363171	Vazduh	Libelium	0004A30B0021DF70	44.979	16.7091	""	""	Prijedor	""	29950728	2025-01-18T03:49:56	3	NO ERROR	-0.27	100	1022.79	0.06	0.08	0.08
323	363171	Vazduh	Libelium	0004A30B0021DF70	44.979	16.7091	""	""	Prijedor	""	29951078	2025-01-18T04:50:38	3	NO ERROR	-0.01	100	1022.64	0.12	0.12	0.12
324	363171	Vazduh	Libelium	0004A30B0021DF70	44.979	16.7091	""	""	Prijedor	""	29951375	2025-01-18T05:51:20	3	NO ERROR	-0.32	100	1022.51	0.13	0.14	0.14
325	363171	Vazduh	Libelium	0004A30B0021DF70	44.979	16.7091	""	""	Prijedor	""	29951646	2025-01-18T06:52:02	3	NO ERROR	-0.31	100	1022.74	0.29	0.31	0.31
326	363171	Vazduh	Libelium	0004A30B0021DF70	44.979	16.7091	""	""	Prijedor	""	29951936	2025-01-18T07:52:44	3	NO ERROR	-0.36	100	1022.94	0.25	0.27	0.27
327	363171	Vazduh	Libelium	0004A30B0021DF70	44.979	16.7091	""	""	Prijedor	""	29952199	2025-01-18T08:53:26	3	NO ERROR	-0.01	100	1022.79	0.13	0.16	0.16
328	363171	Vazduh	Libelium	0004A30B0021DF70	44.979	16.7091	""	""	Prijedor	""	29952421	2025-01-18T09:54:08	3	NO ERROR	0.06	100	1022.52	0.1	0.11	0.11
329	363171	Vazduh	Libelium	0004A30B0021DF70	44.979	16.7091	""	""	Prijedor	""	29952717	2025-01-18T10:54:50	3	NO ERROR	0.29	100	1022.04	0.17	0.17	0.17
330	363171	Vazduh	Libelium	0004A30B0021DF70	44.979	16.7091	""	""	Prijedor	""	29952976	2025-01-18T11:55:32	3	NO ERROR	0.43	100	1021.43	0.35	0.37	0.37
331	363171	Vazduh	Libelium	0004A30B0021DF70	44.979	16.7091	""	""	Prijedor	""	29953291	2025-01-18T12:56:14	3	NO ERROR	0.63	100	1020.81	0.13	0.21	0.21
332	363171	Vazduh	Libelium	0004A30B0021DF70	44.979	16.7091	""	""	Prijedor	""	29953626	2025-01-18T13:56:56	3	NO ERROR	0.63	100	1020.46	0.25	0.26	0.26
333	363171	Vazduh	Libelium	0004A30B0021DF70	44.979	16.7091	""	""	Prijedor	""	29953911	2025-01-18T14:57:39	3	NO ERROR	0.49	100	1020.26	0.33	0.36	0.36
334	363171	Vazduh	Libelium	0004A30B0021DF70	44.979	16.7091	""	""	Prijedor	""	29954173	2025-01-18T15:58:21	3	NO ERROR	0.38	100	1019.87	0.23	0.33	0.35
335	363171	Vazduh	Libelium	0004A30B0021DF70	44.979	16.7091	""	""	Prijedor	""	29954480	2025-01-18T16:59:03	3	NO ERROR	0.09	100	1020.03	0.47	0.5	0.5
336	363171	Vazduh	Libelium	0004A30B0021DF70	44.979	16.7091	""	""	Prijedor	""	29954709	2025-01-18T17:59:45	3	NO ERROR	-0.08	100	1019.62	0.37	0.4	0.4
337	363171	Vazduh	Libelium	0004A30B0021DF70	44.979	16.7091	""	""	Prijedor	""	29954917	2025-01-18T19:00:27	3	NO ERROR	-0.27	100	1019.5	0.12	0.12	0.12
338	363171	Vazduh	Libelium	0004A30B0021DF70	44.979	16.7091	""	""	Prijedor	""	29955239	2025-01-18T20:01:09	3	NO ERROR	-0.3	100	1019.21	0.1	0.1	0.1
339	363171	Vazduh	Libelium	0004A30B0021DF70	44.979	16.7091	""	""	Prijedor	""	29955574	2025-01-18T21:01:57	3	NO ERROR	-0.35	100	1019.08	0.23	0.24	0.24
340	363171	Vazduh	Libelium	0004A30B0021DF70	44.979	16.7091	""	""	Prijedor	""	29955832	2025-01-18T22:02:39	3	NO ERROR	-0.25	100	1018.79	0.2	0.22	0.22
341	363171	Vazduh	Libelium	0004A30B0021DF70	44.979	16.7091	""	""	Prijedor	""	29956183	2025-01-18T23:03:21	3	NO ERROR	-0.24	100	1019.13	0.32	0.34	0.34
342	363171	Vazduh	Libelium	0004A30B0021DF70	44.979	16.7091	""	""	Prijedor	""	29956451	2025-01-19T00:04:03	3	NO ERROR	-0.41	100	1018.98	0.14	0.15	0.15
343	363171	Vazduh	Libelium	0004A30B0021DF70	44.979	16.7091	""	""	Prijedor	""	29956688	2025-01-19T01:04:45	3	NO ERROR	-0.5	100	1018.41	0.05	0.05	0.05
344	363171	Vazduh	Libelium	0004A30B0021DF70	44.979	16.7091	""	""	Prijedor	""	29956987	2025-01-19T02:05:28	3	NO ERROR	-0.74	100	1017.82	1.02	1.16	1.16
345	363171	Vazduh	Libelium	0004A30B0021DF70	44.979	16.7091	""	""	Prijedor	""	29957200	2025-01-19T03:06:10	3	NO ERROR	-1.07	100	1017.35	0.08	0.09	0.09
346	363171	Vazduh	Libelium	0004A30B0021DF70	44.979	16.7091	""	""	Prijedor	""	29957462	2025-01-19T04:06:52	3	NO ERROR	-0.99	100	1016.92	0.27	0.29	0.29
347	363171	Vazduh	Libelium	0004A30B0021DF70	44.979	16.7091	""	""	Prijedor	""	29957833	2025-01-19T05:07:40	3	NO ERROR	-0.94	100	1016.78	0.33	0.41	0.41
348	363171	Vazduh	Libelium	0004A30B0021DF70	44.979	16.7091	""	""	Prijedor	""	29958155	2025-01-19T06:08:22	3	NO ERROR	-1.02	100	1016.74	0.12	0.15	0.15
349	363171	Vazduh	Libelium	0004A30B0021DF70	44.979	16.7091	""	""	Prijedor	""	29958434	2025-01-19T07:09:04	3	NO ERROR	-0.89	100	1016.81	0.1	0.1	0.1
350	363171	Vazduh	Libelium	0004A30B0021DF70	44.979	16.7091	""	""	Prijedor	""	29958732	2025-01-19T08:09:52	3	NO ERROR	-0.9	100	1016.8	0.35	0.41	0.41
351	363171	Vazduh	Libelium	0004A30B0021DF70	44.979	16.7091	""	""	Prijedor	""	29958982	2025-01-19T09:10:40	3	NO ERROR	-0.95	100	1016.92	0.47	0.54	0.54
352	363171	Vazduh	Libelium	0004A30B0021DF70	44.979	16.7091	""	""	Prijedor	""	29959258	2025-01-19T10:11:22	3	NO ERROR	-0.78	100	1016.85	0.12	0.12	0.12
353	363171	Vazduh	Libelium	0004A30B0021DF70	44.979	16.7091	""	""	Prijedor	""	29959543	2025-01-19T11:12:04	3	NO ERROR	-0.56	100	1016.53	0.03	0.03	0.03
354	363171	Vazduh	Libelium	0004A30B0021DF70	44.979	16.7091	""	""	Prijedor	""	29960133	2025-01-19T13:13:41	3	NO ERROR	-0.62	100	1015.59	0.07	0.07	0.07
355	363171	Vazduh	Libelium	0004A30B0021DF70	44.979	16.7091	""	""	Prijedor	""	29960480	2025-01-19T14:14:23	3	NO ERROR	-0.17	100	1015.21	0.37	0.39	0.39
356	363171	Vazduh	Libelium	0004A30B0021DF70	44.979	16.7091	""	""	Prijedor	""	29960776	2025-01-19T15:15:05	3	NO ERROR	-0.24	100	1015.04	0.15	0.15	0.15
357	363171	Vazduh	Libelium	0004A30B0021DF70	44.979	16.7091	""	""	Prijedor	""	29961016	2025-01-19T16:15:47	3	NO ERROR	-0.43	100	1014.83	0.05	0.05	0.05
358	363171	Vazduh	Libelium	0004A30B0021DF70	44.979	16.7091	""	""	Prijedor	""	29961283	2025-01-19T17:16:29	3	NO ERROR	-0.5	100	1015	0.07	0.07	0.07
359	363171	Vazduh	Libelium	0004A30B0021DF70	44.979	16.7091	""	""	Prijedor	""	29961536	2025-01-19T18:17:11	3	NO ERROR	-0.55	100	1014.95	0.56	0.6	0.6
360	363171	Vazduh	Libelium	0004A30B0021DF70	44.979	16.7091	""	""	Prijedor	""	29961763	2025-01-19T19:17:53	3	NO ERROR	-0.41	100	1015.21	0.08	0.09	0.09
361	363171	Vazduh	Libelium	0004A30B0021DF70	44.979	16.7091	""	""	Prijedor	""	29962068	2025-01-19T20:18:35	3	NO ERROR	-0.46	100	1015.05	0.04	0.05	0.05
362	363171	Vazduh	Libelium	0004A30B0021DF70	44.979	16.7091	""	""	Prijedor	""	29962353	2025-01-19T21:19:17	3	NO ERROR	-0.64	100	1015.18	0.13	0.14	0.14
363	363171	Vazduh	Libelium	0004A30B0021DF70	44.979	16.7091	""	""	Prijedor	""	29962640	2025-01-19T22:19:59	3	NO ERROR	-0.67	100	1014.95	0.21	0.23	0.23
364	363171	Vazduh	Libelium	0004A30B0021DF70	44.979	16.7091	""	""	Prijedor	""	29962954	2025-01-19T23:20:41	3	NO ERROR	-0.7	100	1015.04	0.05	0.05	0.05
365	363171	Vazduh	Libelium	0004A30B0021DF70	44.979	16.7091	""	""	Prijedor	""	29963190	2025-01-20T00:21:30	3	NO ERROR	-0.71	100	1014.65	0.08	0.09	0.09
366	363171	Vazduh	Libelium	0004A30B0021DF70	44.979	16.7091	""	""	Prijedor	""	29963724	2025-01-20T02:23:00	3	NO ERROR	-0.76	100	1014.26	0.67	0.73	0.73
367	363171	Vazduh	Libelium	0004A30B0021DF70	44.979	16.7091	""	""	Prijedor	""	29963951	2025-01-20T03:23:48	3	NO ERROR	-0.86	100	1013.95	0.35	0.46	0.77
368	363171	Vazduh	Libelium	0004A30B0021DF70	44.979	16.7091	""	""	Prijedor	""	29964244	2025-01-20T04:24:30	3	NO ERROR	-0.79	100	1013.54	0.8	0.87	0.87
369	363171	Vazduh	Libelium	0004A30B0021DF70	44.979	16.7091	""	""	Prijedor	""	29964599	2025-01-20T05:25:12	3	NO ERROR	-0.99	100	1013.55	0.2	0.21	0.21
370	363171	Vazduh	Libelium	0004A30B0021DF70	44.979	16.7091	""	""	Prijedor	""	29964880	2025-01-20T06:25:54	3	NO ERROR	-1.27	100	1013.34	0.79	0.91	0.91
371	363171	Vazduh	Libelium	0004A30B0021DF70	44.979	16.7091	""	""	Prijedor	""	29965148	2025-01-20T07:26:36	3	NO ERROR	-1.01	100	1013.53	0.61	0.64	0.64
372	363171	Vazduh	Libelium	0004A30B0021DF70	44.979	16.7091	""	""	Prijedor	""	29965483	2025-01-20T08:27:18	3	NO ERROR	-0.92	100	1013.39	0.15	0.15	0.15
373	363171	Vazduh	Libelium	0004A30B0021DF70	44.979	16.7091	""	""	Prijedor	""	29965701	2025-01-20T09:28:00	3	NO ERROR	-0.74	100	1013.66	0.34	0.39	0.39
374	363171	Vazduh	Libelium	0004A30B0021DF70	44.979	16.7091	""	""	Prijedor	""	29966254	2025-01-20T11:29:49	3	NO ERROR	-0.08	100	1013.21	0.39	0.53	0.54
375	363171	Vazduh	Libelium	0004A30B0021DF70	44.979	16.7091	""	""	Prijedor	""	29966551	2025-01-20T12:30:31	3	NO ERROR	0.53	100	1012.56	0.04	0.08	0.09
376	363171	Vazduh	Libelium	0004A30B0021DF70	44.979	16.7091	""	""	Prijedor	""	29966858	2025-01-20T13:31:13	3	NO ERROR	0.57	100	1012.35	0.07	0.07	0.07
377	363171	Vazduh	Libelium	0004A30B0021DF70	44.979	16.7091	""	""	Prijedor	""	29967183	2025-01-20T14:31:55	3	NO ERROR	0.42	100	1011.66	0.47	0.5	0.5
378	363171	Vazduh	Libelium	0004A30B0021DF70	44.979	16.7091	""	""	Prijedor	""	29967473	2025-01-20T15:32:37	3	NO ERROR	0.28	100	1011.27	0.58	0.61	0.61
379	363171	Vazduh	Libelium	0004A30B0021DF70	44.979	16.7091	""	""	Prijedor	""	29967746	2025-01-20T16:33:19	3	NO ERROR	0.18	100	1011.16	0.41	0.44	0.44
380	363171	Vazduh	Libelium	0004A30B0021DF70	44.979	16.7091	""	""	Prijedor	""	29968002	2025-01-20T17:34:01	3	NO ERROR	-0.13	100	1011	0.64	0.69	0.69
381	363171	Vazduh	Libelium	0004A30B0021DF70	44.979	16.7091	""	""	Prijedor	""	29968255	2025-01-20T18:34:43	3	NO ERROR	0.09	100	1010.95	0.22	0.26	0.26
382	363171	Vazduh	Libelium	0004A30B0021DF70	44.979	16.7091	""	""	Prijedor	""	29968495	2025-01-20T19:35:25	3	NO ERROR	-0.09	100	1010.52	0.81	0.98	0.99
383	363171	Vazduh	Libelium	0004A30B0021DF70	44.979	16.7091	""	""	Prijedor	""	29968831	2025-01-20T20:36:07	3	NO ERROR	0.07	100	1010.3	0.59	0.64	0.64
384	363171	Vazduh	Libelium	0004A30B0021DF70	44.979	16.7091	""	""	Prijedor	""	29969131	2025-01-20T21:36:49	3	NO ERROR	-0.16	100	1010.12	1.06	1.2	1.2
385	363171	Vazduh	Libelium	0004A30B0021DF70	44.979	16.7091	""	""	Prijedor	""	29969419	2025-01-20T22:37:31	3	NO ERROR	-0.27	100	1009.72	1.35	1.52	1.53
386	363171	Vazduh	Libelium	0004A30B0021DF70	44.979	16.7091	""	""	Prijedor	""	29969700	2025-01-20T23:38:20	3	NO ERROR	-0.42	100	1009.54	1.56	1.76	1.76
387	363171	Vazduh	Libelium	0004A30B0021DF70	44.979	16.7091	""	""	Prijedor	""	29969954	2025-01-21T00:39:02	3	NO ERROR	-0.19	100	1008.82	0.6	0.67	0.67
388	363171	Vazduh	Libelium	0004A30B0021DF70	44.979	16.7091	""	""	Prijedor	""	29970226	2025-01-21T01:39:44	3	NO ERROR	-0.13	100	1008.49	1.18	1.32	1.32
389	363171	Vazduh	Libelium	0004A30B0021DF70	44.979	16.7091	""	""	Prijedor	""	29970508	2025-01-21T02:40:38	3	NO ERROR	-0.15	100	1008.26	0.39	0.44	0.44
390	363171	Vazduh	Libelium	0004A30B0021DF70	44.979	16.7091	""	""	Prijedor	""	29970738	2025-01-21T03:41:20	3	NO ERROR	-0.46	100	1007.46	1.13	1.2	1.2
391	363171	Vazduh	Libelium	0004A30B0021DF70	44.979	16.7091	""	""	Prijedor	""	29971088	2025-01-21T04:42:02	3	NO ERROR	-0.42	100	1007.45	1.91	2.11	2.14
392	363171	Vazduh	Libelium	0004A30B0021DF70	44.979	16.7091	""	""	Prijedor	""	29971419	2025-01-21T05:42:44	3	NO ERROR	-0.5	100	1006.94	1.97	2.27	2.27
393	363171	Vazduh	Libelium	0004A30B0021DF70	44.979	16.7091	""	""	Prijedor	""	29971693	2025-01-21T06:43:26	3	NO ERROR	-0.65	100	1006.56	2.26	2.51	2.51
394	363171	Vazduh	Libelium	0004A30B0021DF70	44.979	16.7091	""	""	Prijedor	""	29971973	2025-01-21T07:44:08	3	NO ERROR	-0.34	100	1006.42	0.94	1.03	1.03
395	363171	Vazduh	Libelium	0004A30B0021DF70	44.979	16.7091	""	""	Prijedor	""	29972276	2025-01-21T08:44:50	3	NO ERROR	0.13	100	1005.93	0.92	1.01	1.01
396	363171	Vazduh	Libelium	0004A30B0021DF70	44.979	16.7091	""	""	Prijedor	""	29972506	2025-01-21T09:45:32	3	NO ERROR	0.74	100	1006.25	0.26	0.27	0.27
397	363171	Vazduh	Libelium	0004A30B0021DF70	44.979	16.7091	""	""	Prijedor	""	29972791	2025-01-21T10:46:14	3	NO ERROR	1.41	100	1006.1	0.25	0.31	0.31
398	363171	Vazduh	Libelium	0004A30B0021DF70	44.979	16.7091	""	""	Prijedor	""	29973077	2025-01-21T11:46:57	3	NO ERROR	1.93	100	1005.5	0.36	0.39	0.39
399	363171	Vazduh	Libelium	0004A30B0021DF70	44.979	16.7091	""	""	Prijedor	""	29973384	2025-01-21T12:47:39	3	NO ERROR	3.18	100	1004.88	0.51	0.63	0.66
400	363171	Vazduh	Libelium	0004A30B0021DF70	44.979	16.7091	""	""	Prijedor	""	29973696	2025-01-21T13:48:21	3	NO ERROR	3.83	100	1004.05	0.55	0.59	0.59
401	363171	Vazduh	Libelium	0004A30B0021DF70	44.979	16.7091	""	""	Prijedor	""	29973998	2025-01-21T14:49:03	3	NO ERROR	4.35	97.4	1003.95	0.82	0.87	0.87
402	363171	Vazduh	Libelium	0004A30B0021DF70	44.979	16.7091	""	""	Prijedor	""	29974243	2025-01-21T15:49:45	3	NO ERROR	3.04	100	1003.86	0.61	0.69	0.69
403	363171	Vazduh	Libelium	0004A30B0021DF70	44.979	16.7091	""	""	Prijedor	""	29974530	2025-01-21T16:50:27	3	NO ERROR	2.46	100	1004.1	0.32	0.39	0.4
404	363171	Vazduh	Libelium	0004A30B0021DF70	44.979	16.7091	""	""	Prijedor	""	29974774	2025-01-21T17:51:09	3	NO ERROR	2.12	100	1004.55	0.64	0.75	0.78
405	363171	Vazduh	Libelium	0004A30B0021DF70	44.979	16.7091	""	""	Prijedor	""	29975018	2025-01-21T18:51:51	3	NO ERROR	1.87	100	1004.75	0.91	0.98	0.98
406	363171	Vazduh	Libelium	0004A30B0021DF70	44.979	16.7091	""	""	Prijedor	""	29975282	2025-01-21T19:52:33	3	NO ERROR	1.47	100	1004.55	1	1.18	1.2
407	363171	Vazduh	Libelium	0004A30B0021DF70	44.979	16.7091	""	""	Prijedor	""	29975637	2025-01-21T20:53:21	3	NO ERROR	1.28	100	1004.47	1.07	1.16	1.17
408	363171	Vazduh	Libelium	0004A30B0021DF70	44.979	16.7091	""	""	Prijedor	""	29975895	2025-01-21T21:54:03	3	NO ERROR	1.41	100	1004.52	1.02	1.09	1.09
409	363171	Vazduh	Libelium	0004A30B0021DF70	44.979	16.7091	""	""	Prijedor	""	29976201	2025-01-21T22:54:45	3	NO ERROR	1.31	100	1004.72	1.21	1.29	1.29
410	363171	Vazduh	Libelium	0004A30B0021DF70	44.979	16.7091	""	""	Prijedor	""	29976478	2025-01-21T23:55:27	3	NO ERROR	1.23	100	1004.53	1.2	1.28	1.28
411	363171	Vazduh	Libelium	0004A30B0021DF70	44.979	16.7091	""	""	Prijedor	""	29976742	2025-01-22T00:56:10	3	NO ERROR	1.35	100	1004.46	1.09	1.13	1.13
412	363171	Vazduh	Libelium	0004A30B0021DF70	44.979	16.7091	""	""	Prijedor	""	29977015	2025-01-22T01:56:52	3	NO ERROR	1.45	100	1004.32	0.64	0.69	0.69
413	363171	Vazduh	Libelium	0004A30B0021DF70	44.979	16.7091	""	""	Prijedor	""	29977281	2025-01-22T02:57:34	3	NO ERROR	1.5	100	1004.34	0.32	0.34	0.34
414	363171	Vazduh	Libelium	0004A30B0021DF70	44.979	16.7091	""	""	Prijedor	""	29977540	2025-01-22T03:58:16	3	NO ERROR	1.45	100	1003.9	1.62	1.83	1.83
415	363171	Vazduh	Libelium	0004A30B0021DF70	44.979	16.7091	""	""	Prijedor	""	29977917	2025-01-22T04:58:58	3	NO ERROR	1.28	100	1003.71	1.26	1.54	1.58
416	363171	Vazduh	Libelium	0004A30B0021DF70	44.979	16.7091	""	""	Prijedor	""	29978195	2025-01-22T05:59:40	3	NO ERROR	1.37	100	1003.85	1.24	1.4	1.42
417	363171	Vazduh	Libelium	0004A30B0021DF70	44.979	16.7091	""	""	Prijedor	""	29978480	2025-01-22T07:00:28	3	NO ERROR	1.33	100	1004.08	1.54	1.73	1.73
418	363171	Vazduh	Libelium	0004A30B0021DF70	44.979	16.7091	""	""	Prijedor	""	29978788	2025-01-22T08:01:10	3	NO ERROR	1.51	100	1003.89	1.33	1.49	1.49
419	363171	Vazduh	Libelium	0004A30B0021DF70	44.979	16.7091	""	""	Prijedor	""	29979044	2025-01-22T09:01:52	3	NO ERROR	3.59	100	1003.93	0.52	0.64	0.64
420	363171	Vazduh	Libelium	0004A30B0021DF70	44.979	16.7091	""	""	Prijedor	""	29979300	2025-01-22T10:02:34	3	NO ERROR	3.65	100	1003.86	0.64	0.67	0.67
421	363171	Vazduh	Libelium	0004A30B0021DF70	44.979	16.7091	""	""	Prijedor	""	29979573	2025-01-22T11:03:16	3	NO ERROR	5.64	100	1003.76	0.28	0.36	0.37
422	363171	Vazduh	Libelium	0004A30B0021DF70	44.979	16.7091	""	""	Prijedor	""	29979870	2025-01-22T12:03:58	3	NO ERROR	6.19	100	1003.07	0.4	0.42	0.42
423	363171	Vazduh	Libelium	0004A30B0021DF70	44.979	16.7091	""	""	Prijedor	""	29980245	2025-01-22T13:04:41	3	NO ERROR	8.07	94.3	1002.32	0.22	0.25	0.25
424	363171	Vazduh	Libelium	0004A30B0021DF70	44.979	16.7091	""	""	Prijedor	""	29980622	2025-01-22T14:05:23	3	NO ERROR	9.23	90.6	1001.74	0.3	0.32	0.32
425	363171	Vazduh	Libelium	0004A30B0021DF70	44.979	16.7091	""	""	Prijedor	""	29980970	2025-01-22T15:06:05	3	NO ERROR	10.84	82	1001.59	0.64	0.79	0.79
426	363171	Vazduh	Libelium	0004A30B0021DF70	44.979	16.7091	""	""	Prijedor	""	29981263	2025-01-22T16:06:47	3	NO ERROR	7.96	99.6	1001.42	0.25	0.29	0.29
427	363171	Vazduh	Libelium	0004A30B0021DF70	44.979	16.7091	""	""	Prijedor	""	29981561	2025-01-22T17:07:35	3	NO ERROR	6.06	100	1001.45	0.7	0.82	0.83
428	363171	Vazduh	Libelium	0004A30B0021DF70	44.979	16.7091	""	""	Prijedor	""	29981843	2025-01-22T18:08:17	3	NO ERROR	4.73	100	1001.75	0.45	0.46	0.46
429	363171	Vazduh	Libelium	0004A30B0021DF70	44.979	16.7091	""	""	Prijedor	""	29982076	2025-01-22T19:08:59	3	NO ERROR	3.05	100	1001.77	1.37	1.5	1.5
430	363171	Vazduh	Libelium	0004A30B0021DF70	44.979	16.7091	""	""	Prijedor	""	29982380	2025-01-22T20:09:41	3	NO ERROR	2.99	100	1001.34	0.94	1.1	1.49
431	363171	Vazduh	Libelium	0004A30B0021DF70	44.979	16.7091	""	""	Prijedor	""	29982703	2025-01-22T21:10:23	3	NO ERROR	3.03	100	1001.21	0.7	0.82	0.82
432	363171	Vazduh	Libelium	0004A30B0021DF70	44.979	16.7091	""	""	Prijedor	""	29983008	2025-01-22T22:11:05	3	NO ERROR	3.12	100	1001.15	0.72	0.8	0.8
433	363171	Vazduh	Libelium	0004A30B0021DF70	44.979	16.7091	""	""	Prijedor	""	29983311	2025-01-22T23:11:47	3	NO ERROR	2.85	100	1000.98	1.45	1.51	1.51
434	363171	Vazduh	Libelium	0004A30B0021DF70	44.979	16.7091	""	""	Prijedor	""	29983576	2025-01-23T00:12:29	3	NO ERROR	2.01	100	1000.77	1.01	1.13	1.13
435	363171	Vazduh	Libelium	0004A30B0021DF70	44.979	16.7091	""	""	Prijedor	""	29983797	2025-01-23T01:13:11	3	NO ERROR	1.74	100	1000.16	2.3	2.53	2.53
436	363171	Vazduh	Libelium	0004A30B0021DF70	44.979	16.7091	""	""	Prijedor	""	29984129	2025-01-23T02:13:54	3	NO ERROR	1.24	100	999.8	1.66	1.83	1.83
437	363171	Vazduh	Libelium	0004A30B0021DF70	44.979	16.7091	""	""	Prijedor	""	29984377	2025-01-23T03:14:36	3	NO ERROR	1.15	100	999.32	1.42	1.56	1.56
438	363171	Vazduh	Libelium	0004A30B0021DF70	44.979	16.7091	""	""	Prijedor	""	29984680	2025-01-23T04:15:18	3	NO ERROR	1.26	100	998.71	1.23	1.37	1.37
439	363171	Vazduh	Libelium	0004A30B0021DF70	44.979	16.7091	""	""	Prijedor	""	29985061	2025-01-23T05:16:00	3	NO ERROR	0.66	100	998.54	1.69	1.86	1.87
440	363171	Vazduh	Libelium	0004A30B0021DF70	44.979	16.7091	""	""	Prijedor	""	29985399	2025-01-23T06:16:42	3	NO ERROR	0.47	100	998.5	1.75	1.84	1.84
441	363171	Vazduh	Libelium	0004A30B0021DF70	44.979	16.7091	""	""	Prijedor	""	29985686	2025-01-23T07:17:24	3	NO ERROR	0.49	100	998.46	1.92	2.14	2.14
442	363171	Vazduh	Libelium	0004A30B0021DF70	44.979	16.7091	""	""	Prijedor	""	29985981	2025-01-23T08:18:06	3	NO ERROR	1.52	100	998.26	1.32	1.43	1.43
443	363171	Vazduh	Libelium	0004A30B0021DF70	44.979	16.7091	""	""	Prijedor	""	29986227	2025-01-23T09:18:48	3	NO ERROR	4.22	100	998.19	0.28	0.3	0.3
444	363171	Vazduh	Libelium	0004A30B0021DF70	44.979	16.7091	""	""	Prijedor	""	29986514	2025-01-23T10:19:30	3	NO ERROR	7.05	100	998.21	0.1	0.11	0.11
445	363171	Vazduh	Libelium	0004A30B0021DF70	44.979	16.7091	""	""	Prijedor	""	29986810	2025-01-23T11:20:18	3	NO ERROR	9.13	100	997.57	0.63	0.68	0.68
446	363171	Vazduh	Libelium	0004A30B0021DF70	44.979	16.7091	""	""	Prijedor	""	29987131	2025-01-23T12:21:00	3	NO ERROR	9.45	100	997.1	0.12	0.12	0.12
447	363171	Vazduh	Libelium	0004A30B0021DF70	44.979	16.7091	""	""	Prijedor	""	29987469	2025-01-23T13:21:42	3	NO ERROR	13.64	95	996.23	0.01	0.03	0.03
448	363171	Vazduh	Libelium	0004A30B0021DF70	44.979	16.7091	""	""	Prijedor	""	29987832	2025-01-23T14:22:25	3	NO ERROR	15.85	83.9	995.82	0	0	0
449	363171	Vazduh	Libelium	0004A30B0021DF70	44.979	16.7091	""	""	Prijedor	""	29988202	2025-01-23T15:23:07	3	NO ERROR	14.74	86.4	995.77	0.1	0.34	0.54
450	363171	Vazduh	Libelium	0004A30B0021DF70	44.979	16.7091	""	""	Prijedor	""	29988532	2025-01-23T16:23:49	3	NO ERROR	13.08	94.8	995.94	0.45	0.62	0.64
451	363171	Vazduh	Libelium	0004A30B0021DF70	44.979	16.7091	""	""	Prijedor	""	29988813	2025-01-23T17:24:31	3	NO ERROR	12.18	100	996.74	0.28	0.31	0.31
452	363171	Vazduh	Libelium	0004A30B0021DF70	44.979	16.7091	""	""	Prijedor	""	29989092	2025-01-23T18:25:13	3	NO ERROR	11.9	100	997.31	0.54	0.85	1.03
453	363171	Vazduh	Libelium	0004A30B0021DF70	44.979	16.7091	""	""	Prijedor	""	29989374	2025-01-23T19:25:55	3	NO ERROR	11.08	100	997.69	0.39	0.46	0.46
454	363171	Vazduh	Libelium	0004A30B0021DF70	44.979	16.7091	""	""	Prijedor	""	29989707	2025-01-23T20:26:37	3	NO ERROR	11.1	100	997.94	0.36	0.51	0.52
455	363171	Vazduh	Libelium	0004A30B0021DF70	44.979	16.7091	""	""	Prijedor	""	29990047	2025-01-23T21:27:19	3	NO ERROR	10.35	100	998.2	0.55	0.61	0.61
456	363171	Vazduh	Libelium	0004A30B0021DF70	44.979	16.7091	""	""	Prijedor	""	29990309	2025-01-23T22:28:01	3	NO ERROR	9.13	100	998.24	1.16	1.5	1.51
457	363171	Vazduh	Libelium	0004A30B0021DF70	44.979	16.7091	""	""	Prijedor	""	29990635	2025-01-23T23:28:43	3	NO ERROR	8.75	100	999.04	0.48	0.58	0.58
458	363171	Vazduh	Libelium	0004A30B0021DF70	44.979	16.7091	""	""	Prijedor	""	29990929	2025-01-24T00:29:25	3	NO ERROR	8.98	100	999.52	0.68	0.85	0.86
459	363171	Vazduh	Libelium	0004A30B0021DF70	44.979	16.7091	""	""	Prijedor	""	29991175	2025-01-24T01:30:07	3	NO ERROR	8.76	100	999.97	0.8	1.32	1.94
460	363171	Vazduh	Libelium	0004A30B0021DF70	44.979	16.7091	""	""	Prijedor	""	29991434	2025-01-24T02:30:49	3	NO ERROR	8.84	100	1000.47	0.39	0.47	0.47
461	363171	Vazduh	Libelium	0004A30B0021DF70	44.979	16.7091	""	""	Prijedor	""	29991698	2025-01-24T03:31:31	3	NO ERROR	8.37	100	1000.3	0.25	0.28	0.28
462	363171	Vazduh	Libelium	0004A30B0021DF70	44.979	16.7091	""	""	Prijedor	""	29991991	2025-01-24T04:32:14	3	NO ERROR	7.36	100	1000.38	0.05	0.05	0.05
463	363171	Vazduh	Libelium	0004A30B0021DF70	44.979	16.7091	""	""	Prijedor	""	29992319	2025-01-24T05:32:56	3	NO ERROR	6.98	100	1001.18	0.03	0.03	0.03
464	363171	Vazduh	Libelium	0004A30B0021DF70	44.979	16.7091	""	""	Prijedor	""	29992609	2025-01-24T06:33:38	3	NO ERROR	6.73	100	1002.02	0.37	0.47	0.47
465	363171	Vazduh	Libelium	0004A30B0021DF70	44.979	16.7091	""	""	Prijedor	""	29992898	2025-01-24T07:34:20	3	NO ERROR	6.27	100	1003.34	0.33	0.41	0.41
466	363171	Vazduh	Libelium	0004A30B0021DF70	44.979	16.7091	""	""	Prijedor	""	29993180	2025-01-24T08:35:02	3	NO ERROR	6.52	100	1004.11	0.2	0.21	0.21
467	363171	Vazduh	Libelium	0004A30B0021DF70	44.979	16.7091	""	""	Prijedor	""	29993435	2025-01-24T09:35:50	3	NO ERROR	6.56	100	1004.87	0.07	0.07	0.07
468	363171	Vazduh	Libelium	0004A30B0021DF70	44.979	16.7091	""	""	Prijedor	""	29993719	2025-01-24T10:36:32	3	NO ERROR	6.93	100	1005.88	0.02	0.02	0.02
469	363171	Vazduh	Libelium	0004A30B0021DF70	44.979	16.7091	""	""	Prijedor	""	29993980	2025-01-24T11:37:14	3	NO ERROR	7.4	100	1005.63	0.15	0.17	0.17
470	363171	Vazduh	Libelium	0004A30B0021DF70	44.979	16.7091	""	""	Prijedor	""	29994309	2025-01-24T12:38:08	3	NO ERROR	8.15	100	1005.16	0.07	0.07	0.07
471	363171	Vazduh	Libelium	0004A30B0021DF70	44.979	16.7091	""	""	Prijedor	""	29994660	2025-01-24T13:39:03	3	NO ERROR	8.91	100	1004.48	0.02	0.02	0.02
472	363171	Vazduh	Libelium	0004A30B0021DF70	44.979	16.7091	""	""	Prijedor	""	29995001	2025-01-24T14:39:50	3	NO ERROR	8.85	100	1005.07	0	0	0
473	363171	Vazduh	Libelium	0004A30B0021DF70	44.979	16.7091	""	""	Prijedor	""	29995352	2025-01-24T15:40:32	3	NO ERROR	8.81	100	1004.78	0	0	0
474	363171	Vazduh	Libelium	0004A30B0021DF70	44.979	16.7091	""	""	Prijedor	""	29995711	2025-01-24T16:41:14	3	NO ERROR	8.53	100	1004.71	0	0	0
475	363171	Vazduh	Libelium	0004A30B0021DF70	44.979	16.7091	""	""	Prijedor	""	29995993	2025-01-24T17:41:56	3	NO ERROR	8.24	100	1004.72	0.02	0.02	0.02
476	363171	Vazduh	Libelium	0004A30B0021DF70	44.979	16.7091	""	""	Prijedor	""	29996308	2025-01-24T18:42:39	3	NO ERROR	8.2	100	1004.74	0	0	0
477	363171	Vazduh	Libelium	0004A30B0021DF70	44.979	16.7091	""	""	Prijedor	""	29996618	2025-01-24T19:43:21	3	NO ERROR	8.09	100	1004.95	0	0	0
478	363171	Vazduh	Libelium	0004A30B0021DF70	44.979	16.7091	""	""	Prijedor	""	29996964	2025-01-24T20:44:03	3	NO ERROR	7.67	100	1004.88	0	0	0
479	363171	Vazduh	Libelium	0004A30B0021DF70	44.979	16.7091	""	""	Prijedor	""	29997305	2025-01-24T21:44:45	3	NO ERROR	7.45	100	1004.92	0.08	0.1	0.1
480	363171	Vazduh	Libelium	0004A30B0021DF70	44.979	16.7091	""	""	Prijedor	""	29997637	2025-01-24T22:45:27	3	NO ERROR	6.99	100	1005.22	0	0	0
481	363171	Vazduh	Libelium	0004A30B0021DF70	44.979	16.7091	""	""	Prijedor	""	29997930	2025-01-24T23:46:09	3	NO ERROR	7.05	100	1005.48	0.25	0.27	0.27
482	363171	Vazduh	Libelium	0004A30B0021DF70	44.979	16.7091	""	""	Prijedor	""	29998198	2025-01-25T00:46:51	3	NO ERROR	7.11	100	1005.32	0.08	0.12	0.13
483	363171	Vazduh	Libelium	0004A30B0021DF70	44.979	16.7091	""	""	Prijedor	""	29998469	2025-01-25T01:47:33	3	NO ERROR	6.69	100	1005.31	0.2	0.22	0.22
484	363171	Vazduh	Libelium	0004A30B0021DF70	44.979	16.7091	""	""	Prijedor	""	29998737	2025-01-25T02:48:15	3	NO ERROR	6.38	100	1005.34	0.1	0.16	0.17
485	363171	Vazduh	Libelium	0004A30B0021DF70	44.979	16.7091	""	""	Prijedor	""	29998973	2025-01-25T03:48:57	3	NO ERROR	5.59	100	1005.02	0.79	2.38	7.27
486	363171	Vazduh	Libelium	0004A30B0021DF70	44.979	16.7091	""	""	Prijedor	""	29999281	2025-01-25T04:49:39	3	NO ERROR	4.75	100	1004.74	1.45	8.51	44.67
487	363171	Vazduh	Libelium	0004A30B0021DF70	44.979	16.7091	""	""	Prijedor	""	29999797	2025-01-25T06:51:15	3	NO ERROR	4.8	100	1005.52	5.17	11.44	65.64
488	363171	Vazduh	Libelium	0004A30B0021DF70	44.979	16.7091	""	""	Prijedor	""	30000054	2025-01-25T07:51:58	3	NO ERROR	4.59	100	1005.99	1.63	9.91	150.77
489	363171	Vazduh	Libelium	0004A30B0021DF70	44.979	16.7091	""	""	Prijedor	""	30000307	2025-01-25T08:52:40	3	NO ERROR	4.2	100	1005.85	0.82	4.6	24.53
490	363171	Vazduh	Libelium	0004A30B0021DF70	44.979	16.7091	""	""	Prijedor	""	30000526	2025-01-25T09:53:22	3	NO ERROR	4.72	100	1006.34	1	4.62	22.19
491	363171	Vazduh	Libelium	0004A30B0021DF70	44.979	16.7091	""	""	Prijedor	""	30000803	2025-01-25T10:54:10	3	NO ERROR	5.23	100	1006.15	0.83	3.62	13.46
492	363171	Vazduh	Libelium	0004A30B0021DF70	44.979	16.7091	""	""	Prijedor	""	30001059	2025-01-25T11:54:52	3	NO ERROR	6.94	100	1005.35	0.05	0.05	0.05
493	363171	Vazduh	Libelium	0004A30B0021DF70	44.979	16.7091	""	""	Prijedor	""	30001357	2025-01-25T12:55:34	3	NO ERROR	7.46	100	1004.46	0.08	0.1	0.1
494	363171	Vazduh	Libelium	0004A30B0021DF70	44.979	16.7091	""	""	Prijedor	""	30001702	2025-01-25T13:56:16	3	NO ERROR	9.91	100	1003.91	0.03	0.05	0.05
495	363171	Vazduh	Libelium	0004A30B0021DF70	44.979	16.7091	""	""	Prijedor	""	30002041	2025-01-25T14:56:58	3	NO ERROR	13.03	100	1003.55	0.09	0.2	0.29
496	363171	Vazduh	Libelium	0004A30B0021DF70	44.979	16.7091	""	""	Prijedor	""	30002315	2025-01-25T15:57:40	3	NO ERROR	12.27	100	1003.33	0.06	0.08	0.09
497	363171	Vazduh	Libelium	0004A30B0021DF70	44.979	16.7091	""	""	Prijedor	""	30002625	2025-01-25T16:58:22	3	NO ERROR	10.19	100	1003.63	0.38	0.45	0.45
498	363171	Vazduh	Libelium	0004A30B0021DF70	44.979	16.7091	""	""	Prijedor	""	30002892	2025-01-25T17:59:04	3	NO ERROR	9.07	100	1003.78	0.56	0.73	0.74
499	363171	Vazduh	Libelium	0004A30B0021DF70	44.979	16.7091	""	""	Prijedor	""	30003183	2025-01-25T18:59:46	3	NO ERROR	7.85	100	1003.86	0.63	0.67	0.67
500	363171	Vazduh	Libelium	0004A30B0021DF70	44.979	16.7091	""	""	Prijedor	""	30003477	2025-01-25T20:00:35	3	NO ERROR	6.42	100	1003.83	0.59	0.67	0.67
501	363171	Vazduh	Libelium	0004A30B0021DF70	44.979	16.7091	""	""	Prijedor	""	30003803	2025-01-25T21:01:23	3	NO ERROR	5.58	100	1003.83	0.47	0.56	0.56
502	363171	Vazduh	Libelium	0004A30B0021DF70	44.979	16.7091	""	""	Prijedor	""	30004070	2025-01-25T22:02:05	3	NO ERROR	4.96	100	1003.94	0.18	0.21	0.21
503	363171	Vazduh	Libelium	0004A30B0021DF70	44.979	16.7091	""	""	Prijedor	""	30004384	2025-01-25T23:02:47	3	NO ERROR	4.61	100	1003.65	0.21	0.27	0.27
504	363171	Vazduh	Libelium	0004A30B0021DF70	44.979	16.7091	""	""	Prijedor	""	30004653	2025-01-26T00:03:29	3	NO ERROR	4.14	100	1003.84	0.13	0.18	0.18
505	363171	Vazduh	Libelium	0004A30B0021DF70	44.979	16.7091	""	""	Prijedor	""	30004926	2025-01-26T01:04:11	3	NO ERROR	3.83	100	1003.15	0.3	0.38	0.38
506	363171	Vazduh	Libelium	0004A30B0021DF70	44.979	16.7091	""	""	Prijedor	""	30005242	2025-01-26T02:04:53	3	NO ERROR	4.21	100	1002.84	0.19	0.2	0.2
507	363171	Vazduh	Libelium	0004A30B0021DF70	44.979	16.7091	""	""	Prijedor	""	30005519	2025-01-26T03:05:35	3	NO ERROR	3.48	100	1002.2	0.07	0.07	0.07
508	363171	Vazduh	Libelium	0004A30B0021DF70	44.979	16.7091	""	""	Prijedor	""	30005789	2025-01-26T04:06:17	3	NO ERROR	3.4	100	1001.74	0.03	0.03	0.03
509	363171	Vazduh	Libelium	0004A30B0021DF70	44.979	16.7091	""	""	Prijedor	""	30006144	2025-01-26T05:06:59	3	NO ERROR	3.15	100	1001.93	0.05	0.05	0.05
510	363171	Vazduh	Libelium	0004A30B0021DF70	44.979	16.7091	""	""	Prijedor	""	30006436	2025-01-26T06:07:41	3	NO ERROR	3.67	100	1001.81	0.21	0.23	0.23
511	363171	Vazduh	Libelium	0004A30B0021DF70	44.979	16.7091	""	""	Prijedor	""	30006706	2025-01-26T07:08:23	3	NO ERROR	3.76	100	1001.77	0	0	0
512	363171	Vazduh	Libelium	0004A30B0021DF70	44.979	16.7091	""	""	Prijedor	""	30007005	2025-01-26T08:09:05	3	NO ERROR	4.29	100	1001.91	0.44	0.53	0.53
513	363171	Vazduh	Libelium	0004A30B0021DF70	44.979	16.7091	""	""	Prijedor	""	30007290	2025-01-26T09:09:47	3	NO ERROR	5.44	100	1001.31	0.28	0.38	0.39
514	363171	Vazduh	Libelium	0004A30B0021DF70	44.979	16.7091	""	""	Prijedor	""	30007587	2025-01-26T10:10:30	3	NO ERROR	7.33	100	1001.05	0.23	0.45	0.67
515	363171	Vazduh	Libelium	0004A30B0021DF70	44.979	16.7091	""	""	Prijedor	""	30007893	2025-01-26T11:11:12	3	NO ERROR	9.55	100	1000.04	0.22	0.28	0.29
516	363171	Vazduh	Libelium	0004A30B0021DF70	44.979	16.7091	""	""	Prijedor	""	30008153	2025-01-26T12:11:54	3	NO ERROR	10.42	100	999.39	0.06	0.07	0.07
517	363171	Vazduh	Libelium	0004A30B0021DF70	44.979	16.7091	""	""	Prijedor	""	30008453	2025-01-26T13:12:36	3	NO ERROR	15.17	92.2	999.25	0.01	0.03	0.03
518	363171	Vazduh	Libelium	0004A30B0021DF70	44.979	16.7091	""	""	Prijedor	""	30008814	2025-01-26T14:13:18	3	NO ERROR	15.02	82.2	998.63	0.45	0.49	0.49
519	363171	Vazduh	Libelium	0004A30B0021DF70	44.979	16.7091	""	""	Prijedor	""	30009126	2025-01-26T15:14:00	3	NO ERROR	15.49	89.9	998.32	0.07	0.28	1.59
520	363171	Vazduh	Libelium	0004A30B0021DF70	44.979	16.7091	""	""	Prijedor	""	30009411	2025-01-26T16:14:42	3	NO ERROR	14.57	84.9	998.8	0.11	0.16	0.16
521	363171	Vazduh	Libelium	0004A30B0021DF70	44.979	16.7091	""	""	Prijedor	""	30009703	2025-01-26T17:15:24	3	NO ERROR	14.61	72.8	999.9	0.13	0.15	0.15
522	363171	Vazduh	Libelium	0004A30B0021DF70	44.979	16.7091	""	""	Prijedor	""	30009956	2025-01-26T18:16:06	3	NO ERROR	10.26	100	1001.42	0.07	0.07	0.07
523	363171	Vazduh	Libelium	0004A30B0021DF70	44.979	16.7091	""	""	Prijedor	""	30010173	2025-01-26T19:16:48	3	NO ERROR	8.93	100	1001.45	0.18	0.27	0.27
524	363171	Vazduh	Libelium	0004A30B0021DF70	44.979	16.7091	""	""	Prijedor	""	30010452	2025-01-26T20:17:30	3	NO ERROR	8.07	100	1001.96	0.08	0.1	0.1
525	363171	Vazduh	Libelium	0004A30B0021DF70	44.979	16.7091	""	""	Prijedor	""	30010723	2025-01-26T21:18:12	3	NO ERROR	6.69	100	1002.21	0.14	0.19	0.19
526	363171	Vazduh	Libelium	0004A30B0021DF70	44.979	16.7091	""	""	Prijedor	""	30011009	2025-01-26T22:18:54	3	NO ERROR	5.7	100	1002.43	0.05	0.09	0.09
527	363171	Vazduh	Libelium	0004A30B0021DF70	44.979	16.7091	""	""	Prijedor	""	30011310	2025-01-26T23:19:36	3	NO ERROR	4.41	100	1002.82	0.15	0.17	0.17
528	363171	Vazduh	Libelium	0004A30B0021DF70	44.979	16.7091	""	""	Prijedor	""	30011570	2025-01-27T00:20:19	3	NO ERROR	4.34	100	1002.58	0.72	0.75	0.75
529	363171	Vazduh	Libelium	0004A30B0021DF70	44.979	16.7091	""	""	Prijedor	""	30011819	2025-01-27T01:21:01	3	NO ERROR	3.9	100	1002.62	0.07	0.09	0.09
530	363171	Vazduh	Libelium	0004A30B0021DF70	44.979	16.7091	""	""	Prijedor	""	30012127	2025-01-27T02:21:43	3	NO ERROR	3.86	100	1002.5	0.03	0.03	0.03
531	363171	Vazduh	Libelium	0004A30B0021DF70	44.979	16.7091	""	""	Prijedor	""	30012416	2025-01-27T03:22:25	3	NO ERROR	2.68	100	1001.83	0.15	0.16	0.16
532	363171	Vazduh	Libelium	0004A30B0021DF70	44.979	16.7091	""	""	Prijedor	""	30012719	2025-01-27T04:23:07	3	NO ERROR	2.38	100	1001.6	0.14	0.19	0.19
533	363171	Vazduh	Libelium	0004A30B0021DF70	44.979	16.7091	""	""	Prijedor	""	30013074	2025-01-27T05:23:49	3	NO ERROR	2.2	100	1001.02	0	0	0
534	363171	Vazduh	Libelium	0004A30B0021DF70	44.979	16.7091	""	""	Prijedor	""	30013375	2025-01-27T06:24:31	3	NO ERROR	2.55	100	1000.71	0.14	0.15	0.15
535	363171	Vazduh	Libelium	0004A30B0021DF70	44.979	16.7091	""	""	Prijedor	""	30013711	2025-01-27T07:25:13	3	NO ERROR	3.44	100	1000.25	0.05	0.08	0.08
536	363171	Vazduh	Libelium	0004A30B0021DF70	44.979	16.7091	""	""	Prijedor	""	30014093	2025-01-27T08:25:55	3	NO ERROR	3.49	100	1000.49	0.05	0.08	0.08
537	363171	Vazduh	Libelium	0004A30B0021DF70	44.979	16.7091	""	""	Prijedor	""	30014378	2025-01-27T09:26:37	3	NO ERROR	4.59	100	1000.9	0.11	0.11	0.11
538	363171	Vazduh	Libelium	0004A30B0021DF70	44.979	16.7091	""	""	Prijedor	""	30014720	2025-01-27T10:27:19	3	NO ERROR	6.73	100	1000.9	0.14	0.22	0.22
539	363171	Vazduh	Libelium	0004A30B0021DF70	44.979	16.7091	""	""	Prijedor	""	30015086	2025-01-27T11:28:01	3	NO ERROR	11.03	100	1000.41	0.22	0.24	0.24
540	363171	Vazduh	Libelium	0004A30B0021DF70	44.979	16.7091	""	""	Prijedor	""	30015459	2025-01-27T12:28:44	3	NO ERROR	16.23	72.5	999.57	0.28	0.3	0.3
541	363171	Vazduh	Libelium	0004A30B0021DF70	44.979	16.7091	""	""	Prijedor	""	30015843	2025-01-27T13:29:26	3	NO ERROR	16.67	58.8	998.7	0.08	0.16	0.16
542	363171	Vazduh	Libelium	0004A30B0021DF70	44.979	16.7091	""	""	Prijedor	""	30016315	2025-01-27T14:30:08	3	NO ERROR	16.6	59.3	998.12	0.13	0.15	0.15
543	363171	Vazduh	Libelium	0004A30B0021DF70	44.979	16.7091	""	""	Prijedor	""	30016704	2025-01-27T15:30:50	3	NO ERROR	15.38	66.7	998.03	0.11	0.21	0.32
544	363171	Vazduh	Libelium	0004A30B0021DF70	44.979	16.7091	""	""	Prijedor	""	30017078	2025-01-27T16:31:32	3	NO ERROR	15.22	63.9	997.83	0.1	0.1	0.1
545	363171	Vazduh	Libelium	0004A30B0021DF70	44.979	16.7091	""	""	Prijedor	""	30017400	2025-01-27T17:32:20	3	NO ERROR	14.57	60.3	997.74	0	0	0
546	363171	Vazduh	Libelium	0004A30B0021DF70	44.979	16.7091	""	""	Prijedor	""	30017741	2025-01-27T18:33:02	3	NO ERROR	12.76	64	997.51	0.04	0.07	0.07
547	363171	Vazduh	Libelium	0004A30B0021DF70	44.979	16.7091	""	""	Prijedor	""	30018040	2025-01-27T19:33:44	3	NO ERROR	12.37	64.7	996.9	0.09	0.1	0.1
548	363171	Vazduh	Libelium	0004A30B0021DF70	44.979	16.7091	""	""	Prijedor	""	30018419	2025-01-27T20:34:26	3	NO ERROR	10.24	77.5	996.34	0.13	0.2	0.22
549	363171	Vazduh	Libelium	0004A30B0021DF70	44.979	16.7091	""	""	Prijedor	""	30018797	2025-01-27T21:35:08	3	NO ERROR	11.87	74	995.62	0.12	0.22	0.29
550	363171	Vazduh	Libelium	0004A30B0021DF70	44.979	16.7091	""	""	Prijedor	""	30019155	2025-01-27T22:35:56	3	NO ERROR	13	73.2	995.25	0.09	0.12	0.12
551	363171	Vazduh	Libelium	0004A30B0021DF70	44.979	16.7091	""	""	Prijedor	""	30019469	2025-01-27T23:36:38	3	NO ERROR	13.17	73.2	995.03	0.03	0.03	0.03
552	363171	Vazduh	Libelium	0004A30B0021DF70	44.979	16.7091	""	""	Prijedor	""	30019818	2025-01-28T00:37:20	3	NO ERROR	12.37	77.7	994.83	0.03	0.09	0.11
553	363171	Vazduh	Libelium	0004A30B0021DF70	44.979	16.7091	""	""	Prijedor	""	30020150	2025-01-28T01:38:02	3	NO ERROR	13.49	72.3	994.32	0.05	0.06	0.06
554	363171	Vazduh	Libelium	0004A30B0021DF70	44.979	16.7091	""	""	Prijedor	""	30020507	2025-01-28T02:38:45	3	NO ERROR	11.36	85.7	993.78	0.2	0.32	0.32
555	363171	Vazduh	Libelium	0004A30B0021DF70	44.979	16.7091	""	""	Prijedor	""	30020854	2025-01-28T03:39:33	3	NO ERROR	10.97	97.6	992.9	0.05	0.05	0.05
556	363171	Vazduh	Libelium	0004A30B0021DF70	44.979	16.7091	""	""	Prijedor	""	30021222	2025-01-28T04:40:21	3	NO ERROR	10.57	100	992.58	0.12	0.17	0.17
557	363171	Vazduh	Libelium	0004A30B0021DF70	44.979	16.7091	""	""	Prijedor	""	30021506	2025-01-28T05:41:03	3	NO ERROR	9.8	100	992.36	0.06	0.08	0.08
558	363171	Vazduh	Libelium	0004A30B0021DF70	44.979	16.7091	""	""	Prijedor	""	30021839	2025-01-28T06:41:45	3	NO ERROR	15.3	77.9	991.76	0.14	0.16	0.16
559	363171	Vazduh	Libelium	0004A30B0021DF70	44.979	16.7091	""	""	Prijedor	""	30022148	2025-01-28T07:42:27	3	NO ERROR	15.59	73.8	991.9	0.22	0.24	0.24
560	363171	Vazduh	Libelium	0004A30B0021DF70	44.979	16.7091	""	""	Prijedor	""	30022468	2025-01-28T08:43:09	3	NO ERROR	15.89	76.2	991.78	0.1	0.12	0.12
561	363171	Vazduh	Libelium	0004A30B0021DF70	44.979	16.7091	""	""	Prijedor	""	30022806	2025-01-28T09:43:51	3	NO ERROR	16.63	71.5	991.3	0.07	0.07	0.07
562	363171	Vazduh	Libelium	0004A30B0021DF70	44.979	16.7091	""	""	Prijedor	""	30023184	2025-01-28T10:44:33	3	NO ERROR	18.62	61.8	990.26	0.07	0.08	0.08
563	363171	Vazduh	Libelium	0004A30B0021DF70	44.979	16.7091	""	""	Prijedor	""	30023508	2025-01-28T11:45:15	3	NO ERROR	18.87	59.9	989.74	0.14	0.18	0.18
564	363171	Vazduh	Libelium	0004A30B0021DF70	44.979	16.7091	""	""	Prijedor	""	30025070	2025-01-28T12:45:57	3	NO ERROR	18.55	62.6	988.97	0.13	0.17	0.18
565	363171	Vazduh	Libelium	0004A30B0021DF70	44.979	16.7091	""	""	Prijedor	""	30025470	2025-01-28T13:46:39	3	NO ERROR	18.36	62.9	988.13	0.31	0.59	3.55
566	363171	Vazduh	Libelium	0004A30B0021DF70	44.979	16.7091	""	""	Prijedor	""	30025844	2025-01-28T14:47:21	3	NO ERROR	17.69	67.8	988.56	0.23	0.31	0.31
567	363171	Vazduh	Libelium	0004A30B0021DF70	44.979	16.7091	""	""	Prijedor	""	30026177	2025-01-28T15:48:03	3	NO ERROR	17.35	71.2	987.01	0.38	0.5	0.5
568	363171	Vazduh	Libelium	0004A30B0021DF70	44.979	16.7091	""	""	Prijedor	""	30026558	2025-01-28T16:48:46	3	NO ERROR	16.7	75.3	986.99	0.38	0.47	0.47
569	363171	Vazduh	Libelium	0004A30B0021DF70	44.979	16.7091	""	""	Prijedor	""	30026908	2025-01-28T17:49:28	3	NO ERROR	17.33	70.7	988.24	0.09	0.1	0.1
570	363171	Vazduh	Libelium	0004A30B0021DF70	44.979	16.7091	""	""	Prijedor	""	30027269	2025-01-28T18:50:10	3	NO ERROR	15.21	85.5	989.25	0.02	0.02	0.02
571	363171	Vazduh	Libelium	0004A30B0021DF70	44.979	16.7091	""	""	Prijedor	""	30027661	2025-01-28T19:50:52	3	NO ERROR	12	100	990.42	0.08	0.11	0.11
572	363171	Vazduh	Libelium	0004A30B0021DF70	44.979	16.7091	""	""	Prijedor	""	30028083	2025-01-28T20:51:34	3	NO ERROR	12.88	100	991.35	0.05	0.05	0.05
573	363171	Vazduh	Libelium	0004A30B0021DF70	44.979	16.7091	""	""	Prijedor	""	30028463	2025-01-28T21:52:16	3	NO ERROR	12.56	80.7	992.18	0.12	0.15	0.15
574	363171	Vazduh	Libelium	0004A30B0021DF70	44.979	16.7091	""	""	Prijedor	""	30028854	2025-01-28T22:52:58	3	NO ERROR	10.94	85.8	993.05	0.05	0.06	0.06
575	363171	Vazduh	Libelium	0004A30B0021DF70	44.979	16.7091	""	""	Prijedor	""	30029171	2025-01-28T23:53:40	3	NO ERROR	10.77	64.8	994.09	0.06	0.11	0.11
576	363171	Vazduh	Libelium	0004A30B0021DF70	44.979	16.7091	""	""	Prijedor	""	30029514	2025-01-29T00:54:22	3	NO ERROR	10.66	56.6	994.73	0.01	0.03	0.03
577	363171	Vazduh	Libelium	0004A30B0021DF70	44.979	16.7091	""	""	Prijedor	""	30029864	2025-01-29T01:55:10	3	NO ERROR	11.2	52.9	995.03	0.08	0.09	0.09
578	363171	Vazduh	Libelium	0004A30B0021DF70	44.979	16.7091	""	""	Prijedor	""	30030202	2025-01-29T02:55:52	3	NO ERROR	10.26	57.7	994.88	0.02	0.02	0.02
579	363171	Vazduh	Libelium	0004A30B0021DF70	44.979	16.7091	""	""	Prijedor	""	30030536	2025-01-29T03:56:34	3	NO ERROR	8.04	66	995.81	0.12	0.14	0.14
580	363171	Vazduh	Libelium	0004A30B0021DF70	44.979	16.7091	""	""	Prijedor	""	30030977	2025-01-29T04:57:16	3	NO ERROR	8.27	68.7	996.35	0.02	0.03	0.03
581	363171	Vazduh	Libelium	0004A30B0021DF70	44.979	16.7091	""	""	Prijedor	""	30031319	2025-01-29T05:57:58	3	NO ERROR	5.49	86.1	996.97	0.15	0.22	0.22
582	363171	Vazduh	Libelium	0004A30B0021DF70	44.979	16.7091	""	""	Prijedor	""	30031669	2025-01-29T06:58:41	3	NO ERROR	4.89	98.7	997.96	0.07	0.14	0.15
583	363171	Vazduh	Libelium	0004A30B0021DF70	44.979	16.7091	""	""	Prijedor	""	30032006	2025-01-29T07:59:23	3	NO ERROR	5.43	100	999.35	0.51	1.13	1.5
584	363171	Vazduh	Libelium	0004A30B0021DF70	44.979	16.7091	""	""	Prijedor	""	30032314	2025-01-29T09:00:05	3	NO ERROR	8.67	79.4	999.87	0.36	0.51	0.55
585	363171	Vazduh	Libelium	0004A30B0021DF70	44.979	16.7091	""	""	Prijedor	""	30032633	2025-01-29T10:00:47	3	NO ERROR	11.44	71.4	1000.69	0.34	0.41	0.42
586	363171	Vazduh	Libelium	0004A30B0021DF70	44.979	16.7091	""	""	Prijedor	""	30032996	2025-01-29T11:01:29	3	NO ERROR	14.39	64.7	1000.45	0.4	0.57	0.58
587	363171	Vazduh	Libelium	0004A30B0021DF70	44.979	16.7091	""	""	Prijedor	""	30033342	2025-01-29T12:02:11	3	NO ERROR	16.02	56.1	1000.27	0.02	0.05	0.05
588	363171	Vazduh	Libelium	0004A30B0021DF70	44.979	16.7091	""	""	Prijedor	""	30033809	2025-01-29T13:02:53	3	NO ERROR	17.65	48.7	999.89	0	0	0
589	363171	Vazduh	Libelium	0004A30B0021DF70	44.979	16.7091	""	""	Prijedor	""	30034221	2025-01-29T14:03:35	3	NO ERROR	16.66	52.5	999.71	0.18	0.34	0.37
590	363171	Vazduh	Libelium	0004A30B0021DF70	44.979	16.7091	""	""	Prijedor	""	30034681	2025-01-29T15:04:23	3	NO ERROR	17.26	47.3	999.73	0.02	0.02	0.02
591	363171	Vazduh	Libelium	0004A30B0021DF70	44.979	16.7091	""	""	Prijedor	""	30035099	2025-01-29T16:05:05	3	NO ERROR	14.8	53	999.8	0.27	0.38	0.38
592	363171	Vazduh	Libelium	0004A30B0021DF70	44.979	16.7091	""	""	Prijedor	""	30035534	2025-01-29T17:05:47	3	NO ERROR	12.86	61.9	1000.03	0.33	0.48	2.09
593	363171	Vazduh	Libelium	0004A30B0021DF70	44.979	16.7091	""	""	Prijedor	""	30035893	2025-01-29T18:06:36	3	NO ERROR	11.21	71.7	1000.48	0.1	0.11	0.11
594	363171	Vazduh	Libelium	0004A30B0021DF70	44.979	16.7091	""	""	Prijedor	""	30036260	2025-01-29T19:07:17	3	NO ERROR	9.1	88.2	1000.72	0.35	0.56	0.59
595	363171	Vazduh	Libelium	0004A30B0021DF70	44.979	16.7091	""	""	Prijedor	""	30036677	2025-01-29T20:08:00	3	NO ERROR	7.27	100	1000.75	0.06	0.2	0.28
596	363171	Vazduh	Libelium	0004A30B0021DF70	44.979	16.7091	""	""	Prijedor	""	30037100	2025-01-29T21:08:42	3	NO ERROR	5.71	100	1000.98	0.35	0.51	0.51
597	363171	Vazduh	Libelium	0004A30B0021DF70	44.979	16.7091	""	""	Prijedor	""	30037492	2025-01-29T22:09:24	3	NO ERROR	5.29	100	1002.07	0.11	0.18	0.19
598	363171	Vazduh	Libelium	0004A30B0021DF70	44.979	16.7091	""	""	Prijedor	""	30037820	2025-01-29T23:10:12	3	NO ERROR	4.83	100	1002.03	0.13	0.24	0.27
599	363171	Vazduh	Libelium	0004A30B0021DF70	44.979	16.7091	""	""	Prijedor	""	30038110	2025-01-30T00:10:54	3	NO ERROR	2.97	100	1002.4	0.49	0.66	0.67
600	363171	Vazduh	Libelium	0004A30B0021DF70	44.979	16.7091	""	""	Prijedor	""	30038360	2025-01-30T01:11:36	3	NO ERROR	2.95	100	1002.29	0.12	0.21	0.21
601	363171	Vazduh	Libelium	0004A30B0021DF70	44.979	16.7091	""	""	Prijedor	""	30038681	2025-01-30T02:12:18	3	NO ERROR	1.47	100	1002.73	0.16	0.18	0.18
602	363171	Vazduh	Libelium	0004A30B0021DF70	44.979	16.7091	""	""	Prijedor	""	30038947	2025-01-30T03:13:00	3	NO ERROR	1.65	100	1002.76	0.13	0.17	0.17
603	363171	Vazduh	Libelium	0004A30B0021DF70	44.979	16.7091	""	""	Prijedor	""	30039260	2025-01-30T04:13:48	3	NO ERROR	0.58	100	1002.89	0.02	0.06	0.07
604	363171	Vazduh	Libelium	0004A30B0021DF70	44.979	16.7091	""	""	Prijedor	""	30039672	2025-01-30T05:14:30	3	NO ERROR	0.24	100	1003.29	0.25	0.27	0.27
605	363171	Vazduh	Libelium	0004A30B0021DF70	44.979	16.7091	""	""	Prijedor	""	30040026	2025-01-30T06:15:19	3	NO ERROR	0.76	100	1003.73	0.14	0.17	0.17
606	363171	Vazduh	Libelium	0004A30B0021DF70	44.979	16.7091	""	""	Prijedor	""	30040358	2025-01-30T07:16:00	3	NO ERROR	-0.01	100	1004.28	0.63	0.78	0.78
607	363171	Vazduh	Libelium	0004A30B0021DF70	44.979	16.7091	""	""	Prijedor	""	30040699	2025-01-30T08:16:49	3	NO ERROR	0.61	100	1004.58	0.14	0.18	0.18
608	363171	Vazduh	Libelium	0004A30B0021DF70	44.979	16.7091	""	""	Prijedor	""	30040969	2025-01-30T09:17:31	3	NO ERROR	0.93	100	1004.77	0.06	0.06	0.06
609	363171	Vazduh	Libelium	0004A30B0021DF70	44.979	16.7091	""	""	Prijedor	""	30041266	2025-01-30T10:18:13	3	NO ERROR	4.12	100	1004.68	0.17	0.22	0.22
610	363171	Vazduh	Libelium	0004A30B0021DF70	44.979	16.7091	""	""	Prijedor	""	30041587	2025-01-30T11:18:55	3	NO ERROR	7.91	100	1004.6	0.07	0.09	0.09
611	363171	Vazduh	Libelium	0004A30B0021DF70	44.979	16.7091	""	""	Prijedor	""	30041908	2025-01-30T12:19:37	3	NO ERROR	10.46	86.7	1004.1	0.05	0.12	0.2
612	363171	Vazduh	Libelium	0004A30B0021DF70	44.979	16.7091	""	""	Prijedor	""	30042323	2025-01-30T13:20:19	3	NO ERROR	12.22	79.7	1003.61	0	0	0
613	363171	Vazduh	Libelium	0004A30B0021DF70	44.979	16.7091	""	""	Prijedor	""	30042786	2025-01-30T14:21:01	3	NO ERROR	16.05	66	1003.13	0.07	0.07	0.07
614	363171	Vazduh	Libelium	0004A30B0021DF70	44.979	16.7091	""	""	Prijedor	""	30043181	2025-01-30T15:21:43	3	NO ERROR	13.27	71.7	1003.38	0.28	0.48	0.52
615	363171	Vazduh	Libelium	0004A30B0021DF70	44.979	16.7091	""	""	Prijedor	""	30043548	2025-01-30T16:22:25	3	NO ERROR	11.21	84.8	1003.84	0.13	0.29	0.31
616	363171	Vazduh	Libelium	0004A30B0021DF70	44.979	16.7091	""	""	Prijedor	""	30043918	2025-01-30T17:23:07	3	NO ERROR	10.29	94.5	1004.13	0.76	1.1	1.23
617	363171	Vazduh	Libelium	0004A30B0021DF70	44.979	16.7091	""	""	Prijedor	""	30044265	2025-01-30T18:23:49	3	NO ERROR	8.62	100	1004.52	0.68	1.08	1.13
618	363171	Vazduh	Libelium	0004A30B0021DF70	44.979	16.7091	""	""	Prijedor	""	30044573	2025-01-30T19:24:31	3	NO ERROR	6.45	100	1004.72	0.28	0.37	0.37
619	363171	Vazduh	Libelium	0004A30B0021DF70	44.979	16.7091	""	""	Prijedor	""	30044967	2025-01-30T20:25:13	3	NO ERROR	5.14	100	1005.17	0.56	1	1.08
620	363171	Vazduh	Libelium	0004A30B0021DF70	44.979	16.7091	""	""	Prijedor	""	30045325	2025-01-30T21:25:56	3	NO ERROR	5.04	100	1005.7	0.36	0.48	0.49
621	363171	Vazduh	Libelium	0004A30B0021DF70	44.979	16.7091	""	""	Prijedor	""	30045657	2025-01-30T22:26:38	3	NO ERROR	3.37	100	1006.23	0.48	0.67	0.7
622	363171	Vazduh	Libelium	0004A30B0021DF70	44.979	16.7091	""	""	Prijedor	""	30045987	2025-01-30T23:27:20	3	NO ERROR	2.75	100	1006.64	0.36	0.59	1.02
623	363171	Vazduh	Libelium	0004A30B0021DF70	44.979	16.7091	""	""	Prijedor	""	30046263	2025-01-31T00:28:02	3	NO ERROR	2.2	100	1006.89	0.55	0.61	0.61
624	363171	Vazduh	Libelium	0004A30B0021DF70	44.979	16.7091	""	""	Prijedor	""	30046541	2025-01-31T01:28:44	3	NO ERROR	1.22	100	1006.86	0.31	0.38	0.38
625	363171	Vazduh	Libelium	0004A30B0021DF70	44.979	16.7091	""	""	Prijedor	""	30046847	2025-01-31T02:29:26	3	NO ERROR	0.05	100	1007.73	0.09	0.12	0.12
626	363171	Vazduh	Libelium	0004A30B0021DF70	44.979	16.7091	""	""	Prijedor	""	30047116	2025-01-31T03:30:08	3	NO ERROR	0.39	100	1007.96	0.25	0.3	0.31
627	363171	Vazduh	Libelium	0004A30B0021DF70	44.979	16.7091	""	""	Prijedor	""	30047477	2025-01-31T04:30:50	3	NO ERROR	-0.42	100	1008.15	0.76	0.92	0.92
628	363171	Vazduh	Libelium	0004A30B0021DF70	44.979	16.7091	""	""	Prijedor	""	30047817	2025-01-31T05:31:32	3	NO ERROR	-0.15	100	1008.32	2.68	16.9	191.28
629	363171	Vazduh	Libelium	0004A30B0021DF70	44.979	16.7091	""	""	Prijedor	""	30048136	2025-01-31T06:32:14	3	NO ERROR	-0.22	100	1008.8	4.31	8.29	44.5
630	363171	Vazduh	Libelium	0004A30B0021DF70	44.979	16.7091	""	""	Prijedor	""	30048442	2025-01-31T07:32:56	3	NO ERROR	-0.53	100	1009.2	10.48	23.21	114.49
631	363171	Vazduh	Libelium	0004A30B0021DF70	44.979	16.7091	""	""	Prijedor	""	30048775	2025-01-31T08:33:39	3	NO ERROR	0	100	1009.89	2.63	6.33	52.83
632	363171	Vazduh	Libelium	0004A30B0021DF70	44.979	16.7091	""	""	Prijedor	""	30049026	2025-01-31T09:34:21	3	NO ERROR	2.47	100	1009.98	1.11	1.71	3.91
633	363171	Vazduh	Libelium	0004A30B0021DF70	44.979	16.7091	""	""	Prijedor	""	30049370	2025-01-31T10:35:15	3	NO ERROR	4.16	100	1010.41	0.1	0.1	0.1
634	363171	Vazduh	Libelium	0004A30B0021DF70	44.979	16.7091	""	""	Prijedor	""	30049655	2025-01-31T11:35:57	3	NO ERROR	8.88	100	1010.15	0.1	0.2	0.29
635	363171	Vazduh	Libelium	0004A30B0021DF70	44.979	16.7091	""	""	Prijedor	""	30050052	2025-01-31T12:36:39	3	NO ERROR	13.81	74.5	1009.69	0.37	0.43	0.43
636	363171	Vazduh	Libelium	0004A30B0021DF70	44.979	16.7091	""	""	Prijedor	""	30050477	2025-01-31T13:37:21	3	NO ERROR	15.39	59.2	1009.32	0.06	0.06	0.06
637	363171	Vazduh	Libelium	0004A30B0021DF70	44.979	16.7091	""	""	Prijedor	""	30050887	2025-01-31T14:38:09	3	NO ERROR	19.95	45.3	1009.34	0.05	0.08	0.08
638	363171	Vazduh	Libelium	0004A30B0021DF70	44.979	16.7091	""	""	Prijedor	""	30051231	2025-01-31T15:38:51	3	NO ERROR	14.76	53.1	1009.61	0.24	0.27	0.27
639	363171	Vazduh	Libelium	0004A30B0021DF70	44.979	16.7091	""	""	Prijedor	""	30051629	2025-01-31T16:39:33	3	NO ERROR	13.21	67	1009.87	0.05	0.05	0.05
640	363171	Vazduh	Libelium	0004A30B0021DF70	44.979	16.7091	""	""	Prijedor	""	30051963	2025-01-31T17:40:15	3	NO ERROR	12.28	70.9	1010.95	0.14	0.21	0.23
641	363171	Vazduh	Libelium	0004A30B0021DF70	44.979	16.7091	""	""	Prijedor	""	30052349	2025-01-31T18:40:57	3	NO ERROR	11.53	76.6	1011.56	0.2	0.42	1.51
642	363171	Vazduh	Libelium	0004A30B0021DF70	44.979	16.7091	""	""	Prijedor	""	30052735	2025-01-31T19:41:39	3	NO ERROR	10.48	92.7	1012	0.17	0.22	0.22
643	363171	Vazduh	Libelium	0004A30B0021DF70	44.979	16.7091	""	""	Prijedor	""	30053172	2025-01-31T20:42:21	3	NO ERROR	9.97	94.1	1012.12	0.77	0.93	0.93
644	363171	Vazduh	Libelium	0004A30B0021DF70	44.979	16.7091	""	""	Prijedor	""	30053554	2025-01-31T21:43:03	3	NO ERROR	9.25	100	1012.41	0.32	0.38	0.38
645	363171	Vazduh	Libelium	0004A30B0021DF70	44.979	16.7091	""	""	Prijedor	""	30053971	2025-01-31T22:43:46	3	NO ERROR	8.31	100	1012.84	0.22	0.31	0.31
646	363171	Vazduh	Libelium	0004A30B0021DF70	44.979	16.7091	""	""	Prijedor	""	30054363	2025-01-31T23:44:34	3	NO ERROR	8.57	100	1012.97	0.18	0.25	0.25
647	363171	Vazduh	Libelium	0004A30B0021DF70	44.979	16.7091	""	""	Prijedor	""	30054749	2025-02-01T00:45:16	3	NO ERROR	8.1	100	1013.11	0.12	0.14	0.14
648	363171	Vazduh	Libelium	0004A30B0021DF70	44.979	16.7091	""	""	Prijedor	""	30055139	2025-02-01T01:45:58	3	NO ERROR	8.25	100	1013.48	0.07	0.07	0.07
649	363171	Vazduh	Libelium	0004A30B0021DF70	44.979	16.7091	""	""	Prijedor	""	30055503	2025-02-01T02:46:40	3	NO ERROR	7.52	100	1013.77	0.07	0.08	0.08
650	363171	Vazduh	Libelium	0004A30B0021DF70	44.979	16.7091	""	""	Prijedor	""	30055881	2025-02-01T03:47:22	3	NO ERROR	7.02	100	1014	0.09	0.1	0.1
651	363171	Vazduh	Libelium	0004A30B0021DF70	44.979	16.7091	""	""	Prijedor	""	30056381	2025-02-01T04:48:04	3	NO ERROR	6.82	100	1014.27	0.08	0.09	0.09
652	363171	Vazduh	Libelium	0004A30B0021DF70	44.979	16.7091	""	""	Prijedor	""	30056837	2025-02-01T05:48:46	3	NO ERROR	6.44	100	1014.77	0	0	0
653	363171	Vazduh	Libelium	0004A30B0021DF70	44.979	16.7091	""	""	Prijedor	""	30057267	2025-02-01T06:49:28	3	NO ERROR	5.49	100	1015.04	0.07	0.12	0.12
654	363171	Vazduh	Libelium	0004A30B0021DF70	44.979	16.7091	""	""	Prijedor	""	30057694	2025-02-01T07:50:10	3	NO ERROR	5.57	100	1015.61	0.11	0.13	0.13
655	363171	Vazduh	Libelium	0004A30B0021DF70	44.979	16.7091	""	""	Prijedor	""	30058157	2025-02-01T08:50:52	3	NO ERROR	9.06	87.3	1015.99	0.05	0.08	0.08
656	363171	Vazduh	Libelium	0004A30B0021DF70	44.979	16.7091	""	""	Prijedor	""	30058556	2025-02-01T09:51:41	3	NO ERROR	9.05	81.3	1016.05	0	0	0
657	363171	Vazduh	Libelium	0004A30B0021DF70	44.979	16.7091	""	""	Prijedor	""	30058993	2025-02-01T10:52:29	3	NO ERROR	9.84	73.1	1015.84	0.14	0.19	0.19
658	363171	Vazduh	Libelium	0004A30B0021DF70	44.979	16.7091	""	""	Prijedor	""	30059367	2025-02-01T11:53:10	3	NO ERROR	10.85	66.5	1015.19	0.03	0.04	0.04
659	363171	Vazduh	Libelium	0004A30B0021DF70	44.979	16.7091	""	""	Prijedor	""	30059830	2025-02-01T12:53:53	3	NO ERROR	11.17	66.4	1014.33	0.08	0.1	0.1
660	363171	Vazduh	Libelium	0004A30B0021DF70	44.979	16.7091	""	""	Prijedor	""	30060303	2025-02-01T13:54:35	3	NO ERROR	11.54	58.3	1013.41	0.02	0.02	0.02
661	363171	Vazduh	Libelium	0004A30B0021DF70	44.979	16.7091	""	""	Prijedor	""	30060710	2025-02-01T14:55:17	3	NO ERROR	11.54	57.9	1013.16	0.04	0.08	0.08
662	363171	Vazduh	Libelium	0004A30B0021DF70	44.979	16.7091	""	""	Prijedor	""	30061095	2025-02-01T15:55:59	3	NO ERROR	11.47	54.6	1012.89	0	0	0
663	363171	Vazduh	Libelium	0004A30B0021DF70	44.979	16.7091	""	""	Prijedor	""	30061528	2025-02-01T16:56:41	3	NO ERROR	8.76	64.1	1012.73	0.01	0.03	0.03
664	363171	Vazduh	Libelium	0004A30B0021DF70	44.979	16.7091	""	""	Prijedor	""	30061883	2025-02-01T17:57:23	3	NO ERROR	7.53	75.1	1012.74	0.07	0.15	0.17
665	363171	Vazduh	Libelium	0004A30B0021DF70	44.979	16.7091	""	""	Prijedor	""	30062237	2025-02-01T18:58:05	3	NO ERROR	6.46	82.9	1012.72	0.12	0.32	2.18
666	363171	Vazduh	Libelium	0004A30B0021DF70	44.979	16.7091	""	""	Prijedor	""	30062591	2025-02-01T19:58:47	3	NO ERROR	5.19	91.6	1012.55	0.09	0.22	0.25
667	363171	Vazduh	Libelium	0004A30B0021DF70	44.979	16.7091	""	""	Prijedor	""	30062986	2025-02-01T20:59:29	3	NO ERROR	4.4	96.4	1012.27	0.22	0.26	0.26
668	363171	Vazduh	Libelium	0004A30B0021DF70	44.979	16.7091	""	""	Prijedor	""	30063308	2025-02-01T22:00:11	3	NO ERROR	2.5	100	1012.11	0.35	0.46	0.46
669	363171	Vazduh	Libelium	0004A30B0021DF70	44.979	16.7091	""	""	Prijedor	""	30063729	2025-02-01T23:00:53	3	NO ERROR	1.32	100	1012.02	0.02	0.05	0.05
670	363171	Vazduh	Libelium	0004A30B0021DF70	44.979	16.7091	""	""	Prijedor	""	30064098	2025-02-02T00:01:35	3	NO ERROR	0.7	100	1011.55	0.02	0.02	0.02
671	363171	Vazduh	Libelium	0004A30B0021DF70	44.979	16.7091	""	""	Prijedor	""	30064431	2025-02-02T01:02:17	3	NO ERROR	0.37	100	1010.99	0.07	0.07	0.07
672	363171	Vazduh	Libelium	0004A30B0021DF70	44.979	16.7091	""	""	Prijedor	""	30064822	2025-02-02T02:03:00	3	NO ERROR	-0.41	100	1010.86	0.09	0.14	0.15
673	363171	Vazduh	Libelium	0004A30B0021DF70	44.979	16.7091	""	""	Prijedor	""	30065134	2025-02-02T03:03:42	3	NO ERROR	-0.71	100	1010.74	0.21	0.28	0.28
674	363171	Vazduh	Libelium	0004A30B0021DF70	44.979	16.7091	""	""	Prijedor	""	30065534	2025-02-02T04:04:24	3	NO ERROR	-0.7	100	1010.13	0	0	0
675	363171	Vazduh	Libelium	0004A30B0021DF70	44.979	16.7091	""	""	Prijedor	""	30066008	2025-02-02T05:05:06	3	NO ERROR	-1.5	100	1009.78	0.18	0.19	0.19
676	363171	Vazduh	Libelium	0004A30B0021DF70	44.979	16.7091	""	""	Prijedor	""	30066431	2025-02-02T06:05:48	3	NO ERROR	-1.54	100	1009.13	0.03	0.03	0.03
677	363171	Vazduh	Libelium	0004A30B0021DF70	44.979	16.7091	""	""	Prijedor	""	30066820	2025-02-02T07:06:30	3	NO ERROR	-2.01	100	1009.02	0	0.04	0.06
678	363171	Vazduh	Libelium	0004A30B0021DF70	44.979	16.7091	""	""	Prijedor	""	30067249	2025-02-02T08:07:12	3	NO ERROR	-1.2	100	1009.05	0.07	0.09	0.09
679	363171	Vazduh	Libelium	0004A30B0021DF70	44.979	16.7091	""	""	Prijedor	""	30067650	2025-02-02T09:07:54	3	NO ERROR	1.31	100	1008.87	0.05	0.08	0.08
680	363171	Vazduh	Libelium	0004A30B0021DF70	44.979	16.7091	""	""	Prijedor	""	30068048	2025-02-02T10:08:36	3	NO ERROR	4.29	100	1008.79	0.02	0.02	0.02
681	363171	Vazduh	Libelium	0004A30B0021DF70	44.979	16.7091	""	""	Prijedor	""	30068496	2025-02-02T11:09:18	3	NO ERROR	6.56	95.6	1008.31	0.1	0.2	0.22
682	363171	Vazduh	Libelium	0004A30B0021DF70	44.979	16.7091	""	""	Prijedor	""	30068899	2025-02-02T12:10:00	3	NO ERROR	8.06	86.7	1007.86	0.13	0.19	0.19
683	363171	Vazduh	Libelium	0004A30B0021DF70	44.979	16.7091	""	""	Prijedor	""	30069294	2025-02-02T13:10:43	3	NO ERROR	9.18	77.2	1007.3	0.04	0.07	0.07
684	363171	Vazduh	Libelium	0004A30B0021DF70	44.979	16.7091	""	""	Prijedor	""	30069705	2025-02-02T14:11:25	3	NO ERROR	9.79	73.8	1007.02	0.05	0.11	0.12
685	363171	Vazduh	Libelium	0004A30B0021DF70	44.979	16.7091	""	""	Prijedor	""	30070036	2025-02-02T15:12:19	3	NO ERROR	11.63	64.3	1006.88	0.02	0.02	0.02
686	363171	Vazduh	Libelium	0004A30B0021DF70	44.979	16.7091	""	""	Prijedor	""	30070340	2025-02-02T16:13:01	3	NO ERROR	8.39	78.6	1006.87	0.02	0.02	0.02
687	363171	Vazduh	Libelium	0004A30B0021DF70	44.979	16.7091	""	""	Prijedor	""	30070692	2025-02-02T17:13:43	3	NO ERROR	6.85	89.6	1007.39	0.09	0.18	0.2
688	363171	Vazduh	Libelium	0004A30B0021DF70	44.979	16.7091	""	""	Prijedor	""	30071026	2025-02-02T18:14:31	3	NO ERROR	5.29	100	1008.05	0.21	0.29	0.29
689	363171	Vazduh	Libelium	0004A30B0021DF70	44.979	16.7091	""	""	Prijedor	""	30071328	2025-02-02T19:15:13	3	NO ERROR	4.67	100	1008.62	0.19	0.21	0.21
690	363171	Vazduh	Libelium	0004A30B0021DF70	44.979	16.7091	""	""	Prijedor	""	30071778	2025-02-02T20:16:07	3	NO ERROR	4.85	100	1009.05	0.1	0.14	0.14
691	363171	Vazduh	Libelium	0004A30B0021DF70	44.979	16.7091	""	""	Prijedor	""	30072159	2025-02-02T21:16:49	3	NO ERROR	4	100	1009.24	0.05	0.08	0.09
692	363171	Vazduh	Libelium	0004A30B0021DF70	44.979	16.7091	""	""	Prijedor	""	30072509	2025-02-02T22:17:31	3	NO ERROR	3.67	100	1009.53	0.2	0.22	0.22
693	363171	Vazduh	Libelium	0004A30B0021DF70	44.979	16.7091	""	""	Prijedor	""	30072898	2025-02-02T23:18:13	3	NO ERROR	3.97	100	1009.58	0.07	0.07	0.07
694	363171	Vazduh	Libelium	0004A30B0021DF70	44.979	16.7091	""	""	Prijedor	""	30073248	2025-02-03T00:18:55	3	NO ERROR	4.35	100	1009.69	0	0.04	0.06
695	363171	Vazduh	Libelium	0004A30B0021DF70	44.979	16.7091	""	""	Prijedor	""	30073985	2025-02-03T02:20:20	3	NO ERROR	3.51	100	1009.97	0.07	0.13	0.13
696	363171	Vazduh	Libelium	0004A30B0021DF70	44.979	16.7091	""	""	Prijedor	""	30074298	2025-02-03T03:21:02	3	NO ERROR	3.6	100	1009.85	0.08	0.11	0.11
697	363171	Vazduh	Libelium	0004A30B0021DF70	44.979	16.7091	""	""	Prijedor	""	30074668	2025-02-03T04:21:44	3	NO ERROR	3.61	100	1010.15	0.05	0.1	0.11
698	363171	Vazduh	Libelium	0004A30B0021DF70	44.979	16.7091	""	""	Prijedor	""	30075155	2025-02-03T05:22:26	3	NO ERROR	3.54	100	1010.33	0.1	0.15	0.15
699	363171	Vazduh	Libelium	0004A30B0021DF70	44.979	16.7091	""	""	Prijedor	""	30075548	2025-02-03T06:23:08	3	NO ERROR	3.41	100	1010.81	0.22	0.28	0.28
700	363171	Vazduh	Libelium	0004A30B0021DF70	44.979	16.7091	""	""	Prijedor	""	30075963	2025-02-03T07:23:50	3	NO ERROR	3.25	100	1011.27	0.27	0.38	0.38
701	363171	Vazduh	Libelium	0004A30B0021DF70	44.979	16.7091	""	""	Prijedor	""	30076383	2025-02-03T08:24:32	3	NO ERROR	3.44	100	1011.62	0.01	0.03	0.03
702	363171	Vazduh	Libelium	0004A30B0021DF70	44.979	16.7091	""	""	Prijedor	""	30076764	2025-02-03T09:25:14	3	NO ERROR	3.43	100	1012.08	0.16	0.19	0.19
703	363171	Vazduh	Libelium	0004A30B0021DF70	44.979	16.7091	""	""	Prijedor	""	30077184	2025-02-03T10:25:56	3	NO ERROR	3.45	100	1012.7	0.15	0.2	0.2
704	363171	Vazduh	Libelium	0004A30B0021DF70	44.979	16.7091	""	""	Prijedor	""	30077627	2025-02-03T11:26:38	3	NO ERROR	3.89	100	1012.78	0.19	0.45	0.65
705	363171	Vazduh	Libelium	0004A30B0021DF70	44.979	16.7091	""	""	Prijedor	""	30078069	2025-02-03T12:27:20	3	NO ERROR	4.84	99.8	1012.28	0.1	0.15	0.15
706	363171	Vazduh	Libelium	0004A30B0021DF70	44.979	16.7091	""	""	Prijedor	""	30078486	2025-02-03T13:28:02	3	NO ERROR	4.82	98.7	1011.93	0.04	0.12	0.15
707	363171	Vazduh	Libelium	0004A30B0021DF70	44.979	16.7091	""	""	Prijedor	""	30078920	2025-02-03T14:28:45	3	NO ERROR	4.97	98	1011.78	0.06	0.08	0.09
708	363171	Vazduh	Libelium	0004A30B0021DF70	44.979	16.7091	""	""	Prijedor	""	30079298	2025-02-03T15:29:27	3	NO ERROR	5.39	96.4	1011.83	0.27	0.28	0.28
709	363171	Vazduh	Libelium	0004A30B0021DF70	44.979	16.7091	""	""	Prijedor	""	30079678	2025-02-03T16:30:15	3	NO ERROR	4.74	100	1011.98	0.07	0.17	0.24
710	363171	Vazduh	Libelium	0004A30B0021DF70	44.979	16.7091	""	""	Prijedor	""	30080028	2025-02-03T17:30:57	3	NO ERROR	4.5	100	1012.33	0.1	0.13	0.14
711	363171	Vazduh	Libelium	0004A30B0021DF70	44.979	16.7091	""	""	Prijedor	""	30080373	2025-02-03T18:31:39	3	NO ERROR	3.8	100	1012.56	0.3	0.38	0.39
712	363171	Vazduh	Libelium	0004A30B0021DF70	44.979	16.7091	""	""	Prijedor	""	30080724	2025-02-03T19:32:21	3	NO ERROR	2.82	100	1013.07	0.06	0.13	0.14
713	363171	Vazduh	Libelium	0004A30B0021DF70	44.979	16.7091	""	""	Prijedor	""	30081116	2025-02-03T20:33:03	3	NO ERROR	2.35	100	1013.05	0.25	0.32	0.32
714	363171	Vazduh	Libelium	0004A30B0021DF70	44.979	16.7091	""	""	Prijedor	""	30081488	2025-02-03T21:33:45	3	NO ERROR	2.08	100	1013.52	0.1	0.17	0.18
715	363171	Vazduh	Libelium	0004A30B0021DF70	44.979	16.7091	""	""	Prijedor	""	30081902	2025-02-03T22:34:27	3	NO ERROR	1.95	100	1013.64	0.21	0.27	0.27
716	363171	Vazduh	Libelium	0004A30B0021DF70	44.979	16.7091	""	""	Prijedor	""	30082277	2025-02-03T23:35:09	3	NO ERROR	2.02	100	1013.8	0.18	0.24	0.24
717	363171	Vazduh	Libelium	0004A30B0021DF70	44.979	16.7091	""	""	Prijedor	""	30082673	2025-02-04T00:35:51	3	NO ERROR	0.9	100	1013.65	0	0	0
718	363171	Vazduh	Libelium	0004A30B0021DF70	44.979	16.7091	""	""	Prijedor	""	30083049	2025-02-04T01:36:33	3	NO ERROR	0.07	100	1013.83	0.47	0.51	0.51
719	363171	Vazduh	Libelium	0004A30B0021DF70	44.979	16.7091	""	""	Prijedor	""	30083437	2025-02-04T02:37:16	3	NO ERROR	-0.97	100	1014.04	0.49	0.58	0.58
720	363171	Vazduh	Libelium	0004A30B0021DF70	44.979	16.7091	""	""	Prijedor	""	30083760	2025-02-04T03:37:58	3	NO ERROR	-1.44	100	1014.19	0.66	0.77	0.77
721	363171	Vazduh	Libelium	0004A30B0021DF70	44.979	16.7091	""	""	Prijedor	""	30084183	2025-02-04T04:38:40	3	NO ERROR	-0.95	100	1014.8	0.24	0.32	0.33
722	363171	Vazduh	Libelium	0004A30B0021DF70	44.979	16.7091	""	""	Prijedor	""	30084528	2025-02-04T05:39:22	3	NO ERROR	-1.52	100	1015.08	0.16	0.25	0.26
723	363171	Vazduh	Libelium	0004A30B0021DF70	44.979	16.7091	""	""	Prijedor	""	30084843	2025-02-04T06:40:04	3	NO ERROR	-1.1	100	1015.12	0.29	0.36	0.36
724	363171	Vazduh	Libelium	0004A30B0021DF70	44.979	16.7091	""	""	Prijedor	""	30085148	2025-02-04T07:40:52	3	NO ERROR	-0.09	100	1015.95	0.33	0.35	0.35
725	363171	Vazduh	Libelium	0004A30B0021DF70	44.979	16.7091	""	""	Prijedor	""	30085491	2025-02-04T08:41:34	3	NO ERROR	1.1	100	1016.41	0	0	0
726	363171	Vazduh	Libelium	0004A30B0021DF70	44.979	16.7091	""	""	Prijedor	""	30085770	2025-02-04T09:42:16	3	NO ERROR	1.42	100	1016.79	0.25	0.26	0.26
727	363171	Vazduh	Libelium	0004A30B0021DF70	44.979	16.7091	""	""	Prijedor	""	30086117	2025-02-04T10:43:04	3	NO ERROR	2.62	100	1017.2	0.03	0.03	0.03
728	363171	Vazduh	Libelium	0004A30B0021DF70	44.979	16.7091	""	""	Prijedor	""	30086421	2025-02-04T11:43:46	3	NO ERROR	4.52	100	1016.99	0	0.06	2.64
729	363171	Vazduh	Libelium	0004A30B0021DF70	44.979	16.7091	""	""	Prijedor	""	30086775	2025-02-04T12:44:28	3	NO ERROR	5.38	97.1	1016.6	0.02	0.02	0.02
730	363171	Vazduh	Libelium	0004A30B0021DF70	44.979	16.7091	""	""	Prijedor	""	30087153	2025-02-04T13:45:10	3	NO ERROR	6.56	82.4	1015.84	0.15	0.2	0.2
731	363171	Vazduh	Libelium	0004A30B0021DF70	44.979	16.7091	""	""	Prijedor	""	30087495	2025-02-04T14:45:59	3	NO ERROR	9.76	67.6	1015.53	0.06	0.11	0.11
732	363171	Vazduh	Libelium	0004A30B0021DF70	44.979	16.7091	""	""	Prijedor	""	30087781	2025-02-04T15:46:41	3	NO ERROR	8.95	64.8	1015.39	0	0	0
733	363171	Vazduh	Libelium	0004A30B0021DF70	44.979	16.7091	""	""	Prijedor	""	30088120	2025-02-04T16:47:23	3	NO ERROR	5.24	68.3	1015.4	0	0	0
734	363171	Vazduh	Libelium	0004A30B0021DF70	44.979	16.7091	""	""	Prijedor	""	30088352	2025-02-04T17:48:05	3	NO ERROR	3.15	83	1015.82	0.11	0.2	0.22
735	363171	Vazduh	Libelium	0004A30B0021DF70	44.979	16.7091	""	""	Prijedor	""	30088616	2025-02-04T18:48:47	3	NO ERROR	1.42	100	1016.39	0.26	0.29	0.29
736	363171	Vazduh	Libelium	0004A30B0021DF70	44.979	16.7091	""	""	Prijedor	""	30088922	2025-02-04T19:49:29	3	NO ERROR	0.12	100	1016.87	0.28	0.64	0.81
737	363171	Vazduh	Libelium	0004A30B0021DF70	44.979	16.7091	""	""	Prijedor	""	30089295	2025-02-04T20:50:11	3	NO ERROR	-0.67	100	1017.41	0.17	0.25	0.25
738	363171	Vazduh	Libelium	0004A30B0021DF70	44.979	16.7091	""	""	Prijedor	""	30089635	2025-02-04T21:50:53	3	NO ERROR	-1.45	100	1017.71	0.06	0.11	0.11
739	363171	Vazduh	Libelium	0004A30B0021DF70	44.979	16.7091	""	""	Prijedor	""	30089989	2025-02-04T22:51:35	3	NO ERROR	-2.07	100	1017.98	0.02	0.04	0.05
740	363171	Vazduh	Libelium	0004A30B0021DF70	44.979	16.7091	""	""	Prijedor	""	30090279	2025-02-04T23:52:17	3	NO ERROR	-2.71	100	1018.49	0.03	0.06	0.06
741	363171	Vazduh	Libelium	0004A30B0021DF70	44.979	16.7091	""	""	Prijedor	""	30090581	2025-02-05T00:52:59	3	NO ERROR	-3.39	100	1018.55	0.03	0.03	0.03
742	363171	Vazduh	Libelium	0004A30B0021DF70	44.979	16.7091	""	""	Prijedor	""	30090881	2025-02-05T01:53:42	3	NO ERROR	-3.26	100	1018.66	0.25	0.26	0.26
743	363171	Vazduh	Libelium	0004A30B0021DF70	44.979	16.7091	""	""	Prijedor	""	30091178	2025-02-05T02:54:24	3	NO ERROR	-3.7	100	1018.79	0.03	0.05	0.05
744	363171	Vazduh	Libelium	0004A30B0021DF70	44.979	16.7091	""	""	Prijedor	""	30091476	2025-02-05T03:55:06	3	NO ERROR	-4.4	100	1018.85	0.08	0.09	0.09
745	363171	Vazduh	Libelium	0004A30B0021DF70	44.979	16.7091	""	""	Prijedor	""	30091898	2025-02-05T04:55:48	3	NO ERROR	-4.51	100	1019.15	0.32	0.41	0.42
746	363171	Vazduh	Libelium	0004A30B0021DF70	44.979	16.7091	""	""	Prijedor	""	30092255	2025-02-05T05:56:30	3	NO ERROR	-5.03	100	1019.26	0	0	0
747	363171	Vazduh	Libelium	0004A30B0021DF70	44.979	16.7091	""	""	Prijedor	""	30092608	2025-02-05T06:57:12	3	NO ERROR	-4.96	100	1019.64	0.04	0.14	0.22
748	363171	Vazduh	Libelium	0004A30B0021DF70	44.979	16.7091	""	""	Prijedor	""	30092954	2025-02-05T07:57:54	3	NO ERROR	-4.55	100	1020.16	0.74	1.46	1.77
749	363171	Vazduh	Libelium	0004A30B0021DF70	44.979	16.7091	""	""	Prijedor	""	30093266	2025-02-05T08:58:36	3	NO ERROR	0.75	100	1020.32	0.11	0.13	0.13
750	363171	Vazduh	Libelium	0004A30B0021DF70	44.979	16.7091	""	""	Prijedor	""	30093516	2025-02-05T09:59:18	3	NO ERROR	0.6	100	1020.46	0.39	0.43	0.43
751	363171	Vazduh	Libelium	0004A30B0021DF70	44.979	16.7091	""	""	Prijedor	""	30093850	2025-02-05T11:00:00	3	NO ERROR	3.46	99.8	1020.4	0.07	0.09	0.09
752	363171	Vazduh	Libelium	0004A30B0021DF70	44.979	16.7091	""	""	Prijedor	""	30094164	2025-02-05T12:00:43	3	NO ERROR	4.94	88.4	1019.78	0	0	0
753	363171	Vazduh	Libelium	0004A30B0021DF70	44.979	16.7091	""	""	Prijedor	""	30094507	2025-02-05T13:01:25	3	NO ERROR	7.06	68.7	1019.23	0.07	0.08	0.08
754	363171	Vazduh	Libelium	0004A30B0021DF70	44.979	16.7091	""	""	Prijedor	""	30094851	2025-02-05T14:02:13	3	NO ERROR	8.68	57.1	1018.7	0.03	0.03	0.03
755	363171	Vazduh	Libelium	0004A30B0021DF70	44.979	16.7091	""	""	Prijedor	""	30095171	2025-02-05T15:02:55	3	NO ERROR	12.37	47.6	1018.48	0.02	0.05	0.05
756	363171	Vazduh	Libelium	0004A30B0021DF70	44.979	16.7091	""	""	Prijedor	""	30095445	2025-02-05T16:03:37	3	NO ERROR	8.52	52.9	1018.72	0	0	0
757	363171	Vazduh	Libelium	0004A30B0021DF70	44.979	16.7091	""	""	Prijedor	""	30095746	2025-02-05T17:04:19	3	NO ERROR	5.84	64.7	1018.94	0.05	0.05	0.05
758	363171	Vazduh	Libelium	0004A30B0021DF70	44.979	16.7091	""	""	Prijedor	""	30095999	2025-02-05T18:05:01	3	NO ERROR	3.63	76.8	1019.42	0.23	0.26	0.26
759	363171	Vazduh	Libelium	0004A30B0021DF70	44.979	16.7091	""	""	Prijedor	""	30096280	2025-02-05T19:05:43	3	NO ERROR	1.65	91.8	1019.85	0.13	0.22	0.23
760	363171	Vazduh	Libelium	0004A30B0021DF70	44.979	16.7091	""	""	Prijedor	""	30096597	2025-02-05T20:06:25	3	NO ERROR	0.48	100	1020.29	0.11	0.32	0.41
761	363171	Vazduh	Libelium	0004A30B0021DF70	44.979	16.7091	""	""	Prijedor	""	30096946	2025-02-05T21:07:08	3	NO ERROR	-0.68	100	1020.98	0.3	0.81	1.86
762	363171	Vazduh	Libelium	0004A30B0021DF70	44.979	16.7091	""	""	Prijedor	""	30097256	2025-02-05T22:07:49	3	NO ERROR	-0.98	100	1021.27	0.24	0.48	1.3
763	363171	Vazduh	Libelium	0004A30B0021DF70	44.979	16.7091	""	""	Prijedor	""	30097569	2025-02-05T23:08:31	3	NO ERROR	-1.93	100	1021.63	0.06	0.11	0.11
764	363171	Vazduh	Libelium	0004A30B0021DF70	44.979	16.7091	""	""	Prijedor	""	30097890	2025-02-06T00:09:13	3	NO ERROR	-2.76	100	1021.58	0.05	0.08	0.08
765	363171	Vazduh	Libelium	0004A30B0021DF70	44.979	16.7091	""	""	Prijedor	""	30098144	2025-02-06T01:09:56	3	NO ERROR	-3.24	100	1021.55	0.1	0.11	0.11
766	363171	Vazduh	Libelium	0004A30B0021DF70	44.979	16.7091	""	""	Prijedor	""	30098457	2025-02-06T02:10:44	3	NO ERROR	-3.69	100	1021.54	0	0	0
767	363171	Vazduh	Libelium	0004A30B0021DF70	44.979	16.7091	""	""	Prijedor	""	30098722	2025-02-06T03:11:26	3	NO ERROR	-4.12	100	1021.21	0.28	0.41	0.41
768	363171	Vazduh	Libelium	0004A30B0021DF70	44.979	16.7091	""	""	Prijedor	""	30099035	2025-02-06T04:12:08	3	NO ERROR	-4.38	100	1021.23	0.08	0.11	0.11
769	363171	Vazduh	Libelium	0004A30B0021DF70	44.979	16.7091	""	""	Prijedor	""	30099404	2025-02-06T05:12:50	3	NO ERROR	-4.48	100	1021.38	0	0	0
770	363171	Vazduh	Libelium	0004A30B0021DF70	44.979	16.7091	""	""	Prijedor	""	30099747	2025-02-06T06:13:38	3	NO ERROR	-4.17	100	1021.32	0.18	0.25	0.25
771	363171	Vazduh	Libelium	0004A30B0021DF70	44.979	16.7091	""	""	Prijedor	""	30100085	2025-02-06T07:14:20	3	NO ERROR	-3.89	100	1021.84	0.05	0.05	0.05
772	363171	Vazduh	Libelium	0004A30B0021DF70	44.979	16.7091	""	""	Prijedor	""	30100432	2025-02-06T08:15:02	3	NO ERROR	-1.7	100	1022.11	0	0	0
773	363171	Vazduh	Libelium	0004A30B0021DF70	44.979	16.7091	""	""	Prijedor	""	30100736	2025-02-06T09:15:44	3	NO ERROR	1.69	100	1021.97	0	0	0
774	363171	Vazduh	Libelium	0004A30B0021DF70	44.979	16.7091	""	""	Prijedor	""	30101040	2025-02-06T10:16:39	3	NO ERROR	1.78	100	1022.3	0.05	0.09	0.09
775	363171	Vazduh	Libelium	0004A30B0021DF70	44.979	16.7091	""	""	Prijedor	""	30101352	2025-02-06T11:17:21	3	NO ERROR	3.71	100	1021.92	0.3	0.51	0.54
776	363171	Vazduh	Libelium	0004A30B0021DF70	44.979	16.7091	""	""	Prijedor	""	30101666	2025-02-06T12:18:03	3	NO ERROR	5.49	99.5	1020.94	0.05	0.05	0.05
777	363171	Vazduh	Libelium	0004A30B0021DF70	44.979	16.7091	""	""	Prijedor	""	30101992	2025-02-06T13:18:45	3	NO ERROR	5.08	99.2	1020.49	0.12	0.22	0.29
778	363171	Vazduh	Libelium	0004A30B0021DF70	44.979	16.7091	""	""	Prijedor	""	30102364	2025-02-06T14:19:27	3	NO ERROR	5.37	96.3	1020.02	0.02	0.02	0.02
779	363171	Vazduh	Libelium	0004A30B0021DF70	44.979	16.7091	""	""	Prijedor	""	30102644	2025-02-06T15:20:09	3	NO ERROR	5.84	93.4	1019.7	0.03	0.03	0.03
780	363171	Vazduh	Libelium	0004A30B0021DF70	44.979	16.7091	""	""	Prijedor	""	30102927	2025-02-06T16:20:51	3	NO ERROR	4.61	90.6	1019.48	0.2	0.22	0.22
781	363171	Vazduh	Libelium	0004A30B0021DF70	44.979	16.7091	""	""	Prijedor	""	30103239	2025-02-06T17:21:39	3	NO ERROR	2.36	100	1019.9	0.03	0.03	0.03
782	363171	Vazduh	Libelium	0004A30B0021DF70	44.979	16.7091	""	""	Prijedor	""	30103511	2025-02-06T18:22:21	3	NO ERROR	1.14	100	1020.02	0.4	0.57	0.58
783	363171	Vazduh	Libelium	0004A30B0021DF70	44.979	16.7091	""	""	Prijedor	""	30103779	2025-02-06T19:23:03	3	NO ERROR	0.38	100	1020.13	0.21	0.23	0.23
784	363171	Vazduh	Libelium	0004A30B0021DF70	44.979	16.7091	""	""	Prijedor	""	30104110	2025-02-06T20:23:45	3	NO ERROR	-0.06	100	1020.06	0.05	0.12	0.2
785	363171	Vazduh	Libelium	0004A30B0021DF70	44.979	16.7091	""	""	Prijedor	""	30104446	2025-02-06T21:24:27	3	NO ERROR	0.53	100	1020.15	0.03	0.03	0.03
786	363171	Vazduh	Libelium	0004A30B0021DF70	44.979	16.7091	""	""	Prijedor	""	30104758	2025-02-06T22:25:09	3	NO ERROR	0.54	100	1020.08	0.12	0.33	0.53
787	363171	Vazduh	Libelium	0004A30B0021DF70	44.979	16.7091	""	""	Prijedor	""	30105106	2025-02-06T23:25:52	3	NO ERROR	-0.05	100	1020.21	0.41	0.61	0.63
788	363171	Vazduh	Libelium	0004A30B0021DF70	44.979	16.7091	""	""	Prijedor	""	30105386	2025-02-07T00:26:34	3	NO ERROR	-0.3	100	1019.73	0.1	0.13	0.13
789	363171	Vazduh	Libelium	0004A30B0021DF70	44.979	16.7091	""	""	Prijedor	""	30105654	2025-02-07T01:27:22	3	NO ERROR	-0.75	100	1019.47	0.08	0.09	0.09
790	363171	Vazduh	Libelium	0004A30B0021DF70	44.979	16.7091	""	""	Prijedor	""	30105978	2025-02-07T02:28:10	3	NO ERROR	-1.82	100	1019.34	0.39	0.44	0.44
791	363171	Vazduh	Libelium	0004A30B0021DF70	44.979	16.7091	""	""	Prijedor	""	30106250	2025-02-07T03:28:52	3	NO ERROR	-2.14	100	1019.09	0.07	0.07	0.07
792	363171	Vazduh	Libelium	0004A30B0021DF70	44.979	16.7091	""	""	Prijedor	""	30106586	2025-02-07T04:29:34	3	NO ERROR	-3.73	100	1019.07	0.74	0.79	0.79
793	363171	Vazduh	Libelium	0004A30B0021DF70	44.979	16.7091	""	""	Prijedor	""	30106949	2025-02-07T05:30:22	3	NO ERROR	-3.6	100	1019.15	13.69	20.45	31.51
794	363171	Vazduh	Libelium	0004A30B0021DF70	44.979	16.7091	""	""	Prijedor	""	30107302	2025-02-07T06:31:10	3	NO ERROR	-3.47	100	1019.11	14.44	28.36	72.12
795	363171	Vazduh	Libelium	0004A30B0021DF70	44.979	16.7091	""	""	Prijedor	""	30107629	2025-02-07T07:31:52	3	NO ERROR	-3.24	100	1019.42	4.68	12.36	63.65
796	363171	Vazduh	Libelium	0004A30B0021DF70	44.979	16.7091	""	""	Prijedor	""	30107992	2025-02-07T08:32:34	3	NO ERROR	-2.43	100	1019.67	4.39	8.26	22.92
797	363171	Vazduh	Libelium	0004A30B0021DF70	44.979	16.7091	""	""	Prijedor	""	30108246	2025-02-07T09:33:17	3	NO ERROR	-2.47	100	1019.78	1.15	5.42	15.36
798	363171	Vazduh	Libelium	0004A30B0021DF70	44.979	16.7091	""	""	Prijedor	""	30108581	2025-02-07T10:33:59	3	NO ERROR	-0.74	100	1019.68	0.68	2.11	14.89
799	363171	Vazduh	Libelium	0004A30B0021DF70	44.979	16.7091	""	""	Prijedor	""	30108864	2025-02-07T11:34:41	3	NO ERROR	0.75	100	1019.03	0.2	0.24	0.24
800	363171	Vazduh	Libelium	0004A30B0021DF70	44.979	16.7091	""	""	Prijedor	""	30109219	2025-02-07T12:35:23	3	NO ERROR	2.61	100	1018.13	0.25	0.27	0.27
801	363171	Vazduh	Libelium	0004A30B0021DF70	44.979	16.7091	""	""	Prijedor	""	30109555	2025-02-07T13:36:05	3	NO ERROR	5.48	97.4	1017.33	0.03	0.03	0.03
802	363171	Vazduh	Libelium	0004A30B0021DF70	44.979	16.7091	""	""	Prijedor	""	30109891	2025-02-07T14:36:47	3	NO ERROR	8.38	75	1016.7	0.03	0.04	0.04
803	363171	Vazduh	Libelium	0004A30B0021DF70	44.979	16.7091	""	""	Prijedor	""	30110156	2025-02-07T15:37:29	3	NO ERROR	7.8	79.5	1016.54	0.04	0.07	0.07
804	363171	Vazduh	Libelium	0004A30B0021DF70	44.979	16.7091	""	""	Prijedor	""	30110485	2025-02-07T16:38:11	3	NO ERROR	5.14	90.4	1016.57	0.1	0.15	0.15
805	363171	Vazduh	Libelium	0004A30B0021DF70	44.979	16.7091	""	""	Prijedor	""	30110742	2025-02-07T17:38:53	3	NO ERROR	3.72	100	1016.99	0.09	0.22	0.53
806	363171	Vazduh	Libelium	0004A30B0021DF70	44.979	16.7091	""	""	Prijedor	""	30111027	2025-02-07T18:39:35	3	NO ERROR	2.87	100	1017.17	0.8	1.1	1.14
807	363171	Vazduh	Libelium	0004A30B0021DF70	44.979	16.7091	""	""	Prijedor	""	30111333	2025-02-07T19:40:17	3	NO ERROR	1	100	1017.21	0.11	0.26	0.3
808	363171	Vazduh	Libelium	0004A30B0021DF70	44.979	16.7091	""	""	Prijedor	""	30111697	2025-02-07T20:40:59	3	NO ERROR	0.33	100	1017.38	0.28	0.45	0.45
809	363171	Vazduh	Libelium	0004A30B0021DF70	44.979	16.7091	""	""	Prijedor	""	30112043	2025-02-07T21:41:41	3	NO ERROR	-0.55	100	1017.33	0.32	0.34	0.34
810	363171	Vazduh	Libelium	0004A30B0021DF70	44.979	16.7091	""	""	Prijedor	""	30112373	2025-02-07T22:42:24	3	NO ERROR	-0.81	100	1017.35	0.17	0.24	0.25
811	363171	Vazduh	Libelium	0004A30B0021DF70	44.979	16.7091	""	""	Prijedor	""	30112674	2025-02-07T23:43:06	3	NO ERROR	-0.38	100	1017.31	0.11	0.11	0.11
812	363171	Vazduh	Libelium	0004A30B0021DF70	44.979	16.7091	""	""	Prijedor	""	30112969	2025-02-08T00:43:48	3	NO ERROR	-0.85	100	1016.73	0.07	0.07	0.07
813	363171	Vazduh	Libelium	0004A30B0021DF70	44.979	16.7091	""	""	Prijedor	""	30113252	2025-02-08T01:44:30	3	NO ERROR	-0.78	100	1016.86	0.14	0.16	0.16
814	363171	Vazduh	Libelium	0004A30B0021DF70	44.979	16.7091	""	""	Prijedor	""	30113541	2025-02-08T02:45:12	3	NO ERROR	-0.51	100	1016.72	0.42	0.51	0.51
815	363171	Vazduh	Libelium	0004A30B0021DF70	44.979	16.7091	""	""	Prijedor	""	30113854	2025-02-08T03:45:54	3	NO ERROR	-0.19	100	1016.41	0.03	0.04	0.04
816	363171	Vazduh	Libelium	0004A30B0021DF70	44.979	16.7091	""	""	Prijedor	""	30114240	2025-02-08T04:46:36	3	NO ERROR	0.05	100	1016.39	0.26	0.28	0.28
817	363171	Vazduh	Libelium	0004A30B0021DF70	44.979	16.7091	""	""	Prijedor	""	30114609	2025-02-08T05:47:18	3	NO ERROR	0.35	100	1016.35	0.34	0.49	0.5
818	363171	Vazduh	Libelium	0004A30B0021DF70	44.979	16.7091	""	""	Prijedor	""	30114949	2025-02-08T06:48:00	3	NO ERROR	0.61	100	1016.71	0.37	0.41	0.41
819	363171	Vazduh	Libelium	0004A30B0021DF70	44.979	16.7091	""	""	Prijedor	""	30115304	2025-02-08T07:48:42	3	NO ERROR	1.03	100	1016.79	0.15	0.18	0.18
820	363171	Vazduh	Libelium	0004A30B0021DF70	44.979	16.7091	""	""	Prijedor	""	30115611	2025-02-08T08:49:24	3	NO ERROR	1.38	100	1017	0.1	0.1	0.1
821	363171	Vazduh	Libelium	0004A30B0021DF70	44.979	16.7091	""	""	Prijedor	""	30115876	2025-02-08T09:50:07	3	NO ERROR	2.06	100	1017.02	0.12	0.24	0.32
822	363171	Vazduh	Libelium	0004A30B0021DF70	44.979	16.7091	""	""	Prijedor	""	30116238	2025-02-08T10:50:49	3	NO ERROR	4.95	100	1016.92	0.07	0.11	0.12
823	363171	Vazduh	Libelium	0004A30B0021DF70	44.979	16.7091	""	""	Prijedor	""	30116529	2025-02-08T11:51:31	3	NO ERROR	5.48	96.9	1016.44	0.24	0.31	0.32
824	363171	Vazduh	Libelium	0004A30B0021DF70	44.979	16.7091	""	""	Prijedor	""	30116907	2025-02-08T12:52:13	3	NO ERROR	6.66	90.6	1016.05	0.49	0.78	0.81
825	363171	Vazduh	Libelium	0004A30B0021DF70	44.979	16.7091	""	""	Prijedor	""	30117265	2025-02-08T13:52:55	3	NO ERROR	7.72	84	1015.34	0.25	0.28	0.28
826	363171	Vazduh	Libelium	0004A30B0021DF70	44.979	16.7091	""	""	Prijedor	""	30117602	2025-02-08T14:53:37	3	NO ERROR	7.43	86.1	1015.21	0.23	0.28	0.28
827	363171	Vazduh	Libelium	0004A30B0021DF70	44.979	16.7091	""	""	Prijedor	""	30117856	2025-02-08T15:54:19	3	NO ERROR	7.04	87.3	1014.9	0.21	0.36	0.44
828	363171	Vazduh	Libelium	0004A30B0021DF70	44.979	16.7091	""	""	Prijedor	""	30118212	2025-02-08T16:55:01	3	NO ERROR	6.5	85.8	1014.99	0.06	0.07	0.07
829	363171	Vazduh	Libelium	0004A30B0021DF70	44.979	16.7091	""	""	Prijedor	""	30118453	2025-02-08T17:55:49	3	NO ERROR	5.92	86.7	1015.39	0.03	0.03	0.03
830	363171	Vazduh	Libelium	0004A30B0021DF70	44.979	16.7091	""	""	Prijedor	""	30118732	2025-02-08T18:56:31	3	NO ERROR	4.79	95.8	1015.65	0.07	0.07	0.07
831	363171	Vazduh	Libelium	0004A30B0021DF70	44.979	16.7091	""	""	Prijedor	""	30119037	2025-02-08T19:57:13	3	NO ERROR	4.24	94.1	1015.89	0.08	0.12	0.13
832	363171	Vazduh	Libelium	0004A30B0021DF70	44.979	16.7091	""	""	Prijedor	""	30119375	2025-02-08T20:57:55	3	NO ERROR	2.62	100	1015.87	0.6	0.85	0.86
833	363171	Vazduh	Libelium	0004A30B0021DF70	44.979	16.7091	""	""	Prijedor	""	30119672	2025-02-08T21:58:37	3	NO ERROR	1.25	100	1015.87	0.15	0.19	0.2
834	363171	Vazduh	Libelium	0004A30B0021DF70	44.979	16.7091	""	""	Prijedor	""	30120027	2025-02-08T22:59:26	3	NO ERROR	0.61	100	1015.61	0.3	0.32	0.32
835	363171	Vazduh	Libelium	0004A30B0021DF70	44.979	16.7091	""	""	Prijedor	""	30120311	2025-02-09T00:00:08	3	NO ERROR	-0.33	100	1015.77	0.07	0.07	0.07
836	363171	Vazduh	Libelium	0004A30B0021DF70	44.979	16.7091	""	""	Prijedor	""	30120586	2025-02-09T01:00:50	3	NO ERROR	-0.78	100	1015.64	0.33	0.41	0.41
837	363171	Vazduh	Libelium	0004A30B0021DF70	44.979	16.7091	""	""	Prijedor	""	30120883	2025-02-09T02:01:38	3	NO ERROR	-1.43	100	1015.45	0.05	0.05	0.05
838	363171	Vazduh	Libelium	0004A30B0021DF70	44.979	16.7091	""	""	Prijedor	""	30121170	2025-02-09T03:02:20	3	NO ERROR	-1.71	100	1015.58	0.13	0.21	0.29
839	363171	Vazduh	Libelium	0004A30B0021DF70	44.979	16.7091	""	""	Prijedor	""	30121482	2025-02-09T04:03:02	3	NO ERROR	-0.91	100	1015.26	0.05	0.05	0.05
840	363171	Vazduh	Libelium	0004A30B0021DF70	44.979	16.7091	""	""	Prijedor	""	30128318	2025-02-10T01:18:10	3	NO ERROR	3.22	86.8	1013.54	0	0.07	0.15
841	363171	Vazduh	Libelium	0004A30B0021DF70	44.979	16.7091	""	""	Prijedor	""	30128609	2025-02-10T02:18:52	3	NO ERROR	3.04	89.9	1013.12	0.03	0.03	0.03
842	363171	Vazduh	Libelium	0004A30B0021DF70	44.979	16.7091	""	""	Prijedor	""	30128890	2025-02-10T03:19:40	3	NO ERROR	2.92	93.9	1012.67	0	0	0
843	363171	Vazduh	Libelium	0004A30B0021DF70	44.979	16.7091	""	""	Prijedor	""	30129210	2025-02-10T04:20:22	3	NO ERROR	2.84	90.7	1012.55	0.02	0.02	0.02
844	363171	Vazduh	Libelium	0004A30B0021DF70	44.979	16.7091	""	""	Prijedor	""	30129581	2025-02-10T05:21:04	3	NO ERROR	2.91	91.1	1012.31	0	0	0
845	363171	Vazduh	Libelium	0004A30B0021DF70	44.979	16.7091	""	""	Prijedor	""	30129916	2025-02-10T06:21:46	3	NO ERROR	2.88	99.2	1012.28	0.34	0.47	0.48
846	363171	Vazduh	Libelium	0004A30B0021DF70	44.979	16.7091	""	""	Prijedor	""	30130236	2025-02-10T07:22:28	3	NO ERROR	2.98	93	1012.7	0.07	0.1	0.1
847	363171	Vazduh	Libelium	0004A30B0021DF70	44.979	16.7091	""	""	Prijedor	""	30130536	2025-02-10T08:23:23	3	NO ERROR	3.11	97.8	1012.98	0.29	0.38	0.39
848	363171	Vazduh	Libelium	0004A30B0021DF70	44.979	16.7091	""	""	Prijedor	""	30130808	2025-02-10T09:24:04	3	NO ERROR	4.87	84.1	1012.96	0.27	0.59	0.83
849	363171	Vazduh	Libelium	0004A30B0021DF70	44.979	16.7091	""	""	Prijedor	""	30131158	2025-02-10T10:24:46	3	NO ERROR	5.26	78	1012.93	0.28	0.41	0.45
850	363171	Vazduh	Libelium	0004A30B0021DF70	44.979	16.7091	""	""	Prijedor	""	30131500	2025-02-10T11:25:29	3	NO ERROR	5.83	73.7	1012.81	0.14	0.16	0.16
851	363171	Vazduh	Libelium	0004A30B0021DF70	44.979	16.7091	""	""	Prijedor	""	30131841	2025-02-10T12:26:11	3	NO ERROR	6.48	74.8	1012.25	0.06	0.08	0.08
852	363171	Vazduh	Libelium	0004A30B0021DF70	44.979	16.7091	""	""	Prijedor	""	30132193	2025-02-10T13:26:53	3	NO ERROR	7.03	70.7	1011.81	0.16	0.22	0.22
853	363171	Vazduh	Libelium	0004A30B0021DF70	44.979	16.7091	""	""	Prijedor	""	30132522	2025-02-10T14:27:35	3	NO ERROR	6.83	72.6	1011.59	0.04	0.07	0.07
854	363171	Vazduh	Libelium	0004A30B0021DF70	44.979	16.7091	""	""	Prijedor	""	30132833	2025-02-10T15:28:17	3	NO ERROR	6.88	69.9	1011.66	0.13	0.15	0.15
855	363171	Vazduh	Libelium	0004A30B0021DF70	44.979	16.7091	""	""	Prijedor	""	30133135	2025-02-10T16:28:59	3	NO ERROR	6.38	71.3	1011.68	0.02	0.02	0.02
856	363171	Vazduh	Libelium	0004A30B0021DF70	44.979	16.7091	""	""	Prijedor	""	30133425	2025-02-10T17:29:47	3	NO ERROR	5.74	72.9	1011.91	0.29	0.44	0.44
857	363171	Vazduh	Libelium	0004A30B0021DF70	44.979	16.7091	""	""	Prijedor	""	30133687	2025-02-10T18:30:29	3	NO ERROR	5.44	81	1012.19	0.13	0.14	0.14
858	363171	Vazduh	Libelium	0004A30B0021DF70	44.979	16.7091	""	""	Prijedor	""	30133987	2025-02-10T19:31:11	3	NO ERROR	4.99	79.8	1012.44	0.07	0.07	0.07
859	363171	Vazduh	Libelium	0004A30B0021DF70	44.979	16.7091	""	""	Prijedor	""	30134351	2025-02-10T20:31:53	3	NO ERROR	4.77	83.6	1012.58	0.16	0.2	0.21
860	363171	Vazduh	Libelium	0004A30B0021DF70	44.979	16.7091	""	""	Prijedor	""	30134678	2025-02-10T21:32:35	3	NO ERROR	4.37	88	1012.76	0.03	0.03	0.03
861	363171	Vazduh	Libelium	0004A30B0021DF70	44.979	16.7091	""	""	Prijedor	""	30134985	2025-02-10T22:33:17	3	NO ERROR	4.12	91.4	1012.79	0.02	0.02	0.02
862	363171	Vazduh	Libelium	0004A30B0021DF70	44.979	16.7091	""	""	Prijedor	""	30135322	2025-02-10T23:33:59	3	NO ERROR	3.32	97.6	1012.89	0.05	0.08	0.08
863	363171	Vazduh	Libelium	0004A30B0021DF70	44.979	16.7091	""	""	Prijedor	""	30135603	2025-02-11T00:34:42	3	NO ERROR	3.3	94.2	1013.05	0.22	0.29	0.29
864	363171	Vazduh	Libelium	0004A30B0021DF70	44.979	16.7091	""	""	Prijedor	""	30135901	2025-02-11T01:35:24	3	NO ERROR	3.4	86.2	1013.05	0.03	0.03	0.03
865	363171	Vazduh	Libelium	0004A30B0021DF70	44.979	16.7091	""	""	Prijedor	""	30136225	2025-02-11T02:36:06	3	NO ERROR	2.77	100	1013.04	0.07	0.11	0.13
866	363171	Vazduh	Libelium	0004A30B0021DF70	44.979	16.7091	""	""	Prijedor	""	30136515	2025-02-11T03:36:48	3	NO ERROR	2.12	100	1012.98	0.05	0.11	0.12
867	363171	Vazduh	Libelium	0004A30B0021DF70	44.979	16.7091	""	""	Prijedor	""	30136917	2025-02-11T04:37:30	3	NO ERROR	1.88	100	1013.06	0.1	0.1	0.1
868	363171	Vazduh	Libelium	0004A30B0021DF70	44.979	16.7091	""	""	Prijedor	""	30137265	2025-02-11T05:38:12	3	NO ERROR	1.41	100	1012.87	0.08	0.09	0.09
869	363171	Vazduh	Libelium	0004A30B0021DF70	44.979	16.7091	""	""	Prijedor	""	30137614	2025-02-11T06:38:54	3	NO ERROR	1.63	100	1012.92	0.18	0.2	0.2
870	363171	Vazduh	Libelium	0004A30B0021DF70	44.979	16.7091	""	""	Prijedor	""	30137963	2025-02-11T07:39:36	3	NO ERROR	1.54	100	1013.1	0.45	0.56	0.56
871	363171	Vazduh	Libelium	0004A30B0021DF70	44.979	16.7091	""	""	Prijedor	""	30138301	2025-02-11T08:40:18	3	NO ERROR	1.92	100	1013.39	0	0	0
872	363171	Vazduh	Libelium	0004A30B0021DF70	44.979	16.7091	""	""	Prijedor	""	30138570	2025-02-11T09:41:00	3	NO ERROR	2.61	100	1013.58	0.14	0.2	0.2
873	363171	Vazduh	Libelium	0004A30B0021DF70	44.979	16.7091	""	""	Prijedor	""	30138906	2025-02-11T10:41:42	3	NO ERROR	3.35	100	1013.65	0.13	0.14	0.14
874	363171	Vazduh	Libelium	0004A30B0021DF70	44.979	16.7091	""	""	Prijedor	""	30139203	2025-02-11T11:42:24	3	NO ERROR	4.13	100	1013.42	0.05	0.05	0.05
875	363171	Vazduh	Libelium	0004A30B0021DF70	44.979	16.7091	""	""	Prijedor	""	30139551	2025-02-11T12:43:06	3	NO ERROR	4.82	98.1	1012.91	0.3	0.56	0.6
876	363171	Vazduh	Libelium	0004A30B0021DF70	44.979	16.7091	""	""	Prijedor	""	30139928	2025-02-11T13:43:49	3	NO ERROR	6.05	95.2	1012.16	0	0	0
877	363171	Vazduh	Libelium	0004A30B0021DF70	44.979	16.7091	""	""	Prijedor	""	30140249	2025-02-11T14:44:31	3	NO ERROR	6.16	96.4	1011.97	0.18	0.19	0.19
878	363171	Vazduh	Libelium	0004A30B0021DF70	44.979	16.7091	""	""	Prijedor	""	30140624	2025-02-11T15:45:13	3	NO ERROR	5.76	95	1011.74	0.02	0.02	0.02
879	363171	Vazduh	Libelium	0004A30B0021DF70	44.979	16.7091	""	""	Prijedor	""	30141017	2025-02-11T16:45:55	3	NO ERROR	5.55	96.5	1011.71	0.09	0.12	0.12
880	363171	Vazduh	Libelium	0004A30B0021DF70	44.979	16.7091	""	""	Prijedor	""	30141395	2025-02-11T17:46:37	3	NO ERROR	5.24	100	1011.67	0.14	0.19	0.19
881	363171	Vazduh	Libelium	0004A30B0021DF70	44.979	16.7091	""	""	Prijedor	""	30141764	2025-02-11T18:47:19	3	NO ERROR	5.07	100	1011.84	0.1	0.11	0.11
882	363171	Vazduh	Libelium	0004A30B0021DF70	44.979	16.7091	""	""	Prijedor	""	30142194	2025-02-11T19:48:01	3	NO ERROR	5.06	100	1011.85	0.15	0.16	0.16
883	363171	Vazduh	Libelium	0004A30B0021DF70	44.979	16.7091	""	""	Prijedor	""	30142624	2025-02-11T20:48:43	3	NO ERROR	4.79	100	1011.78	0.04	0.04	0.04
884	363171	Vazduh	Libelium	0004A30B0021DF70	44.979	16.7091	""	""	Prijedor	""	30143044	2025-02-11T21:49:31	3	NO ERROR	4.76	100	1011.42	0.22	0.33	0.33
885	363171	Vazduh	Libelium	0004A30B0021DF70	44.979	16.7091	""	""	Prijedor	""	30143485	2025-02-11T22:50:13	3	NO ERROR	4.36	100	1011.31	0.18	0.2	0.2
886	363171	Vazduh	Libelium	0004A30B0021DF70	44.979	16.7091	""	""	Prijedor	""	30143862	2025-02-11T23:50:55	3	NO ERROR	4.66	100	1010.99	0.1	0.1	0.1
887	363171	Vazduh	Libelium	0004A30B0021DF70	44.979	16.7091	""	""	Prijedor	""	30144236	2025-02-12T00:51:37	3	NO ERROR	4.45	100	1010.85	0.16	0.22	0.22
888	363171	Vazduh	Libelium	0004A30B0021DF70	44.979	16.7091	""	""	Prijedor	""	30144640	2025-02-12T01:52:19	3	NO ERROR	4.27	100	1010.43	0.2	0.22	0.22
889	363171	Vazduh	Libelium	0004A30B0021DF70	44.979	16.7091	""	""	Prijedor	""	30144977	2025-02-12T02:53:02	3	NO ERROR	4.25	87.8	1010.16	0.03	0.03	0.03
890	363171	Vazduh	Libelium	0004A30B0021DF70	44.979	16.7091	""	""	Prijedor	""	30145324	2025-02-12T03:53:44	3	NO ERROR	3.92	91.6	1009.66	0.08	0.09	0.09
891	363171	Vazduh	Libelium	0004A30B0021DF70	44.979	16.7091	""	""	Prijedor	""	30145828	2025-02-12T04:54:26	3	NO ERROR	3.89	92.7	1009.57	0	0	0
892	363171	Vazduh	Libelium	0004A30B0021DF70	44.979	16.7091	""	""	Prijedor	""	30146257	2025-02-12T05:55:08	3	NO ERROR	3.66	92.1	1009.44	0.05	0.05	0.05
893	363171	Vazduh	Libelium	0004A30B0021DF70	44.979	16.7091	""	""	Prijedor	""	30146706	2025-02-12T06:55:50	3	NO ERROR	3.59	94.7	1009.03	0.04	0.07	0.07
894	363171	Vazduh	Libelium	0004A30B0021DF70	44.979	16.7091	""	""	Prijedor	""	30147115	2025-02-12T07:56:32	3	NO ERROR	3.62	99.2	1009.31	0.1	0.22	0.3
895	363171	Vazduh	Libelium	0004A30B0021DF70	44.979	16.7091	""	""	Prijedor	""	30147467	2025-02-12T08:57:14	3	NO ERROR	4.04	95.3	1009.33	0.03	0.03	0.03
896	363171	Vazduh	Libelium	0004A30B0021DF70	44.979	16.7091	""	""	Prijedor	""	30147814	2025-02-12T09:57:56	3	NO ERROR	5.21	94.5	1009.24	0.02	0.02	0.02
897	363171	Vazduh	Libelium	0004A30B0021DF70	44.979	16.7091	""	""	Prijedor	""	30148313	2025-02-12T10:58:38	3	NO ERROR	5.82	100	1009.15	0.09	0.1	0.1
898	363171	Vazduh	Libelium	0004A30B0021DF70	44.979	16.7091	""	""	Prijedor	""	30148766	2025-02-12T11:59:20	3	NO ERROR	6.62	100	1008.6	0.13	0.16	0.16
899	363171	Vazduh	Libelium	0004A30B0021DF70	44.979	16.7091	""	""	Prijedor	""	30149260	2025-02-12T13:00:08	3	NO ERROR	7.2	100	1007.92	0.12	0.14	0.14
900	363171	Vazduh	Libelium	0004A30B0021DF70	44.979	16.7091	""	""	Prijedor	""	30149725	2025-02-12T14:00:50	3	NO ERROR	7.12	100	1007.38	0.37	0.46	0.46
901	363171	Vazduh	Libelium	0004A30B0021DF70	44.979	16.7091	""	""	Prijedor	""	30150135	2025-02-12T15:01:32	3	NO ERROR	6.55	100	1007.15	0.12	0.14	0.14
902	363171	Vazduh	Libelium	0004A30B0021DF70	44.979	16.7091	""	""	Prijedor	""	30150557	2025-02-12T16:02:15	3	NO ERROR	6.09	100	1007.23	0.32	0.4	0.4
903	363171	Vazduh	Libelium	0004A30B0021DF70	44.979	16.7091	""	""	Prijedor	""	30151011	2025-02-12T17:02:57	3	NO ERROR	5.34	100	1007.25	0.31	0.34	0.34
904	363171	Vazduh	Libelium	0004A30B0021DF70	44.979	16.7091	""	""	Prijedor	""	30151319	2025-02-12T18:03:39	3	NO ERROR	4.69	100	1007.75	1.11	1.19	1.19
905	363171	Vazduh	Libelium	0004A30B0021DF70	44.979	16.7091	""	""	Prijedor	""	30151695	2025-02-12T19:04:21	3	NO ERROR	4.72	100	1007.8	1.72	1.96	1.96
906	363171	Vazduh	Libelium	0004A30B0021DF70	44.979	16.7091	""	""	Prijedor	""	30152100	2025-02-12T20:05:03	3	NO ERROR	4.47	100	1007.81	1.55	1.76	1.77
907	363171	Vazduh	Libelium	0004A30B0021DF70	44.979	16.7091	""	""	Prijedor	""	30152538	2025-02-12T21:05:45	3	NO ERROR	4.6	100	1007.65	0.44	0.45	0.45
908	363171	Vazduh	Libelium	0004A30B0021DF70	44.979	16.7091	""	""	Prijedor	""	30152950	2025-02-12T22:06:27	3	NO ERROR	4.28	100	1007.33	1.52	1.8	1.83
909	363171	Vazduh	Libelium	0004A30B0021DF70	44.979	16.7091	""	""	Prijedor	""	30153375	2025-02-12T23:07:09	3	NO ERROR	4.17	100	1007.07	2.09	2.45	2.47
910	363171	Vazduh	Libelium	0004A30B0021DF70	44.979	16.7091	""	""	Prijedor	""	30153732	2025-02-13T00:07:51	3	NO ERROR	4.39	100	1006.69	1.01	1.2	1.2
911	363171	Vazduh	Libelium	0004A30B0021DF70	44.979	16.7091	""	""	Prijedor	""	30154082	2025-02-13T01:08:33	3	NO ERROR	4.39	100	1006.29	0.18	0.19	0.19
912	363171	Vazduh	Libelium	0004A30B0021DF70	44.979	16.7091	""	""	Prijedor	""	30154434	2025-02-13T02:09:21	3	NO ERROR	4.31	100	1006.26	0.53	0.62	0.63
913	363171	Vazduh	Libelium	0004A30B0021DF70	44.979	16.7091	""	""	Prijedor	""	30154712	2025-02-13T03:10:03	3	NO ERROR	4.05	100	1005.68	0.62	0.72	0.72
914	363171	Vazduh	Libelium	0004A30B0021DF70	44.979	16.7091	""	""	Prijedor	""	30155008	2025-02-13T04:10:45	3	NO ERROR	3.58	100	1005.22	0.64	0.68	0.68
915	363171	Vazduh	Libelium	0004A30B0021DF70	44.979	16.7091	""	""	Prijedor	""	30155398	2025-02-13T05:11:28	3	NO ERROR	3.13	100	1005.15	1.2	1.34	1.35
916	363171	Vazduh	Libelium	0004A30B0021DF70	44.979	16.7091	""	""	Prijedor	""	30155732	2025-02-13T06:12:10	3	NO ERROR	3.26	100	1005.03	0.63	0.7	0.7
917	363171	Vazduh	Libelium	0004A30B0021DF70	44.979	16.7091	""	""	Prijedor	""	30156058	2025-02-13T07:12:58	3	NO ERROR	2.88	100	1004.86	0.46	0.68	3.38
918	363171	Vazduh	Libelium	0004A30B0021DF70	44.979	16.7091	""	""	Prijedor	""	30156385	2025-02-13T08:13:40	3	NO ERROR	3.52	100	1004.69	1.44	4.9	23.76
919	363171	Vazduh	Libelium	0004A30B0021DF70	44.979	16.7091	""	""	Prijedor	""	30156681	2025-02-13T09:14:22	3	NO ERROR	4.17	100	1004.66	3.82	11.66	36.42
920	363171	Vazduh	Libelium	0004A30B0021DF70	44.979	16.7091	""	""	Prijedor	""	30156982	2025-02-13T10:15:04	3	NO ERROR	5.75	100	1003.97	0.9	0.97	0.97
921	363171	Vazduh	Libelium	0004A30B0021DF70	44.979	16.7091	""	""	Prijedor	""	30157299	2025-02-13T11:15:46	3	NO ERROR	6.52	100	1003.75	1.14	1.19	1.19
922	363171	Vazduh	Libelium	0004A30B0021DF70	44.979	16.7091	""	""	Prijedor	""	30157640	2025-02-13T12:16:28	3	NO ERROR	9.24	100	1002.62	0.46	0.49	0.49
923	363171	Vazduh	Libelium	0004A30B0021DF70	44.979	16.7091	""	""	Prijedor	""	30158006	2025-02-13T13:17:10	3	NO ERROR	12.72	95.1	1001.56	0.08	0.08	0.08
924	363171	Vazduh	Libelium	0004A30B0021DF70	44.979	16.7091	""	""	Prijedor	""	30158408	2025-02-13T14:17:52	3	NO ERROR	13.36	92.3	1000.8	0.14	0.23	0.25
925	363171	Vazduh	Libelium	0004A30B0021DF70	44.979	16.7091	""	""	Prijedor	""	30158779	2025-02-13T15:18:34	3	NO ERROR	13.43	93.7	1000.25	0.17	0.19	0.19
926	363171	Vazduh	Libelium	0004A30B0021DF70	44.979	16.7091	""	""	Prijedor	""	30159070	2025-02-13T16:19:16	3	NO ERROR	12.41	100	999.95	0.03	0.06	0.06
927	363171	Vazduh	Libelium	0004A30B0021DF70	44.979	16.7091	""	""	Prijedor	""	30159408	2025-02-13T17:19:58	3	NO ERROR	11.42	100	1000.16	0.08	0.09	0.09
928	363171	Vazduh	Libelium	0004A30B0021DF70	44.979	16.7091	""	""	Prijedor	""	30159700	2025-02-13T18:20:41	3	NO ERROR	10.32	100	1000.16	0.85	1.01	1.02
929	363171	Vazduh	Libelium	0004A30B0021DF70	44.979	16.7091	""	""	Prijedor	""	30159935	2025-02-13T19:21:23	3	NO ERROR	9.72	100	1000.2	0.4	0.49	0.51
930	363171	Vazduh	Libelium	0004A30B0021DF70	44.979	16.7091	""	""	Prijedor	""	30160281	2025-02-13T20:22:05	3	NO ERROR	9.33	100	1000.1	0.68	0.82	0.83
931	363171	Vazduh	Libelium	0004A30B0021DF70	44.979	16.7091	""	""	Prijedor	""	30160598	2025-02-13T21:22:47	3	NO ERROR	9.14	100	999.85	1.23	1.43	1.45
932	363171	Vazduh	Libelium	0004A30B0021DF70	44.979	16.7091	""	""	Prijedor	""	30160915	2025-02-13T22:23:29	3	NO ERROR	8.72	100	999.61	0.84	0.98	0.98
933	363171	Vazduh	Libelium	0004A30B0021DF70	44.979	16.7091	""	""	Prijedor	""	30161238	2025-02-13T23:24:17	3	NO ERROR	8.64	100	999.43	1.21	1.34	1.34
934	363171	Vazduh	Libelium	0004A30B0021DF70	44.979	16.7091	""	""	Prijedor	""	30161510	2025-02-14T00:24:59	3	NO ERROR	8.53	100	998.99	0.46	0.51	0.51
935	363171	Vazduh	Libelium	0004A30B0021DF70	44.979	16.7091	""	""	Prijedor	""	30161758	2025-02-14T01:25:41	3	NO ERROR	7.77	100	998.81	2.53	3.34	3.66
936	363171	Vazduh	Libelium	0004A30B0021DF70	44.979	16.7091	""	""	Prijedor	""	30162087	2025-02-14T02:26:23	3	NO ERROR	8.01	100	998.06	1.57	1.71	1.71
937	363171	Vazduh	Libelium	0004A30B0021DF70	44.979	16.7091	""	""	Prijedor	""	30162358	2025-02-14T03:27:05	3	NO ERROR	7.97	100	997.69	1.08	1.2	1.2
938	363171	Vazduh	Libelium	0004A30B0021DF70	44.979	16.7091	""	""	Prijedor	""	30162663	2025-02-14T04:27:47	3	NO ERROR	7.78	100	997.46	1.7	1.83	1.83
939	363171	Vazduh	Libelium	0004A30B0021DF70	44.979	16.7091	""	""	Prijedor	""	30163049	2025-02-14T05:28:29	3	NO ERROR	7.6	100	997.18	2.17	2.37	2.37
940	363171	Vazduh	Libelium	0004A30B0021DF70	44.979	16.7091	""	""	Prijedor	""	30163374	2025-02-14T06:29:11	3	NO ERROR	6.17	100	996.86	0.06	0.07	0.07
941	363171	Vazduh	Libelium	0004A30B0021DF70	44.979	16.7091	""	""	Prijedor	""	30163661	2025-02-14T07:29:54	3	NO ERROR	5.4	100	996.84	0	0	0
942	363171	Vazduh	Libelium	0004A30B0021DF70	44.979	16.7091	""	""	Prijedor	""	30163967	2025-02-14T08:30:36	3	NO ERROR	4.88	100	996.63	0.03	0.03	0.03
943	363171	Vazduh	Libelium	0004A30B0021DF70	44.979	16.7091	""	""	Prijedor	""	30164212	2025-02-14T09:31:18	3	NO ERROR	3.77	100	997.29	0.09	0.1	0.1
944	363171	Vazduh	Libelium	0004A30B0021DF70	44.979	16.7091	""	""	Prijedor	""	30164489	2025-02-14T10:32:06	3	NO ERROR	1.84	100	999.22	0	0	0
945	363171	Vazduh	Libelium	0004A30B0021DF70	44.979	16.7091	""	""	Prijedor	""	30164856	2025-02-14T11:32:48	3	NO ERROR	0.77	100	1000.04	1.38	2.56	2.84
946	363171	Vazduh	Libelium	0004A30B0021DF70	44.979	16.7091	""	""	Prijedor	""	30165194	2025-02-14T12:33:30	3	NO ERROR	1.3	100	1000.39	0.04	0.07	0.11
947	363171	Vazduh	Libelium	0004A30B0021DF70	44.979	16.7091	""	""	Prijedor	""	30165560	2025-02-14T13:34:12	3	NO ERROR	1.25	100	1000.63	0.05	0.1	0.11
948	363171	Vazduh	Libelium	0004A30B0021DF70	44.979	16.7091	""	""	Prijedor	""	30165935	2025-02-14T14:35:00	3	NO ERROR	1.57	100	1001.36	0	0	0
949	363171	Vazduh	Libelium	0004A30B0021DF70	44.979	16.7091	""	""	Prijedor	""	30166265	2025-02-14T15:35:48	3	NO ERROR	1.6	100	1001.83	0.02	0.02	0.02
950	363171	Vazduh	Libelium	0004A30B0021DF70	44.979	16.7091	""	""	Prijedor	""	30166639	2025-02-14T16:36:30	3	NO ERROR	1.59	100	1002.26	0.05	0.05	0.05
951	363171	Vazduh	Libelium	0004A30B0021DF70	44.979	16.7091	""	""	Prijedor	""	30166917	2025-02-14T17:37:12	3	NO ERROR	1.75	100	1002.95	0	0	0
952	363171	Vazduh	Libelium	0004A30B0021DF70	44.979	16.7091	""	""	Prijedor	""	30167213	2025-02-14T18:38:01	3	NO ERROR	1.78	100	1003.77	0.02	0.02	0.02
953	363171	Vazduh	Libelium	0004A30B0021DF70	44.979	16.7091	""	""	Prijedor	""	30167543	2025-02-14T19:38:43	3	NO ERROR	1.66	100	1004.57	0	0	0
954	363171	Vazduh	Libelium	0004A30B0021DF70	44.979	16.7091	""	""	Prijedor	""	30167906	2025-02-14T20:39:25	3	NO ERROR	1.86	100	1005.03	0.07	0.09	0.09
955	363171	Vazduh	Libelium	0004A30B0021DF70	44.979	16.7091	""	""	Prijedor	""	30168290	2025-02-14T21:40:07	3	NO ERROR	1.69	100	1005.94	0.02	0.02	0.02
956	363171	Vazduh	Libelium	0004A30B0021DF70	44.979	16.7091	""	""	Prijedor	""	30168632	2025-02-14T22:40:49	3	NO ERROR	1.53	100	1006.48	0.03	0.04	0.04
957	363171	Vazduh	Libelium	0004A30B0021DF70	44.979	16.7091	""	""	Prijedor	""	30168941	2025-02-14T23:41:31	3	NO ERROR	1.55	100	1006.85	0.03	0.03	0.03
958	363171	Vazduh	Libelium	0004A30B0021DF70	44.979	16.7091	""	""	Prijedor	""	30169254	2025-02-15T00:42:13	3	NO ERROR	1.47	100	1006.88	0.02	0.02	0.02
959	363171	Vazduh	Libelium	0004A30B0021DF70	44.979	16.7091	""	""	Prijedor	""	30169544	2025-02-15T01:42:55	3	NO ERROR	1.44	100	1007.21	0	0	0
960	363171	Vazduh	Libelium	0004A30B0021DF70	44.979	16.7091	""	""	Prijedor	""	30169865	2025-02-15T02:43:37	3	NO ERROR	1.38	100	1007.28	0	0	0
961	363171	Vazduh	Libelium	0004A30B0021DF70	44.979	16.7091	""	""	Prijedor	""	30170186	2025-02-15T03:44:19	3	NO ERROR	1.2	100	1007.32	0.05	0.05	0.05
962	363171	Vazduh	Libelium	0004A30B0021DF70	44.979	16.7091	""	""	Prijedor	""	30170564	2025-02-15T04:45:01	3	NO ERROR	1.17	100	1007.47	0.05	0.05	0.05
963	363171	Vazduh	Libelium	0004A30B0021DF70	44.979	16.7091	""	""	Prijedor	""	30170908	2025-02-15T05:45:43	3	NO ERROR	1.01	100	1007.87	0.07	0.07	0.07
964	363171	Vazduh	Libelium	0004A30B0021DF70	44.979	16.7091	""	""	Prijedor	""	30171297	2025-02-15T06:46:26	3	NO ERROR	0.83	100	1008.08	0.03	0.03	0.03
965	363171	Vazduh	Libelium	0004A30B0021DF70	44.979	16.7091	""	""	Prijedor	""	30171652	2025-02-15T07:47:14	3	NO ERROR	0.88	100	1008.89	0.04	0.06	0.06
966	363171	Vazduh	Libelium	0004A30B0021DF70	44.979	16.7091	""	""	Prijedor	""	30172061	2025-02-15T08:47:56	3	NO ERROR	0.85	100	1009.08	0.07	0.09	0.09
967	363171	Vazduh	Libelium	0004A30B0021DF70	44.979	16.7091	""	""	Prijedor	""	30172381	2025-02-15T09:48:38	3	NO ERROR	0.98	100	1009.42	0	0	0
968	363171	Vazduh	Libelium	0004A30B0021DF70	44.979	16.7091	""	""	Prijedor	""	30172822	2025-02-15T10:49:20	3	NO ERROR	1.1	100	1009.29	0	0	0
969	363171	Vazduh	Libelium	0004A30B0021DF70	44.979	16.7091	""	""	Prijedor	""	30173214	2025-02-15T11:50:02	3	NO ERROR	1.31	98.4	1008.73	0	0.07	0.15
970	363171	Vazduh	Libelium	0004A30B0021DF70	44.979	16.7091	""	""	Prijedor	""	30173690	2025-02-15T12:50:44	3	NO ERROR	1.31	99.7	1007.91	0.06	0.11	0.11
971	363171	Vazduh	Libelium	0004A30B0021DF70	44.979	16.7091	""	""	Prijedor	""	30174104	2025-02-15T13:51:26	3	NO ERROR	1.26	100	1007.3	0	0	0
972	363171	Vazduh	Libelium	0004A30B0021DF70	44.979	16.7091	""	""	Prijedor	""	30174517	2025-02-15T14:52:08	3	NO ERROR	1.44	100	1006.93	0	0.04	0.06
973	363171	Vazduh	Libelium	0004A30B0021DF70	44.979	16.7091	""	""	Prijedor	""	30174854	2025-02-15T15:52:56	3	NO ERROR	1.4	100	1006.86	0.02	0.02	0.02
974	363171	Vazduh	Libelium	0004A30B0021DF70	44.979	16.7091	""	""	Prijedor	""	30175199	2025-02-15T16:53:38	3	NO ERROR	1.3	100	1006.84	0	0	0
975	363171	Vazduh	Libelium	0004A30B0021DF70	44.979	16.7091	""	""	Prijedor	""	30175452	2025-02-15T17:54:20	3	NO ERROR	1.28	99.7	1006.93	0.1	0.11	0.11
976	363171	Vazduh	Libelium	0004A30B0021DF70	44.979	16.7091	""	""	Prijedor	""	30185254	2025-02-17T01:16:29	3	NO ERROR	0.47	100	1005.95	0.05	0.08	0.08
977	363171	Vazduh	Libelium	0004A30B0021DF70	44.979	16.7091	""	""	Prijedor	""	30185584	2025-02-17T02:17:11	3	NO ERROR	0.45	100	1005.88	0.09	0.12	0.12
978	363171	Vazduh	Libelium	0004A30B0021DF70	44.979	16.7091	""	""	Prijedor	""	30185855	2025-02-17T03:17:59	3	NO ERROR	0.39	100	1006	0.03	0.06	0.06
979	363171	Vazduh	Libelium	0004A30B0021DF70	44.979	16.7091	""	""	Prijedor	""	30186167	2025-02-17T04:18:41	3	NO ERROR	0.17	100	1006.23	0.02	0.02	0.02
980	363171	Vazduh	Libelium	0004A30B0021DF70	44.979	16.7091	""	""	Prijedor	""	30186543	2025-02-17T05:19:23	3	NO ERROR	0.16	100	1006.45	0.02	0.02	0.02
981	363171	Vazduh	Libelium	0004A30B0021DF70	44.979	16.7091	""	""	Prijedor	""	30186903	2025-02-17T06:20:06	3	NO ERROR	0.04	100	1006.75	0.03	0.03	0.03
982	363171	Vazduh	Libelium	0004A30B0021DF70	44.979	16.7091	""	""	Prijedor	""	30187229	2025-02-17T07:20:48	3	NO ERROR	0.28	100	1007.68	0.02	0.02	0.02
983	363171	Vazduh	Libelium	0004A30B0021DF70	44.979	16.7091	""	""	Prijedor	""	30187595	2025-02-17T08:21:36	3	NO ERROR	0.14	100	1008.28	0.03	0.06	0.06
984	363171	Vazduh	Libelium	0004A30B0021DF70	44.979	16.7091	""	""	Prijedor	""	30187951	2025-02-17T09:22:18	3	NO ERROR	0.56	100	1008.78	0.07	0.14	0.14
985	363171	Vazduh	Libelium	0004A30B0021DF70	44.979	16.7091	""	""	Prijedor	""	30188239	2025-02-17T10:23:00	3	NO ERROR	0.77	100	1009.15	0	0	0
986	363171	Vazduh	Libelium	0004A30B0021DF70	44.979	16.7091	""	""	Prijedor	""	30188552	2025-02-17T11:23:42	3	NO ERROR	1.17	100	1009.29	0.04	0.08	0.09
987	363171	Vazduh	Libelium	0004A30B0021DF70	44.979	16.7091	""	""	Prijedor	""	30188917	2025-02-17T12:24:24	3	NO ERROR	1.43	96.7	1009.06	0.1	0.17	0.18
988	363171	Vazduh	Libelium	0004A30B0021DF70	44.979	16.7091	""	""	Prijedor	""	30189232	2025-02-17T13:25:06	3	NO ERROR	1.45	94.7	1009.24	0.16	0.17	0.17
989	363171	Vazduh	Libelium	0004A30B0021DF70	44.979	16.7091	""	""	Prijedor	""	30189574	2025-02-17T14:25:48	3	NO ERROR	1.68	92.4	1008.9	0.34	0.45	0.45
990	363171	Vazduh	Libelium	0004A30B0021DF70	44.979	16.7091	""	""	Prijedor	""	30189895	2025-02-17T15:26:36	3	NO ERROR	1.6	86	1008.92	0.11	0.12	0.12
991	363171	Vazduh	Libelium	0004A30B0021DF70	44.979	16.7091	""	""	Prijedor	""	30190196	2025-02-17T16:27:18	3	NO ERROR	1.23	88.7	1009.07	0	0	0
992	363171	Vazduh	Libelium	0004A30B0021DF70	44.979	16.7091	""	""	Prijedor	""	30190460	2025-02-17T17:28:01	3	NO ERROR	0.83	90.4	1009.34	0	0	0
993	363171	Vazduh	Libelium	0004A30B0021DF70	44.979	16.7091	""	""	Prijedor	""	30190765	2025-02-17T18:28:49	3	NO ERROR	0.48	95.4	1010	0	0	0
994	363171	Vazduh	Libelium	0004A30B0021DF70	44.979	16.7091	""	""	Prijedor	""	30191042	2025-02-17T19:29:31	3	NO ERROR	0.4	98.6	1009.85	0.26	0.3	0.3
995	363171	Vazduh	Libelium	0004A30B0021DF70	44.979	16.7091	""	""	Prijedor	""	30191410	2025-02-17T20:30:13	3	NO ERROR	0.33	100	1009.78	0.03	0.14	0.44
996	363171	Vazduh	Libelium	0004A30B0021DF70	44.979	16.7091	""	""	Prijedor	""	30191766	2025-02-17T21:30:55	3	NO ERROR	0.25	100	1009.91	0.28	0.56	0.62
997	363171	Vazduh	Libelium	0004A30B0021DF70	44.979	16.7091	""	""	Prijedor	""	30192085	2025-02-17T22:31:37	3	NO ERROR	-1	100	1009.83	0.02	0.02	0.02
998	363171	Vazduh	Libelium	0004A30B0021DF70	44.979	16.7091	""	""	Prijedor	""	30192425	2025-02-17T23:32:19	3	NO ERROR	-2.15	100	1009.48	0.09	0.1	0.1
999	363171	Vazduh	Libelium	0004A30B0021DF70	44.979	16.7091	""	""	Prijedor	""	30192731	2025-02-18T00:33:01	3	NO ERROR	-2.67	100	1009.72	0.04	0.1	0.12
1000	363171	Vazduh	Libelium	0004A30B0021DF70	44.979	16.7091	""	""	Prijedor	""	30193004	2025-02-18T01:33:43	3	NO ERROR	-3.5	100	1009.63	0.08	0.09	0.09
1001	363171	Vazduh	Libelium	0004A30B0021DF70	44.979	16.7091	""	""	Prijedor	""	30193341	2025-02-18T02:34:25	3	NO ERROR	-3.99	100	1009.39	0.26	0.28	0.28
1002	363171	Vazduh	Libelium	0004A30B0021DF70	44.979	16.7091	""	""	Prijedor	""	30193725	2025-02-18T03:35:08	3	NO ERROR	-4.94	100	1009.44	0.03	0.03	0.03
1003	363171	Vazduh	Libelium	0004A30B0021DF70	44.979	16.7091	""	""	Prijedor	""	30194131	2025-02-18T04:35:50	3	NO ERROR	-5.64	100	1009.84	0.14	0.15	0.15
1004	363171	Vazduh	Libelium	0004A30B0021DF70	44.979	16.7091	""	""	Prijedor	""	30194565	2025-02-18T05:36:38	3	NO ERROR	-6.45	100	1010.24	22.64	55.6	210.55
1005	363171	Vazduh	Libelium	0004A30B0021DF70	44.979	16.7091	""	""	Prijedor	""	30194895	2025-02-18T06:37:20	3	NO ERROR	-5.07	100	1010.52	20.09	46.47	252.09
1006	363171	Vazduh	Libelium	0004A30B0021DF70	44.979	16.7091	""	""	Prijedor	""	30195202	2025-02-18T07:38:02	3	NO ERROR	-5.19	100	1010.98	24.32	46.21	126.5
1007	363171	Vazduh	Libelium	0004A30B0021DF70	44.979	16.7091	""	""	Prijedor	""	30195495	2025-02-18T08:38:44	3	NO ERROR	-4.33	100	1011.3	0.47	0.55	0.55
1008	363171	Vazduh	Libelium	0004A30B0021DF70	44.979	16.7091	""	""	Prijedor	""	30195760	2025-02-18T09:39:26	3	NO ERROR	-2.14	100	1011.82	0.08	0.09	0.09
1009	363171	Vazduh	Libelium	0004A30B0021DF70	44.979	16.7091	""	""	Prijedor	""	30196121	2025-02-18T10:40:08	3	NO ERROR	-0.71	100	1012.39	0.05	0.09	0.09
1010	363171	Vazduh	Libelium	0004A30B0021DF70	44.979	16.7091	""	""	Prijedor	""	30196586	2025-02-18T11:40:56	3	NO ERROR	2.49	84.8	1012.32	0	0	0
1011	363171	Vazduh	Libelium	0004A30B0021DF70	44.979	16.7091	""	""	Prijedor	""	30197136	2025-02-18T12:41:38	3	NO ERROR	1.88	79.4	1011.9	0	0	0
1012	363171	Vazduh	Libelium	0004A30B0021DF70	44.979	16.7091	""	""	Prijedor	""	30197656	2025-02-18T13:42:20	3	NO ERROR	1.7	72.2	1011.83	0	0	0
1013	363171	Vazduh	Libelium	0004A30B0021DF70	44.979	16.7091	""	""	Prijedor	""	30198171	2025-02-18T14:43:02	3	NO ERROR	1.89	74.6	1011.88	0	0	0
1014	363171	Vazduh	Libelium	0004A30B0021DF70	44.979	16.7091	""	""	Prijedor	""	30198637	2025-02-18T15:43:45	3	NO ERROR	1.59	71.9	1011.99	0.05	0.09	0.09
1015	363171	Vazduh	Libelium	0004A30B0021DF70	44.979	16.7091	""	""	Prijedor	""	30199122	2025-02-18T16:44:27	3	NO ERROR	1.23	77.8	1012.28	0.03	0.03	0.03
1016	363171	Vazduh	Libelium	0004A30B0021DF70	44.979	16.7091	""	""	Prijedor	""	30199460	2025-02-18T17:45:09	3	NO ERROR	0.82	79.7	1012.89	0.02	0.02	0.02
1017	363171	Vazduh	Libelium	0004A30B0021DF70	44.979	16.7091	""	""	Prijedor	""	30199793	2025-02-18T18:45:51	3	NO ERROR	0.72	83	1013.72	0	0	0
1018	363171	Vazduh	Libelium	0004A30B0021DF70	44.979	16.7091	""	""	Prijedor	""	30200153	2025-02-18T19:46:33	3	NO ERROR	0.53	92.2	1014.14	0.13	0.2	0.2
1019	363171	Vazduh	Libelium	0004A30B0021DF70	44.979	16.7091	""	""	Prijedor	""	30200538	2025-02-18T20:47:21	3	NO ERROR	0.55	89.3	1014.6	0.02	0.02	0.02
1020	363171	Vazduh	Libelium	0004A30B0021DF70	44.979	16.7091	""	""	Prijedor	""	30200894	2025-02-18T21:48:03	3	NO ERROR	0.28	79.5	1015.1	0	0	0
1021	363171	Vazduh	Libelium	0004A30B0021DF70	44.979	16.7091	""	""	Prijedor	""	30201198	2025-02-18T22:48:45	3	NO ERROR	-0.79	81.6	1015.18	0.07	0.14	0.14
1022	363171	Vazduh	Libelium	0004A30B0021DF70	44.979	16.7091	""	""	Prijedor	""	30201521	2025-02-18T23:49:27	3	NO ERROR	-2.11	93.5	1015.73	0	0	0
1023	363171	Vazduh	Libelium	0004A30B0021DF70	44.979	16.7091	""	""	Prijedor	""	30201802	2025-02-19T00:50:09	3	NO ERROR	-2.64	100	1016.17	0.07	0.09	0.09
1024	363171	Vazduh	Libelium	0004A30B0021DF70	44.979	16.7091	""	""	Prijedor	""	30202074	2025-02-19T01:50:51	3	NO ERROR	-3.81	100	1016.47	0.43	0.52	0.52
1025	363171	Vazduh	Libelium	0004A30B0021DF70	44.979	16.7091	""	""	Prijedor	""	30202367	2025-02-19T02:51:34	3	NO ERROR	-4.69	100	1016.58	0.03	0.03	0.03
1026	363171	Vazduh	Libelium	0004A30B0021DF70	44.979	16.7091	""	""	Prijedor	""	30202625	2025-02-19T03:52:16	3	NO ERROR	-5.38	100	1016.77	0.16	0.24	0.24
1027	363171	Vazduh	Libelium	0004A30B0021DF70	44.979	16.7091	""	""	Prijedor	""	30202980	2025-02-19T04:52:58	3	NO ERROR	-5.62	100	1016.92	0.03	0.03	0.03
1028	363171	Vazduh	Libelium	0004A30B0021DF70	44.979	16.7091	""	""	Prijedor	""	30203303	2025-02-19T05:53:40	3	NO ERROR	-5.95	100	1017.2	0	0	0
1029	363171	Vazduh	Libelium	0004A30B0021DF70	44.979	16.7091	""	""	Prijedor	""	30203619	2025-02-19T06:54:22	3	NO ERROR	-6.01	100	1017.72	0.06	0.08	0.08
1030	363171	Vazduh	Libelium	0004A30B0021DF70	44.979	16.7091	""	""	Prijedor	""	30203948	2025-02-19T07:55:04	3	NO ERROR	-6.39	100	1018.34	6.38	14.2	71.23
1031	363171	Vazduh	Libelium	0004A30B0021DF70	44.979	16.7091	""	""	Prijedor	""	30204294	2025-02-19T08:55:46	3	NO ERROR	0.27	97.8	1018.47	0.08	0.11	0.11
1032	363171	Vazduh	Libelium	0004A30B0021DF70	44.979	16.7091	""	""	Prijedor	""	30204576	2025-02-19T09:56:28	3	NO ERROR	1.72	90.6	1018.51	0.7	1	1
1033	363171	Vazduh	Libelium	0004A30B0021DF70	44.979	16.7091	""	""	Prijedor	""	30205026	2025-02-19T10:57:10	3	NO ERROR	1.32	75.4	1018.34	0.01	0.03	0.04
1034	363171	Vazduh	Libelium	0004A30B0021DF70	44.979	16.7091	""	""	Prijedor	""	30205997	2025-02-19T12:58:35	3	NO ERROR	3.31	55.3	1016.96	0	0	0
1035	363171	Vazduh	Libelium	0004A30B0021DF70	44.979	16.7091	""	""	Prijedor	""	30206458	2025-02-19T13:59:17	3	NO ERROR	3.55	55.7	1016.55	0.02	0.02	0.02
1036	363171	Vazduh	Libelium	0004A30B0021DF70	44.979	16.7091	""	""	Prijedor	""	30206942	2025-02-19T14:59:59	3	NO ERROR	6.65	48.1	1016.62	0	0	0
1037	363171	Vazduh	Libelium	0004A30B0021DF70	44.979	16.7091	""	""	Prijedor	""	30207421	2025-02-19T16:00:41	3	NO ERROR	2.92	53.2	1016.24	0.02	0.02	0.02
1038	363171	Vazduh	Libelium	0004A30B0021DF70	44.979	16.7091	""	""	Prijedor	""	30207848	2025-02-19T17:01:23	3	NO ERROR	1.92	56.9	1016.21	0.26	0.49	1.11
1039	363171	Vazduh	Libelium	0004A30B0021DF70	44.979	16.7091	""	""	Prijedor	""	30208930	2025-02-19T20:03:29	3	NO ERROR	-1.72	88.2	1016.72	0.02	0.02	0.02
1040	363171	Vazduh	Libelium	0004A30B0021DF70	44.979	16.7091	""	""	Prijedor	""	30209324	2025-02-19T21:04:11	3	NO ERROR	-2.74	100	1016.96	0.03	0.03	0.03
1041	363171	Vazduh	Libelium	0004A30B0021DF70	44.979	16.7091	""	""	Prijedor	""	30209687	2025-02-19T22:04:53	3	NO ERROR	-3.79	100	1016.81	0	0	0
1042	363171	Vazduh	Libelium	0004A30B0021DF70	44.979	16.7091	""	""	Prijedor	""	30210015	2025-02-19T23:05:35	3	NO ERROR	-4.16	100	1017.07	0.02	0.02	0.02
1043	363171	Vazduh	Libelium	0004A30B0021DF70	44.979	16.7091	""	""	Prijedor	""	30210304	2025-02-20T00:06:18	3	NO ERROR	-5.05	100	1017.41	0	0	0
1044	363171	Vazduh	Libelium	0004A30B0021DF70	44.979	16.7091	""	""	Prijedor	""	30210581	2025-02-20T01:07:00	3	NO ERROR	-5.8	100	1017.6	0.05	0.08	0.08
1045	363171	Vazduh	Libelium	0004A30B0021DF70	44.979	16.7091	""	""	Prijedor	""	30210863	2025-02-20T02:07:42	3	NO ERROR	-6.09	100	1017.84	0.33	0.48	0.49
1046	363171	Vazduh	Libelium	0004A30B0021DF70	44.979	16.7091	""	""	Prijedor	""	30211123	2025-02-20T03:08:24	3	NO ERROR	-6.68	100	1017.63	0.14	0.16	0.16
1047	363171	Vazduh	Libelium	0004A30B0021DF70	44.979	16.7091	""	""	Prijedor	""	30211420	2025-02-20T04:09:06	3	NO ERROR	-7.46	100	1017.63	0.05	0.08	0.08
1048	363171	Vazduh	Libelium	0004A30B0021DF70	44.979	16.7091	""	""	Prijedor	""	30211778	2025-02-20T05:09:48	3	NO ERROR	-7.61	100	1018.05	0	0	0
1049	363171	Vazduh	Libelium	0004A30B0021DF70	44.979	16.7091	""	""	Prijedor	""	30212092	2025-02-20T06:10:30	3	NO ERROR	-8.17	100	1018.46	0.05	0.09	0.09
1050	363171	Vazduh	Libelium	0004A30B0021DF70	44.979	16.7091	""	""	Prijedor	""	30212403	2025-02-20T07:11:19	3	NO ERROR	-7.95	100	1018.66	0.08	0.12	0.13
1051	363171	Vazduh	Libelium	0004A30B0021DF70	44.979	16.7091	""	""	Prijedor	""	30212700	2025-02-20T08:12:00	3	NO ERROR	-2.24	100	1019.05	0.09	0.11	0.11
1052	363171	Vazduh	Libelium	0004A30B0021DF70	44.979	16.7091	""	""	Prijedor	""	30212979	2025-02-20T09:12:43	3	NO ERROR	0.98	74.6	1019.07	0.04	0.05	0.05
1053	363171	Vazduh	Libelium	0004A30B0021DF70	44.979	16.7091	""	""	Prijedor	""	30213287	2025-02-20T10:13:25	3	NO ERROR	0.22	86.8	1019.14	0.04	0.07	0.07
1054	363171	Vazduh	Libelium	0004A30B0021DF70	44.979	16.7091	""	""	Prijedor	""	30213645	2025-02-20T11:14:07	3	NO ERROR	0.18	81.6	1018.95	0.05	0.06	0.06
1055	363171	Vazduh	Libelium	0004A30B0021DF70	44.979	16.7091	""	""	Prijedor	""	30214090	2025-02-20T12:14:55	3	NO ERROR	1.83	76	1018.23	0.02	0.02	0.02
1056	363171	Vazduh	Libelium	0004A30B0021DF70	44.979	16.7091	""	""	Prijedor	""	30214595	2025-02-20T13:15:37	3	NO ERROR	3.43	69.4	1017.72	0.05	0.08	0.08
1057	363171	Vazduh	Libelium	0004A30B0021DF70	44.979	16.7091	""	""	Prijedor	""	30215051	2025-02-20T14:16:19	3	NO ERROR	6.48	62.8	1017.26	0.09	0.1	0.1
1058	363171	Vazduh	Libelium	0004A30B0021DF70	44.979	16.7091	""	""	Prijedor	""	30215470	2025-02-20T15:17:01	3	NO ERROR	8.44	51.8	1016.97	0.02	0.02	0.02
1059	363171	Vazduh	Libelium	0004A30B0021DF70	44.979	16.7091	""	""	Prijedor	""	30215764	2025-02-20T16:17:43	3	NO ERROR	3.54	58.3	1016.75	0.02	0.02	0.02
1060	363171	Vazduh	Libelium	0004A30B0021DF70	44.979	16.7091	""	""	Prijedor	""	30216042	2025-02-20T17:18:25	3	NO ERROR	2.27	62.6	1017.01	0.02	0.06	0.07
1061	363171	Vazduh	Libelium	0004A30B0021DF70	44.979	16.7091	""	""	Prijedor	""	30216342	2025-02-20T18:19:07	3	NO ERROR	0.98	70.1	1017.67	0.24	0.43	0.46
1062	363171	Vazduh	Libelium	0004A30B0021DF70	44.979	16.7091	""	""	Prijedor	""	30216615	2025-02-20T19:19:49	3	NO ERROR	-0.62	90.1	1017.94	0.31	0.51	0.55
1063	363171	Vazduh	Libelium	0004A30B0021DF70	44.979	16.7091	""	""	Prijedor	""	30216919	2025-02-20T20:20:38	3	NO ERROR	-1.71	100	1018.13	0.46	0.91	1.78
1064	363171	Vazduh	Libelium	0004A30B0021DF70	44.979	16.7091	""	""	Prijedor	""	30217270	2025-02-20T21:21:20	3	NO ERROR	-2.56	100	1018.02	0.03	0.11	0.18
1065	363171	Vazduh	Libelium	0004A30B0021DF70	44.979	16.7091	""	""	Prijedor	""	30217563	2025-02-20T22:22:02	3	NO ERROR	-2.85	100	1018.09	0.14	0.3	0.47
1066	363171	Vazduh	Libelium	0004A30B0021DF70	44.979	16.7091	""	""	Prijedor	""	30217874	2025-02-20T23:22:44	3	NO ERROR	-3.4	100	1018.11	0.08	0.09	0.09
1067	363171	Vazduh	Libelium	0004A30B0021DF70	44.979	16.7091	""	""	Prijedor	""	30218208	2025-02-21T00:23:26	3	NO ERROR	-3.9	100	1018.58	0.03	0.03	0.03
1068	363171	Vazduh	Libelium	0004A30B0021DF70	44.979	16.7091	""	""	Prijedor	""	30218480	2025-02-21T01:24:08	3	NO ERROR	-4.41	100	1018.86	0.09	0.1	0.1
1069	363171	Vazduh	Libelium	0004A30B0021DF70	44.979	16.7091	""	""	Prijedor	""	30218837	2025-02-21T02:24:50	3	NO ERROR	-4.07	100	1018.69	0.04	0.09	0.09
1070	363171	Vazduh	Libelium	0004A30B0021DF70	44.979	16.7091	""	""	Prijedor	""	30219179	2025-02-21T03:25:32	3	NO ERROR	-4.78	100	1018.38	0.18	0.19	0.19
1071	363171	Vazduh	Libelium	0004A30B0021DF70	44.979	16.7091	""	""	Prijedor	""	30219578	2025-02-21T04:26:14	3	NO ERROR	-4.82	100	1018.16	0.06	0.08	0.09
1072	363171	Vazduh	Libelium	0004A30B0021DF70	44.979	16.7091	""	""	Prijedor	""	30220019	2025-02-21T05:26:56	3	NO ERROR	-4.67	100	1018.2	0.01	0.03	0.03
1073	363171	Vazduh	Libelium	0004A30B0021DF70	44.979	16.7091	""	""	Prijedor	""	30220385	2025-02-21T06:27:38	3	NO ERROR	-4.85	100	1017.99	0.07	0.07	0.07
1074	363171	Vazduh	Libelium	0004A30B0021DF70	44.979	16.7091	""	""	Prijedor	""	30220766	2025-02-21T07:28:21	3	NO ERROR	-4.41	100	1019.09	0.22	0.74	1.01
1075	363171	Vazduh	Libelium	0004A30B0021DF70	44.979	16.7091	""	""	Prijedor	""	30221173	2025-02-21T08:29:03	3	NO ERROR	-1.09	100	1019.3	0	0	0
1076	363171	Vazduh	Libelium	0004A30B0021DF70	44.979	16.7091	""	""	Prijedor	""	30221508	2025-02-21T09:29:45	3	NO ERROR	-0.12	100	1019.2	0.07	0.13	0.13
1077	363171	Vazduh	Libelium	0004A30B0021DF70	44.979	16.7091	""	""	Prijedor	""	30221832	2025-02-21T10:30:27	3	NO ERROR	1.21	89.9	1019.26	0	0	0
1078	363171	Vazduh	Libelium	0004A30B0021DF70	44.979	16.7091	""	""	Prijedor	""	30222200	2025-02-21T11:31:09	3	NO ERROR	3.83	74.3	1019.18	0.03	0.03	0.03
1079	363171	Vazduh	Libelium	0004A30B0021DF70	44.979	16.7091	""	""	Prijedor	""	30222629	2025-02-21T12:31:51	3	NO ERROR	5.08	63.7	1018.33	0.02	0.02	0.02
1080	363171	Vazduh	Libelium	0004A30B0021DF70	44.979	16.7091	""	""	Prijedor	""	30223036	2025-02-21T13:32:33	3	NO ERROR	7.24	63.3	1017.63	0.08	0.09	0.09
1081	363171	Vazduh	Libelium	0004A30B0021DF70	44.979	16.7091	""	""	Prijedor	""	30223416	2025-02-21T14:33:15	3	NO ERROR	8.83	57.1	1017.32	0.04	0.15	0.23
1082	363171	Vazduh	Libelium	0004A30B0021DF70	44.979	16.7091	""	""	Prijedor	""	30223813	2025-02-21T15:33:57	3	NO ERROR	7.56	55	1016.65	0.03	0.1	0.1
1083	363171	Vazduh	Libelium	0004A30B0021DF70	44.979	16.7091	""	""	Prijedor	""	30224155	2025-02-21T16:34:39	3	NO ERROR	6.96	55.6	1016.37	0.05	0.1	0.11
1084	363171	Vazduh	Libelium	0004A30B0021DF70	44.979	16.7091	""	""	Prijedor	""	30224428	2025-02-21T17:35:21	3	NO ERROR	5.48	57.4	1016.36	0.27	0.34	0.34
1085	363171	Vazduh	Libelium	0004A30B0021DF70	44.979	16.7091	""	""	Prijedor	""	30224734	2025-02-21T18:36:03	3	NO ERROR	4.18	61.5	1016.53	0.08	0.11	0.11
1086	363171	Vazduh	Libelium	0004A30B0021DF70	44.979	16.7091	""	""	Prijedor	""	30225048	2025-02-21T19:36:46	3	NO ERROR	1.42	88.1	1016.7	0.18	0.25	0.26
1087	363171	Vazduh	Libelium	0004A30B0021DF70	44.979	16.7091	""	""	Prijedor	""	30225388	2025-02-21T20:37:28	3	NO ERROR	1.07	93.5	1016.84	0.64	0.98	1.02
1088	363171	Vazduh	Libelium	0004A30B0021DF70	44.979	16.7091	""	""	Prijedor	""	30225720	2025-02-21T21:38:10	3	NO ERROR	-0.36	100	1016.62	0.15	0.16	0.16
1089	363171	Vazduh	Libelium	0004A30B0021DF70	44.979	16.7091	""	""	Prijedor	""	30226046	2025-02-21T22:38:52	3	NO ERROR	-1.05	100	1016.34	0.12	0.21	0.23
1090	363171	Vazduh	Libelium	0004A30B0021DF70	44.979	16.7091	""	""	Prijedor	""	30226338	2025-02-21T23:39:34	3	NO ERROR	0.09	100	1015.9	0.03	0.03	0.03
1091	363171	Vazduh	Libelium	0004A30B0021DF70	44.979	16.7091	""	""	Prijedor	""	30226654	2025-02-22T00:40:16	3	NO ERROR	0.66	100	1015.61	0.14	0.22	0.22
1092	363171	Vazduh	Libelium	0004A30B0021DF70	44.979	16.7091	""	""	Prijedor	""	30226913	2025-02-22T01:40:58	3	NO ERROR	0.22	100	1015.38	0.18	0.19	0.19
1093	363171	Vazduh	Libelium	0004A30B0021DF70	44.979	16.7091	""	""	Prijedor	""	30227208	2025-02-22T02:41:40	3	NO ERROR	-0.38	100	1015.31	0.09	0.1	0.1
1094	363171	Vazduh	Libelium	0004A30B0021DF70	44.979	16.7091	""	""	Prijedor	""	30227492	2025-02-22T03:42:22	3	NO ERROR	-1.08	100	1015.22	0.02	0.02	0.02
1095	363171	Vazduh	Libelium	0004A30B0021DF70	44.979	16.7091	""	""	Prijedor	""	30227870	2025-02-22T04:43:04	3	NO ERROR	-0.96	100	1014.88	0.02	0.02	0.02
1096	363171	Vazduh	Libelium	0004A30B0021DF70	44.979	16.7091	""	""	Prijedor	""	30228190	2025-02-22T05:43:46	3	NO ERROR	-1.99	100	1014.78	0.1	0.11	0.11
1097	363171	Vazduh	Libelium	0004A30B0021DF70	44.979	16.7091	""	""	Prijedor	""	30228565	2025-02-22T06:44:29	3	NO ERROR	-1.29	100	1014.68	0.04	0.08	0.09
1098	363171	Vazduh	Libelium	0004A30B0021DF70	44.979	16.7091	""	""	Prijedor	""	30228894	2025-02-22T07:45:11	3	NO ERROR	-0.61	100	1014.6	0.04	0.07	0.07
1099	363171	Vazduh	Libelium	0004A30B0021DF70	44.979	16.7091	""	""	Prijedor	""	30229258	2025-02-22T08:45:53	3	NO ERROR	2.65	100	1014.14	0.22	0.33	0.33
1100	363171	Vazduh	Libelium	0004A30B0021DF70	44.979	16.7091	""	""	Prijedor	""	30229586	2025-02-22T09:46:35	3	NO ERROR	5.82	73.4	1013.57	0	0	0
1101	363171	Vazduh	Libelium	0004A30B0021DF70	44.979	16.7091	""	""	Prijedor	""	30229942	2025-02-22T10:47:17	3	NO ERROR	5.69	72.2	1013.27	0.15	0.17	0.17
1102	363171	Vazduh	Libelium	0004A30B0021DF70	44.979	16.7091	""	""	Prijedor	""	30230272	2025-02-22T11:47:59	3	NO ERROR	8.46	66.7	1012.64	0.04	0.07	0.07
1103	363171	Vazduh	Libelium	0004A30B0021DF70	44.979	16.7091	""	""	Prijedor	""	30230730	2025-02-22T12:48:41	3	NO ERROR	10.59	62.4	1012.04	0	0.07	0.15
1104	363171	Vazduh	Libelium	0004A30B0021DF70	44.979	16.7091	""	""	Prijedor	""	30231134	2025-02-22T13:49:23	3	NO ERROR	12.1	58.1	1011.42	0.13	0.21	0.23
1105	363171	Vazduh	Libelium	0004A30B0021DF70	44.979	16.7091	""	""	Prijedor	""	30231501	2025-02-22T14:50:05	3	NO ERROR	15.36	52.5	1010.77	0.18	0.27	0.29
1106	363171	Vazduh	Libelium	0004A30B0021DF70	44.979	16.7091	""	""	Prijedor	""	30231832	2025-02-22T15:50:47	3	NO ERROR	12.63	58.8	1010.31	0.22	0.28	0.28
1107	363171	Vazduh	Libelium	0004A30B0021DF70	44.979	16.7091	""	""	Prijedor	""	30232174	2025-02-22T16:51:29	3	NO ERROR	11.36	63.6	1010.13	0.12	0.13	0.13
1108	363171	Vazduh	Libelium	0004A30B0021DF70	44.979	16.7091	""	""	Prijedor	""	30232424	2025-02-22T17:52:11	3	NO ERROR	9.07	65	1010.92	0.06	0.08	0.08
1109	363171	Vazduh	Libelium	0004A30B0021DF70	44.979	16.7091	""	""	Prijedor	""	30232697	2025-02-22T18:52:53	3	NO ERROR	9.15	66.2	1011.42	0.08	0.11	0.11
1110	363171	Vazduh	Libelium	0004A30B0021DF70	44.979	16.7091	""	""	Prijedor	""	30233039	2025-02-22T19:53:35	3	NO ERROR	8.27	70.3	1011.75	0.03	0.03	0.03
1111	363171	Vazduh	Libelium	0004A30B0021DF70	44.979	16.7091	""	""	Prijedor	""	30233389	2025-02-22T20:54:18	3	NO ERROR	7.47	73.1	1012.01	0.19	0.2	0.2
1112	363171	Vazduh	Libelium	0004A30B0021DF70	44.979	16.7091	""	""	Prijedor	""	30233700	2025-02-22T21:55:06	3	NO ERROR	7.02	74.9	1012.16	0.17	0.23	0.23
1113	363171	Vazduh	Libelium	0004A30B0021DF70	44.979	16.7091	""	""	Prijedor	""	30234023	2025-02-22T22:55:48	3	NO ERROR	6.86	75.2	1012.11	0.04	0.07	0.07
1114	363171	Vazduh	Libelium	0004A30B0021DF70	44.979	16.7091	""	""	Prijedor	""	30234322	2025-02-22T23:56:30	3	NO ERROR	6.77	74.9	1012.28	0.08	0.11	0.11
1115	363171	Vazduh	Libelium	0004A30B0021DF70	44.979	16.7091	""	""	Prijedor	""	30234648	2025-02-23T00:57:12	3	NO ERROR	6.52	75.5	1012.48	0.03	0.11	0.18
1116	363171	Vazduh	Libelium	0004A30B0021DF70	44.979	16.7091	""	""	Prijedor	""	30242239	2025-02-24T01:14:32	3	NO ERROR	7.28	100	1014.75	0.03	0.11	0.42
1117	363171	Vazduh	Libelium	0004A30B0021DF70	44.979	16.7091	""	""	Prijedor	""	30242519	2025-02-24T02:15:14	3	NO ERROR	6.9	100	1014.48	0.41	0.51	0.51
1118	363171	Vazduh	Libelium	0004A30B0021DF70	44.979	16.7091	""	""	Prijedor	""	30242799	2025-02-24T03:15:56	3	NO ERROR	6.38	100	1014.37	0.05	0.05	0.05
1119	363171	Vazduh	Libelium	0004A30B0021DF70	44.979	16.7091	""	""	Prijedor	""	30243094	2025-02-24T04:16:38	3	NO ERROR	6.21	100	1014.26	0.32	0.36	0.36
1120	363171	Vazduh	Libelium	0004A30B0021DF70	44.979	16.7091	""	""	Prijedor	""	30243480	2025-02-24T05:17:20	3	NO ERROR	5.85	100	1014.16	0.1	0.1	0.1
1121	363171	Vazduh	Libelium	0004A30B0021DF70	44.979	16.7091	""	""	Prijedor	""	30243813	2025-02-24T06:18:02	3	NO ERROR	5.77	100	1014.05	0.35	0.38	0.38
1122	363171	Vazduh	Libelium	0004A30B0021DF70	44.979	16.7091	""	""	Prijedor	""	30244126	2025-02-24T07:18:44	3	NO ERROR	5.71	100	1014.4	0.65	0.69	0.69
1123	363171	Vazduh	Libelium	0004A30B0021DF70	44.979	16.7091	""	""	Prijedor	""	30244431	2025-02-24T08:19:38	3	NO ERROR	6.41	100	1014.46	0.78	0.84	0.84
1124	363171	Vazduh	Libelium	0004A30B0021DF70	44.979	16.7091	""	""	Prijedor	""	30244715	2025-02-24T09:20:20	3	NO ERROR	6.43	100	1014.54	0.63	0.69	0.69
1125	363171	Vazduh	Libelium	0004A30B0021DF70	44.979	16.7091	""	""	Prijedor	""	30244991	2025-02-24T10:21:02	3	NO ERROR	7.71	100	1014.29	0.34	0.35	0.35
1126	363171	Vazduh	Libelium	0004A30B0021DF70	44.979	16.7091	""	""	Prijedor	""	30245304	2025-02-24T11:21:44	3	NO ERROR	8.36	100	1014.09	0.11	0.13	0.13
1127	363171	Vazduh	Libelium	0004A30B0021DF70	44.979	16.7091	""	""	Prijedor	""	30245649	2025-02-24T12:22:33	3	NO ERROR	9.54	100	1013.69	0.13	0.14	0.14
1128	363171	Vazduh	Libelium	0004A30B0021DF70	44.979	16.7091	""	""	Prijedor	""	30246040	2025-02-24T13:23:15	3	NO ERROR	10.7	100	1012.98	0.03	0.03	0.03
1129	363171	Vazduh	Libelium	0004A30B0021DF70	44.979	16.7091	""	""	Prijedor	""	30246356	2025-02-24T14:23:57	3	NO ERROR	10.81	100	1012.38	0.13	0.15	0.15
1130	363171	Vazduh	Libelium	0004A30B0021DF70	44.979	16.7091	""	""	Prijedor	""	30246698	2025-02-24T15:24:39	3	NO ERROR	10.85	100	1011.57	0.02	0.02	0.02
1131	363171	Vazduh	Libelium	0004A30B0021DF70	44.979	16.7091	""	""	Prijedor	""	30246997	2025-02-24T16:25:21	3	NO ERROR	10.43	100	1011.06	0	0	0
1132	363171	Vazduh	Libelium	0004A30B0021DF70	44.979	16.7091	""	""	Prijedor	""	30247255	2025-02-24T17:26:03	3	NO ERROR	9.73	100	1011.19	0.04	0.07	0.07
1133	363171	Vazduh	Libelium	0004A30B0021DF70	44.979	16.7091	""	""	Prijedor	""	30247522	2025-02-24T18:26:45	3	NO ERROR	8.75	100	1011.18	0.21	0.23	0.23
1134	363171	Vazduh	Libelium	0004A30B0021DF70	44.979	16.7091	""	""	Prijedor	""	30248127	2025-02-24T20:28:21	3	NO ERROR	7.57	100	1010.63	0.8	0.89	0.9
1135	363171	Vazduh	Libelium	0004A30B0021DF70	44.979	16.7091	""	""	Prijedor	""	30248478	2025-02-24T21:29:09	3	NO ERROR	6.63	100	1010.37	0.76	0.84	0.85
1136	363171	Vazduh	Libelium	0004A30B0021DF70	44.979	16.7091	""	""	Prijedor	""	30248779	2025-02-24T22:29:51	3	NO ERROR	6.88	100	1009.76	0.53	0.64	0.64
1137	363171	Vazduh	Libelium	0004A30B0021DF70	44.979	16.7091	""	""	Prijedor	""	30249064	2025-02-24T23:30:33	3	NO ERROR	6.91	100	1009.67	6.56	21.08	104.07
1138	363171	Vazduh	Libelium	0004A30B0021DF70	44.979	16.7091	""	""	Prijedor	""	30249349	2025-02-25T00:31:15	3	NO ERROR	6.43	100	1009.41	7.38	18.93	107.39
1139	363171	Vazduh	Libelium	0004A30B0021DF70	44.979	16.7091	""	""	Prijedor	""	30249598	2025-02-25T01:31:57	3	NO ERROR	6.04	100	1009.24	0.48	0.52	0.52
1140	363171	Vazduh	Libelium	0004A30B0021DF70	44.979	16.7091	""	""	Prijedor	""	30249892	2025-02-25T02:32:39	3	NO ERROR	5.96	100	1008.73	0.3	0.31	0.31
1141	363171	Vazduh	Libelium	0004A30B0021DF70	44.979	16.7091	""	""	Prijedor	""	30250181	2025-02-25T03:33:22	3	NO ERROR	5.78	100	1008.42	4.28	17.84	234.17
1142	363171	Vazduh	Libelium	0004A30B0021DF70	44.979	16.7091	""	""	Prijedor	""	30250551	2025-02-25T04:34:04	3	NO ERROR	5.6	100	1007.97	11.99	21.97	169.61
1143	363171	Vazduh	Libelium	0004A30B0021DF70	44.979	16.7091	""	""	Prijedor	""	30250886	2025-02-25T05:34:46	3	NO ERROR	5.48	100	1007.85	1.96	3.81	19.08
1144	363171	Vazduh	Libelium	0004A30B0021DF70	44.979	16.7091	""	""	Prijedor	""	30251198	2025-02-25T06:35:28	3	NO ERROR	5.31	100	1007.4	0.56	0.59	0.59
1145	363171	Vazduh	Libelium	0004A30B0021DF70	44.979	16.7091	""	""	Prijedor	""	30251501	2025-02-25T07:36:10	3	NO ERROR	5.62	100	1007.58	0.61	0.64	0.64
1146	363171	Vazduh	Libelium	0004A30B0021DF70	44.979	16.7091	""	""	Prijedor	""	30251790	2025-02-25T08:36:52	3	NO ERROR	5.78	100	1007.71	0.1	0.22	0.3
1147	363171	Vazduh	Libelium	0004A30B0021DF70	44.979	16.7091	""	""	Prijedor	""	30252059	2025-02-25T09:37:34	3	NO ERROR	6.61	100	1007.35	0.17	0.25	1.93
1148	363171	Vazduh	Libelium	0004A30B0021DF70	44.979	16.7091	""	""	Prijedor	""	30252388	2025-02-25T10:38:16	3	NO ERROR	7.83	100	1007.21	0.13	0.14	0.14
1149	363171	Vazduh	Libelium	0004A30B0021DF70	44.979	16.7091	""	""	Prijedor	""	30252653	2025-02-25T11:38:58	3	NO ERROR	9.97	100	1006.46	0	0	0
1150	363171	Vazduh	Libelium	0004A30B0021DF70	44.979	16.7091	""	""	Prijedor	""	30253000	2025-02-25T12:39:40	3	NO ERROR	12.49	100	1005.37	0	0	0
1151	363171	Vazduh	Libelium	0004A30B0021DF70	44.979	16.7091	""	""	Prijedor	""	30253436	2025-02-25T13:40:22	3	NO ERROR	14.28	91.6	1004.15	0	0	0
1152	363171	Vazduh	Libelium	0004A30B0021DF70	44.979	16.7091	""	""	Prijedor	""	30253917	2025-02-25T14:41:04	3	NO ERROR	16.11	78.4	1003.35	0.3	0.34	0.34
1153	363171	Vazduh	Libelium	0004A30B0021DF70	44.979	16.7091	""	""	Prijedor	""	30254342	2025-02-25T15:41:46	3	NO ERROR	16.94	68.9	1002.79	0.22	0.26	0.26
1154	363171	Vazduh	Libelium	0004A30B0021DF70	44.979	16.7091	""	""	Prijedor	""	30254777	2025-02-25T16:42:29	3	NO ERROR	14.44	82.4	1002.45	0	0	0
1155	363171	Vazduh	Libelium	0004A30B0021DF70	44.979	16.7091	""	""	Prijedor	""	30255073	2025-02-25T17:43:11	3	NO ERROR	12.91	93.3	1002.68	0.02	0.02	0.02
1156	363171	Vazduh	Libelium	0004A30B0021DF70	44.979	16.7091	""	""	Prijedor	""	30255375	2025-02-25T18:43:53	3	NO ERROR	12.23	100	1002.78	0.07	0.09	0.09
1157	363171	Vazduh	Libelium	0004A30B0021DF70	44.979	16.7091	""	""	Prijedor	""	30255678	2025-02-25T19:44:35	3	NO ERROR	11.33	100	1002.54	0.37	0.48	0.51
1158	363171	Vazduh	Libelium	0004A30B0021DF70	44.979	16.7091	""	""	Prijedor	""	30255993	2025-02-25T20:45:17	3	NO ERROR	10.75	100	1002.48	0.07	0.07	0.07
1159	363171	Vazduh	Libelium	0004A30B0021DF70	44.979	16.7091	""	""	Prijedor	""	30256352	2025-02-25T21:45:59	3	NO ERROR	10.03	100	1002.51	0.22	0.37	0.38
1160	363171	Vazduh	Libelium	0004A30B0021DF70	44.979	16.7091	""	""	Prijedor	""	30256708	2025-02-25T22:46:41	3	NO ERROR	9.2	100	1002.12	0.06	0.11	0.11
1161	363171	Vazduh	Libelium	0004A30B0021DF70	44.979	16.7091	""	""	Prijedor	""	30256964	2025-02-25T23:47:23	3	NO ERROR	8.71	100	1001.65	0.3	0.34	0.34
1162	363171	Vazduh	Libelium	0004A30B0021DF70	44.979	16.7091	""	""	Prijedor	""	30257270	2025-02-26T00:48:05	3	NO ERROR	8.57	100	1001.69	0.13	0.14	0.14
1163	363171	Vazduh	Libelium	0004A30B0021DF70	44.979	16.7091	""	""	Prijedor	""	30257552	2025-02-26T01:48:47	3	NO ERROR	8.21	100	1001.32	0.19	0.22	0.22
1164	363171	Vazduh	Libelium	0004A30B0021DF70	44.979	16.7091	""	""	Prijedor	""	30257796	2025-02-26T02:49:29	3	NO ERROR	7.65	100	1001.12	0.26	0.28	0.28
1165	363171	Vazduh	Libelium	0004A30B0021DF70	44.979	16.7091	""	""	Prijedor	""	30258085	2025-02-26T03:50:11	3	NO ERROR	7.79	100	1000.63	0.21	0.26	0.27
1166	363171	Vazduh	Libelium	0004A30B0021DF70	44.979	16.7091	""	""	Prijedor	""	30258483	2025-02-26T04:50:53	3	NO ERROR	8.14	100	1000.35	0.09	0.11	0.11
1167	363171	Vazduh	Libelium	0004A30B0021DF70	44.979	16.7091	""	""	Prijedor	""	30258808	2025-02-26T05:51:48	3	NO ERROR	8.13	100	1000.16	0.2	0.21	0.21
1168	363171	Vazduh	Libelium	0004A30B0021DF70	44.979	16.7091	""	""	Prijedor	""	30259151	2025-02-26T06:52:30	3	NO ERROR	7.81	100	1000.37	0.1	0.13	0.13
1169	363171	Vazduh	Libelium	0004A30B0021DF70	44.979	16.7091	""	""	Prijedor	""	30259491	2025-02-26T07:53:12	3	NO ERROR	7.93	100	1000.7	0.64	0.69	0.69
1170	363171	Vazduh	Libelium	0004A30B0021DF70	44.979	16.7091	""	""	Prijedor	""	30259862	2025-02-26T08:53:54	3	NO ERROR	9.01	100	1000.55	0.24	0.64	2.75
1171	363171	Vazduh	Libelium	0004A30B0021DF70	44.979	16.7091	""	""	Prijedor	""	30260210	2025-02-26T09:54:42	3	NO ERROR	9.3	100	1000.4	0.43	0.45	0.45
1172	363171	Vazduh	Libelium	0004A30B0021DF70	44.979	16.7091	""	""	Prijedor	""	30260595	2025-02-26T10:55:30	3	NO ERROR	12.19	100	1000.24	0.11	0.12	0.12
1173	363171	Vazduh	Libelium	0004A30B0021DF70	44.979	16.7091	""	""	Prijedor	""	30260993	2025-02-26T11:56:18	3	NO ERROR	12.44	100	999.96	0.02	0.02	0.02
1174	363171	Vazduh	Libelium	0004A30B0021DF70	44.979	16.7091	""	""	Prijedor	""	30261463	2025-02-26T12:57:00	3	NO ERROR	12.88	100	999.51	0.02	0.02	0.02
1175	363171	Vazduh	Libelium	0004A30B0021DF70	44.979	16.7091	""	""	Prijedor	""	30261903	2025-02-26T13:57:42	3	NO ERROR	13.46	100	998.97	0	0	0
1176	363171	Vazduh	Libelium	0004A30B0021DF70	44.979	16.7091	""	""	Prijedor	""	30262293	2025-02-26T14:58:24	3	NO ERROR	14.22	100	998.79	0.05	0.08	0.08
1177	363171	Vazduh	Libelium	0004A30B0021DF70	44.979	16.7091	""	""	Prijedor	""	30262641	2025-02-26T15:59:06	3	NO ERROR	13.15	100	998.78	0.06	0.08	0.08
1178	363171	Vazduh	Libelium	0004A30B0021DF70	44.979	16.7091	""	""	Prijedor	""	30262988	2025-02-26T16:59:48	3	NO ERROR	12.41	100	998.83	0.1	0.13	0.13
1179	363171	Vazduh	Libelium	0004A30B0021DF70	44.979	16.7091	""	""	Prijedor	""	30263280	2025-02-26T18:00:37	3	NO ERROR	11.44	100	999.23	0.23	0.26	0.26
1180	363171	Vazduh	Libelium	0004A30B0021DF70	44.979	16.7091	""	""	Prijedor	""	30263578	2025-02-26T19:01:18	3	NO ERROR	10.62	100	999.53	0.17	0.21	0.21
1181	363171	Vazduh	Libelium	0004A30B0021DF70	44.979	16.7091	""	""	Prijedor	""	30263900	2025-02-26T20:02:00	3	NO ERROR	10.51	100	999.51	0.2	0.23	0.23
1182	363171	Vazduh	Libelium	0004A30B0021DF70	44.979	16.7091	""	""	Prijedor	""	30264233	2025-02-26T21:02:49	3	NO ERROR	10.02	100	999.94	0.57	0.63	0.63
1183	363171	Vazduh	Libelium	0004A30B0021DF70	44.979	16.7091	""	""	Prijedor	""	30264542	2025-02-26T22:03:31	3	NO ERROR	9.77	100	1000.17	0.91	1	1.01
1184	363171	Vazduh	Libelium	0004A30B0021DF70	44.979	16.7091	""	""	Prijedor	""	30264857	2025-02-26T23:04:13	3	NO ERROR	9.94	100	1000.25	0.26	0.29	0.29
1185	363171	Vazduh	Libelium	0004A30B0021DF70	44.979	16.7091	""	""	Prijedor	""	30265156	2025-02-27T00:04:55	3	NO ERROR	9.66	100	1000.2	1.15	1.44	1.45
1186	363171	Vazduh	Libelium	0004A30B0021DF70	44.979	16.7091	""	""	Prijedor	""	30265735	2025-02-27T02:06:19	3	NO ERROR	7.82	100	1000	0.88	0.97	0.97
1187	363171	Vazduh	Libelium	0004A30B0021DF70	44.979	16.7091	""	""	Prijedor	""	30265977	2025-02-27T03:07:01	3	NO ERROR	7.37	100	1000.01	1.17	1.24	1.24
1188	363171	Vazduh	Libelium	0004A30B0021DF70	44.979	16.7091	""	""	Prijedor	""	30266275	2025-02-27T04:07:43	3	NO ERROR	7.17	100	1000.31	0.17	0.17	0.17
1189	363171	Vazduh	Libelium	0004A30B0021DF70	44.979	16.7091	""	""	Prijedor	""	30266671	2025-02-27T05:08:25	3	NO ERROR	6.96	100	1000.69	0.08	0.08	0.08
1190	363171	Vazduh	Libelium	0004A30B0021DF70	44.979	16.7091	""	""	Prijedor	""	30267001	2025-02-27T06:09:07	3	NO ERROR	6.84	100	1000.72	0.47	0.5	0.5
1191	363171	Vazduh	Libelium	0004A30B0021DF70	44.979	16.7091	""	""	Prijedor	""	30267364	2025-02-27T07:09:49	3	NO ERROR	6.85	100	1001.01	0.12	0.12	0.12
1192	363171	Vazduh	Libelium	0004A30B0021DF70	44.979	16.7091	""	""	Prijedor	""	30267724	2025-02-27T08:10:31	3	NO ERROR	6.87	100	1001.48	0.86	0.91	0.91
1193	363171	Vazduh	Libelium	0004A30B0021DF70	44.979	16.7091	""	""	Prijedor	""	30268038	2025-02-27T09:11:13	3	NO ERROR	6.95	100	1001.89	0.58	0.65	0.65
1194	363171	Vazduh	Libelium	0004A30B0021DF70	44.979	16.7091	""	""	Prijedor	""	30268346	2025-02-27T10:11:56	3	NO ERROR	7.16	100	1002.11	0.41	0.44	0.44
1195	363171	Vazduh	Libelium	0004A30B0021DF70	44.979	16.7091	""	""	Prijedor	""	30268651	2025-02-27T11:12:38	3	NO ERROR	7.24	100	1002.35	0.32	0.41	0.41
1196	363171	Vazduh	Libelium	0004A30B0021DF70	44.979	16.7091	""	""	Prijedor	""	30268984	2025-02-27T12:13:20	3	NO ERROR	7.75	100	1002.14	0.21	0.27	0.27
1197	363171	Vazduh	Libelium	0004A30B0021DF70	44.979	16.7091	""	""	Prijedor	""	30269358	2025-02-27T13:14:02	3	NO ERROR	8.13	100	1001.8	0.02	0.02	0.02
1198	363171	Vazduh	Libelium	0004A30B0021DF70	44.979	16.7091	""	""	Prijedor	""	30269694	2025-02-27T14:14:44	3	NO ERROR	7.88	100	1001.63	0.03	0.03	0.03
1199	363171	Vazduh	Libelium	0004A30B0021DF70	44.979	16.7091	""	""	Prijedor	""	30270043	2025-02-27T15:15:26	3	NO ERROR	7.58	100	1001.79	0.02	0.02	0.02
1200	363171	Vazduh	Libelium	0004A30B0021DF70	44.979	16.7091	""	""	Prijedor	""	30270358	2025-02-27T16:16:08	3	NO ERROR	7.03	100	1002.27	0.02	0.02	0.02
1201	363171	Vazduh	Libelium	0004A30B0021DF70	44.979	16.7091	""	""	Prijedor	""	30270658	2025-02-27T17:16:50	3	NO ERROR	6.31	100	1002.59	0.03	0.05	0.05
1202	363171	Vazduh	Libelium	0004A30B0021DF70	44.979	16.7091	""	""	Prijedor	""	30270926	2025-02-27T18:17:32	3	NO ERROR	6.12	100	1003.18	0.05	0.05	0.05
1203	363171	Vazduh	Libelium	0004A30B0021DF70	44.979	16.7091	""	""	Prijedor	""	30271197	2025-02-27T19:18:14	3	NO ERROR	6.02	100	1003.79	0.02	0.02	0.02
1204	363171	Vazduh	Libelium	0004A30B0021DF70	44.979	16.7091	""	""	Prijedor	""	30271513	2025-02-27T20:18:56	3	NO ERROR	5.84	100	1004.46	0.03	0.03	0.03
1205	363171	Vazduh	Libelium	0004A30B0021DF70	44.979	16.7091	""	""	Prijedor	""	30271823	2025-02-27T21:19:38	3	NO ERROR	5.44	100	1005.02	0.05	0.05	0.05
1206	363171	Vazduh	Libelium	0004A30B0021DF70	44.979	16.7091	""	""	Prijedor	""	30272101	2025-02-27T22:20:21	3	NO ERROR	5.26	100	1005.2	0	0	0
1207	363171	Vazduh	Libelium	0004A30B0021DF70	44.979	16.7091	""	""	Prijedor	""	30272399	2025-02-27T23:21:03	3	NO ERROR	4.92	100	1005.51	0.03	0.03	0.03
1208	363171	Vazduh	Libelium	0004A30B0021DF70	44.979	16.7091	""	""	Prijedor	""	30272663	2025-02-28T00:21:51	3	NO ERROR	4.9	100	1005.79	0	0	0
1209	363171	Vazduh	Libelium	0004A30B0021DF70	44.979	16.7091	""	""	Prijedor	""	30272900	2025-02-28T01:22:33	3	NO ERROR	4.82	100	1005.99	0.05	0.05	0.05
1210	363171	Vazduh	Libelium	0004A30B0021DF70	44.979	16.7091	""	""	Prijedor	""	30273167	2025-02-28T02:23:15	3	NO ERROR	4.79	100	1005.78	0.02	0.02	0.02
1211	363171	Vazduh	Libelium	0004A30B0021DF70	44.979	16.7091	""	""	Prijedor	""	30273421	2025-02-28T03:23:57	3	NO ERROR	4.61	100	1005.89	0	0	0
1212	363171	Vazduh	Libelium	0004A30B0021DF70	44.979	16.7091	""	""	Prijedor	""	30273709	2025-02-28T04:24:39	3	NO ERROR	4.64	100	1005.99	0	0	0
1213	363171	Vazduh	Libelium	0004A30B0021DF70	44.979	16.7091	""	""	Prijedor	""	30274065	2025-02-28T05:25:21	3	NO ERROR	4.75	100	1006.28	0.02	0.02	0.02
1214	363171	Vazduh	Libelium	0004A30B0021DF70	44.979	16.7091	""	""	Prijedor	""	30274370	2025-02-28T06:26:03	3	NO ERROR	4.69	100	1006.51	0.11	0.12	0.12
1215	363171	Vazduh	Libelium	0004A30B0021DF70	44.979	16.7091	""	""	Prijedor	""	30274677	2025-02-28T07:26:45	3	NO ERROR	4.86	100	1007.16	0.03	0.03	0.03
1216	363171	Vazduh	Libelium	0004A30B0021DF70	44.979	16.7091	""	""	Prijedor	""	30274950	2025-02-28T08:27:27	3	NO ERROR	6	100	1007.74	0.03	0.03	0.03
1217	363171	Vazduh	Libelium	0004A30B0021DF70	44.979	16.7091	""	""	Prijedor	""	30275220	2025-02-28T09:28:09	3	NO ERROR	6.47	100	1007.8	0.03	0.06	0.06
1218	363171	Vazduh	Libelium	0004A30B0021DF70	44.979	16.7091	""	""	Prijedor	""	30275495	2025-02-28T10:28:51	3	NO ERROR	7.05	100	1008.27	0	0	0
1219	363171	Vazduh	Libelium	0004A30B0021DF70	44.979	16.7091	""	""	Prijedor	""	30275812	2025-02-28T11:29:33	3	NO ERROR	9.04	100	1008.18	0.01	0.03	0.04
1220	363171	Vazduh	Libelium	0004A30B0021DF70	44.979	16.7091	""	""	Prijedor	""	30276135	2025-02-28T12:30:16	3	NO ERROR	9.2	100	1007.7	0.02	0.02	0.02
1221	363171	Vazduh	Libelium	0004A30B0021DF70	44.979	16.7091	""	""	Prijedor	""	30276457	2025-02-28T13:30:58	3	NO ERROR	10.5	100	1007.1	0	0	0
1222	363171	Vazduh	Libelium	0004A30B0021DF70	44.979	16.7091	""	""	Prijedor	""	30276750	2025-02-28T14:31:40	3	NO ERROR	10.21	100	1006.79	0.05	0.08	0.08
1223	363171	Vazduh	Libelium	0004A30B0021DF70	44.979	16.7091	""	""	Prijedor	""	30277052	2025-02-28T15:32:22	3	NO ERROR	9.66	100	1006.52	0	0.04	0.06
1224	363171	Vazduh	Libelium	0004A30B0021DF70	44.979	16.7091	""	""	Prijedor	""	30277407	2025-02-28T16:33:04	3	NO ERROR	9.64	100	1006.49	0.12	0.15	0.15
1225	363171	Vazduh	Libelium	0004A30B0021DF70	44.979	16.7091	""	""	Prijedor	""	30277641	2025-02-28T17:33:46	3	NO ERROR	9.19	100	1006.8	0.05	0.05	0.05
1226	363171	Vazduh	Libelium	0004A30B0021DF70	44.979	16.7091	""	""	Prijedor	""	30277891	2025-02-28T18:34:28	3	NO ERROR	8.85	100	1007.41	0	0	0
1227	363171	Vazduh	Libelium	0004A30B0021DF70	44.979	16.7091	""	""	Prijedor	""	30278167	2025-02-28T19:35:10	3	NO ERROR	8.66	100	1007.35	0.38	0.53	0.55
1228	363171	Vazduh	Libelium	0004A30B0021DF70	44.979	16.7091	""	""	Prijedor	""	30278489	2025-02-28T20:35:52	3	NO ERROR	8.33	100	1007.41	0.09	0.13	0.14
1229	363171	Vazduh	Libelium	0004A30B0021DF70	44.979	16.7091	""	""	Prijedor	""	30278787	2025-02-28T21:36:34	3	NO ERROR	7.65	100	1007.56	0.06	0.08	0.09
1230	363171	Vazduh	Libelium	0004A30B0021DF70	44.979	16.7091	""	""	Prijedor	""	30279087	2025-02-28T22:37:16	3	NO ERROR	7.52	100	1007.58	0.34	0.45	0.45
1231	363171	Vazduh	Libelium	0004A30B0021DF70	44.979	16.7091	""	""	Prijedor	""	30279347	2025-02-28T23:37:58	3	NO ERROR	6.91	100	1007.65	0.17	0.19	0.19
1232	363171	Vazduh	Libelium	0004A30B0021DF70	44.979	16.7091	""	""	Prijedor	""	30279657	2025-03-01T00:38:40	3	NO ERROR	6.79	100	1007.56	0.12	0.14	0.14
1233	363171	Vazduh	Libelium	0004A30B0021DF70	44.979	16.7091	""	""	Prijedor	""	30279892	2025-03-01T01:39:22	3	NO ERROR	6.79	100	1007.77	0.18	0.26	0.26
1234	363171	Vazduh	Libelium	0004A30B0021DF70	44.979	16.7091	""	""	Prijedor	""	30280159	2025-03-01T02:40:05	3	NO ERROR	6.37	100	1007.74	0.26	0.34	0.34
1235	363171	Vazduh	Libelium	0004A30B0021DF70	44.979	16.7091	""	""	Prijedor	""	30280425	2025-03-01T03:40:47	3	NO ERROR	6.22	100	1007.72	0.37	0.5	0.51
1236	363171	Vazduh	Libelium	0004A30B0021DF70	44.979	16.7091	""	""	Prijedor	""	30280807	2025-03-01T04:41:29	3	NO ERROR	6.41	100	1007.96	0.18	0.19	0.19
1237	363171	Vazduh	Libelium	0004A30B0021DF70	44.979	16.7091	""	""	Prijedor	""	30281084	2025-03-01T05:42:11	3	NO ERROR	6.09	100	1008.14	0.41	0.43	0.43
1238	363171	Vazduh	Libelium	0004A30B0021DF70	44.979	16.7091	""	""	Prijedor	""	30281447	2025-03-01T06:42:53	3	NO ERROR	6.12	100	1008.57	0.2	0.22	0.22
1239	363171	Vazduh	Libelium	0004A30B0021DF70	44.979	16.7091	""	""	Prijedor	""	30281738	2025-03-01T07:43:35	3	NO ERROR	6.53	100	1009.34	0.1	0.13	0.13
1240	363171	Vazduh	Libelium	0004A30B0021DF70	44.979	16.7091	""	""	Prijedor	""	30282042	2025-03-01T08:44:17	3	NO ERROR	7.14	100	1010.16	0.22	0.36	0.5
1241	363171	Vazduh	Libelium	0004A30B0021DF70	44.979	16.7091	""	""	Prijedor	""	30282321	2025-03-01T09:44:59	3	NO ERROR	8	100	1010.56	0.28	0.34	0.35
1242	363171	Vazduh	Libelium	0004A30B0021DF70	44.979	16.7091	""	""	Prijedor	""	30282638	2025-03-01T10:45:41	3	NO ERROR	9.69	100	1010.9	0.01	0.02	0.02
1243	363171	Vazduh	Libelium	0004A30B0021DF70	44.979	16.7091	""	""	Prijedor	""	30282965	2025-03-01T11:46:23	3	NO ERROR	9.37	100	1011.14	0.14	0.16	0.16
1244	363171	Vazduh	Libelium	0004A30B0021DF70	44.979	16.7091	""	""	Prijedor	""	30283330	2025-03-01T12:47:05	3	NO ERROR	9.2	100	1010.89	0.05	0.05	0.05
1245	363171	Vazduh	Libelium	0004A30B0021DF70	44.979	16.7091	""	""	Prijedor	""	30283706	2025-03-01T13:47:47	3	NO ERROR	9.27	100	1010.54	0	0	0
1246	363171	Vazduh	Libelium	0004A30B0021DF70	44.979	16.7091	""	""	Prijedor	""	30284028	2025-03-01T14:48:29	3	NO ERROR	9.81	100	1010.72	0.07	0.11	0.12
1247	363171	Vazduh	Libelium	0004A30B0021DF70	44.979	16.7091	""	""	Prijedor	""	30284343	2025-03-01T15:49:12	3	NO ERROR	9.73	86.5	1010.95	0.03	0.03	0.03
1248	363171	Vazduh	Libelium	0004A30B0021DF70	44.979	16.7091	""	""	Prijedor	""	30284679	2025-03-01T16:49:54	3	NO ERROR	8.53	100	1011.61	0.09	0.11	0.11
1249	363171	Vazduh	Libelium	0004A30B0021DF70	44.979	16.7091	""	""	Prijedor	""	30284907	2025-03-01T17:50:36	3	NO ERROR	7.66	100	1011.93	0.08	0.09	0.09
1250	363171	Vazduh	Libelium	0004A30B0021DF70	44.979	16.7091	""	""	Prijedor	""	30285183	2025-03-01T18:51:18	3	NO ERROR	7.37	100	1012.84	0.02	0.02	0.02
1251	363171	Vazduh	Libelium	0004A30B0021DF70	44.979	16.7091	""	""	Prijedor	""	30285470	2025-03-01T19:52:06	3	NO ERROR	7.14	100	1012.94	0.1	0.13	0.13
1252	363171	Vazduh	Libelium	0004A30B0021DF70	44.979	16.7091	""	""	Prijedor	""	30285815	2025-03-01T20:52:54	3	NO ERROR	6.96	100	1013.33	0.08	0.1	0.1
1253	363171	Vazduh	Libelium	0004A30B0021DF70	44.979	16.7091	""	""	Prijedor	""	30286137	2025-03-01T21:53:36	3	NO ERROR	6.92	100	1013.8	0.05	0.08	0.08
1254	363171	Vazduh	Libelium	0004A30B0021DF70	44.979	16.7091	""	""	Prijedor	""	30286414	2025-03-01T22:54:18	3	NO ERROR	6.81	100	1014	0.02	0.02	0.02
1255	363171	Vazduh	Libelium	0004A30B0021DF70	44.979	16.7091	""	""	Prijedor	""	30286680	2025-03-01T23:55:00	3	NO ERROR	6.36	100	1014.17	0.22	0.29	0.29
1256	363171	Vazduh	Libelium	0004A30B0021DF70	44.979	16.7091	""	""	Prijedor	""	30286974	2025-03-02T00:55:42	3	NO ERROR	6.04	100	1014.35	0.19	0.27	0.27
1257	363171	Vazduh	Libelium	0004A30B0021DF70	44.979	16.7091	""	""	Prijedor	""	30287254	2025-03-02T01:56:24	3	NO ERROR	5.69	100	1014.23	0.27	0.34	0.34
1258	363171	Vazduh	Libelium	0004A30B0021DF70	44.979	16.7091	""	""	Prijedor	""	30287513	2025-03-02T02:57:06	3	NO ERROR	5.53	100	1014.39	0.07	0.09	0.09
1259	363171	Vazduh	Libelium	0004A30B0021DF70	44.979	16.7091	""	""	Prijedor	""	30287769	2025-03-02T03:57:48	3	NO ERROR	5.65	100	1014.38	0.03	0.03	0.03
1260	363171	Vazduh	Libelium	0004A30B0021DF70	44.979	16.7091	""	""	Prijedor	""	30288109	2025-03-02T04:58:31	3	NO ERROR	4.75	100	1014.77	0.02	0.02	0.02
1261	363171	Vazduh	Libelium	0004A30B0021DF70	44.979	16.7091	""	""	Prijedor	""	30288410	2025-03-02T05:59:13	3	NO ERROR	3.54	100	1015.14	0	0.07	0.15
1262	363171	Vazduh	Libelium	0004A30B0021DF70	44.979	16.7091	""	""	Prijedor	""	30288709	2025-03-02T06:59:55	3	NO ERROR	2.94	100	1015.72	0	0.07	0.15
1263	363171	Vazduh	Libelium	0004A30B0021DF70	44.979	16.7091	""	""	Prijedor	""	30289011	2025-03-02T08:00:37	3	NO ERROR	7.37	97.4	1016.42	0	0	0
1264	363171	Vazduh	Libelium	0004A30B0021DF70	44.979	16.7091	""	""	Prijedor	""	30289291	2025-03-02T09:01:19	3	NO ERROR	9.83	77.1	1016.51	0	0	0
1265	363171	Vazduh	Libelium	0004A30B0021DF70	44.979	16.7091	""	""	Prijedor	""	30289548	2025-03-02T10:02:01	3	NO ERROR	10.19	70.9	1016.5	0.02	0.02	0.02
1266	363171	Vazduh	Libelium	0004A30B0021DF70	44.979	16.7091	""	""	Prijedor	""	30289863	2025-03-02T11:02:43	3	NO ERROR	9.01	65.5	1016.35	0	0	0
1267	363171	Vazduh	Libelium	0004A30B0021DF70	44.979	16.7091	""	""	Prijedor	""	30290571	2025-03-02T13:04:07	3	NO ERROR	10.06	58.6	1015.16	0.01	0.03	0.04
1268	363171	Vazduh	Libelium	0004A30B0021DF70	44.979	16.7091	""	""	Prijedor	""	30291226	2025-03-02T15:05:37	3	NO ERROR	13.02	50.1	1013.95	0.04	0.05	0.05
1269	363171	Vazduh	Libelium	0004A30B0021DF70	44.979	16.7091	""	""	Prijedor	""	30291534	2025-03-02T16:06:19	3	NO ERROR	9.01	57.6	1013.87	0.1	0.14	0.15
1270	363171	Vazduh	Libelium	0004A30B0021DF70	44.979	16.7091	""	""	Prijedor	""	30291836	2025-03-02T17:07:01	3	NO ERROR	8.02	59.6	1013.86	0.2	0.33	0.35
1271	363171	Vazduh	Libelium	0004A30B0021DF70	44.979	16.7091	""	""	Prijedor	""	30292090	2025-03-02T18:07:44	3	NO ERROR	6.46	67.5	1014.48	0	0	0
1272	363171	Vazduh	Libelium	0004A30B0021DF70	44.979	16.7091	""	""	Prijedor	""	30292350	2025-03-02T19:08:26	3	NO ERROR	6.29	69.2	1014.8	0.01	0.03	0.03
1273	363171	Vazduh	Libelium	0004A30B0021DF70	44.979	16.7091	""	""	Prijedor	""	30292625	2025-03-02T20:09:08	3	NO ERROR	4.28	86.3	1015.12	0.05	0.06	0.06
1274	363171	Vazduh	Libelium	0004A30B0021DF70	44.979	16.7091	""	""	Prijedor	""	30292953	2025-03-02T21:09:50	3	NO ERROR	2.98	100	1015.46	0.41	0.65	0.65
1275	363171	Vazduh	Libelium	0004A30B0021DF70	44.979	16.7091	""	""	Prijedor	""	30293252	2025-03-02T22:10:32	3	NO ERROR	1.86	100	1015.91	0.16	0.18	0.18
1276	363171	Vazduh	Libelium	0004A30B0021DF70	44.979	16.7091	""	""	Prijedor	""	30293551	2025-03-02T23:11:14	3	NO ERROR	0.09	100	1015.9	0.2	0.22	0.22
1277	363171	Vazduh	Libelium	0004A30B0021DF70	44.979	16.7091	""	""	Prijedor	""	30293855	2025-03-03T00:11:56	3	NO ERROR	-0.43	100	1015.52	0.02	0.02	0.02
1278	363171	Vazduh	Libelium	0004A30B0021DF70	44.979	16.7091	""	""	Prijedor	""	30294123	2025-03-03T01:12:38	3	NO ERROR	-1.16	100	1015.73	0.24	0.27	0.27
1279	363171	Vazduh	Libelium	0004A30B0021DF70	44.979	16.7091	""	""	Prijedor	""	30294404	2025-03-03T02:13:26	3	NO ERROR	-1.33	100	1015.88	0.03	0.03	0.03
1280	363171	Vazduh	Libelium	0004A30B0021DF70	44.979	16.7091	""	""	Prijedor	""	30294673	2025-03-03T03:14:08	3	NO ERROR	-1.88	100	1015.64	0.03	0.03	0.03
1281	363171	Vazduh	Libelium	0004A30B0021DF70	44.979	16.7091	""	""	Prijedor	""	30294964	2025-03-03T04:14:50	3	NO ERROR	-1.89	100	1015.53	0.07	0.12	0.12
1282	363171	Vazduh	Libelium	0004A30B0021DF70	44.979	16.7091	""	""	Prijedor	""	30295370	2025-03-03T05:15:32	3	NO ERROR	-2.58	100	1015.82	0.07	0.11	0.11
1283	363171	Vazduh	Libelium	0004A30B0021DF70	44.979	16.7091	""	""	Prijedor	""	30295695	2025-03-03T06:16:15	3	NO ERROR	-2.59	100	1015.67	0.05	0.08	0.08
1284	363171	Vazduh	Libelium	0004A30B0021DF70	44.979	16.7091	""	""	Prijedor	""	30296045	2025-03-03T07:16:57	3	NO ERROR	-1.42	100	1015.68	0.12	0.14	0.14
1285	363171	Vazduh	Libelium	0004A30B0021DF70	44.979	16.7091	""	""	Prijedor	""	30296396	2025-03-03T08:17:39	3	NO ERROR	0.2	100	1016.31	0.05	0.05	0.05
1286	363171	Vazduh	Libelium	0004A30B0021DF70	44.979	16.7091	""	""	Prijedor	""	30296660	2025-03-03T09:18:21	3	NO ERROR	4.51	100	1016.12	0	0	0
1287	363171	Vazduh	Libelium	0004A30B0021DF70	44.979	16.7091	""	""	Prijedor	""	30296965	2025-03-03T10:19:03	3	NO ERROR	9.09	73.4	1015.88	0.02	0.02	0.02
1288	363171	Vazduh	Libelium	0004A30B0021DF70	44.979	16.7091	""	""	Prijedor	""	30297293	2025-03-03T11:19:45	3	NO ERROR	9.77	76.3	1015.29	0	0	0
1289	363171	Vazduh	Libelium	0004A30B0021DF70	44.979	16.7091	""	""	Prijedor	""	30297663	2025-03-03T12:20:27	3	NO ERROR	10.55	63.3	1014.34	0.03	0.05	0.05
1290	363171	Vazduh	Libelium	0004A30B0021DF70	44.979	16.7091	""	""	Prijedor	""	30298072	2025-03-03T13:21:09	3	NO ERROR	12.45	52.5	1013.33	0.03	0.03	0.03
1291	363171	Vazduh	Libelium	0004A30B0021DF70	44.979	16.7091	""	""	Prijedor	""	30298452	2025-03-03T14:21:51	3	NO ERROR	16.17	42.9	1012.78	0.02	0.02	0.02
1292	363171	Vazduh	Libelium	0004A30B0021DF70	44.979	16.7091	""	""	Prijedor	""	30298815	2025-03-03T15:22:33	3	NO ERROR	16.99	41.1	1012.08	0	0	0
1293	363171	Vazduh	Libelium	0004A30B0021DF70	44.979	16.7091	""	""	Prijedor	""	30299095	2025-03-03T16:23:15	3	NO ERROR	11.34	47	1011.89	0	0	0
1294	363171	Vazduh	Libelium	0004A30B0021DF70	44.979	16.7091	""	""	Prijedor	""	30299377	2025-03-03T17:23:57	3	NO ERROR	10	46.4	1012.21	0.02	0.09	0.17
1295	363171	Vazduh	Libelium	0004A30B0021DF70	44.979	16.7091	""	""	Prijedor	""	30299656	2025-03-03T18:24:40	3	NO ERROR	8.44	50.5	1012.58	0.4	0.6	0.6
1296	363171	Vazduh	Libelium	0004A30B0021DF70	44.979	16.7091	""	""	Prijedor	""	30299931	2025-03-03T19:25:22	3	NO ERROR	6.43	61.2	1012.84	0.11	0.15	0.15
1297	363171	Vazduh	Libelium	0004A30B0021DF70	44.979	16.7091	""	""	Prijedor	""	30300250	2025-03-03T20:26:04	3	NO ERROR	4.65	76.7	1013.02	0.46	0.75	0.79
1298	363171	Vazduh	Libelium	0004A30B0021DF70	44.979	16.7091	""	""	Prijedor	""	30300548	2025-03-03T21:26:46	3	NO ERROR	3.3	84.2	1013.28	0.32	0.47	0.48
1299	363171	Vazduh	Libelium	0004A30B0021DF70	44.979	16.7091	""	""	Prijedor	""	30300854	2025-03-03T22:27:28	3	NO ERROR	2.17	99.1	1013.23	0.02	0.02	0.02
1300	363171	Vazduh	Libelium	0004A30B0021DF70	44.979	16.7091	""	""	Prijedor	""	30301154	2025-03-03T23:28:16	3	NO ERROR	1.18	100	1013.01	0.03	0.03	0.03
1301	363171	Vazduh	Libelium	0004A30B0021DF70	44.979	16.7091	""	""	Prijedor	""	30301422	2025-03-04T00:28:58	3	NO ERROR	0.26	100	1012.83	0.03	0.03	0.03
1302	363171	Vazduh	Libelium	0004A30B0021DF70	44.979	16.7091	""	""	Prijedor	""	30301684	2025-03-04T01:29:40	3	NO ERROR	-0.97	100	1013.13	0.09	0.1	0.1
1303	363171	Vazduh	Libelium	0004A30B0021DF70	44.979	16.7091	""	""	Prijedor	""	30301961	2025-03-04T02:30:22	3	NO ERROR	-0.67	100	1012.78	0.03	0.03	0.03
1304	363171	Vazduh	Libelium	0004A30B0021DF70	44.979	16.7091	""	""	Prijedor	""	30302235	2025-03-04T03:31:10	3	NO ERROR	-1.6	100	1012.7	0	0	0
1305	363171	Vazduh	Libelium	0004A30B0021DF70	44.979	16.7091	""	""	Prijedor	""	30302569	2025-03-04T04:31:52	3	NO ERROR	-1.52	100	1012.99	0.02	0.02	0.02
1306	363171	Vazduh	Libelium	0004A30B0021DF70	44.979	16.7091	""	""	Prijedor	""	30302923	2025-03-04T05:32:34	3	NO ERROR	-2.33	100	1013.45	0.02	0.02	0.02
1307	363171	Vazduh	Libelium	0004A30B0021DF70	44.979	16.7091	""	""	Prijedor	""	30303299	2025-03-04T06:33:17	3	NO ERROR	-2.37	100	1013.42	0.04	0.07	0.07
1308	363171	Vazduh	Libelium	0004A30B0021DF70	44.979	16.7091	""	""	Prijedor	""	30303651	2025-03-04T07:33:59	3	NO ERROR	1.56	100	1013.98	0.05	0.08	0.08
1309	363171	Vazduh	Libelium	0004A30B0021DF70	44.979	16.7091	""	""	Prijedor	""	30304021	2025-03-04T08:34:41	3	NO ERROR	7.27	75.3	1014.25	0.35	0.53	0.55
1310	363171	Vazduh	Libelium	0004A30B0021DF70	44.979	16.7091	""	""	Prijedor	""	30304281	2025-03-04T09:35:23	3	NO ERROR	6.01	81.9	1014.02	0.02	0.02	0.02
1311	363171	Vazduh	Libelium	0004A30B0021DF70	44.979	16.7091	""	""	Prijedor	""	30304652	2025-03-04T10:36:11	3	NO ERROR	8.82	71.1	1013.47	0.03	0.05	0.05
1312	363171	Vazduh	Libelium	0004A30B0021DF70	44.979	16.7091	""	""	Prijedor	""	30305011	2025-03-04T11:36:53	3	NO ERROR	11.22	63.2	1012.92	0.05	0.08	0.08
1313	363171	Vazduh	Libelium	0004A30B0021DF70	44.979	16.7091	""	""	Prijedor	""	30305436	2025-03-04T12:37:35	3	NO ERROR	12.61	53.1	1011.82	0.05	0.08	0.08
1314	363171	Vazduh	Libelium	0004A30B0021DF70	44.979	16.7091	""	""	Prijedor	""	30305828	2025-03-04T13:38:23	3	NO ERROR	14.49	48	1010.82	0	0	0
1315	363171	Vazduh	Libelium	0004A30B0021DF70	44.979	16.7091	""	""	Prijedor	""	30306206	2025-03-04T14:39:05	3	NO ERROR	17.99	42.6	1010.44	0.01	0.03	0.04
1316	363171	Vazduh	Libelium	0004A30B0021DF70	44.979	16.7091	""	""	Prijedor	""	30306554	2025-03-04T15:39:47	3	NO ERROR	18.63	42	1010.21	0.13	0.15	0.15
1317	363171	Vazduh	Libelium	0004A30B0021DF70	44.979	16.7091	""	""	Prijedor	""	30306948	2025-03-04T16:40:29	3	NO ERROR	13.96	48.7	1010.03	0.03	0.09	2.68
1318	363171	Vazduh	Libelium	0004A30B0021DF70	44.979	16.7091	""	""	Prijedor	""	30307275	2025-03-04T17:41:11	3	NO ERROR	12.25	50	1010.24	0.17	0.24	0.24
1319	363171	Vazduh	Libelium	0004A30B0021DF70	44.979	16.7091	""	""	Prijedor	""	30307566	2025-03-04T18:42:00	3	NO ERROR	9.85	60	1010.91	0.1	0.21	0.29
1320	363171	Vazduh	Libelium	0004A30B0021DF70	44.979	16.7091	""	""	Prijedor	""	30307838	2025-03-04T19:42:42	3	NO ERROR	7.78	72.4	1011.38	0.57	0.84	0.97
1321	363171	Vazduh	Libelium	0004A30B0021DF70	44.979	16.7091	""	""	Prijedor	""	30308163	2025-03-04T20:43:24	3	NO ERROR	5.99	82.5	1011.84	0.1	0.28	0.38
1322	363171	Vazduh	Libelium	0004A30B0021DF70	44.979	16.7091	""	""	Prijedor	""	30308477	2025-03-04T21:44:06	3	NO ERROR	4.76	91.2	1012.27	0.06	0.11	0.11
1323	363171	Vazduh	Libelium	0004A30B0021DF70	44.979	16.7091	""	""	Prijedor	""	30308789	2025-03-04T22:44:48	3	NO ERROR	3.16	100	1012.52	0.06	0.11	0.11
1324	363171	Vazduh	Libelium	0004A30B0021DF70	44.979	16.7091	""	""	Prijedor	""	30309080	2025-03-04T23:45:30	3	NO ERROR	2.03	100	1012.62	0.14	0.29	0.3
1325	363171	Vazduh	Libelium	0004A30B0021DF70	44.979	16.7091	""	""	Prijedor	""	30309399	2025-03-05T00:46:12	3	NO ERROR	1.61	100	1012.76	0.03	0.03	0.03
1326	363171	Vazduh	Libelium	0004A30B0021DF70	44.979	16.7091	""	""	Prijedor	""	30309656	2025-03-05T01:46:54	3	NO ERROR	0.91	100	1012.87	0.05	0.08	0.08
1327	363171	Vazduh	Libelium	0004A30B0021DF70	44.979	16.7091	""	""	Prijedor	""	30309925	2025-03-05T02:47:36	3	NO ERROR	0.05	100	1012.66	0.03	0.03	0.03
1328	363171	Vazduh	Libelium	0004A30B0021DF70	44.979	16.7091	""	""	Prijedor	""	30310213	2025-03-05T03:48:18	3	NO ERROR	-0.55	100	1012.9	0.08	0.09	0.09
1329	363171	Vazduh	Libelium	0004A30B0021DF70	44.979	16.7091	""	""	Prijedor	""	30310572	2025-03-05T04:49:13	3	NO ERROR	-0.78	100	1013.21	0.02	0.02	0.02
1330	363171	Vazduh	Libelium	0004A30B0021DF70	44.979	16.7091	""	""	Prijedor	""	30310878	2025-03-05T05:49:54	3	NO ERROR	-0.68	100	1013.29	0.05	0.1	0.1
1331	363171	Vazduh	Libelium	0004A30B0021DF70	44.979	16.7091	""	""	Prijedor	""	30311211	2025-03-05T06:50:36	3	NO ERROR	-1.35	100	1013.61	0.02	0.02	0.02
1332	363171	Vazduh	Libelium	0004A30B0021DF70	44.979	16.7091	""	""	Prijedor	""	30311554	2025-03-05T07:51:19	3	NO ERROR	4.56	99.8	1014.21	0.01	0.03	0.03
1333	363171	Vazduh	Libelium	0004A30B0021DF70	44.979	16.7091	""	""	Prijedor	""	30311848	2025-03-05T08:52:01	3	NO ERROR	7.79	77.8	1014.48	0.08	0.13	0.14
1334	363171	Vazduh	Libelium	0004A30B0021DF70	44.979	16.7091	""	""	Prijedor	""	30312167	2025-03-05T09:52:43	3	NO ERROR	12.01	69.7	1014.66	0.52	0.74	0.76
1335	363171	Vazduh	Libelium	0004A30B0021DF70	44.979	16.7091	""	""	Prijedor	""	30312511	2025-03-05T10:53:25	3	NO ERROR	11.04	65.2	1014.49	0.06	0.08	0.08
1336	363171	Vazduh	Libelium	0004A30B0021DF70	44.979	16.7091	""	""	Prijedor	""	30312855	2025-03-05T11:54:07	3	NO ERROR	14.11	54.4	1013.74	0.03	0.09	0.11
1337	363171	Vazduh	Libelium	0004A30B0021DF70	44.979	16.7091	""	""	Prijedor	""	30313290	2025-03-05T12:54:49	3	NO ERROR	15.77	53.4	1012.83	0.14	0.15	0.15
1338	363171	Vazduh	Libelium	0004A30B0021DF70	44.979	16.7091	""	""	Prijedor	""	30313715	2025-03-05T13:55:31	3	NO ERROR	18.81	48.1	1011.91	0.03	0.09	0.11
1339	363171	Vazduh	Libelium	0004A30B0021DF70	44.979	16.7091	""	""	Prijedor	""	30314061	2025-03-05T14:56:13	3	NO ERROR	21.92	39.9	1011.48	0.03	0.09	0.11
1340	363171	Vazduh	Libelium	0004A30B0021DF70	44.979	16.7091	""	""	Prijedor	""	30314420	2025-03-05T15:57:01	3	NO ERROR	18.27	44.2	1011.26	0.02	0.02	0.02
1341	363171	Vazduh	Libelium	0004A30B0021DF70	44.979	16.7091	""	""	Prijedor	""	30314799	2025-03-05T16:57:43	3	NO ERROR	16.42	48.5	1011.14	0.03	0.05	0.05
1342	363171	Vazduh	Libelium	0004A30B0021DF70	44.979	16.7091	""	""	Prijedor	""	30315087	2025-03-05T17:58:25	3	NO ERROR	14.11	57.7	1011.5	0.58	1.12	1.87
1343	363171	Vazduh	Libelium	0004A30B0021DF70	44.979	16.7091	""	""	Prijedor	""	30315380	2025-03-05T18:59:07	3	NO ERROR	11.5	66.8	1011.85	0.88	1.81	2.76
1344	363171	Vazduh	Libelium	0004A30B0021DF70	44.979	16.7091	""	""	Prijedor	""	30315669	2025-03-05T19:59:50	3	NO ERROR	8.81	79.8	1012.23	0.38	0.52	0.52
1345	363171	Vazduh	Libelium	0004A30B0021DF70	44.979	16.7091	""	""	Prijedor	""	30315983	2025-03-05T21:00:32	3	NO ERROR	7.27	92	1012.57	0.36	0.44	0.45
1346	363171	Vazduh	Libelium	0004A30B0021DF70	44.979	16.7091	""	""	Prijedor	""	30316267	2025-03-05T22:01:14	3	NO ERROR	5.42	100	1012.72	0.11	0.19	0.2
1347	363171	Vazduh	Libelium	0004A30B0021DF70	44.979	16.7091	""	""	Prijedor	""	30316560	2025-03-05T23:01:56	3	NO ERROR	4.68	100	1012.94	0.32	0.46	0.46
1348	363171	Vazduh	Libelium	0004A30B0021DF70	44.979	16.7091	""	""	Prijedor	""	30316843	2025-03-06T00:02:38	3	NO ERROR	3.53	100	1013.2	0.39	0.67	0.82
1349	363171	Vazduh	Libelium	0004A30B0021DF70	44.979	16.7091	""	""	Prijedor	""	30317094	2025-03-06T01:03:20	3	NO ERROR	2.68	100	1013.38	0.24	0.38	0.38
1350	363171	Vazduh	Libelium	0004A30B0021DF70	44.979	16.7091	""	""	Prijedor	""	30317337	2025-03-06T02:04:02	3	NO ERROR	2.14	100	1013.21	0.07	0.07	0.07
1351	363171	Vazduh	Libelium	0004A30B0021DF70	44.979	16.7091	""	""	Prijedor	""	30317587	2025-03-06T03:04:44	3	NO ERROR	1.02	100	1012.84	0.11	0.12	0.12
1352	363171	Vazduh	Libelium	0004A30B0021DF70	44.979	16.7091	""	""	Prijedor	""	30317854	2025-03-06T04:05:32	3	NO ERROR	0.34	100	1012.81	0.03	0.03	0.03
1353	363171	Vazduh	Libelium	0004A30B0021DF70	44.979	16.7091	""	""	Prijedor	""	30318218	2025-03-06T05:06:20	3	NO ERROR	0.25	100	1012.85	0.06	0.08	0.08
1354	363171	Vazduh	Libelium	0004A30B0021DF70	44.979	16.7091	""	""	Prijedor	""	30318502	2025-03-06T06:07:02	3	NO ERROR	-0.74	100	1013.28	0.27	0.37	0.38
1355	363171	Vazduh	Libelium	0004A30B0021DF70	44.979	16.7091	""	""	Prijedor	""	30318789	2025-03-06T07:07:44	3	NO ERROR	0.1	100	1013.17	0.15	0.18	0.19
1356	363171	Vazduh	Libelium	0004A30B0021DF70	44.979	16.7091	""	""	Prijedor	""	30319124	2025-03-06T08:08:27	3	NO ERROR	6.59	91.8	1013.36	0.49	0.6	0.6
1357	363171	Vazduh	Libelium	0004A30B0021DF70	44.979	16.7091	""	""	Prijedor	""	30319389	2025-03-06T09:09:09	3	NO ERROR	10.78	77.5	1013.19	0.29	0.37	0.37
1358	363171	Vazduh	Libelium	0004A30B0021DF70	44.979	16.7091	""	""	Prijedor	""	30319701	2025-03-06T10:09:51	3	NO ERROR	13.9	63.7	1012.89	0.1	0.13	0.13
1359	363171	Vazduh	Libelium	0004A30B0021DF70	44.979	16.7091	""	""	Prijedor	""	30320078	2025-03-06T11:10:33	3	NO ERROR	13.76	65.6	1011.99	0.11	0.18	0.19
1360	363171	Vazduh	Libelium	0004A30B0021DF70	44.979	16.7091	""	""	Prijedor	""	30320443	2025-03-06T12:11:15	3	NO ERROR	17.31	50.7	1011.03	0.05	0.05	0.05
1361	363171	Vazduh	Libelium	0004A30B0021DF70	44.979	16.7091	""	""	Prijedor	""	30320903	2025-03-06T13:11:57	3	NO ERROR	19.66	43.3	1010.01	0.03	0.11	0.18
1362	363171	Vazduh	Libelium	0004A30B0021DF70	44.979	16.7091	""	""	Prijedor	""	30321305	2025-03-06T14:12:39	3	NO ERROR	25.87	34.2	1009.17	0.26	0.38	0.38
1363	363171	Vazduh	Libelium	0004A30B0021DF70	44.979	16.7091	""	""	Prijedor	""	30321675	2025-03-06T15:13:21	3	NO ERROR	25.35	32.7	1008.64	0.06	0.08	0.08
1364	363171	Vazduh	Libelium	0004A30B0021DF70	44.979	16.7091	""	""	Prijedor	""	30322041	2025-03-06T16:14:03	3	NO ERROR	21.04	34.6	1008.28	0.1	0.22	0.31
1365	363171	Vazduh	Libelium	0004A30B0021DF70	44.979	16.7091	""	""	Prijedor	""	30322394	2025-03-06T17:14:45	3	NO ERROR	19.26	36.7	1008.14	0.08	0.11	0.11
1366	363171	Vazduh	Libelium	0004A30B0021DF70	44.979	16.7091	""	""	Prijedor	""	30322716	2025-03-06T18:15:27	3	NO ERROR	16.65	45.2	1008.47	0.32	0.39	0.4
1367	363171	Vazduh	Libelium	0004A30B0021DF70	44.979	16.7091	""	""	Prijedor	""	30323058	2025-03-06T19:16:09	3	NO ERROR	12.63	59.5	1008.78	0.23	0.38	0.4
1368	363171	Vazduh	Libelium	0004A30B0021DF70	44.979	16.7091	""	""	Prijedor	""	30323448	2025-03-06T20:16:52	3	NO ERROR	10.72	68.8	1009.27	0.35	0.58	0.61
1369	363171	Vazduh	Libelium	0004A30B0021DF70	44.979	16.7091	""	""	Prijedor	""	30323841	2025-03-06T21:17:34	3	NO ERROR	8.96	77.5	1009.75	0.45	0.54	0.54
1370	363171	Vazduh	Libelium	0004A30B0021DF70	44.979	16.7091	""	""	Prijedor	""	30324159	2025-03-06T22:18:22	3	NO ERROR	7.98	89.3	1009.75	0.32	0.43	0.44
1371	363171	Vazduh	Libelium	0004A30B0021DF70	44.979	16.7091	""	""	Prijedor	""	30324472	2025-03-06T23:19:04	3	NO ERROR	7	92.9	1009.41	0.26	0.38	0.38
1372	363171	Vazduh	Libelium	0004A30B0021DF70	44.979	16.7091	""	""	Prijedor	""	30324717	2025-03-07T00:19:46	3	NO ERROR	5.44	100	1009.28	0.18	0.3	0.34
1373	363171	Vazduh	Libelium	0004A30B0021DF70	44.979	16.7091	""	""	Prijedor	""	30324960	2025-03-07T01:20:28	3	NO ERROR	3.94	100	1009.29	0.07	0.22	0.32
1374	363171	Vazduh	Libelium	0004A30B0021DF70	44.979	16.7091	""	""	Prijedor	""	30325247	2025-03-07T02:21:10	3	NO ERROR	3.11	100	1008.95	0.37	0.48	0.48
1375	363171	Vazduh	Libelium	0004A30B0021DF70	44.979	16.7091	""	""	Prijedor	""	30325517	2025-03-07T03:21:52	3	NO ERROR	1.78	100	1008.69	0.11	0.12	0.12
1376	363171	Vazduh	Libelium	0004A30B0021DF70	44.979	16.7091	""	""	Prijedor	""	30325812	2025-03-07T04:22:34	3	NO ERROR	1.07	100	1008.75	0.24	0.27	0.27
1377	363171	Vazduh	Libelium	0004A30B0021DF70	44.979	16.7091	""	""	Prijedor	""	30326162	2025-03-07T05:23:16	3	NO ERROR	0.54	100	1008.82	0.25	0.37	0.38
1378	363171	Vazduh	Libelium	0004A30B0021DF70	44.979	16.7091	""	""	Prijedor	""	30326449	2025-03-07T06:23:58	3	NO ERROR	-0.3	100	1008.71	0.01	0.03	0.03
1379	363171	Vazduh	Libelium	0004A30B0021DF70	44.979	16.7091	""	""	Prijedor	""	30326766	2025-03-07T07:24:40	3	NO ERROR	2.12	100	1008.84	0.74	1.03	1.03
1380	363171	Vazduh	Libelium	0004A30B0021DF70	44.979	16.7091	""	""	Prijedor	""	30327054	2025-03-07T08:25:23	3	NO ERROR	8.34	83.4	1008.55	0.08	0.1	0.1
1381	363171	Vazduh	Libelium	0004A30B0021DF70	44.979	16.7091	""	""	Prijedor	""	30327301	2025-03-07T09:26:05	3	NO ERROR	12.87	60	1008.1	0.23	0.32	0.32
1382	363171	Vazduh	Libelium	0004A30B0021DF70	44.979	16.7091	""	""	Prijedor	""	30327579	2025-03-07T10:26:53	3	NO ERROR	14.9	52.7	1007.62	0.49	0.63	0.64
1383	363171	Vazduh	Libelium	0004A30B0021DF70	44.979	16.7091	""	""	Prijedor	""	30327932	2025-03-07T11:27:35	3	NO ERROR	15.95	47.7	1006.82	0.05	0.08	0.08
1384	363171	Vazduh	Libelium	0004A30B0021DF70	44.979	16.7091	""	""	Prijedor	""	30328335	2025-03-07T12:28:17	3	NO ERROR	19.21	39.7	1005.63	0.09	0.13	0.13
1385	363171	Vazduh	Libelium	0004A30B0021DF70	44.979	16.7091	""	""	Prijedor	""	30328750	2025-03-07T13:28:59	3	NO ERROR	21.98	33.1	1004.25	0.16	0.22	0.22
1386	363171	Vazduh	Libelium	0004A30B0021DF70	44.979	16.7091	""	""	Prijedor	""	30329124	2025-03-07T14:29:41	3	NO ERROR	24.98	30.1	1003.23	0.05	0.08	0.08
1387	363171	Vazduh	Libelium	0004A30B0021DF70	44.979	16.7091	""	""	Prijedor	""	30329496	2025-03-07T15:30:23	3	NO ERROR	23.62	31.8	1002.71	0.17	0.31	0.44
1388	363171	Vazduh	Libelium	0004A30B0021DF70	44.979	16.7091	""	""	Prijedor	""	30329859	2025-03-07T16:31:05	3	NO ERROR	20.35	36.1	1002.38	0.19	0.28	0.3
1389	363171	Vazduh	Libelium	0004A30B0021DF70	44.979	16.7091	""	""	Prijedor	""	30330191	2025-03-07T17:31:47	3	NO ERROR	18.03	39.1	1002.5	0.07	0.09	0.09
1390	363171	Vazduh	Libelium	0004A30B0021DF70	44.979	16.7091	""	""	Prijedor	""	30330516	2025-03-07T18:32:29	3	NO ERROR	15.47	42.6	1002.51	0.12	0.25	0.27
1391	363171	Vazduh	Libelium	0004A30B0021DF70	44.979	16.7091	""	""	Prijedor	""	30330845	2025-03-07T19:33:11	3	NO ERROR	12.9	50.3	1002.73	0.4	0.78	0.96
1392	363171	Vazduh	Libelium	0004A30B0021DF70	44.979	16.7091	""	""	Prijedor	""	30331252	2025-03-07T20:33:53	3	NO ERROR	10.82	59	1002.88	0.05	0.15	0.23
1393	363171	Vazduh	Libelium	0004A30B0021DF70	44.979	16.7091	""	""	Prijedor	""	30331557	2025-03-07T21:34:35	3	NO ERROR	8.96	70.1	1003	0.39	0.75	0.91
1394	363171	Vazduh	Libelium	0004A30B0021DF70	44.979	16.7091	""	""	Prijedor	""	30331895	2025-03-07T22:35:18	3	NO ERROR	7.32	80.3	1003.13	0.06	0.19	0.49
1395	363171	Vazduh	Libelium	0004A30B0021DF70	44.979	16.7091	""	""	Prijedor	""	30332172	2025-03-07T23:36:00	3	NO ERROR	6.37	90.2	1003.09	0.09	0.1	0.1
1396	363171	Vazduh	Libelium	0004A30B0021DF70	44.979	16.7091	""	""	Prijedor	""	30332465	2025-03-08T00:36:42	3	NO ERROR	4.92	100	1002.99	0.09	0.2	0.21
1397	363171	Vazduh	Libelium	0004A30B0021DF70	44.979	16.7091	""	""	Prijedor	""	30332727	2025-03-08T01:37:24	3	NO ERROR	3.81	100	1002.93	0	0	0
1398	363171	Vazduh	Libelium	0004A30B0021DF70	44.979	16.7091	""	""	Prijedor	""	30332998	2025-03-08T02:38:06	3	NO ERROR	3.5	100	1002.51	0.04	0.07	0.07
1399	363171	Vazduh	Libelium	0004A30B0021DF70	44.979	16.7091	""	""	Prijedor	""	30333245	2025-03-08T03:38:48	3	NO ERROR	2.18	100	1002.48	0.05	0.1	0.11
1400	363171	Vazduh	Libelium	0004A30B0021DF70	44.979	16.7091	""	""	Prijedor	""	30333597	2025-03-08T04:39:30	3	NO ERROR	1.75	100	1002.38	0.08	0.09	0.09
1401	363171	Vazduh	Libelium	0004A30B0021DF70	44.979	16.7091	""	""	Prijedor	""	30333898	2025-03-08T05:40:12	3	NO ERROR	1.01	100	1002.43	0.05	0.05	0.05
1402	363171	Vazduh	Libelium	0004A30B0021DF70	44.979	16.7091	""	""	Prijedor	""	30334222	2025-03-08T06:40:54	3	NO ERROR	0.87	100	1002.71	0.03	0.05	0.05
1403	363171	Vazduh	Libelium	0004A30B0021DF70	44.979	16.7091	""	""	Prijedor	""	30334527	2025-03-08T07:41:36	3	NO ERROR	4.53	100	1002.72	0.32	0.42	0.43
1404	363171	Vazduh	Libelium	0004A30B0021DF70	44.979	16.7091	""	""	Prijedor	""	30334821	2025-03-08T08:42:18	3	NO ERROR	8.81	79.7	1002.55	0.24	0.59	0.81
1405	363171	Vazduh	Libelium	0004A30B0021DF70	44.979	16.7091	""	""	Prijedor	""	30335077	2025-03-08T09:43:00	3	NO ERROR	10.73	68.6	1002.39	0.03	0.08	0.09
1406	363171	Vazduh	Libelium	0004A30B0021DF70	44.979	16.7091	""	""	Prijedor	""	30335407	2025-03-08T10:43:43	3	NO ERROR	13.94	54.4	1001.82	0.42	0.51	0.51
1407	363171	Vazduh	Libelium	0004A30B0021DF70	44.979	16.7091	""	""	Prijedor	""	30348675	2025-03-10T03:12:16	3	NO ERROR	9.23	94	993.54	0.18	0.38	0.42
1408	363171	Vazduh	Libelium	0004A30B0021DF70	44.979	16.7091	""	""	Prijedor	""	30348963	2025-03-10T04:12:58	3	NO ERROR	10.01	79.3	992.79	0.29	0.37	0.38
1409	363171	Vazduh	Libelium	0004A30B0021DF70	44.979	16.7091	""	""	Prijedor	""	30349357	2025-03-10T05:13:40	3	NO ERROR	12.12	61.8	992.63	0.13	0.22	0.24
1410	363171	Vazduh	Libelium	0004A30B0021DF70	44.979	16.7091	""	""	Prijedor	""	30349654	2025-03-10T06:14:22	3	NO ERROR	12.94	61.5	992.35	0.32	0.42	0.42
1411	363171	Vazduh	Libelium	0004A30B0021DF70	44.979	16.7091	""	""	Prijedor	""	30349966	2025-03-10T07:15:04	3	NO ERROR	14.6	54.5	992.36	0.43	0.56	0.56
1412	363171	Vazduh	Libelium	0004A30B0021DF70	44.979	16.7091	""	""	Prijedor	""	30350268	2025-03-10T08:15:46	3	NO ERROR	15.57	51.9	992.2	0.73	1.06	1.07
1413	363171	Vazduh	Libelium	0004A30B0021DF70	44.979	16.7091	""	""	Prijedor	""	30350503	2025-03-10T09:16:28	3	NO ERROR	17.48	47.2	991.66	0.62	0.95	0.99
1414	363171	Vazduh	Libelium	0004A30B0021DF70	44.979	16.7091	""	""	Prijedor	""	30350768	2025-03-10T10:17:10	3	NO ERROR	17.15	49.7	991.89	0.3	0.48	0.52
1415	363171	Vazduh	Libelium	0004A30B0021DF70	44.979	16.7091	""	""	Prijedor	""	30351060	2025-03-10T11:17:52	3	NO ERROR	18.32	52.8	991.47	0.73	0.99	1
1416	363171	Vazduh	Libelium	0004A30B0021DF70	44.979	16.7091	""	""	Prijedor	""	30351347	2025-03-10T12:18:34	3	NO ERROR	19.78	52	991.13	0.32	0.43	0.44
1417	363171	Vazduh	Libelium	0004A30B0021DF70	44.979	16.7091	""	""	Prijedor	""	30351702	2025-03-10T13:19:29	3	NO ERROR	18.63	56.6	991.44	0.33	0.38	0.38
1418	363171	Vazduh	Libelium	0004A30B0021DF70	44.979	16.7091	""	""	Prijedor	""	30352059	2025-03-10T14:20:10	3	NO ERROR	20.39	56.2	991.24	0.23	0.29	0.29
1419	363171	Vazduh	Libelium	0004A30B0021DF70	44.979	16.7091	""	""	Prijedor	""	30352400	2025-03-10T15:20:53	3	NO ERROR	21.36	51	991.1	0.19	0.25	0.25
1420	363171	Vazduh	Libelium	0004A30B0021DF70	44.979	16.7091	""	""	Prijedor	""	30352760	2025-03-10T16:21:35	3	NO ERROR	20.51	50.6	990.98	0.22	0.34	0.36
1421	363171	Vazduh	Libelium	0004A30B0021DF70	44.979	16.7091	""	""	Prijedor	""	30353124	2025-03-10T17:22:17	3	NO ERROR	18.84	52.2	991.22	0.15	0.18	0.18
1422	363171	Vazduh	Libelium	0004A30B0021DF70	44.979	16.7091	""	""	Prijedor	""	30353449	2025-03-10T18:22:59	3	NO ERROR	17.27	56.6	991.54	0.22	0.24	0.24
1423	363171	Vazduh	Libelium	0004A30B0021DF70	44.979	16.7091	""	""	Prijedor	""	30353776	2025-03-10T19:23:41	3	NO ERROR	17.19	59.8	992.17	0.86	1.26	1.27
1424	363171	Vazduh	Libelium	0004A30B0021DF70	44.979	16.7091	""	""	Prijedor	""	30354181	2025-03-10T20:24:23	3	NO ERROR	16.47	65.2	992.08	0.43	0.61	0.64
1425	363171	Vazduh	Libelium	0004A30B0021DF70	44.979	16.7091	""	""	Prijedor	""	30354571	2025-03-10T21:25:05	3	NO ERROR	14.92	74.1	992.68	0.68	0.91	1.06
1426	363171	Vazduh	Libelium	0004A30B0021DF70	44.979	16.7091	""	""	Prijedor	""	30354941	2025-03-10T22:25:47	3	NO ERROR	13.19	86.6	992.52	0.68	0.83	0.84
1427	363171	Vazduh	Libelium	0004A30B0021DF70	44.979	16.7091	""	""	Prijedor	""	30355335	2025-03-10T23:26:29	3	NO ERROR	12.01	97	992.45	0.53	0.7	0.7
1428	363171	Vazduh	Libelium	0004A30B0021DF70	44.979	16.7091	""	""	Prijedor	""	30355606	2025-03-11T00:27:11	3	NO ERROR	11.11	100	992.39	0.5	0.71	0.73
1429	363171	Vazduh	Libelium	0004A30B0021DF70	44.979	16.7091	""	""	Prijedor	""	30355836	2025-03-11T01:27:53	3	NO ERROR	11.08	100	992.16	0.55	0.8	0.8
1430	363171	Vazduh	Libelium	0004A30B0021DF70	44.979	16.7091	""	""	Prijedor	""	30356108	2025-03-11T02:28:35	3	NO ERROR	11.85	100	991.47	0.66	0.91	0.94
1431	363171	Vazduh	Libelium	0004A30B0021DF70	44.979	16.7091	""	""	Prijedor	""	30356373	2025-03-11T03:29:17	3	NO ERROR	12.45	100	990.45	0.44	0.47	0.47
1432	363171	Vazduh	Libelium	0004A30B0021DF70	44.979	16.7091	""	""	Prijedor	""	30356672	2025-03-11T04:30:06	3	NO ERROR	11.34	100	990.33	0.42	0.63	0.63
1433	363171	Vazduh	Libelium	0004A30B0021DF70	44.979	16.7091	""	""	Prijedor	""	30356997	2025-03-11T05:30:47	3	NO ERROR	11.23	100	989.99	0.26	0.32	0.32
1434	363171	Vazduh	Libelium	0004A30B0021DF70	44.979	16.7091	""	""	Prijedor	""	30357302	2025-03-11T06:31:30	3	NO ERROR	10.71	100	990.06	0.4	0.45	0.45
1435	363171	Vazduh	Libelium	0004A30B0021DF70	44.979	16.7091	""	""	Prijedor	""	30357586	2025-03-11T07:32:12	3	NO ERROR	10.88	100	990.18	0.12	0.24	0.32
1436	363171	Vazduh	Libelium	0004A30B0021DF70	44.979	16.7091	""	""	Prijedor	""	30357880	2025-03-11T08:32:54	3	NO ERROR	11.49	100	990.37	0.25	0.31	0.31
1437	363171	Vazduh	Libelium	0004A30B0021DF70	44.979	16.7091	""	""	Prijedor	""	30358100	2025-03-11T09:33:36	3	NO ERROR	11.58	100	990.63	0.09	0.1	0.1
1438	363171	Vazduh	Libelium	0004A30B0021DF70	44.979	16.7091	""	""	Prijedor	""	30358359	2025-03-11T10:34:24	3	NO ERROR	12.03	100	990.8	0.05	0.06	0.06
1439	363171	Vazduh	Libelium	0004A30B0021DF70	44.979	16.7091	""	""	Prijedor	""	30358635	2025-03-11T11:35:06	3	NO ERROR	14.25	100	990.48	0.05	0.06	0.06
1440	363171	Vazduh	Libelium	0004A30B0021DF70	44.979	16.7091	""	""	Prijedor	""	30358969	2025-03-11T12:35:48	3	NO ERROR	15.09	100	990	0.02	0.02	0.02
1441	363171	Vazduh	Libelium	0004A30B0021DF70	44.979	16.7091	""	""	Prijedor	""	30359288	2025-03-11T13:36:30	3	NO ERROR	16.25	100	989.64	0.03	0.11	0.18
1442	363171	Vazduh	Libelium	0004A30B0021DF70	44.979	16.7091	""	""	Prijedor	""	30359668	2025-03-11T14:37:12	3	NO ERROR	19.98	83.8	988.99	0.03	0.05	0.05
1443	363171	Vazduh	Libelium	0004A30B0021DF70	44.979	16.7091	""	""	Prijedor	""	30360047	2025-03-11T15:37:54	3	NO ERROR	19.08	81.8	988.31	0.03	0.06	0.06
1444	363171	Vazduh	Libelium	0004A30B0021DF70	44.979	16.7091	""	""	Prijedor	""	30360390	2025-03-11T16:38:36	3	NO ERROR	17.68	89.5	988.22	0.08	0.11	0.12
1445	363171	Vazduh	Libelium	0004A30B0021DF70	44.979	16.7091	""	""	Prijedor	""	30360718	2025-03-11T17:39:18	3	NO ERROR	16.81	61.9	989.17	0	0	0
1446	363171	Vazduh	Libelium	0004A30B0021DF70	44.979	16.7091	""	""	Prijedor	""	30361034	2025-03-11T18:40:00	3	NO ERROR	15.25	66.1	990.13	0.09	0.24	0.35
1447	363171	Vazduh	Libelium	0004A30B0021DF70	44.979	16.7091	""	""	Prijedor	""	30363744	2025-03-12T03:46:31	3	NO ERROR	7.54	100	988.54	0.07	0.09	0.09
1448	363171	Vazduh	Libelium	0004A30B0021DF70	44.979	16.7091	""	""	Prijedor	""	30364083	2025-03-12T04:47:13	3	NO ERROR	7.24	100	988.3	0.03	0.03	0.03
1449	363171	Vazduh	Libelium	0004A30B0021DF70	44.979	16.7091	""	""	Prijedor	""	30364381	2025-03-12T05:47:55	3	NO ERROR	7.27	100	988.83	0.07	0.24	0.74
1450	363171	Vazduh	Libelium	0004A30B0021DF70	44.979	16.7091	""	""	Prijedor	""	30364687	2025-03-12T06:48:37	3	NO ERROR	7.44	100	989.13	0.12	0.14	0.14
1451	363171	Vazduh	Libelium	0004A30B0021DF70	44.979	16.7091	""	""	Prijedor	""	30364985	2025-03-12T07:49:19	3	NO ERROR	8.5	100	989.61	0.08	0.09	0.09
1452	363171	Vazduh	Libelium	0004A30B0021DF70	44.979	16.7091	""	""	Prijedor	""	30365275	2025-03-12T08:50:01	3	NO ERROR	9.66	100	989.24	0.1	0.11	0.11
1453	363171	Vazduh	Libelium	0004A30B0021DF70	44.979	16.7091	""	""	Prijedor	""	30365517	2025-03-12T09:50:44	3	NO ERROR	11.28	100	989.11	0.02	0.09	0.17
1454	363171	Vazduh	Libelium	0004A30B0021DF70	44.979	16.7091	""	""	Prijedor	""	30365809	2025-03-12T10:51:26	3	NO ERROR	14.82	100	988.3	0.16	0.26	0.27
1455	363171	Vazduh	Libelium	0004A30B0021DF70	44.979	16.7091	""	""	Prijedor	""	30366169	2025-03-12T11:52:08	3	NO ERROR	17.44	100	987.6	0.06	0.07	0.07
1456	363171	Vazduh	Libelium	0004A30B0021DF70	44.979	16.7091	""	""	Prijedor	""	30366585	2025-03-12T12:52:50	3	NO ERROR	21.07	67.7	986.41	0.24	0.34	0.35
1457	363171	Vazduh	Libelium	0004A30B0021DF70	44.979	16.7091	""	""	Prijedor	""	30366961	2025-03-12T13:53:32	3	NO ERROR	23.71	48.4	985.59	0.12	0.14	0.14
1458	363171	Vazduh	Libelium	0004A30B0021DF70	44.979	16.7091	""	""	Prijedor	""	30367342	2025-03-12T14:54:14	3	NO ERROR	24.2	43.4	985.35	0.08	0.12	0.13
1459	363171	Vazduh	Libelium	0004A30B0021DF70	44.979	16.7091	""	""	Prijedor	""	30367674	2025-03-12T15:54:56	3	NO ERROR	21.28	45.5	984.85	0.06	0.07	0.07
1460	363171	Vazduh	Libelium	0004A30B0021DF70	44.979	16.7091	""	""	Prijedor	""	30368038	2025-03-12T16:55:38	3	NO ERROR	19.12	48.8	984.45	0.07	0.07	0.07
1461	363171	Vazduh	Libelium	0004A30B0021DF70	44.979	16.7091	""	""	Prijedor	""	30368352	2025-03-12T17:56:20	3	NO ERROR	18.28	48.7	984.17	0.3	0.42	0.42
1462	363171	Vazduh	Libelium	0004A30B0021DF70	44.979	16.7091	""	""	Prijedor	""	30368684	2025-03-12T18:57:02	3	NO ERROR	17.52	51.5	983.83	0.28	0.34	0.35
1463	363171	Vazduh	Libelium	0004A30B0021DF70	44.979	16.7091	""	""	Prijedor	""	30369012	2025-03-12T19:57:44	3	NO ERROR	17.35	54.5	983.68	0.11	0.17	0.18
1464	363171	Vazduh	Libelium	0004A30B0021DF70	44.979	16.7091	""	""	Prijedor	""	30369428	2025-03-12T20:58:26	3	NO ERROR	16.72	59.2	982.81	0.25	0.33	0.33
1465	363171	Vazduh	Libelium	0004A30B0021DF70	44.979	16.7091	""	""	Prijedor	""	30369796	2025-03-12T21:59:08	3	NO ERROR	16.53	64.7	982.33	0.05	0.1	0.1
1466	363171	Vazduh	Libelium	0004A30B0021DF70	44.979	16.7091	""	""	Prijedor	""	30370164	2025-03-12T22:59:51	3	NO ERROR	16.06	67.4	981.42	0.13	0.16	0.17
1467	363171	Vazduh	Libelium	0004A30B0021DF70	44.979	16.7091	""	""	Prijedor	""	30370490	2025-03-13T00:00:33	3	NO ERROR	15.49	70	979.57	0.33	0.47	0.47
1468	363171	Vazduh	Libelium	0004A30B0021DF70	44.979	16.7091	""	""	Prijedor	""	30370862	2025-03-13T01:01:15	3	NO ERROR	15.38	70.6	978.8	0.19	0.21	0.21
1469	363171	Vazduh	Libelium	0004A30B0021DF70	44.979	16.7091	""	""	Prijedor	""	30371190	2025-03-13T02:01:57	3	NO ERROR	13.15	100	978.9	0.19	0.25	0.25
1470	363171	Vazduh	Libelium	0004A30B0021DF70	44.979	16.7091	""	""	Prijedor	""	30371518	2025-03-13T03:02:39	3	NO ERROR	12.79	100	978.52	0.05	0.05	0.05
1471	363171	Vazduh	Libelium	0004A30B0021DF70	44.979	16.7091	""	""	Prijedor	""	30371849	2025-03-13T04:03:21	3	NO ERROR	12.16	100	978.76	0.03	0.03	0.03
1472	363171	Vazduh	Libelium	0004A30B0021DF70	44.979	16.7091	""	""	Prijedor	""	30372319	2025-03-13T05:04:03	3	NO ERROR	13.22	100	978.66	0.14	0.16	0.16
1473	363171	Vazduh	Libelium	0004A30B0021DF70	44.979	16.7091	""	""	Prijedor	""	30372689	2025-03-13T06:04:57	3	NO ERROR	12.73	100	978.86	0.05	0.05	0.05
1474	363171	Vazduh	Libelium	0004A30B0021DF70	44.979	16.7091	""	""	Prijedor	""	30373085	2025-03-13T07:05:39	3	NO ERROR	13.4	100	979.78	0.08	0.1	0.1
1475	363171	Vazduh	Libelium	0004A30B0021DF70	44.979	16.7091	""	""	Prijedor	""	30373467	2025-03-13T08:06:27	3	NO ERROR	13.85	98.1	980.41	0.12	0.17	0.17
1476	363171	Vazduh	Libelium	0004A30B0021DF70	44.979	16.7091	""	""	Prijedor	""	30373826	2025-03-13T09:07:15	3	NO ERROR	14.05	95	981.42	0	0	0
1477	363171	Vazduh	Libelium	0004A30B0021DF70	44.979	16.7091	""	""	Prijedor	""	30374152	2025-03-13T10:07:57	3	NO ERROR	21.03	56.7	981.52	0.02	0.02	0.02
1478	363171	Vazduh	Libelium	0004A30B0021DF70	44.979	16.7091	""	""	Prijedor	""	30374496	2025-03-13T11:08:39	3	NO ERROR	17.65	58	981.9	0	0	0
1479	363171	Vazduh	Libelium	0004A30B0021DF70	44.979	16.7091	""	""	Prijedor	""	30374856	2025-03-13T12:09:22	3	NO ERROR	19.45	50.8	983.13	0.02	0.02	0.02
1480	363171	Vazduh	Libelium	0004A30B0021DF70	44.979	16.7091	""	""	Prijedor	""	30375314	2025-03-13T13:10:04	3	NO ERROR	20.49	45.6	983.27	0	0	0
1481	363171	Vazduh	Libelium	0004A30B0021DF70	44.979	16.7091	""	""	Prijedor	""	30375717	2025-03-13T14:10:46	3	NO ERROR	21.1	45.7	983.75	0	0	0
1482	363171	Vazduh	Libelium	0004A30B0021DF70	44.979	16.7091	""	""	Prijedor	""	30376079	2025-03-13T15:11:28	3	NO ERROR	19.86	42.7	983.86	0.03	0.06	0.06
1483	363171	Vazduh	Libelium	0004A30B0021DF70	44.979	16.7091	""	""	Prijedor	""	30376419	2025-03-13T16:12:10	3	NO ERROR	18.75	44.7	984.44	0.04	0.08	0.09
1484	363171	Vazduh	Libelium	0004A30B0021DF70	44.979	16.7091	""	""	Prijedor	""	30376778	2025-03-13T17:12:52	3	NO ERROR	17	52.5	984.94	0.03	0.03	0.03
1485	363171	Vazduh	Libelium	0004A30B0021DF70	44.979	16.7091	""	""	Prijedor	""	30377092	2025-03-13T18:13:34	3	NO ERROR	15.21	71	985.73	0.02	0.09	0.17
1486	363171	Vazduh	Libelium	0004A30B0021DF70	44.979	16.7091	""	""	Prijedor	""	30377399	2025-03-13T19:14:16	3	NO ERROR	15.18	61.2	986.74	0.07	0.22	0.25
1487	363171	Vazduh	Libelium	0004A30B0021DF70	44.979	16.7091	""	""	Prijedor	""	30377769	2025-03-13T20:14:58	3	NO ERROR	14.25	66.8	986.8	0.02	0.02	0.02
1488	363171	Vazduh	Libelium	0004A30B0021DF70	44.979	16.7091	""	""	Prijedor	""	30378165	2025-03-13T21:15:40	3	NO ERROR	12.61	83	987.51	0.36	0.56	0.57
1489	363171	Vazduh	Libelium	0004A30B0021DF70	44.979	16.7091	""	""	Prijedor	""	30378523	2025-03-13T22:16:22	3	NO ERROR	11.17	92.6	988.09	0.02	0.15	0.24
1490	363171	Vazduh	Libelium	0004A30B0021DF70	44.979	16.7091	""	""	Prijedor	""	30378895	2025-03-13T23:17:04	3	NO ERROR	10.81	97.6	988.37	0.14	0.21	0.21
1491	363171	Vazduh	Libelium	0004A30B0021DF70	44.979	16.7091	""	""	Prijedor	""	30379149	2025-03-14T00:17:46	3	NO ERROR	10.18	100	988.58	0.01	0.03	0.04
1492	363171	Vazduh	Libelium	0004A30B0021DF70	44.979	16.7091	""	""	Prijedor	""	30379391	2025-03-14T01:18:28	3	NO ERROR	10.27	100	988.37	0	0	0
1493	363171	Vazduh	Libelium	0004A30B0021DF70	44.979	16.7091	""	""	Prijedor	""	30379676	2025-03-14T02:19:11	3	NO ERROR	9.61	100	988.14	0.05	0.06	0.06
1494	363171	Vazduh	Libelium	0004A30B0021DF70	44.979	16.7091	""	""	Prijedor	""	30379896	2025-03-14T03:19:53	3	NO ERROR	8.17	100	987.93	0.11	0.12	0.12
1495	363171	Vazduh	Libelium	0004A30B0021DF70	44.979	16.7091	""	""	Prijedor	""	30401798	2025-03-17T03:11:16	3	NO ERROR	7.47	100	1000.19	0	0	0
1496	363171	Vazduh	Libelium	0004A30B0021DF70	44.979	16.7091	""	""	Prijedor	""	30402070	2025-03-17T04:11:58	3	NO ERROR	6.51	100	1000.47	0	0	0
1497	363171	Vazduh	Libelium	0004A30B0021DF70	44.979	16.7091	""	""	Prijedor	""	30402392	2025-03-17T05:12:46	3	NO ERROR	6.29	100	1000.9	0.02	0.02	0.02
1498	363171	Vazduh	Libelium	0004A30B0021DF70	44.979	16.7091	""	""	Prijedor	""	30402685	2025-03-17T06:13:28	3	NO ERROR	6.12	100	1001.46	0.05	0.08	0.08
1499	363171	Vazduh	Libelium	0004A30B0021DF70	44.979	16.7091	""	""	Prijedor	""	30402981	2025-03-17T07:14:10	3	NO ERROR	6.01	100	1002.24	0.02	0.02	0.02
1500	363171	Vazduh	Libelium	0004A30B0021DF70	44.979	16.7091	""	""	Prijedor	""	30403303	2025-03-17T08:14:52	3	NO ERROR	5.71	100	1003.41	0.02	0.02	0.02
1501	363171	Vazduh	Libelium	0004A30B0021DF70	44.979	16.7091	""	""	Prijedor	""	30403602	2025-03-17T09:15:34	3	NO ERROR	6.48	100	1003.94	0.02	0.02	0.02
1502	363171	Vazduh	Libelium	0004A30B0021DF70	44.979	16.7091	""	""	Prijedor	""	30403897	2025-03-17T10:16:16	3	NO ERROR	6.39	100	1004.57	0.03	0.05	0.05
1503	363171	Vazduh	Libelium	0004A30B0021DF70	44.979	16.7091	""	""	Prijedor	""	30404199	2025-03-17T11:16:59	3	NO ERROR	7.41	100	1004.46	0.02	0.02	0.02
1504	363171	Vazduh	Libelium	0004A30B0021DF70	44.979	16.7091	""	""	Prijedor	""	30404534	2025-03-17T12:17:41	3	NO ERROR	8.85	90.2	1004.26	0	0	0
1505	363171	Vazduh	Libelium	0004A30B0021DF70	44.979	16.7091	""	""	Prijedor	""	30404903	2025-03-17T13:18:23	3	NO ERROR	9.77	80.2	1003.95	0.02	0.02	0.02
1506	363171	Vazduh	Libelium	0004A30B0021DF70	44.979	16.7091	""	""	Prijedor	""	30405282	2025-03-17T14:19:05	3	NO ERROR	8.63	81.1	1003.75	0.02	0.02	0.02
1507	363171	Vazduh	Libelium	0004A30B0021DF70	44.979	16.7091	""	""	Prijedor	""	30405674	2025-03-17T15:19:47	3	NO ERROR	8.89	79.9	1003.71	0.09	0.1	0.1
1508	363171	Vazduh	Libelium	0004A30B0021DF70	44.979	16.7091	""	""	Prijedor	""	30406025	2025-03-17T16:20:35	3	NO ERROR	8.46	82.6	1003.68	0.02	0.02	0.02
1509	363171	Vazduh	Libelium	0004A30B0021DF70	44.979	16.7091	""	""	Prijedor	""	30406320	2025-03-17T17:21:17	3	NO ERROR	7.9	84.9	1004.63	0.04	0.07	0.08
1510	363171	Vazduh	Libelium	0004A30B0021DF70	44.979	16.7091	""	""	Prijedor	""	30406618	2025-03-17T18:21:59	3	NO ERROR	6.73	80	1005.75	0	0	0
1511	363171	Vazduh	Libelium	0004A30B0021DF70	44.979	16.7091	""	""	Prijedor	""	30406890	2025-03-17T19:22:41	3	NO ERROR	5.96	80.9	1007.73	0.02	0.02	0.02
1512	363171	Vazduh	Libelium	0004A30B0021DF70	44.979	16.7091	""	""	Prijedor	""	30407208	2025-03-17T20:23:23	3	NO ERROR	4.75	60.3	1009.25	0.03	0.06	0.06
1513	363171	Vazduh	Libelium	0004A30B0021DF70	44.979	16.7091	""	""	Prijedor	""	30407584	2025-03-17T21:24:11	3	NO ERROR	3.59	54.4	1010.77	0	0	0
1514	363171	Vazduh	Libelium	0004A30B0021DF70	44.979	16.7091	""	""	Prijedor	""	30407910	2025-03-17T22:24:53	3	NO ERROR	2.39	58.1	1011.57	0.02	0.02	0.02
1515	363171	Vazduh	Libelium	0004A30B0021DF70	44.979	16.7091	""	""	Prijedor	""	30408223	2025-03-17T23:25:35	3	NO ERROR	2.44	60.8	1011.88	0.02	0.02	0.02
1516	363171	Vazduh	Libelium	0004A30B0021DF70	44.979	16.7091	""	""	Prijedor	""	30408547	2025-03-18T00:26:18	3	NO ERROR	2.66	60.2	1011.79	0	0	0
1517	363171	Vazduh	Libelium	0004A30B0021DF70	44.979	16.7091	""	""	Prijedor	""	30408808	2025-03-18T01:27:00	3	NO ERROR	2.36	61.8	1012.41	0.03	0.06	0.06
1518	363171	Vazduh	Libelium	0004A30B0021DF70	44.979	16.7091	""	""	Prijedor	""	30409093	2025-03-18T02:27:42	3	NO ERROR	2.08	67.1	1013.12	0	0	0
1519	363171	Vazduh	Libelium	0004A30B0021DF70	44.979	16.7091	""	""	Prijedor	""	30409372	2025-03-18T03:28:24	3	NO ERROR	1.2	83.8	1013.47	0.02	0.02	0.02
1520	363171	Vazduh	Libelium	0004A30B0021DF70	44.979	16.7091	""	""	Prijedor	""	30409673	2025-03-18T04:29:06	3	NO ERROR	0.62	99.4	1013.64	0.03	0.06	0.06
1521	363171	Vazduh	Libelium	0004A30B0021DF70	44.979	16.7091	""	""	Prijedor	""	30410008	2025-03-18T05:29:48	3	NO ERROR	0.17	100	1014.04	0	0	0
1522	363171	Vazduh	Libelium	0004A30B0021DF70	44.979	16.7091	""	""	Prijedor	""	30410330	2025-03-18T06:30:30	3	NO ERROR	0.64	100	1014.81	0	0	0
1523	363171	Vazduh	Libelium	0004A30B0021DF70	44.979	16.7091	""	""	Prijedor	""	30410629	2025-03-18T07:31:12	3	NO ERROR	2.33	88.2	1015.35	0	0	0
1524	363171	Vazduh	Libelium	0004A30B0021DF70	44.979	16.7091	""	""	Prijedor	""	30410948	2025-03-18T08:31:54	3	NO ERROR	7.54	54.4	1016.08	0.05	0.05	0.05
1525	363171	Vazduh	Libelium	0004A30B0021DF70	44.979	16.7091	""	""	Prijedor	""	30411211	2025-03-18T09:32:36	3	NO ERROR	7.83	47.6	1016.25	0	0	0
1526	363171	Vazduh	Libelium	0004A30B0021DF70	44.979	16.7091	""	""	Prijedor	""	30411490	2025-03-18T10:33:18	3	NO ERROR	5.52	48.4	1016.47	0	0	0
1527	363171	Vazduh	Libelium	0004A30B0021DF70	44.979	16.7091	""	""	Prijedor	""	30411761	2025-03-18T11:34:00	3	NO ERROR	5.02	42.5	1016.29	0.07	0.12	0.12
1528	363171	Vazduh	Libelium	0004A30B0021DF70	44.979	16.7091	""	""	Prijedor	""	30412135	2025-03-18T12:34:43	3	NO ERROR	6.59	40.8	1015.79	0	0	0
1529	363171	Vazduh	Libelium	0004A30B0021DF70	44.979	16.7091	""	""	Prijedor	""	30412435	2025-03-18T13:35:25	3	NO ERROR	6.77	39	1015.36	0	0	0
1530	363171	Vazduh	Libelium	0004A30B0021DF70	44.979	16.7091	""	""	Prijedor	""	30412733	2025-03-18T14:36:07	3	NO ERROR	9.56	36.7	1014.95	0	0	0
1531	363171	Vazduh	Libelium	0004A30B0021DF70	44.979	16.7091	""	""	Prijedor	""	30413025	2025-03-18T15:36:49	3	NO ERROR	7.83	39	1014.7	0	0.04	0.06
1532	363171	Vazduh	Libelium	0004A30B0021DF70	44.979	16.7091	""	""	Prijedor	""	30413366	2025-03-18T16:37:31	3	NO ERROR	6.62	41.4	1014.43	0	0	0
1533	363171	Vazduh	Libelium	0004A30B0021DF70	44.979	16.7091	""	""	Prijedor	""	30413626	2025-03-18T17:38:13	3	NO ERROR	5.38	44.4	1014.96	0	0	0
1534	363171	Vazduh	Libelium	0004A30B0021DF70	44.979	16.7091	""	""	Prijedor	""	30413925	2025-03-18T18:38:55	3	NO ERROR	4.17	46.3	1015.72	0.02	0.06	0.07
1535	363171	Vazduh	Libelium	0004A30B0021DF70	44.979	16.7091	""	""	Prijedor	""	30414193	2025-03-18T19:39:43	3	NO ERROR	3.26	50.6	1016.58	0.22	0.33	0.34
1536	363171	Vazduh	Libelium	0004A30B0021DF70	44.979	16.7091	""	""	Prijedor	""	30414488	2025-03-18T20:40:25	3	NO ERROR	1.49	59.9	1017.1	0.11	0.21	0.23
1537	363171	Vazduh	Libelium	0004A30B0021DF70	44.979	16.7091	""	""	Prijedor	""	30414823	2025-03-18T21:41:07	3	NO ERROR	0.43	79.8	1017.38	0	0	0
1538	363171	Vazduh	Libelium	0004A30B0021DF70	44.979	16.7091	""	""	Prijedor	""	30415139	2025-03-18T22:41:49	3	NO ERROR	-0.67	84.8	1017.45	0.23	0.31	0.31
1539	363171	Vazduh	Libelium	0004A30B0021DF70	44.979	16.7091	""	""	Prijedor	""	30415368	2025-03-18T23:42:31	3	NO ERROR	-1.23	95.4	1017.68	0.02	0.05	0.05
1540	363171	Vazduh	Libelium	0004A30B0021DF70	44.979	16.7091	""	""	Prijedor	""	30415687	2025-03-19T00:43:14	3	NO ERROR	-2.11	100	1018.03	0.03	0.03	0.03
1541	363171	Vazduh	Libelium	0004A30B0021DF70	44.979	16.7091	""	""	Prijedor	""	30415922	2025-03-19T01:43:56	3	NO ERROR	-2.73	100	1018.04	0.05	0.05	0.05
1542	363171	Vazduh	Libelium	0004A30B0021DF70	44.979	16.7091	""	""	Prijedor	""	30416190	2025-03-19T02:44:38	3	NO ERROR	-3.15	100	1018.03	0.05	0.05	0.05
1543	363171	Vazduh	Libelium	0004A30B0021DF70	44.979	16.7091	""	""	Prijedor	""	30416459	2025-03-19T03:45:32	3	NO ERROR	-3.73	100	1018.05	0.02	0.02	0.02
1544	363171	Vazduh	Libelium	0004A30B0021DF70	44.979	16.7091	""	""	Prijedor	""	30416800	2025-03-19T04:46:14	3	NO ERROR	-4.37	100	1018	0.01	0.03	0.04
1545	363171	Vazduh	Libelium	0004A30B0021DF70	44.979	16.7091	""	""	Prijedor	""	30417064	2025-03-19T05:46:56	3	NO ERROR	-4.65	100	1018.18	0.02	0.02	0.02
1546	363171	Vazduh	Libelium	0004A30B0021DF70	44.979	16.7091	""	""	Prijedor	""	30417403	2025-03-19T06:47:38	3	NO ERROR	-1.44	100	1018.7	0.01	0.03	0.04
1547	363171	Vazduh	Libelium	0004A30B0021DF70	44.979	16.7091	""	""	Prijedor	""	30417696	2025-03-19T07:48:20	3	NO ERROR	2.58	75.7	1018.87	0.02	0.02	0.02
1548	363171	Vazduh	Libelium	0004A30B0021DF70	44.979	16.7091	""	""	Prijedor	""	30417967	2025-03-19T08:49:02	3	NO ERROR	9	54.4	1018.92	0.01	0.08	0.09
1549	363171	Vazduh	Libelium	0004A30B0021DF70	44.979	16.7091	""	""	Prijedor	""	30418226	2025-03-19T09:49:44	3	NO ERROR	5.34	54.8	1018.94	0.02	0.02	0.02
1550	363171	Vazduh	Libelium	0004A30B0021DF70	44.979	16.7091	""	""	Prijedor	""	30418523	2025-03-19T10:50:26	3	NO ERROR	6.63	45.9	1018.56	0.02	0.02	0.02
1551	363171	Vazduh	Libelium	0004A30B0021DF70	44.979	16.7091	""	""	Prijedor	""	30418867	2025-03-19T11:51:08	3	NO ERROR	8.42	46.3	1017.76	0	0	0
1552	363171	Vazduh	Libelium	0004A30B0021DF70	44.979	16.7091	""	""	Prijedor	""	30419281	2025-03-19T12:51:51	3	NO ERROR	9.56	46.7	1017.1	0	0	0
1553	363171	Vazduh	Libelium	0004A30B0021DF70	44.979	16.7091	""	""	Prijedor	""	30419676	2025-03-19T13:52:33	3	NO ERROR	14.66	36.4	1015.85	0.03	0.05	0.05
1554	363171	Vazduh	Libelium	0004A30B0021DF70	44.979	16.7091	""	""	Prijedor	""	30420067	2025-03-19T14:53:15	3	NO ERROR	16.22	32.2	1015.3	0.03	0.06	0.06
1555	363171	Vazduh	Libelium	0004A30B0021DF70	44.979	16.7091	""	""	Prijedor	""	30420422	2025-03-19T15:54:03	3	NO ERROR	16.71	31.3	1015.08	0.18	0.25	0.25
1556	363171	Vazduh	Libelium	0004A30B0021DF70	44.979	16.7091	""	""	Prijedor	""	30420803	2025-03-19T16:54:45	3	NO ERROR	11.18	37.6	1014.84	0	0	0
1557	363171	Vazduh	Libelium	0004A30B0021DF70	44.979	16.7091	""	""	Prijedor	""	30421115	2025-03-19T17:55:27	3	NO ERROR	9.7	39.9	1014.85	0.07	0.1	0.1
1558	363171	Vazduh	Libelium	0004A30B0021DF70	44.979	16.7091	""	""	Prijedor	""	30421436	2025-03-19T18:56:09	3	NO ERROR	7.93	43.2	1015.15	0.02	0.02	0.02
1559	363171	Vazduh	Libelium	0004A30B0021DF70	44.979	16.7091	""	""	Prijedor	""	30421806	2025-03-19T19:56:51	3	NO ERROR	5.83	53.9	1015.51	0.54	0.82	0.86
1560	363171	Vazduh	Libelium	0004A30B0021DF70	44.979	16.7091	""	""	Prijedor	""	30422137	2025-03-19T20:57:33	3	NO ERROR	3.22	70.2	1015.86	0.08	0.14	0.16
1561	363171	Vazduh	Libelium	0004A30B0021DF70	44.979	16.7091	""	""	Prijedor	""	30422469	2025-03-19T21:58:15	3	NO ERROR	2.21	76.5	1016.07	0.03	0.03	0.03
1562	363171	Vazduh	Libelium	0004A30B0021DF70	44.979	16.7091	""	""	Prijedor	""	30422781	2025-03-19T22:58:57	3	NO ERROR	0.97	94.6	1016.05	0.56	0.67	0.67
1563	363171	Vazduh	Libelium	0004A30B0021DF70	44.979	16.7091	""	""	Prijedor	""	30423061	2025-03-19T23:59:39	3	NO ERROR	0.6	99.1	1016.34	0.19	0.35	0.36
1564	363171	Vazduh	Libelium	0004A30B0021DF70	44.979	16.7091	""	""	Prijedor	""	30423358	2025-03-20T01:00:22	3	NO ERROR	-0.67	100	1016.24	0.03	0.05	0.05
1565	363171	Vazduh	Libelium	0004A30B0021DF70	44.979	16.7091	""	""	Prijedor	""	30423616	2025-03-20T02:01:04	3	NO ERROR	-0.87	100	1015.96	0.05	0.1	0.1
1566	363171	Vazduh	Libelium	0004A30B0021DF70	44.979	16.7091	""	""	Prijedor	""	30423864	2025-03-20T03:01:46	3	NO ERROR	-2.02	100	1015.81	0.03	0.03	0.03
1567	363171	Vazduh	Libelium	0004A30B0021DF70	44.979	16.7091	""	""	Prijedor	""	30424160	2025-03-20T04:02:28	3	NO ERROR	-2.38	100	1015.69	0.05	0.08	0.08
1568	363171	Vazduh	Libelium	0004A30B0021DF70	44.979	16.7091	""	""	Prijedor	""	30424532	2025-03-20T05:03:16	3	NO ERROR	-2.66	100	1015.72	0.05	0.05	0.05
1569	363171	Vazduh	Libelium	0004A30B0021DF70	44.979	16.7091	""	""	Prijedor	""	30424833	2025-03-20T06:04:04	3	NO ERROR	-2.81	100	1015.96	0.08	0.09	0.09
1570	363171	Vazduh	Libelium	0004A30B0021DF70	44.979	16.7091	""	""	Prijedor	""	30425173	2025-03-20T07:04:46	3	NO ERROR	3.39	88.5	1016.18	0.03	0.05	0.05
1571	363171	Vazduh	Libelium	0004A30B0021DF70	44.979	16.7091	""	""	Prijedor	""	30425486	2025-03-20T08:05:28	3	NO ERROR	5.69	69.6	1016.38	0.02	0.13	1.14
1572	363171	Vazduh	Libelium	0004A30B0021DF70	44.979	16.7091	""	""	Prijedor	""	30425753	2025-03-20T09:06:10	3	NO ERROR	8.85	60.2	1016.23	0.07	0.08	0.08
1573	363171	Vazduh	Libelium	0004A30B0021DF70	44.979	16.7091	""	""	Prijedor	""	30426053	2025-03-20T10:06:52	3	NO ERROR	10.79	52.7	1015.95	0	0	0
1574	363171	Vazduh	Libelium	0004A30B0021DF70	44.979	16.7091	""	""	Prijedor	""	30426426	2025-03-20T11:07:35	3	NO ERROR	12.09	47.6	1015.28	0.03	0.03	0.03
1575	363171	Vazduh	Libelium	0004A30B0021DF70	44.979	16.7091	""	""	Prijedor	""	30426778	2025-03-20T12:08:17	3	NO ERROR	15.11	39.4	1014.34	0	0.04	0.06
1576	363171	Vazduh	Libelium	0004A30B0021DF70	44.979	16.7091	""	""	Prijedor	""	30427228	2025-03-20T13:08:59	3	NO ERROR	17.58	32.2	1013.14	0	0.04	0.06
1577	363171	Vazduh	Libelium	0004A30B0021DF70	44.979	16.7091	""	""	Prijedor	""	30427618	2025-03-20T14:09:41	3	NO ERROR	22.9	27.7	1012.23	0.07	0.09	0.09
1578	363171	Vazduh	Libelium	0004A30B0021DF70	44.979	16.7091	""	""	Prijedor	""	30428008	2025-03-20T15:10:23	3	NO ERROR	23.82	26	1011.55	0	0	0
1579	363171	Vazduh	Libelium	0004A30B0021DF70	44.979	16.7091	""	""	Prijedor	""	30428371	2025-03-20T16:11:05	3	NO ERROR	22.7	25.9	1011.03	0.02	0.02	0.02
1580	363171	Vazduh	Libelium	0004A30B0021DF70	44.979	16.7091	""	""	Prijedor	""	30428728	2025-03-20T17:11:47	3	NO ERROR	17.21	29.7	1010.83	0	0	0
1581	363171	Vazduh	Libelium	0004A30B0021DF70	44.979	16.7091	""	""	Prijedor	""	30429045	2025-03-20T18:12:29	3	NO ERROR	15.48	33.2	1010.7	0.2	0.22	0.22
1582	363171	Vazduh	Libelium	0004A30B0021DF70	44.979	16.7091	""	""	Prijedor	""	30429355	2025-03-20T19:13:11	3	NO ERROR	11.81	40.9	1011.2	0.49	0.63	0.64
1583	363171	Vazduh	Libelium	0004A30B0021DF70	44.979	16.7091	""	""	Prijedor	""	30429719	2025-03-20T20:13:53	3	NO ERROR	9.19	53.6	1011.78	0.44	0.83	0.99
1584	363171	Vazduh	Libelium	0004A30B0021DF70	44.979	16.7091	""	""	Prijedor	""	30430086	2025-03-20T21:14:35	3	NO ERROR	7.87	56	1011.89	0.1	0.21	0.29
1585	363171	Vazduh	Libelium	0004A30B0021DF70	44.979	16.7091	""	""	Prijedor	""	30430421	2025-03-20T22:15:17	3	NO ERROR	5.95	73.8	1011.73	0.07	0.07	0.07
1586	363171	Vazduh	Libelium	0004A30B0021DF70	44.979	16.7091	""	""	Prijedor	""	30430724	2025-03-20T23:15:59	3	NO ERROR	4.44	84.8	1011.89	0.29	0.66	0.93
1587	363171	Vazduh	Libelium	0004A30B0021DF70	44.979	16.7091	""	""	Prijedor	""	30430981	2025-03-21T00:16:42	3	NO ERROR	2.84	90.3	1011.77	0.34	0.43	0.44
1588	363171	Vazduh	Libelium	0004A30B0021DF70	44.979	16.7091	""	""	Prijedor	""	30431231	2025-03-21T01:17:30	3	NO ERROR	1.36	100	1011.88	0.05	0.08	0.08
1589	363171	Vazduh	Libelium	0004A30B0021DF70	44.979	16.7091	""	""	Prijedor	""	30431507	2025-03-21T02:18:12	3	NO ERROR	1.16	100	1011.36	0.06	0.08	0.08
1590	363171	Vazduh	Libelium	0004A30B0021DF70	44.979	16.7091	""	""	Prijedor	""	30431762	2025-03-21T03:18:54	3	NO ERROR	-0.16	100	1011.13	0.05	0.08	0.08
1591	363171	Vazduh	Libelium	0004A30B0021DF70	44.979	16.7091	""	""	Prijedor	""	30432067	2025-03-21T04:19:36	3	NO ERROR	0.15	100	1010.89	0	0	0
1592	363171	Vazduh	Libelium	0004A30B0021DF70	44.979	16.7091	""	""	Prijedor	""	30432396	2025-03-21T05:20:18	3	NO ERROR	-0.79	100	1010.75	0.07	0.08	0.08
1593	363171	Vazduh	Libelium	0004A30B0021DF70	44.979	16.7091	""	""	Prijedor	""	30432692	2025-03-21T06:21:06	3	NO ERROR	-0.82	100	1010.86	0.11	0.12	0.12
1594	363171	Vazduh	Libelium	0004A30B0021DF70	44.979	16.7091	""	""	Prijedor	""	30433002	2025-03-21T07:22:00	3	NO ERROR	4.86	81.1	1010.85	0.06	0.17	0.18
1595	363171	Vazduh	Libelium	0004A30B0021DF70	44.979	16.7091	""	""	Prijedor	""	30433296	2025-03-21T08:22:42	3	NO ERROR	10.37	60.3	1010.72	0.33	0.39	0.39
1596	363171	Vazduh	Libelium	0004A30B0021DF70	44.979	16.7091	""	""	Prijedor	""	30433570	2025-03-21T09:23:24	3	NO ERROR	15.92	41.8	1010.21	0.06	0.12	0.13
1597	363171	Vazduh	Libelium	0004A30B0021DF70	44.979	16.7091	""	""	Prijedor	""	30433902	2025-03-21T10:24:06	3	NO ERROR	16.73	36.7	1009.54	0.06	0.24	0.33
1598	363171	Vazduh	Libelium	0004A30B0021DF70	44.979	16.7091	""	""	Prijedor	""	30434246	2025-03-21T11:24:48	3	NO ERROR	17.97	32.5	1008.58	0.02	0.02	0.02
1599	363171	Vazduh	Libelium	0004A30B0021DF70	44.979	16.7091	""	""	Prijedor	""	30434635	2025-03-21T12:25:31	3	NO ERROR	20.04	31.7	1007.75	0.17	0.19	0.19
1600	363171	Vazduh	Libelium	0004A30B0021DF70	44.979	16.7091	""	""	Prijedor	""	30435041	2025-03-21T13:26:13	3	NO ERROR	20.84	32.6	1006.47	0.2	0.22	0.22
1601	363171	Vazduh	Libelium	0004A30B0021DF70	44.979	16.7091	""	""	Prijedor	""	30435446	2025-03-21T14:26:55	3	NO ERROR	22.19	32.1	1005.41	0.14	0.25	0.26
1602	363171	Vazduh	Libelium	0004A30B0021DF70	44.979	16.7091	""	""	Prijedor	""	30435830	2025-03-21T15:27:37	3	NO ERROR	21.32	33.5	1004.74	0.04	0.08	0.09
1603	363171	Vazduh	Libelium	0004A30B0021DF70	44.979	16.7091	""	""	Prijedor	""	30436239	2025-03-21T16:28:19	3	NO ERROR	19.38	41.2	1004.82	0.34	0.5	0.51
1604	363171	Vazduh	Libelium	0004A30B0021DF70	44.979	16.7091	""	""	Prijedor	""	30436595	2025-03-21T17:29:01	3	NO ERROR	16.69	50.3	1005.09	0.24	0.38	0.39
1605	363171	Vazduh	Libelium	0004A30B0021DF70	44.979	16.7091	""	""	Prijedor	""	30436976	2025-03-21T18:29:43	3	NO ERROR	14.83	55.7	1005.11	0.02	0.02	0.02
1606	363171	Vazduh	Libelium	0004A30B0021DF70	44.979	16.7091	""	""	Prijedor	""	30437343	2025-03-21T19:30:25	3	NO ERROR	13.79	60.8	1005.5	0.12	0.13	0.13
1607	363171	Vazduh	Libelium	0004A30B0021DF70	44.979	16.7091	""	""	Prijedor	""	30437752	2025-03-21T20:31:07	3	NO ERROR	12.29	69.5	1005.72	0.62	0.87	0.91
1608	363171	Vazduh	Libelium	0004A30B0021DF70	44.979	16.7091	""	""	Prijedor	""	30438141	2025-03-21T21:31:49	3	NO ERROR	11.61	74.4	1005.2	0.11	0.22	0.23
1609	363171	Vazduh	Libelium	0004A30B0021DF70	44.979	16.7091	""	""	Prijedor	""	30438525	2025-03-21T22:32:31	3	NO ERROR	9.8	86.7	1004.61	0.13	0.18	0.18
1610	363171	Vazduh	Libelium	0004A30B0021DF70	44.979	16.7091	""	""	Prijedor	""	30438898	2025-03-21T23:33:13	3	NO ERROR	9.28	92.8	1004.31	0.12	0.16	0.16
1611	363171	Vazduh	Libelium	0004A30B0021DF70	44.979	16.7091	""	""	Prijedor	""	30439279	2025-03-22T00:33:55	3	NO ERROR	8.18	100	1004.26	0.03	0.03	0.03
1612	363171	Vazduh	Libelium	0004A30B0021DF70	44.979	16.7091	""	""	Prijedor	""	30439606	2025-03-22T01:34:38	3	NO ERROR	7.6	100	1003.41	0.07	0.07	0.07
1613	363171	Vazduh	Libelium	0004A30B0021DF70	44.979	16.7091	""	""	Prijedor	""	30439961	2025-03-22T02:35:20	3	NO ERROR	7.43	100	1002.48	0.21	0.24	0.24
1614	363171	Vazduh	Libelium	0004A30B0021DF70	44.979	16.7091	""	""	Prijedor	""	30440285	2025-03-22T03:36:02	3	NO ERROR	7.24	100	1001.64	0.03	0.03	0.03
1615	363171	Vazduh	Libelium	0004A30B0021DF70	44.979	16.7091	""	""	Prijedor	""	30440655	2025-03-22T04:36:44	3	NO ERROR	5.63	100	1001.64	0.22	0.34	0.35
1616	363171	Vazduh	Libelium	0004A30B0021DF70	44.979	16.7091	""	""	Prijedor	""	30441013	2025-03-22T05:37:26	3	NO ERROR	5.35	100	1001.67	0.18	0.2	0.2
1617	363171	Vazduh	Libelium	0004A30B0021DF70	44.979	16.7091	""	""	Prijedor	""	30441368	2025-03-22T06:38:08	3	NO ERROR	6.6	100	1001.46	0.07	0.07	0.07
1618	363171	Vazduh	Libelium	0004A30B0021DF70	44.979	16.7091	""	""	Prijedor	""	30441705	2025-03-22T07:38:50	3	NO ERROR	7.9	100	1001.24	0.34	0.6	0.76
1619	363171	Vazduh	Libelium	0004A30B0021DF70	44.979	16.7091	""	""	Prijedor	""	30442020	2025-03-22T08:39:32	3	NO ERROR	8.62	100	1000.91	0.13	0.14	0.14
1620	363171	Vazduh	Libelium	0004A30B0021DF70	44.979	16.7091	""	""	Prijedor	""	30442281	2025-03-22T09:40:14	3	NO ERROR	10.06	100	1000.52	0.11	0.12	0.12
1621	363171	Vazduh	Libelium	0004A30B0021DF70	44.979	16.7091	""	""	Prijedor	""	30442621	2025-03-22T10:40:56	3	NO ERROR	11.14	100	1000.24	0.2	0.24	0.24
1622	363171	Vazduh	Libelium	0004A30B0021DF70	44.979	16.7091	""	""	Prijedor	""	30442928	2025-03-22T11:41:44	3	NO ERROR	12.96	92	1000.06	0	0.06	2.64
1623	363171	Vazduh	Libelium	0004A30B0021DF70	44.979	16.7091	""	""	Prijedor	""	30443274	2025-03-22T12:42:26	3	NO ERROR	13.91	85.6	999.29	0.09	0.14	0.15
1624	363171	Vazduh	Libelium	0004A30B0021DF70	44.979	16.7091	""	""	Prijedor	""	30443584	2025-03-22T13:43:08	3	NO ERROR	14.73	72	998.44	0.14	0.16	0.16
1625	363171	Vazduh	Libelium	0004A30B0021DF70	44.979	16.7091	""	""	Prijedor	""	30443908	2025-03-22T14:43:51	3	NO ERROR	18.35	61.2	997.98	0.27	0.53	2.2
1626	363171	Vazduh	Libelium	0004A30B0021DF70	44.979	16.7091	""	""	Prijedor	""	30444275	2025-03-22T15:44:39	3	NO ERROR	22.38	44.3	997.42	0.03	0.03	0.03
1627	363171	Vazduh	Libelium	0004A30B0021DF70	44.979	16.7091	""	""	Prijedor	""	30444650	2025-03-22T16:45:21	3	NO ERROR	16.95	56	997.36	0.13	0.21	0.23
1628	363171	Vazduh	Libelium	0004A30B0021DF70	44.979	16.7091	""	""	Prijedor	""	30444959	2025-03-22T17:46:03	3	NO ERROR	16.19	60.7	997.57	0	0	0
1629	363171	Vazduh	Libelium	0004A30B0021DF70	44.979	16.7091	""	""	Prijedor	""	30445309	2025-03-22T18:46:45	3	NO ERROR	15.03	67.4	997.67	0.13	0.17	0.18
1630	363171	Vazduh	Libelium	0004A30B0021DF70	44.979	16.7091	""	""	Prijedor	""	30445663	2025-03-22T19:47:27	3	NO ERROR	13.66	74.7	997.84	0.03	0.03	0.03
1631	363171	Vazduh	Libelium	0004A30B0021DF70	44.979	16.7091	""	""	Prijedor	""	30446055	2025-03-22T20:48:09	3	NO ERROR	12.97	83.4	997.93	0.19	0.27	0.27
1632	363171	Vazduh	Libelium	0004A30B0021DF70	44.979	16.7091	""	""	Prijedor	""	30446436	2025-03-22T21:48:51	3	NO ERROR	13.1	85.1	997.69	0.51	0.81	0.96
1633	363171	Vazduh	Libelium	0004A30B0021DF70	44.979	16.7091	""	""	Prijedor	""	30446795	2025-03-22T22:49:33	3	NO ERROR	12.61	91.6	997.51	0.16	0.21	0.21
1634	363171	Vazduh	Libelium	0004A30B0021DF70	44.979	16.7091	""	""	Prijedor	""	30447145	2025-03-22T23:50:15	3	NO ERROR	11.81	98.9	996.94	0.2	0.21	0.21
1635	363171	Vazduh	Libelium	0004A30B0021DF70	44.979	16.7091	""	""	Prijedor	""	30447551	2025-03-23T00:50:57	3	NO ERROR	12.28	97	996.45	0.28	0.29	0.29
1636	363171	Vazduh	Libelium	0004A30B0021DF70	44.979	16.7091	""	""	Prijedor	""	30447878	2025-03-23T01:51:45	3	NO ERROR	13.17	82.1	995.94	0.21	0.28	0.28
1637	363171	Vazduh	Libelium	0004A30B0021DF70	44.979	16.7091	""	""	Prijedor	""	30448223	2025-03-23T02:52:27	3	NO ERROR	13.3	77.9	995.55	0.24	0.32	0.32
1638	363171	Vazduh	Libelium	0004A30B0021DF70	44.979	16.7091	""	""	Prijedor	""	30448570	2025-03-23T03:53:09	3	NO ERROR	14.16	71.5	995.42	0.08	0.17	0.18
1639	363171	Vazduh	Libelium	0004A30B0021DF70	44.979	16.7091	""	""	Prijedor	""	30448998	2025-03-23T04:53:52	3	NO ERROR	13.55	75.2	995.47	0.06	0.11	0.11
1640	363171	Vazduh	Libelium	0004A30B0021DF70	44.979	16.7091	""	""	Prijedor	""	30449375	2025-03-23T05:54:34	3	NO ERROR	13.7	74.5	996.25	0.16	0.19	0.19
1641	363171	Vazduh	Libelium	0004A30B0021DF70	44.979	16.7091	""	""	Prijedor	""	30449780	2025-03-23T06:55:16	3	NO ERROR	12.13	100	995.39	0.36	0.45	0.45
1642	363171	Vazduh	Libelium	0004A30B0021DF70	44.979	16.7091	""	""	Prijedor	""	30450136	2025-03-23T07:55:58	3	NO ERROR	12.41	100	995.4	0.18	0.27	0.27
1643	363171	Vazduh	Libelium	0004A30B0021DF70	44.979	16.7091	""	""	Prijedor	""	30456664	2025-03-24T02:08:35	3	NO ERROR	11.43	100	995.32	0.11	0.13	0.14
1644	363171	Vazduh	Libelium	0004A30B0021DF70	44.979	16.7091	""	""	Prijedor	""	30456988	2025-03-24T03:09:17	3	NO ERROR	11.27	100	994.49	0.22	0.29	0.29
1645	363171	Vazduh	Libelium	0004A30B0021DF70	44.979	16.7091	""	""	Prijedor	""	30457342	2025-03-24T04:09:59	3	NO ERROR	10.95	100	994.23	0.11	0.11	0.11
1646	363171	Vazduh	Libelium	0004A30B0021DF70	44.979	16.7091	""	""	Prijedor	""	30457739	2025-03-24T05:10:41	3	NO ERROR	10.59	100	994.05	0.03	0.03	0.03
1647	363171	Vazduh	Libelium	0004A30B0021DF70	44.979	16.7091	""	""	Prijedor	""	30458095	2025-03-24T06:11:23	3	NO ERROR	9.77	100	994	0.02	0.02	0.02
1648	363171	Vazduh	Libelium	0004A30B0021DF70	44.979	16.7091	""	""	Prijedor	""	30458488	2025-03-24T07:12:05	3	NO ERROR	10.58	100	995.37	0.05	0.05	0.05
1649	363171	Vazduh	Libelium	0004A30B0021DF70	44.979	16.7091	""	""	Prijedor	""	30458809	2025-03-24T08:12:48	3	NO ERROR	11.52	100	997.23	0.78	1.71	2.58
1650	363171	Vazduh	Libelium	0004A30B0021DF70	44.979	16.7091	""	""	Prijedor	""	30459127	2025-03-24T09:13:30	3	NO ERROR	11.59	100	997.59	0.46	0.53	0.53
1651	363171	Vazduh	Libelium	0004A30B0021DF70	44.979	16.7091	""	""	Prijedor	""	30459464	2025-03-24T10:14:18	3	NO ERROR	11.77	100	997.49	0.62	0.79	0.8
1652	363171	Vazduh	Libelium	0004A30B0021DF70	44.979	16.7091	""	""	Prijedor	""	30459792	2025-03-24T11:15:00	3	NO ERROR	11.83	100	997.57	0.29	0.42	0.43
1653	363171	Vazduh	Libelium	0004A30B0021DF70	44.979	16.7091	""	""	Prijedor	""	30460129	2025-03-24T12:15:42	3	NO ERROR	12.44	100	997.79	0.15	0.18	0.18
1654	363171	Vazduh	Libelium	0004A30B0021DF70	44.979	16.7091	""	""	Prijedor	""	30460547	2025-03-24T13:16:24	3	NO ERROR	13.14	100	997.43	0.32	0.35	0.35
1655	363171	Vazduh	Libelium	0004A30B0021DF70	44.979	16.7091	""	""	Prijedor	""	30460928	2025-03-24T14:17:06	3	NO ERROR	13.35	100	997.75	0.03	0.03	0.03
1656	363171	Vazduh	Libelium	0004A30B0021DF70	44.979	16.7091	""	""	Prijedor	""	30461287	2025-03-24T15:17:48	3	NO ERROR	13.37	100	997.63	0.14	0.15	0.15
1657	363171	Vazduh	Libelium	0004A30B0021DF70	44.979	16.7091	""	""	Prijedor	""	30461636	2025-03-24T16:18:30	3	NO ERROR	16.38	100	997.46	0.29	0.32	0.32
1658	363171	Vazduh	Libelium	0004A30B0021DF70	44.979	16.7091	""	""	Prijedor	""	30461947	2025-03-24T17:19:12	3	NO ERROR	14.48	100	997.65	0.17	0.18	0.18
1659	363171	Vazduh	Libelium	0004A30B0021DF70	44.979	16.7091	""	""	Prijedor	""	30462287	2025-03-24T18:19:54	3	NO ERROR	13.15	100	997.87	0.03	0.03	0.03
1660	363171	Vazduh	Libelium	0004A30B0021DF70	44.979	16.7091	""	""	Prijedor	""	30462626	2025-03-24T19:20:36	3	NO ERROR	12.01	100	999.01	0.07	0.07	0.07
1661	363171	Vazduh	Libelium	0004A30B0021DF70	44.979	16.7091	""	""	Prijedor	""	30462984	2025-03-24T20:21:31	3	NO ERROR	10.6	100	999.15	0.07	0.07	0.07
1662	363171	Vazduh	Libelium	0004A30B0021DF70	44.979	16.7091	""	""	Prijedor	""	30463359	2025-03-24T21:22:13	3	NO ERROR	9.83	100	999.3	0.64	0.8	0.81
1663	363171	Vazduh	Libelium	0004A30B0021DF70	44.979	16.7091	""	""	Prijedor	""	30463725	2025-03-24T22:22:55	3	NO ERROR	10.17	100	999.56	0.27	0.42	0.44
1664	363171	Vazduh	Libelium	0004A30B0021DF70	44.979	16.7091	""	""	Prijedor	""	30464084	2025-03-24T23:23:37	3	NO ERROR	9.07	100	1000.36	0.35	0.38	0.38
1665	363171	Vazduh	Libelium	0004A30B0021DF70	44.979	16.7091	""	""	Prijedor	""	30464419	2025-03-25T00:24:19	3	NO ERROR	8.84	100	1000.27	0.76	0.85	0.85
1666	363171	Vazduh	Libelium	0004A30B0021DF70	44.979	16.7091	""	""	Prijedor	""	30464737	2025-03-25T01:25:01	3	NO ERROR	8.09	100	1000.32	2.15	8.21	113.91
1667	363171	Vazduh	Libelium	0004A30B0021DF70	44.979	16.7091	""	""	Prijedor	""	30465054	2025-03-25T02:25:43	3	NO ERROR	8.09	100	1000.43	3.31	7.23	45.13
1668	363171	Vazduh	Libelium	0004A30B0021DF70	44.979	16.7091	""	""	Prijedor	""	30465368	2025-03-25T03:26:25	3	NO ERROR	8.29	100	1000.44	1.7	5.08	32.58
1669	363171	Vazduh	Libelium	0004A30B0021DF70	44.979	16.7091	""	""	Prijedor	""	30465730	2025-03-25T04:27:07	3	NO ERROR	7.86	100	1000.71	8.04	17.3	105.1
1670	363171	Vazduh	Libelium	0004A30B0021DF70	44.979	16.7091	""	""	Prijedor	""	30466090	2025-03-25T05:27:49	3	NO ERROR	7.69	100	1001.37	3.84	14	159.65
1671	363171	Vazduh	Libelium	0004A30B0021DF70	44.979	16.7091	""	""	Prijedor	""	30466462	2025-03-25T06:28:31	3	NO ERROR	7.66	100	1001.58	2.71	11.17	83.36
1672	363171	Vazduh	Libelium	0004A30B0021DF70	44.979	16.7091	""	""	Prijedor	""	30466818	2025-03-25T07:29:13	3	NO ERROR	8.42	100	1002.08	0.68	3.15	12.8
1673	363171	Vazduh	Libelium	0004A30B0021DF70	44.979	16.7091	""	""	Prijedor	""	30467132	2025-03-25T08:29:55	3	NO ERROR	8.94	100	1002.19	0.28	0.93	8.5
1674	363171	Vazduh	Libelium	0004A30B0021DF70	44.979	16.7091	""	""	Prijedor	""	30467441	2025-03-25T09:30:37	3	NO ERROR	10.08	100	1002.56	0.02	0.06	0.07
1675	363171	Vazduh	Libelium	0004A30B0021DF70	44.979	16.7091	""	""	Prijedor	""	30467794	2025-03-25T10:31:19	3	NO ERROR	11.32	100	1003.16	0.05	0.08	0.08
1676	363171	Vazduh	Libelium	0004A30B0021DF70	44.979	16.7091	""	""	Prijedor	""	30468121	2025-03-25T11:32:02	3	NO ERROR	12.77	100	1003.23	0.29	0.38	0.38
1677	363171	Vazduh	Libelium	0004A30B0021DF70	44.979	16.7091	""	""	Prijedor	""	30468491	2025-03-25T12:32:44	3	NO ERROR	13.12	100	1002.87	0.02	0.02	0.02
1678	363171	Vazduh	Libelium	0004A30B0021DF70	44.979	16.7091	""	""	Prijedor	""	30468911	2025-03-25T13:33:26	3	NO ERROR	15.77	100	1001.83	0.21	0.31	0.31
1679	363171	Vazduh	Libelium	0004A30B0021DF70	44.979	16.7091	""	""	Prijedor	""	30469287	2025-03-25T14:34:08	3	NO ERROR	19.04	83.3	1001.3	0.16	0.17	0.17
1680	363171	Vazduh	Libelium	0004A30B0021DF70	44.979	16.7091	""	""	Prijedor	""	30469624	2025-03-25T15:34:50	3	NO ERROR	20.59	68.1	1000.4	0.24	0.3	0.3
1681	363171	Vazduh	Libelium	0004A30B0021DF70	44.979	16.7091	""	""	Prijedor	""	30469981	2025-03-25T16:35:32	3	NO ERROR	17.21	72	999.93	0.11	0.13	0.13
1682	363171	Vazduh	Libelium	0004A30B0021DF70	44.979	16.7091	""	""	Prijedor	""	30470263	2025-03-25T17:36:14	3	NO ERROR	16.05	81.3	1000.34	0.06	0.06	0.06
1683	363171	Vazduh	Libelium	0004A30B0021DF70	44.979	16.7091	""	""	Prijedor	""	30470589	2025-03-25T18:36:56	3	NO ERROR	14.2	100	1000.91	0.11	0.16	0.16
1684	363171	Vazduh	Libelium	0004A30B0021DF70	44.979	16.7091	""	""	Prijedor	""	30470931	2025-03-25T19:37:38	3	NO ERROR	13.66	100	1001.64	0.17	0.19	0.19
1685	363171	Vazduh	Libelium	0004A30B0021DF70	44.979	16.7091	""	""	Prijedor	""	30471315	2025-03-25T20:38:20	3	NO ERROR	11.5	100	1002.92	0.31	0.39	0.41
1686	363171	Vazduh	Libelium	0004A30B0021DF70	44.979	16.7091	""	""	Prijedor	""	30471648	2025-03-25T21:39:02	3	NO ERROR	11.25	100	1003.26	0.51	0.66	0.66
1687	363171	Vazduh	Libelium	0004A30B0021DF70	44.979	16.7091	""	""	Prijedor	""	30472027	2025-03-25T22:39:44	3	NO ERROR	10.46	100	1002.58	0.28	0.36	0.37
1688	363171	Vazduh	Libelium	0004A30B0021DF70	44.979	16.7091	""	""	Prijedor	""	30472333	2025-03-25T23:40:33	3	NO ERROR	10.56	100	1002.58	0.68	0.88	0.89
1689	363171	Vazduh	Libelium	0004A30B0021DF70	44.979	16.7091	""	""	Prijedor	""	30473294	2025-03-26T03:43:33	3	NO ERROR	9.28	100	1001.31	6.58	30.47	207.37
1690	363171	Vazduh	Libelium	0004A30B0021DF70	44.979	16.7091	""	""	Prijedor	""	30473603	2025-03-26T04:44:15	3	NO ERROR	9.3	100	1001.13	0.44	0.47	0.47
1691	363171	Vazduh	Libelium	0004A30B0021DF70	44.979	16.7091	""	""	Prijedor	""	30473856	2025-03-26T05:44:57	3	NO ERROR	9.78	100	1001.31	0.21	0.26	0.26
1692	363171	Vazduh	Libelium	0004A30B0021DF70	44.979	16.7091	""	""	Prijedor	""	30474136	2025-03-26T06:45:39	3	NO ERROR	9.86	100	1000.85	0.33	0.44	0.51
1693	363171	Vazduh	Libelium	0004A30B0021DF70	44.979	16.7091	""	""	Prijedor	""	30474399	2025-03-26T07:46:27	3	NO ERROR	12.05	100	1000.58	0.07	0.07	0.07
1694	363171	Vazduh	Libelium	0004A30B0021DF70	44.979	16.7091	""	""	Prijedor	""	30474673	2025-03-26T08:47:21	3	NO ERROR	13.79	100	1000.57	0.05	0.06	0.06
1695	363171	Vazduh	Libelium	0004A30B0021DF70	44.979	16.7091	""	""	Prijedor	""	30474885	2025-03-26T09:48:03	3	NO ERROR	13.66	100	1000.54	0	0	0
1696	363171	Vazduh	Libelium	0004A30B0021DF70	44.979	16.7091	""	""	Prijedor	""	30475174	2025-03-26T10:48:45	3	NO ERROR	13.07	100	1000.58	0.05	0.1	0.11
1697	363171	Vazduh	Libelium	0004A30B0021DF70	44.979	16.7091	""	""	Prijedor	""	30475462	2025-03-26T11:49:27	3	NO ERROR	14.31	100	1000.08	0.07	0.08	0.08
1698	363171	Vazduh	Libelium	0004A30B0021DF70	44.979	16.7091	""	""	Prijedor	""	30475824	2025-03-26T12:50:09	3	NO ERROR	14.04	100	999.6	0	0	0
1699	363171	Vazduh	Libelium	0004A30B0021DF70	44.979	16.7091	""	""	Prijedor	""	30476133	2025-03-26T13:50:51	3	NO ERROR	13.16	100	998.96	0.06	0.07	0.07
1700	363171	Vazduh	Libelium	0004A30B0021DF70	44.979	16.7091	""	""	Prijedor	""	30476416	2025-03-26T14:51:34	3	NO ERROR	13	100	998.59	0.03	0.03	0.03
1701	363171	Vazduh	Libelium	0004A30B0021DF70	44.979	16.7091	""	""	Prijedor	""	30476693	2025-03-26T15:52:16	3	NO ERROR	12.77	100	998.24	0.07	0.07	0.07
1702	363171	Vazduh	Libelium	0004A30B0021DF70	44.979	16.7091	""	""	Prijedor	""	30476966	2025-03-26T16:52:58	3	NO ERROR	12.14	100	998.08	0.16	0.26	0.28
1703	363171	Vazduh	Libelium	0004A30B0021DF70	44.979	16.7091	""	""	Prijedor	""	30477178	2025-03-26T17:53:40	3	NO ERROR	12.24	100	997.97	0.16	0.17	0.17
1704	363171	Vazduh	Libelium	0004A30B0021DF70	44.979	16.7091	""	""	Prijedor	""	30477441	2025-03-26T18:54:22	3	NO ERROR	11.76	100	998.05	0.11	0.13	0.13
1705	363171	Vazduh	Libelium	0004A30B0021DF70	44.979	16.7091	""	""	Prijedor	""	30477707	2025-03-26T19:55:04	3	NO ERROR	11.88	100	998.28	0.39	0.47	0.47
1706	363171	Vazduh	Libelium	0004A30B0021DF70	44.979	16.7091	""	""	Prijedor	""	30477989	2025-03-26T20:55:46	3	NO ERROR	11.53	100	998.26	0.33	0.54	0.57
1707	363171	Vazduh	Libelium	0004A30B0021DF70	44.979	16.7091	""	""	Prijedor	""	30478270	2025-03-26T21:56:28	3	NO ERROR	11.41	100	997.94	0.2	0.21	0.21
1708	363171	Vazduh	Libelium	0004A30B0021DF70	44.979	16.7091	""	""	Prijedor	""	30478561	2025-03-26T22:57:10	3	NO ERROR	11.33	100	997.68	0	0	0
1709	363171	Vazduh	Libelium	0004A30B0021DF70	44.979	16.7091	""	""	Prijedor	""	30478778	2025-03-26T23:57:52	3	NO ERROR	11.4	100	997.32	0	0	0
1710	363171	Vazduh	Libelium	0004A30B0021DF70	44.979	16.7091	""	""	Prijedor	""	30479033	2025-03-27T00:58:34	3	NO ERROR	11.21	100	996.96	0.03	0.03	0.03
1711	363171	Vazduh	Libelium	0004A30B0021DF70	44.979	16.7091	""	""	Prijedor	""	30479282	2025-03-27T01:59:16	3	NO ERROR	10.77	100	996.3	0.04	0.07	0.07
1712	363171	Vazduh	Libelium	0004A30B0021DF70	44.979	16.7091	""	""	Prijedor	""	30479493	2025-03-27T02:59:58	3	NO ERROR	10.84	100	995.85	0.03	0.03	0.03
1713	363171	Vazduh	Libelium	0004A30B0021DF70	44.979	16.7091	""	""	Prijedor	""	30479748	2025-03-27T04:00:40	3	NO ERROR	10.23	100	995.38	0.02	0.02	0.02
1714	363171	Vazduh	Libelium	0004A30B0021DF70	44.979	16.7091	""	""	Prijedor	""	30480034	2025-03-27T05:01:29	3	NO ERROR	9.64	100	995.33	0.32	0.37	0.37
1715	363171	Vazduh	Libelium	0004A30B0021DF70	44.979	16.7091	""	""	Prijedor	""	30480254	2025-03-27T06:02:11	3	NO ERROR	8.98	100	995.01	0.41	0.43	0.43
1716	363171	Vazduh	Libelium	0004A30B0021DF70	44.979	16.7091	""	""	Prijedor	""	30480511	2025-03-27T07:02:53	3	NO ERROR	8.91	100	995.12	0.27	0.38	0.64
1717	363171	Vazduh	Libelium	0004A30B0021DF70	44.979	16.7091	""	""	Prijedor	""	30480762	2025-03-27T08:03:35	3	NO ERROR	8.73	100	994.92	0.22	0.24	0.25
1718	363171	Vazduh	Libelium	0004A30B0021DF70	44.979	16.7091	""	""	Prijedor	""	30480984	2025-03-27T09:04:23	3	NO ERROR	8.54	100	994.76	0.98	1.14	1.14
1719	363171	Vazduh	Libelium	0004A30B0021DF70	44.979	16.7091	""	""	Prijedor	""	30481191	2025-03-27T10:05:05	3	NO ERROR	8.63	100	994.81	0.22	0.25	0.25
1720	363171	Vazduh	Libelium	0004A30B0021DF70	44.979	16.7091	""	""	Prijedor	""	30481474	2025-03-27T11:05:47	3	NO ERROR	9.04	100	994.65	0.6	0.64	0.64
1721	363171	Vazduh	Libelium	0004A30B0021DF70	44.979	16.7091	""	""	Prijedor	""	30481722	2025-03-27T12:06:29	3	NO ERROR	9.26	100	994.42	0.14	0.15	0.15
1722	363171	Vazduh	Libelium	0004A30B0021DF70	44.979	16.7091	""	""	Prijedor	""	30482005	2025-03-27T13:07:11	3	NO ERROR	9.56	100	994.19	0.25	0.27	0.27
1723	363171	Vazduh	Libelium	0004A30B0021DF70	44.979	16.7091	""	""	Prijedor	""	30482256	2025-03-27T14:07:53	3	NO ERROR	9.98	100	993.6	0.07	0.07	0.07
1724	363171	Vazduh	Libelium	0004A30B0021DF70	44.979	16.7091	""	""	Prijedor	""	30482504	2025-03-27T15:08:35	3	NO ERROR	10.2	100	993.14	0.05	0.05	0.05
1725	363171	Vazduh	Libelium	0004A30B0021DF70	44.979	16.7091	""	""	Prijedor	""	30482736	2025-03-27T16:09:17	3	NO ERROR	10.52	100	993.12	0.38	0.42	0.42
1726	363171	Vazduh	Libelium	0004A30B0021DF70	44.979	16.7091	""	""	Prijedor	""	30482979	2025-03-27T17:09:59	3	NO ERROR	10.62	100	993.09	0.07	0.07	0.07
1727	363171	Vazduh	Libelium	0004A30B0021DF70	44.979	16.7091	""	""	Prijedor	""	30483179	2025-03-27T18:10:48	3	NO ERROR	10.65	100	993.33	0.09	0.1	0.1
1728	363171	Vazduh	Libelium	0004A30B0021DF70	44.979	16.7091	""	""	Prijedor	""	30483412	2025-03-27T19:11:30	3	NO ERROR	10.63	100	993.46	0.17	0.19	0.19
1729	363171	Vazduh	Libelium	0004A30B0021DF70	44.979	16.7091	""	""	Prijedor	""	30483653	2025-03-27T20:12:12	3	NO ERROR	10.66	100	993.34	0.1	0.11	0.11
1730	363171	Vazduh	Libelium	0004A30B0021DF70	44.979	16.7091	""	""	Prijedor	""	30483871	2025-03-27T21:13:06	3	NO ERROR	10.55	100	993.34	0.03	0.03	0.03
1731	363171	Vazduh	Libelium	0004A30B0021DF70	44.979	16.7091	""	""	Prijedor	""	30484079	2025-03-27T22:13:54	3	NO ERROR	8.96	100	993.61	0.04	0.08	0.08
1732	363171	Vazduh	Libelium	0004A30B0021DF70	44.979	16.7091	""	""	Prijedor	""	30484302	2025-03-27T23:14:42	3	NO ERROR	8.41	100	993.34	0.02	0.02	0.02
1733	363171	Vazduh	Libelium	0004A30B0021DF70	44.979	16.7091	""	""	Prijedor	""	30484513	2025-03-28T00:15:24	3	NO ERROR	8.05	100	992.78	0.1	0.13	0.13
1734	363171	Vazduh	Libelium	0004A30B0021DF70	44.979	16.7091	""	""	Prijedor	""	30484695	2025-03-28T01:16:06	3	NO ERROR	8.25	100	992.25	0.15	0.19	0.19
1735	363171	Vazduh	Libelium	0004A30B0021DF70	44.979	16.7091	""	""	Prijedor	""	30484921	2025-03-28T02:16:48	3	NO ERROR	7.97	100	991.27	0.15	0.18	0.18
1736	363171	Vazduh	Libelium	0004A30B0021DF70	44.979	16.7091	""	""	Prijedor	""	30485104	2025-03-28T03:17:30	3	NO ERROR	8.23	100	990.93	0.1	0.1	0.1
1737	363171	Vazduh	Libelium	0004A30B0021DF70	44.979	16.7091	""	""	Prijedor	""	30485316	2025-03-28T04:18:12	3	NO ERROR	8.01	100	990.59	0	0.08	0.38
1738	363171	Vazduh	Libelium	0004A30B0021DF70	44.979	16.7091	""	""	Prijedor	""	30485556	2025-03-28T05:18:54	3	NO ERROR	7.99	100	990.59	0.06	0.07	0.07
1739	363171	Vazduh	Libelium	0004A30B0021DF70	44.979	16.7091	""	""	Prijedor	""	30485735	2025-03-28T06:19:36	3	NO ERROR	7.93	100	990.56	0.05	0.06	0.06
1740	363171	Vazduh	Libelium	0004A30B0021DF70	44.979	16.7091	""	""	Prijedor	""	30485955	2025-03-28T07:20:18	3	NO ERROR	8.14	100	990.76	0.07	0.07	0.07
1741	363171	Vazduh	Libelium	0004A30B0021DF70	44.979	16.7091	""	""	Prijedor	""	30486193	2025-03-28T08:21:01	3	NO ERROR	8.23	100	990.89	0.11	0.15	0.15
1742	363171	Vazduh	Libelium	0004A30B0021DF70	44.979	16.7091	""	""	Prijedor	""	30486365	2025-03-28T09:21:43	3	NO ERROR	8.19	100	990.95	0.02	0.02	0.02
1743	363171	Vazduh	Libelium	0004A30B0021DF70	44.979	16.7091	""	""	Prijedor	""	30486571	2025-03-28T10:22:25	3	NO ERROR	8.25	100	990.89	0.03	0.03	0.03
1744	363171	Vazduh	Libelium	0004A30B0021DF70	44.979	16.7091	""	""	Prijedor	""	30486829	2025-03-28T11:23:07	3	NO ERROR	8.79	100	990.39	0.13	0.14	0.14
1745	363171	Vazduh	Libelium	0004A30B0021DF70	44.979	16.7091	""	""	Prijedor	""	30487139	2025-03-28T12:23:49	3	NO ERROR	8.89	100	989.81	0.02	0.02	0.02
1746	363171	Vazduh	Libelium	0004A30B0021DF70	44.979	16.7091	""	""	Prijedor	""	30487801	2025-03-28T14:25:13	3	NO ERROR	8.9	100	989.23	0.12	0.13	0.13
1747	363171	Vazduh	Libelium	0004A30B0021DF70	44.979	16.7091	""	""	Prijedor	""	30488021	2025-03-28T15:25:55	3	NO ERROR	8.93	100	988.79	0.08	0.09	0.09
1748	363171	Vazduh	Libelium	0004A30B0021DF70	44.979	16.7091	""	""	Prijedor	""	30488259	2025-03-28T16:26:37	3	NO ERROR	9.13	100	988.57	0.07	0.07	0.07
1749	363171	Vazduh	Libelium	0004A30B0021DF70	44.979	16.7091	""	""	Prijedor	""	30492947	2025-03-29T13:41:39	3	NO ERROR	10.03	100	989.79	0.18	0.25	0.25
1750	363171	Vazduh	Libelium	0004A30B0021DF70	44.979	16.7091	""	""	Prijedor	""	30493165	2025-03-29T14:42:27	3	NO ERROR	9.72	100	990.14	0.02	0.02	0.02
1751	363171	Vazduh	Libelium	0004A30B0021DF70	44.979	16.7091	""	""	Prijedor	""	30493364	2025-03-29T15:43:09	3	NO ERROR	10.51	100	990.27	0.02	0.02	0.02
1752	363171	Vazduh	Libelium	0004A30B0021DF70	44.979	16.7091	""	""	Prijedor	""	30493652	2025-03-29T16:43:51	3	NO ERROR	10.45	100	990.82	0.15	0.19	0.19
1753	363171	Vazduh	Libelium	0004A30B0021DF70	44.979	16.7091	""	""	Prijedor	""	30493837	2025-03-29T17:44:33	3	NO ERROR	10.19	100	991.37	0.07	0.08	0.08
1754	363171	Vazduh	Libelium	0004A30B0021DF70	44.979	16.7091	""	""	Prijedor	""	30494056	2025-03-29T18:45:15	3	NO ERROR	9.94	100	992.1	0.12	0.12	0.12
1755	363171	Vazduh	Libelium	0004A30B0021DF70	44.979	16.7091	""	""	Prijedor	""	30494322	2025-03-29T19:45:57	3	NO ERROR	9.98	100	992.92	0.06	0.06	0.06
1756	363171	Vazduh	Libelium	0004A30B0021DF70	44.979	16.7091	""	""	Prijedor	""	30494602	2025-03-29T20:46:39	3	NO ERROR	9.99	100	993.4	0.05	0.07	0.07
1757	363171	Vazduh	Libelium	0004A30B0021DF70	44.979	16.7091	""	""	Prijedor	""	30494830	2025-03-29T21:47:21	3	NO ERROR	10.18	100	993.78	0.03	0.05	0.05
1758	363171	Vazduh	Libelium	0004A30B0021DF70	44.979	16.7091	""	""	Prijedor	""	30495114	2025-03-29T22:48:09	3	NO ERROR	10.33	100	994.06	0.08	0.09	0.09
1759	363171	Vazduh	Libelium	0004A30B0021DF70	44.979	16.7091	""	""	Prijedor	""	30495315	2025-03-29T23:48:51	3	NO ERROR	10.44	100	994.32	0.02	0.02	0.02
1760	363171	Vazduh	Libelium	0004A30B0021DF70	44.979	16.7091	""	""	Prijedor	""	30495574	2025-03-30T00:49:33	3	NO ERROR	10.61	100	994.59	0.07	0.07	0.07
1761	363171	Vazduh	Libelium	0004A30B0021DF70	44.979	16.7091	""	""	Prijedor	""	30495808	2025-03-30T01:50:16	3	NO ERROR	10.61	100	994.6	0.07	0.07	0.07
1762	363171	Vazduh	Libelium	0004A30B0021DF70	44.979	16.7091	""	""	Prijedor	""	30496011	2025-03-30T03:50:58	3	NO ERROR	10.55	100	994.85	0.01	0.03	0.03
1763	363171	Vazduh	Libelium	0004A30B0021DF70	44.979	16.7091	""	""	Prijedor	""	30496236	2025-03-30T04:51:40	3	NO ERROR	10.45	100	995.16	0.07	0.07	0.07
1764	363171	Vazduh	Libelium	0004A30B0021DF70	44.979	16.7091	""	""	Prijedor	""	30496528	2025-03-30T05:52:22	3	NO ERROR	10.32	100	995.48	0.11	0.15	0.16
1765	363171	Vazduh	Libelium	0004A30B0021DF70	44.979	16.7091	""	""	Prijedor	""	30496744	2025-03-30T06:53:04	3	NO ERROR	10.4	100	995.8	0.03	0.03	0.03
1766	363171	Vazduh	Libelium	0004A30B0021DF70	44.979	16.7091	""	""	Prijedor	""	30496978	2025-03-30T07:53:52	3	NO ERROR	10.83	100	996.39	0.03	0.03	0.03
1767	363171	Vazduh	Libelium	0004A30B0021DF70	44.979	16.7091	""	""	Prijedor	""	30497241	2025-03-30T08:54:34	3	NO ERROR	11.62	100	996.92	0.03	0.03	0.03
1768	363171	Vazduh	Libelium	0004A30B0021DF70	44.979	16.7091	""	""	Prijedor	""	30497494	2025-03-30T09:55:16	3	NO ERROR	13.11	100	997.6	0.05	0.08	0.08
1769	363171	Vazduh	Libelium	0004A30B0021DF70	44.979	16.7091	""	""	Prijedor	""	30497762	2025-03-30T10:55:58	3	NO ERROR	13.45	100	997.71	0.02	0.02	0.02
1770	363171	Vazduh	Libelium	0004A30B0021DF70	44.979	16.7091	""	""	Prijedor	""	30498119	2025-03-30T11:56:40	3	NO ERROR	13.27	100	997.92	0.05	0.05	0.05
1771	363171	Vazduh	Libelium	0004A30B0021DF70	44.979	16.7091	""	""	Prijedor	""	30498436	2025-03-30T12:57:22	3	NO ERROR	11.74	100	998	0.02	0.02	0.02
1772	363171	Vazduh	Libelium	0004A30B0021DF70	44.979	16.7091	""	""	Prijedor	""	30498772	2025-03-30T13:58:04	3	NO ERROR	10.99	100	998.13	0.1	0.1	0.1
1773	363171	Vazduh	Libelium	0004A30B0021DF70	44.979	16.7091	""	""	Prijedor	""	30499065	2025-03-30T14:58:46	3	NO ERROR	11.14	100	998.05	0.18	0.24	0.24
1774	363171	Vazduh	Libelium	0004A30B0021DF70	44.979	16.7091	""	""	Prijedor	""	30499316	2025-03-30T15:59:28	3	NO ERROR	11.17	100	997.8	0.07	0.07	0.07
1775	363171	Vazduh	Libelium	0004A30B0021DF70	44.979	16.7091	""	""	Prijedor	""	30499539	2025-03-30T17:00:11	3	NO ERROR	14.77	100	996.89	0	0	0
1776	363171	Vazduh	Libelium	0004A30B0021DF70	44.979	16.7091	""	""	Prijedor	""	30499824	2025-03-30T18:00:53	3	NO ERROR	11.43	100	997.02	0.01	0.03	0.03
1777	363171	Vazduh	Libelium	0004A30B0021DF70	44.979	16.7091	""	""	Prijedor	""	30500022	2025-03-30T19:01:35	3	NO ERROR	11.15	100	997.12	0.22	0.25	0.25
1778	363171	Vazduh	Libelium	0004A30B0021DF70	44.979	16.7091	""	""	Prijedor	""	30500240	2025-03-30T20:02:17	3	NO ERROR	10.79	100	997.41	0.04	0.04	0.04
1779	363171	Vazduh	Libelium	0004A30B0021DF70	44.979	16.7091	""	""	Prijedor	""	30500522	2025-03-30T21:02:59	3	NO ERROR	10.02	100	997.36	0.06	0.17	0.26
1780	363171	Vazduh	Libelium	0004A30B0021DF70	44.979	16.7091	""	""	Prijedor	""	30500787	2025-03-30T22:03:41	3	NO ERROR	9.87	100	997.08	0.41	0.5	0.51
1781	363171	Vazduh	Libelium	0004A30B0021DF70	44.979	16.7091	""	""	Prijedor	""	30501010	2025-03-30T23:04:23	3	NO ERROR	9.49	100	996.95	0.29	0.38	0.39
1782	363171	Vazduh	Libelium	0004A30B0021DF70	44.979	16.7091	""	""	Prijedor	""	30501291	2025-03-31T00:05:05	3	NO ERROR	9.51	100	997.09	0.05	0.09	0.1
1783	363171	Vazduh	Libelium	0004A30B0021DF70	44.979	16.7091	""	""	Prijedor	""	30501515	2025-03-31T01:05:47	3	NO ERROR	8.67	100	997.35	0.34	0.38	0.39
1784	363171	Vazduh	Libelium	0004A30B0021DF70	44.979	16.7091	""	""	Prijedor	""	30501751	2025-03-31T02:06:29	3	NO ERROR	8.8	100	996.43	0.12	0.14	0.14
1785	363171	Vazduh	Libelium	0004A30B0021DF70	44.979	16.7091	""	""	Prijedor	""	30501973	2025-03-31T03:07:11	3	NO ERROR	8.76	100	996.43	0.3	0.32	0.32
1786	363171	Vazduh	Libelium	0004A30B0021DF70	44.979	16.7091	""	""	Prijedor	""	30502196	2025-03-31T04:07:53	3	NO ERROR	7.76	100	997.07	0.02	0.05	0.05
1787	363171	Vazduh	Libelium	0004A30B0021DF70	44.979	16.7091	""	""	Prijedor	""	30502441	2025-03-31T05:08:35	3	NO ERROR	7.61	100	996.16	0.05	0.05	0.05
1788	363171	Vazduh	Libelium	0004A30B0021DF70	44.979	16.7091	""	""	Prijedor	""	30502745	2025-03-31T06:09:17	3	NO ERROR	7.48	100	997.29	0.03	0.03	0.03
1789	363171	Vazduh	Libelium	0004A30B0021DF70	44.979	16.7091	""	""	Prijedor	""	30502951	2025-03-31T07:10:00	3	NO ERROR	7.03	100	997.79	0.03	0.06	0.06
1790	363171	Vazduh	Libelium	0004A30B0021DF70	44.979	16.7091	""	""	Prijedor	""	30503207	2025-03-31T08:10:42	3	NO ERROR	7.6	100	998.5	0.03	0.03	0.03
1791	363171	Vazduh	Libelium	0004A30B0021DF70	44.979	16.7091	""	""	Prijedor	""	30503491	2025-03-31T09:11:24	3	NO ERROR	10.86	100	999.27	0.12	0.17	0.17
1792	363171	Vazduh	Libelium	0004A30B0021DF70	44.979	16.7091	""	""	Prijedor	""	30503711	2025-03-31T10:12:06	3	NO ERROR	11.64	100	999.73	0.02	0.02	0.02
1793	363171	Vazduh	Libelium	0004A30B0021DF70	44.979	16.7091	""	""	Prijedor	""	30503951	2025-03-31T11:12:48	3	NO ERROR	12.93	95	999.57	0.04	0.04	0.04
1794	363171	Vazduh	Libelium	0004A30B0021DF70	44.979	16.7091	""	""	Prijedor	""	30504297	2025-03-31T12:13:30	3	NO ERROR	14.11	73.8	999.33	0.02	0.02	0.02
1795	363171	Vazduh	Libelium	0004A30B0021DF70	44.979	16.7091	""	""	Prijedor	""	30504628	2025-03-31T13:14:12	3	NO ERROR	13.18	74.5	999.38	0.06	0.16	0.23
1796	363171	Vazduh	Libelium	0004A30B0021DF70	44.979	16.7091	""	""	Prijedor	""	30504921	2025-03-31T14:14:54	3	NO ERROR	13.33	73.3	999.34	0	0	0
1797	363171	Vazduh	Libelium	0004A30B0021DF70	44.979	16.7091	""	""	Prijedor	""	30505208	2025-03-31T15:15:36	3	NO ERROR	14	67.8	999.07	0.03	0.12	1.12
1798	363171	Vazduh	Libelium	0004A30B0021DF70	44.979	16.7091	""	""	Prijedor	""	30508160	2025-04-01T01:22:37	3	NO ERROR	8.3	100	1000.89	0	0	0
1799	363171	Vazduh	Libelium	0004A30B0021DF70	44.979	16.7091	""	""	Prijedor	""	30508384	2025-04-01T02:23:19	3	NO ERROR	7.89	100	1000.73	0	0	0
1800	363171	Vazduh	Libelium	0004A30B0021DF70	44.979	16.7091	""	""	Prijedor	""	30508632	2025-04-01T03:24:01	3	NO ERROR	7.75	100	1000.32	0	0	0
1801	363171	Vazduh	Libelium	0004A30B0021DF70	44.979	16.7091	""	""	Prijedor	""	30508875	2025-04-01T04:24:49	3	NO ERROR	7.33	100	999.93	0	0	0
1802	363171	Vazduh	Libelium	0004A30B0021DF70	44.979	16.7091	""	""	Prijedor	""	30509137	2025-04-01T05:25:37	3	NO ERROR	7.14	100	1000	0	0	0
1803	363171	Vazduh	Libelium	0004A30B0021DF70	44.979	16.7091	""	""	Prijedor	""	30509412	2025-04-01T06:26:19	3	NO ERROR	7.11	100	1000.28	0.02	0.02	0.02
1804	363171	Vazduh	Libelium	0004A30B0021DF70	44.979	16.7091	""	""	Prijedor	""	30509687	2025-04-01T07:27:01	3	NO ERROR	7.31	100	1000.34	0.02	0.02	0.02
1805	363171	Vazduh	Libelium	0004A30B0021DF70	44.979	16.7091	""	""	Prijedor	""	30509974	2025-04-01T08:27:43	3	NO ERROR	7.83	100	1000.48	0.02	0.02	0.02
1806	363171	Vazduh	Libelium	0004A30B0021DF70	44.979	16.7091	""	""	Prijedor	""	30510259	2025-04-01T09:28:26	3	NO ERROR	8.71	100	1000.87	0.17	0.19	0.19
1807	363171	Vazduh	Libelium	0004A30B0021DF70	44.979	16.7091	""	""	Prijedor	""	30510471	2025-04-01T10:29:08	3	NO ERROR	9.77	100	1000.99	0.08	0.09	0.09
1808	363171	Vazduh	Libelium	0004A30B0021DF70	44.979	16.7091	""	""	Prijedor	""	30510737	2025-04-01T11:29:50	3	NO ERROR	11.59	100	1000.92	0.02	0.02	0.02
1809	363171	Vazduh	Libelium	0004A30B0021DF70	44.979	16.7091	""	""	Prijedor	""	30511026	2025-04-01T12:30:32	3	NO ERROR	10.7	100	1001.07	0	0	0
1810	363171	Vazduh	Libelium	0004A30B0021DF70	44.979	16.7091	""	""	Prijedor	""	30511314	2025-04-01T13:31:14	3	NO ERROR	12.05	98.8	1000.48	0.03	0.06	0.06
1811	363171	Vazduh	Libelium	0004A30B0021DF70	44.979	16.7091	""	""	Prijedor	""	30511585	2025-04-01T14:31:56	3	NO ERROR	11.6	97.2	1000.13	0.05	0.05	0.05
1812	363171	Vazduh	Libelium	0004A30B0021DF70	44.979	16.7091	""	""	Prijedor	""	30511864	2025-04-01T15:32:38	3	NO ERROR	11.59	100	999.9	0.02	0.02	0.02
1813	363171	Vazduh	Libelium	0004A30B0021DF70	44.979	16.7091	""	""	Prijedor	""	30512123	2025-04-01T16:33:20	3	NO ERROR	11.49	100	999.8	0.02	0.02	0.02
1814	363171	Vazduh	Libelium	0004A30B0021DF70	44.979	16.7091	""	""	Prijedor	""	30512427	2025-04-01T17:34:02	3	NO ERROR	10.59	100	999.62	0.03	0.03	0.03
1815	363171	Vazduh	Libelium	0004A30B0021DF70	44.979	16.7091	""	""	Prijedor	""	30512637	2025-04-01T18:34:44	3	NO ERROR	10.66	100	999.76	0.07	0.07	0.07
1816	363171	Vazduh	Libelium	0004A30B0021DF70	44.979	16.7091	""	""	Prijedor	""	30512892	2025-04-01T19:35:26	3	NO ERROR	10.11	100	999.5	0.1	0.11	0.11
1817	363171	Vazduh	Libelium	0004A30B0021DF70	44.979	16.7091	""	""	Prijedor	""	30513134	2025-04-01T20:36:08	3	NO ERROR	9.86	100	999.89	0.19	0.21	0.21
1818	363171	Vazduh	Libelium	0004A30B0021DF70	44.979	16.7091	""	""	Prijedor	""	30513448	2025-04-01T21:36:56	3	NO ERROR	10.22	100	999.77	0.03	0.03	0.03
1819	363171	Vazduh	Libelium	0004A30B0021DF70	44.979	16.7091	""	""	Prijedor	""	30513693	2025-04-01T22:37:45	3	NO ERROR	10.53	100	999.85	0.04	0.07	0.07
1820	363171	Vazduh	Libelium	0004A30B0021DF70	44.979	16.7091	""	""	Prijedor	""	30513964	2025-04-01T23:38:26	3	NO ERROR	9.52	100	1000.16	0.12	0.13	0.13
1821	363171	Vazduh	Libelium	0004A30B0021DF70	44.979	16.7091	""	""	Prijedor	""	30514192	2025-04-02T00:39:09	3	NO ERROR	9.55	100	1000.35	0.15	0.18	0.18
1822	363171	Vazduh	Libelium	0004A30B0021DF70	44.979	16.7091	""	""	Prijedor	""	30514458	2025-04-02T01:39:51	3	NO ERROR	9.9	100	1000.61	0.19	0.29	0.29
1823	363171	Vazduh	Libelium	0004A30B0021DF70	44.979	16.7091	""	""	Prijedor	""	30514680	2025-04-02T02:40:33	3	NO ERROR	9.64	100	1000.53	0.07	0.07	0.07
1824	363171	Vazduh	Libelium	0004A30B0021DF70	44.979	16.7091	""	""	Prijedor	""	30514914	2025-04-02T03:41:15	3	NO ERROR	9.6	100	1000.96	0.07	0.07	0.07
1825	363171	Vazduh	Libelium	0004A30B0021DF70	44.979	16.7091	""	""	Prijedor	""	30515161	2025-04-02T04:41:57	3	NO ERROR	9.24	100	1001.24	0.22	0.25	0.25
1826	363171	Vazduh	Libelium	0004A30B0021DF70	44.979	16.7091	""	""	Prijedor	""	30515487	2025-04-02T05:42:39	3	NO ERROR	8.75	100	1001.78	0.05	0.05	0.05
1827	363171	Vazduh	Libelium	0004A30B0021DF70	44.979	16.7091	""	""	Prijedor	""	30515737	2025-04-02T06:43:21	3	NO ERROR	8.32	100	1002.34	0.03	0.03	0.03
1828	363171	Vazduh	Libelium	0004A30B0021DF70	44.979	16.7091	""	""	Prijedor	""	30516010	2025-04-02T07:44:03	3	NO ERROR	8.26	100	1002.78	0.03	0.03	0.03
1829	363171	Vazduh	Libelium	0004A30B0021DF70	44.979	16.7091	""	""	Prijedor	""	30516282	2025-04-02T08:44:45	3	NO ERROR	8.34	100	1003.21	0.1	0.1	0.1
1830	363171	Vazduh	Libelium	0004A30B0021DF70	44.979	16.7091	""	""	Prijedor	""	30516564	2025-04-02T09:45:27	3	NO ERROR	8.66	100	1003.87	0.37	0.46	0.46
1831	363171	Vazduh	Libelium	0004A30B0021DF70	44.979	16.7091	""	""	Prijedor	""	30516787	2025-04-02T10:46:09	3	NO ERROR	9.57	100	1004.24	0.21	0.33	0.34
1832	363171	Vazduh	Libelium	0004A30B0021DF70	44.979	16.7091	""	""	Prijedor	""	30517117	2025-04-02T11:46:51	3	NO ERROR	14.27	93.4	1004.09	0.05	0.08	0.08
1833	363171	Vazduh	Libelium	0004A30B0021DF70	44.979	16.7091	""	""	Prijedor	""	30517445	2025-04-02T12:47:33	3	NO ERROR	13.98	91.9	1003.92	0.04	0.08	0.09
1834	363171	Vazduh	Libelium	0004A30B0021DF70	44.979	16.7091	""	""	Prijedor	""	30517844	2025-04-02T13:48:16	3	NO ERROR	15.85	83	1003.67	0.05	0.09	0.09
1835	363171	Vazduh	Libelium	0004A30B0021DF70	44.979	16.7091	""	""	Prijedor	""	30518196	2025-04-02T14:48:58	3	NO ERROR	15.62	87.7	1003.38	0.15	0.2	0.2
1836	363171	Vazduh	Libelium	0004A30B0021DF70	44.979	16.7091	""	""	Prijedor	""	30518540	2025-04-02T15:49:40	3	NO ERROR	15.28	83.4	1003.04	0.02	0.02	0.02
1837	363171	Vazduh	Libelium	0004A30B0021DF70	44.979	16.7091	""	""	Prijedor	""	30518877	2025-04-02T16:50:22	3	NO ERROR	15.54	84.2	1002.75	0.03	0.03	0.03
1838	363171	Vazduh	Libelium	0004A30B0021DF70	44.979	16.7091	""	""	Prijedor	""	30519238	2025-04-02T17:51:04	3	NO ERROR	14.97	85.6	1003.11	0.05	0.05	0.05
1839	363171	Vazduh	Libelium	0004A30B0021DF70	44.979	16.7091	""	""	Prijedor	""	30519567	2025-04-02T18:51:46	3	NO ERROR	14.55	80.9	1003.34	0.05	0.08	0.08
1840	363171	Vazduh	Libelium	0004A30B0021DF70	44.979	16.7091	""	""	Prijedor	""	30519873	2025-04-02T19:52:28	3	NO ERROR	13.61	90.2	1003.89	0.11	0.16	0.16
1841	363171	Vazduh	Libelium	0004A30B0021DF70	44.979	16.7091	""	""	Prijedor	""	30520226	2025-04-02T20:53:10	3	NO ERROR	13.5	89.1	1004.33	0.15	0.26	0.29
1842	363171	Vazduh	Libelium	0004A30B0021DF70	44.979	16.7091	""	""	Prijedor	""	30520580	2025-04-02T21:53:52	3	NO ERROR	12.2	100	1004.66	0.07	0.16	0.25
1843	363171	Vazduh	Libelium	0004A30B0021DF70	44.979	16.7091	""	""	Prijedor	""	30520919	2025-04-02T22:54:34	3	NO ERROR	11.84	100	1004.79	0.07	0.09	0.09
1844	363171	Vazduh	Libelium	0004A30B0021DF70	44.979	16.7091	""	""	Prijedor	""	30521298	2025-04-02T23:55:16	3	NO ERROR	11.16	100	1005.03	0.11	0.18	0.19
1845	363171	Vazduh	Libelium	0004A30B0021DF70	44.979	16.7091	""	""	Prijedor	""	30521951	2025-04-03T01:56:40	3	NO ERROR	11.41	100	1005.41	0.14	0.17	0.17
1846	363171	Vazduh	Libelium	0004A30B0021DF70	44.979	16.7091	""	""	Prijedor	""	30522270	2025-04-03T02:57:22	3	NO ERROR	11.23	100	1005.61	0.05	0.05	0.05
1847	363171	Vazduh	Libelium	0004A30B0021DF70	44.979	16.7091	""	""	Prijedor	""	30522581	2025-04-03T03:58:11	3	NO ERROR	10.87	100	1005.63	0.02	0.02	0.02
1848	363171	Vazduh	Libelium	0004A30B0021DF70	44.979	16.7091	""	""	Prijedor	""	30522896	2025-04-03T04:58:53	3	NO ERROR	10.6	100	1005.63	0.02	0.02	0.02
1849	363171	Vazduh	Libelium	0004A30B0021DF70	44.979	16.7091	""	""	Prijedor	""	30523292	2025-04-03T05:59:35	3	NO ERROR	10.32	100	1005.81	0.03	0.05	0.05
1850	363171	Vazduh	Libelium	0004A30B0021DF70	44.979	16.7091	""	""	Prijedor	""	30523616	2025-04-03T07:00:17	3	NO ERROR	10.34	100	1006.15	0.34	0.57	0.61
1851	363171	Vazduh	Libelium	0004A30B0021DF70	44.979	16.7091	""	""	Prijedor	""	30523966	2025-04-03T08:00:59	3	NO ERROR	10.36	100	1006.76	0.02	0.02	0.02
1852	363171	Vazduh	Libelium	0004A30B0021DF70	44.979	16.7091	""	""	Prijedor	""	30524327	2025-04-03T09:01:41	3	NO ERROR	10.64	100	1006.78	0.03	0.03	0.03
1853	363171	Vazduh	Libelium	0004A30B0021DF70	44.979	16.7091	""	""	Prijedor	""	30524657	2025-04-03T10:02:23	3	NO ERROR	12.33	100	1007.19	0.03	0.05	0.05
1854	363171	Vazduh	Libelium	0004A30B0021DF70	44.979	16.7091	""	""	Prijedor	""	30524963	2025-04-03T11:03:05	3	NO ERROR	15.49	86.2	1006.55	0.16	0.22	0.22
1855	363171	Vazduh	Libelium	0004A30B0021DF70	44.979	16.7091	""	""	Prijedor	""	30525315	2025-04-03T12:03:47	3	NO ERROR	16.93	69.8	1006.15	0	0	0
1856	363171	Vazduh	Libelium	0004A30B0021DF70	44.979	16.7091	""	""	Prijedor	""	30525655	2025-04-03T13:04:29	3	NO ERROR	18.57	59	1005.79	0.02	0.02	0.02
1857	363171	Vazduh	Libelium	0004A30B0021DF70	44.979	16.7091	""	""	Prijedor	""	30526048	2025-04-03T14:05:11	3	NO ERROR	18.69	52.6	1005.34	0.02	0.05	0.05
1858	363171	Vazduh	Libelium	0004A30B0021DF70	44.979	16.7091	""	""	Prijedor	""	30526420	2025-04-03T15:05:53	3	NO ERROR	18.99	49.3	1004.85	0.03	0.03	0.03
1859	363171	Vazduh	Libelium	0004A30B0021DF70	44.979	16.7091	""	""	Prijedor	""	30526792	2025-04-03T16:06:35	3	NO ERROR	18.62	50.1	1004.61	0.07	0.08	0.08
1860	363171	Vazduh	Libelium	0004A30B0021DF70	44.979	16.7091	""	""	Prijedor	""	30527142	2025-04-03T17:07:17	3	NO ERROR	17.92	49	1004.47	0.1	0.14	0.14
1861	363171	Vazduh	Libelium	0004A30B0021DF70	44.979	16.7091	""	""	Prijedor	""	30527497	2025-04-03T18:08:06	3	NO ERROR	17.07	49.3	1004.62	0.07	0.13	0.13
1862	363171	Vazduh	Libelium	0004A30B0021DF70	44.979	16.7091	""	""	Prijedor	""	30527823	2025-04-03T19:08:48	3	NO ERROR	16.13	51.9	1004.64	0.33	0.58	0.61
1863	363171	Vazduh	Libelium	0004A30B0021DF70	44.979	16.7091	""	""	Prijedor	""	30528155	2025-04-03T20:09:30	3	NO ERROR	13.93	58.7	1005.07	0.06	0.1	0.1
1864	363171	Vazduh	Libelium	0004A30B0021DF70	44.979	16.7091	""	""	Prijedor	""	30528457	2025-04-03T21:10:12	3	NO ERROR	11.76	78.7	1005.69	0.14	0.19	0.19
1865	363171	Vazduh	Libelium	0004A30B0021DF70	44.979	16.7091	""	""	Prijedor	""	30528760	2025-04-03T22:10:54	3	NO ERROR	11.96	83.5	1005.73	0.35	0.38	0.38
1866	363171	Vazduh	Libelium	0004A30B0021DF70	44.979	16.7091	""	""	Prijedor	""	30529005	2025-04-03T23:11:36	3	NO ERROR	10.63	99	1005.87	0.1	0.16	0.18
1867	363171	Vazduh	Libelium	0004A30B0021DF70	44.979	16.7091	""	""	Prijedor	""	30529360	2025-04-04T00:12:18	3	NO ERROR	10.55	100	1005.96	0.01	0.06	0.07
1868	363171	Vazduh	Libelium	0004A30B0021DF70	44.979	16.7091	""	""	Prijedor	""	30529635	2025-04-04T01:13:00	3	NO ERROR	10.6	100	1005.77	0.14	0.19	0.2
1869	363171	Vazduh	Libelium	0004A30B0021DF70	44.979	16.7091	""	""	Prijedor	""	30529908	2025-04-04T02:13:42	3	NO ERROR	9.8	100	1005.44	0.05	0.08	0.08
1870	363171	Vazduh	Libelium	0004A30B0021DF70	44.979	16.7091	""	""	Prijedor	""	30530193	2025-04-04T03:14:24	3	NO ERROR	8.13	100	1005.04	0.04	0.08	0.09
1871	363171	Vazduh	Libelium	0004A30B0021DF70	44.979	16.7091	""	""	Prijedor	""	30530451	2025-04-04T04:15:06	3	NO ERROR	7.86	100	1005.02	0.02	0.02	0.02
1872	363171	Vazduh	Libelium	0004A30B0021DF70	44.979	16.7091	""	""	Prijedor	""	30530736	2025-04-04T05:15:48	3	NO ERROR	8.01	100	1004.81	0	0	0
1873	363171	Vazduh	Libelium	0004A30B0021DF70	44.979	16.7091	""	""	Prijedor	""	30531060	2025-04-04T06:16:30	3	NO ERROR	7.46	100	1004.53	0.01	0.03	0.03
1874	363171	Vazduh	Libelium	0004A30B0021DF70	44.979	16.7091	""	""	Prijedor	""	30531338	2025-04-04T07:17:13	3	NO ERROR	7.99	100	1004.99	0.02	0.02	0.02
1875	363171	Vazduh	Libelium	0004A30B0021DF70	44.979	16.7091	""	""	Prijedor	""	30531630	2025-04-04T08:17:55	3	NO ERROR	9.04	100	1005.52	0.04	0.08	0.09
1876	363171	Vazduh	Libelium	0004A30B0021DF70	44.979	16.7091	""	""	Prijedor	""	30531936	2025-04-04T09:18:37	3	NO ERROR	11.74	100	1005.37	0.09	0.2	0.29
1877	363171	Vazduh	Libelium	0004A30B0021DF70	44.979	16.7091	""	""	Prijedor	""	30532168	2025-04-04T10:19:19	3	NO ERROR	15.66	79.1	1005.35	0.08	0.12	0.13
1878	363171	Vazduh	Libelium	0004A30B0021DF70	44.979	16.7091	""	""	Prijedor	""	30532496	2025-04-04T11:20:07	3	NO ERROR	17.82	60.6	1004.71	0.03	0.03	0.03
1879	363171	Vazduh	Libelium	0004A30B0021DF70	44.979	16.7091	""	""	Prijedor	""	30532882	2025-04-04T12:20:49	3	NO ERROR	17.75	60.4	1004.61	0	0	0
1880	363171	Vazduh	Libelium	0004A30B0021DF70	44.979	16.7091	""	""	Prijedor	""	30533246	2025-04-04T13:21:31	3	NO ERROR	18.6	55.1	1004.11	0	0	0
1881	363171	Vazduh	Libelium	0004A30B0021DF70	44.979	16.7091	""	""	Prijedor	""	30533712	2025-04-04T14:22:13	3	NO ERROR	17.36	56.6	1003.72	0.02	0.02	0.02
1882	363171	Vazduh	Libelium	0004A30B0021DF70	44.979	16.7091	""	""	Prijedor	""	30534179	2025-04-04T15:22:55	3	NO ERROR	17.05	57.3	1003.1	0.02	0.02	0.02
1883	363171	Vazduh	Libelium	0004A30B0021DF70	44.979	16.7091	""	""	Prijedor	""	30534653	2025-04-04T16:23:37	3	NO ERROR	19.63	50.6	1002.12	0.05	0.08	0.08
1884	363171	Vazduh	Libelium	0004A30B0021DF70	44.979	16.7091	""	""	Prijedor	""	30535097	2025-04-04T17:24:19	3	NO ERROR	20.23	48.4	1001.47	0.06	0.08	0.08
1885	363171	Vazduh	Libelium	0004A30B0021DF70	44.979	16.7091	""	""	Prijedor	""	30535502	2025-04-04T18:25:01	3	NO ERROR	17.17	57.7	1001.23	0.01	0.03	0.03
1886	363171	Vazduh	Libelium	0004A30B0021DF70	44.979	16.7091	""	""	Prijedor	""	30535924	2025-04-04T19:25:43	3	NO ERROR	14.98	65.7	1001.1	0.15	0.32	0.43
1887	363171	Vazduh	Libelium	0004A30B0021DF70	44.979	16.7091	""	""	Prijedor	""	30536331	2025-04-04T20:26:25	3	NO ERROR	13.55	79.4	1001.52	0.08	0.23	0.32
1888	363171	Vazduh	Libelium	0004A30B0021DF70	44.979	16.7091	""	""	Prijedor	""	30536799	2025-04-04T21:27:08	3	NO ERROR	11.45	100	1001.47	0.75	1.23	1.27
1889	363171	Vazduh	Libelium	0004A30B0021DF70	44.979	16.7091	""	""	Prijedor	""	30537201	2025-04-04T22:27:50	3	NO ERROR	9.84	100	1001.27	0.06	0.08	0.09
1890	363171	Vazduh	Libelium	0004A30B0021DF70	44.979	16.7091	""	""	Prijedor	""	30537570	2025-04-04T23:28:38	3	NO ERROR	8.18	100	1001.2	0.15	0.17	0.17
1891	363171	Vazduh	Libelium	0004A30B0021DF70	44.979	16.7091	""	""	Prijedor	""	30537928	2025-04-05T00:29:20	3	NO ERROR	7.58	100	1000.73	0.06	0.07	0.07
1892	363171	Vazduh	Libelium	0004A30B0021DF70	44.979	16.7091	""	""	Prijedor	""	30538264	2025-04-05T01:30:02	3	NO ERROR	6.52	100	1000.5	0.04	0.07	0.07
1893	363171	Vazduh	Libelium	0004A30B0021DF70	44.979	16.7091	""	""	Prijedor	""	30538598	2025-04-05T02:30:44	3	NO ERROR	5.65	100	1000.01	0.02	0.02	0.02
1894	363171	Vazduh	Libelium	0004A30B0021DF70	44.979	16.7091	""	""	Prijedor	""	30538928	2025-04-05T03:31:26	3	NO ERROR	4.98	100	999.79	0.07	0.09	0.09
1895	363171	Vazduh	Libelium	0004A30B0021DF70	44.979	16.7091	""	""	Prijedor	""	30539263	2025-04-05T04:32:08	3	NO ERROR	4.57	100	999.35	0.16	0.17	0.17
1896	363171	Vazduh	Libelium	0004A30B0021DF70	44.979	16.7091	""	""	Prijedor	""	30539661	2025-04-05T05:32:50	3	NO ERROR	4.01	100	999.05	0.5	0.6	0.6
1897	363171	Vazduh	Libelium	0004A30B0021DF70	44.979	16.7091	""	""	Prijedor	""	30540031	2025-04-05T06:33:32	3	NO ERROR	3.5	100	999.02	0.02	0.02	0.02
1898	363171	Vazduh	Libelium	0004A30B0021DF70	44.979	16.7091	""	""	Prijedor	""	30540398	2025-04-05T07:34:14	3	NO ERROR	4.39	100	998.91	0.11	0.41	6.78
1899	363171	Vazduh	Libelium	0004A30B0021DF70	44.979	16.7091	""	""	Prijedor	""	30540775	2025-04-05T08:35:03	3	NO ERROR	12.9	89	998.54	0.07	0.09	0.09
1900	363171	Vazduh	Libelium	0004A30B0021DF70	44.979	16.7091	""	""	Prijedor	""	30541148	2025-04-05T09:35:45	3	NO ERROR	16.49	73.1	997.8	0.02	0.02	0.02
1901	363171	Vazduh	Libelium	0004A30B0021DF70	44.979	16.7091	""	""	Prijedor	""	30541443	2025-04-05T10:36:27	3	NO ERROR	18.09	68.3	997.18	0.08	0.11	0.11
1902	363171	Vazduh	Libelium	0004A30B0021DF70	44.979	16.7091	""	""	Prijedor	""	30541873	2025-04-05T11:37:09	3	NO ERROR	17.82	63.4	996.28	0.02	0.02	0.02
1903	363171	Vazduh	Libelium	0004A30B0021DF70	44.979	16.7091	""	""	Prijedor	""	30542308	2025-04-05T12:37:51	3	NO ERROR	19.34	52.5	995.12	0.05	0.08	0.08
1904	363171	Vazduh	Libelium	0004A30B0021DF70	44.979	16.7091	""	""	Prijedor	""	30542773	2025-04-05T13:38:33	3	NO ERROR	21.56	44.4	994.01	0	0	0
1905	363171	Vazduh	Libelium	0004A30B0021DF70	44.979	16.7091	""	""	Prijedor	""	30543272	2025-04-05T14:39:15	3	NO ERROR	25	38.7	992.55	0	0	0
1906	363171	Vazduh	Libelium	0004A30B0021DF70	44.979	16.7091	""	""	Prijedor	""	30543746	2025-04-05T15:39:57	3	NO ERROR	24.19	36.6	991.54	0.03	0.06	0.06
1907	363171	Vazduh	Libelium	0004A30B0021DF70	44.979	16.7091	""	""	Prijedor	""	30544199	2025-04-05T16:40:39	3	NO ERROR	27.27	31.7	990.53	0.03	0.04	0.04
1908	363171	Vazduh	Libelium	0004A30B0021DF70	44.979	16.7091	""	""	Prijedor	""	30544685	2025-04-05T17:41:21	3	NO ERROR	22.04	36	990.16	0.03	0.16	0.47
1909	363171	Vazduh	Libelium	0004A30B0021DF70	44.979	16.7091	""	""	Prijedor	""	30545076	2025-04-05T18:42:09	3	NO ERROR	20.54	42.3	990.15	0.16	0.19	0.19
1910	363171	Vazduh	Libelium	0004A30B0021DF70	44.979	16.7091	""	""	Prijedor	""	30545497	2025-04-05T19:42:51	3	NO ERROR	18.16	47.3	989.86	0.09	0.18	0.19
1911	363171	Vazduh	Libelium	0004A30B0021DF70	44.979	16.7091	""	""	Prijedor	""	30545961	2025-04-05T20:43:40	3	NO ERROR	16.88	54.8	990.16	0.03	0.04	0.04
1912	363171	Vazduh	Libelium	0004A30B0021DF70	44.979	16.7091	""	""	Prijedor	""	30546435	2025-04-05T21:44:22	3	NO ERROR	14.87	72.3	990.34	0.13	0.15	0.15
1913	363171	Vazduh	Libelium	0004A30B0021DF70	44.979	16.7091	""	""	Prijedor	""	30546878	2025-04-05T22:45:04	3	NO ERROR	14.81	75.5	991.25	0	0	0
1914	363171	Vazduh	Libelium	0004A30B0021DF70	44.979	16.7091	""	""	Prijedor	""	30547358	2025-04-05T23:45:46	3	NO ERROR	14.22	60.2	992.42	0.22	0.28	0.28
1915	363171	Vazduh	Libelium	0004A30B0021DF70	44.979	16.7091	""	""	Prijedor	""	30547783	2025-04-06T00:46:28	3	NO ERROR	11.74	46.9	993.96	0.03	0.17	0.26
1916	363171	Vazduh	Libelium	0004A30B0021DF70	44.979	16.7091	""	""	Prijedor	""	30548143	2025-04-06T01:47:10	3	NO ERROR	10.35	47.3	996.21	0.03	0.06	0.06
1917	363171	Vazduh	Libelium	0004A30B0021DF70	44.979	16.7091	""	""	Prijedor	""	30556732	2025-04-07T01:03:42	3	NO ERROR	1.85	51.9	1006.67	0	0	0
1918	363171	Vazduh	Libelium	0004A30B0021DF70	44.979	16.7091	""	""	Prijedor	""	30557067	2025-04-07T02:04:24	3	NO ERROR	0.4	66.6	1006.63	0.03	0.03	0.03
1919	363171	Vazduh	Libelium	0004A30B0021DF70	44.979	16.7091	""	""	Prijedor	""	30557402	2025-04-07T03:05:06	3	NO ERROR	-0.33	79.6	1006.33	0.02	0.02	0.02
1920	363171	Vazduh	Libelium	0004A30B0021DF70	44.979	16.7091	""	""	Prijedor	""	30557758	2025-04-07T04:05:48	3	NO ERROR	-0.6	83.3	1006.05	0	0	0
1921	363171	Vazduh	Libelium	0004A30B0021DF70	44.979	16.7091	""	""	Prijedor	""	30558114	2025-04-07T05:06:30	3	NO ERROR	-0.96	88.2	1005.97	0.03	0.06	0.06
1922	363171	Vazduh	Libelium	0004A30B0021DF70	44.979	16.7091	""	""	Prijedor	""	30558559	2025-04-07T06:07:12	3	NO ERROR	-1.47	90.7	1006.31	0.02	0.02	0.02
1923	363171	Vazduh	Libelium	0004A30B0021DF70	44.979	16.7091	""	""	Prijedor	""	30558942	2025-04-07T07:07:54	3	NO ERROR	0.84	87.7	1006.75	0	0	0
1924	363171	Vazduh	Libelium	0004A30B0021DF70	44.979	16.7091	""	""	Prijedor	""	30559355	2025-04-07T08:08:36	3	NO ERROR	6.64	55.5	1007.18	0.08	0.09	0.09
1925	363171	Vazduh	Libelium	0004A30B0021DF70	44.979	16.7091	""	""	Prijedor	""	30559754	2025-04-07T09:09:18	3	NO ERROR	8.88	46.6	1007.37	0.02	0.02	0.02
1926	363171	Vazduh	Libelium	0004A30B0021DF70	44.979	16.7091	""	""	Prijedor	""	30560087	2025-04-07T10:10:00	3	NO ERROR	7.64	44.8	1007.56	0.12	0.13	0.13
1927	363171	Vazduh	Libelium	0004A30B0021DF70	44.979	16.7091	""	""	Prijedor	""	30560443	2025-04-07T11:10:42	3	NO ERROR	7.33	47.5	1007.64	0.02	0.1	0.4
1928	363171	Vazduh	Libelium	0004A30B0021DF70	44.979	16.7091	""	""	Prijedor	""	30560839	2025-04-07T12:11:25	3	NO ERROR	9.28	45.5	1007.51	0.02	0.02	0.02
1929	363171	Vazduh	Libelium	0004A30B0021DF70	44.979	16.7091	""	""	Prijedor	""	30561208	2025-04-07T13:12:07	3	NO ERROR	7.7	45.3	1007.58	0	0	0
1930	363171	Vazduh	Libelium	0004A30B0021DF70	44.979	16.7091	""	""	Prijedor	""	30561613	2025-04-07T14:12:49	3	NO ERROR	9.13	42.7	1007.2	0	0	0
1931	363171	Vazduh	Libelium	0004A30B0021DF70	44.979	16.7091	""	""	Prijedor	""	30562002	2025-04-07T15:13:31	3	NO ERROR	8.71	43.2	1007.18	0.02	0.02	0.02
1932	363171	Vazduh	Libelium	0004A30B0021DF70	44.979	16.7091	""	""	Prijedor	""	30562374	2025-04-07T16:14:13	3	NO ERROR	10.13	40.1	1007.24	0	0	0
1933	363171	Vazduh	Libelium	0004A30B0021DF70	44.979	16.7091	""	""	Prijedor	""	30562720	2025-04-07T17:14:55	3	NO ERROR	9.78	41.4	1007.14	0	0	0
1934	363171	Vazduh	Libelium	0004A30B0021DF70	44.979	16.7091	""	""	Prijedor	""	30563444	2025-04-07T19:16:31	3	NO ERROR	7.46	46.6	1007.83	0.02	0.02	0.02
1935	363171	Vazduh	Libelium	0004A30B0021DF70	44.979	16.7091	""	""	Prijedor	""	30563765	2025-04-07T20:17:13	3	NO ERROR	6.07	50.9	1008.37	0.07	0.08	0.08
1936	363171	Vazduh	Libelium	0004A30B0021DF70	44.979	16.7091	""	""	Prijedor	""	30564169	2025-04-07T21:17:55	3	NO ERROR	3.67	65.2	1009.12	0.03	0.03	0.03
1937	363171	Vazduh	Libelium	0004A30B0021DF70	44.979	16.7091	""	""	Prijedor	""	30564559	2025-04-07T22:18:37	3	NO ERROR	2.46	77.3	1009.38	0	0	0
1938	363171	Vazduh	Libelium	0004A30B0021DF70	44.979	16.7091	""	""	Prijedor	""	30564931	2025-04-07T23:19:19	3	NO ERROR	2.64	82.8	1009.58	0.02	0.02	0.02
1939	363171	Vazduh	Libelium	0004A30B0021DF70	44.979	16.7091	""	""	Prijedor	""	30565332	2025-04-08T00:20:08	3	NO ERROR	2.55	91.9	1010.1	0.03	0.05	0.05
1940	363171	Vazduh	Libelium	0004A30B0021DF70	44.979	16.7091	""	""	Prijedor	""	30565673	2025-04-08T01:20:50	3	NO ERROR	1.83	95.3	1010.21	0.02	0.06	0.07
1941	363171	Vazduh	Libelium	0004A30B0021DF70	44.979	16.7091	""	""	Prijedor	""	30565989	2025-04-08T02:21:32	3	NO ERROR	1.78	95.6	1010.05	0	0	0
1942	363171	Vazduh	Libelium	0004A30B0021DF70	44.979	16.7091	""	""	Prijedor	""	30566375	2025-04-08T03:22:14	3	NO ERROR	2.38	90.1	1010.11	0.04	0.05	0.05
1943	363171	Vazduh	Libelium	0004A30B0021DF70	44.979	16.7091	""	""	Prijedor	""	30566694	2025-04-08T04:22:56	3	NO ERROR	2.59	89.1	1009.87	0	0	0
1944	363171	Vazduh	Libelium	0004A30B0021DF70	44.979	16.7091	""	""	Prijedor	""	30567083	2025-04-08T05:23:38	3	NO ERROR	2.29	100	1009.83	0	0	0
1945	363171	Vazduh	Libelium	0004A30B0021DF70	44.979	16.7091	""	""	Prijedor	""	30567489	2025-04-08T06:24:20	3	NO ERROR	2.81	100	1009.93	0.02	0.02	0.02
1946	363171	Vazduh	Libelium	0004A30B0021DF70	44.979	16.7091	""	""	Prijedor	""	30567877	2025-04-08T07:25:02	3	NO ERROR	3.3	100	1010.2	0.02	0.02	0.02
1947	363171	Vazduh	Libelium	0004A30B0021DF70	44.979	16.7091	""	""	Prijedor	""	30568256	2025-04-08T08:25:44	3	NO ERROR	4.9	100	1010.32	0.03	0.05	0.05
1948	363171	Vazduh	Libelium	0004A30B0021DF70	44.979	16.7091	""	""	Prijedor	""	30568635	2025-04-08T09:26:26	3	NO ERROR	9.13	78.6	1010.45	0	0	0
1949	363171	Vazduh	Libelium	0004A30B0021DF70	44.979	16.7091	""	""	Prijedor	""	30568955	2025-04-08T10:27:08	3	NO ERROR	8.36	76.4	1010.68	0	0.07	0.15
1950	363171	Vazduh	Libelium	0004A30B0021DF70	44.979	16.7091	""	""	Prijedor	""	30569310	2025-04-08T11:27:50	3	NO ERROR	9.8	68.5	1010.71	0.05	0.16	1.16
1951	363171	Vazduh	Libelium	0004A30B0021DF70	44.979	16.7091	""	""	Prijedor	""	30569676	2025-04-08T12:28:39	3	NO ERROR	9.63	67.9	1010.32	0	0	0
1952	363171	Vazduh	Libelium	0004A30B0021DF70	44.979	16.7091	""	""	Prijedor	""	30570066	2025-04-08T13:29:21	3	NO ERROR	11.2	62.8	1009.95	0	0	0
1953	363171	Vazduh	Libelium	0004A30B0021DF70	44.979	16.7091	""	""	Prijedor	""	30570439	2025-04-08T14:30:03	3	NO ERROR	11.92	53.7	1009.5	0	0.07	0.15
1954	363171	Vazduh	Libelium	0004A30B0021DF70	44.979	16.7091	""	""	Prijedor	""	30570844	2025-04-08T15:30:45	3	NO ERROR	12.33	53	1009.16	0.05	0.06	0.06
1955	363171	Vazduh	Libelium	0004A30B0021DF70	44.979	16.7091	""	""	Prijedor	""	30571263	2025-04-08T16:31:27	3	NO ERROR	14.72	50.7	1008.75	0.13	0.15	0.15
1956	363171	Vazduh	Libelium	0004A30B0021DF70	44.979	16.7091	""	""	Prijedor	""	30571732	2025-04-08T17:32:09	3	NO ERROR	11.51	58.1	1008.25	0	0	0
1957	363171	Vazduh	Libelium	0004A30B0021DF70	44.979	16.7091	""	""	Prijedor	""	30572137	2025-04-08T18:32:51	3	NO ERROR	10.59	61.9	1008.35	0.07	0.09	0.09
1958	363171	Vazduh	Libelium	0004A30B0021DF70	44.979	16.7091	""	""	Prijedor	""	30572539	2025-04-08T19:33:33	3	NO ERROR	10.16	66.3	1008.62	0	0	0
1959	363171	Vazduh	Libelium	0004A30B0021DF70	44.979	16.7091	""	""	Prijedor	""	30572961	2025-04-08T20:34:15	3	NO ERROR	9.75	67.7	1008.92	0.02	0.02	0.02
1960	363171	Vazduh	Libelium	0004A30B0021DF70	44.979	16.7091	""	""	Prijedor	""	30573414	2025-04-08T21:34:57	3	NO ERROR	7.97	89.8	1008.94	0.05	0.05	0.05
1961	363171	Vazduh	Libelium	0004A30B0021DF70	44.979	16.7091	""	""	Prijedor	""	30573828	2025-04-08T22:35:39	3	NO ERROR	6.16	100	1009.22	0.22	0.23	0.23
1962	363171	Vazduh	Libelium	0004A30B0021DF70	44.979	16.7091	""	""	Prijedor	""	30574217	2025-04-08T23:36:21	3	NO ERROR	4.4	100	1009.31	0.07	0.07	0.07
1963	363171	Vazduh	Libelium	0004A30B0021DF70	44.979	16.7091	""	""	Prijedor	""	30574585	2025-04-09T00:37:03	3	NO ERROR	3.08	100	1009.41	0.02	0.02	0.02
1964	363171	Vazduh	Libelium	0004A30B0021DF70	44.979	16.7091	""	""	Prijedor	""	30574938	2025-04-09T01:37:45	3	NO ERROR	2.15	100	1009.49	0	0	0
1965	363171	Vazduh	Libelium	0004A30B0021DF70	44.979	16.7091	""	""	Prijedor	""	30575272	2025-04-09T02:38:27	3	NO ERROR	1.67	100	1009.17	0.22	0.28	0.28
1966	363171	Vazduh	Libelium	0004A30B0021DF70	44.979	16.7091	""	""	Prijedor	""	30575613	2025-04-09T03:39:10	3	NO ERROR	1.03	100	1008.9	0.25	0.41	0.42
1967	363171	Vazduh	Libelium	0004A30B0021DF70	44.979	16.7091	""	""	Prijedor	""	30575937	2025-04-09T04:39:52	3	NO ERROR	0.29	100	1008.72	0.03	0.03	0.03
1968	363171	Vazduh	Libelium	0004A30B0021DF70	44.979	16.7091	""	""	Prijedor	""	30576391	2025-04-09T05:40:34	3	NO ERROR	-0.19	100	1008.5	0.27	0.34	0.34
1969	363171	Vazduh	Libelium	0004A30B0021DF70	44.979	16.7091	""	""	Prijedor	""	30576760	2025-04-09T06:41:16	3	NO ERROR	0.49	100	1008.41	0.25	0.28	0.28
1970	363171	Vazduh	Libelium	0004A30B0021DF70	44.979	16.7091	""	""	Prijedor	""	30577161	2025-04-09T07:41:58	3	NO ERROR	7.21	99.1	1008.3	0.04	0.07	0.07
1971	363171	Vazduh	Libelium	0004A30B0021DF70	44.979	16.7091	""	""	Prijedor	""	30577550	2025-04-09T08:42:40	3	NO ERROR	10.09	80.5	1008.03	0	0	0
1972	363171	Vazduh	Libelium	0004A30B0021DF70	44.979	16.7091	""	""	Prijedor	""	30577889	2025-04-09T09:43:22	3	NO ERROR	10.95	67.1	1008.03	0.02	0.02	0.02
1973	363171	Vazduh	Libelium	0004A30B0021DF70	44.979	16.7091	""	""	Prijedor	""	30579065	2025-04-09T12:45:28	3	NO ERROR	15.16	47.9	1006.09	0.02	0.02	0.02
1974	363171	Vazduh	Libelium	0004A30B0021DF70	44.979	16.7091	""	""	Prijedor	""	30579552	2025-04-09T13:46:10	3	NO ERROR	17.3	42.6	1004.95	0.06	0.12	0.13
1975	363171	Vazduh	Libelium	0004A30B0021DF70	44.979	16.7091	""	""	Prijedor	""	30580049	2025-04-09T14:47:05	3	NO ERROR	21.31	36.9	1003.88	0.07	0.07	0.07
1976	363171	Vazduh	Libelium	0004A30B0021DF70	44.979	16.7091	""	""	Prijedor	""	30580487	2025-04-09T15:47:53	3	NO ERROR	17.38	39.9	1003.14	0.02	0.06	0.07
1977	363171	Vazduh	Libelium	0004A30B0021DF70	44.979	16.7091	""	""	Prijedor	""	30580940	2025-04-09T16:48:35	3	NO ERROR	19.06	37.1	1002.47	0.1	0.18	0.18
1978	363171	Vazduh	Libelium	0004A30B0021DF70	44.979	16.7091	""	""	Prijedor	""	30581395	2025-04-09T17:49:17	3	NO ERROR	16.98	39.8	1002.41	0.01	0.08	0.09
1979	363171	Vazduh	Libelium	0004A30B0021DF70	44.979	16.7091	""	""	Prijedor	""	30581774	2025-04-09T18:49:59	3	NO ERROR	15.34	43.7	1002.43	0.05	0.09	0.09
1980	363171	Vazduh	Libelium	0004A30B0021DF70	44.979	16.7091	""	""	Prijedor	""	30582192	2025-04-09T19:50:41	3	NO ERROR	13.67	48.3	1003.03	0.03	0.03	0.03
1981	363171	Vazduh	Libelium	0004A30B0021DF70	44.979	16.7091	""	""	Prijedor	""	30583474	2025-04-09T22:52:53	3	NO ERROR	8.94	83.1	1004.71	0.15	0.2	0.2
1982	363171	Vazduh	Libelium	0004A30B0021DF70	44.979	16.7091	""	""	Prijedor	""	30583875	2025-04-09T23:53:35	3	NO ERROR	9.69	81.4	1005	0.07	0.08	0.08
1983	363171	Vazduh	Libelium	0004A30B0021DF70	44.979	16.7091	""	""	Prijedor	""	30584232	2025-04-10T00:54:17	3	NO ERROR	9.7	83.5	1005.15	0.08	0.12	0.13
1984	363171	Vazduh	Libelium	0004A30B0021DF70	44.979	16.7091	""	""	Prijedor	""	30584565	2025-04-10T01:54:59	3	NO ERROR	8.69	98	1005.13	0.1	0.21	0.23
1985	363171	Vazduh	Libelium	0004A30B0021DF70	44.979	16.7091	""	""	Prijedor	""	30584932	2025-04-10T02:55:41	3	NO ERROR	8.86	92.7	1005.19	0.07	0.09	0.09
1986	363171	Vazduh	Libelium	0004A30B0021DF70	44.979	16.7091	""	""	Prijedor	""	30585268	2025-04-10T03:56:23	3	NO ERROR	9.26	88.5	1005.03	0.02	0.02	0.02
1987	363171	Vazduh	Libelium	0004A30B0021DF70	44.979	16.7091	""	""	Prijedor	""	30585600	2025-04-10T04:57:06	3	NO ERROR	8.3	100	1004.75	0.09	0.11	0.11
1988	363171	Vazduh	Libelium	0004A30B0021DF70	44.979	16.7091	""	""	Prijedor	""	30586045	2025-04-10T05:57:48	3	NO ERROR	7.94	100	1004.85	0	0	0
1989	363171	Vazduh	Libelium	0004A30B0021DF70	44.979	16.7091	""	""	Prijedor	""	30586412	2025-04-10T06:58:30	3	NO ERROR	8.16	100	1005.11	0.01	0.03	0.03
1990	363171	Vazduh	Libelium	0004A30B0021DF70	44.979	16.7091	""	""	Prijedor	""	30586782	2025-04-10T07:59:12	3	NO ERROR	8.4	100	1005.5	0.02	0.06	0.07
1991	363171	Vazduh	Libelium	0004A30B0021DF70	44.979	16.7091	""	""	Prijedor	""	30587178	2025-04-10T08:59:54	3	NO ERROR	11.04	84.4	1005.66	0.01	0.03	0.03
1992	363171	Vazduh	Libelium	0004A30B0021DF70	44.979	16.7091	""	""	Prijedor	""	30587524	2025-04-10T10:00:36	3	NO ERROR	12.22	75.6	1005.62	0.02	0.02	0.02
1993	363171	Vazduh	Libelium	0004A30B0021DF70	44.979	16.7091	""	""	Prijedor	""	30587853	2025-04-10T11:01:18	3	NO ERROR	14.51	64.1	1005.28	0.09	0.13	0.14
1994	363171	Vazduh	Libelium	0004A30B0021DF70	44.979	16.7091	""	""	Prijedor	""	30588311	2025-04-10T12:02:00	3	NO ERROR	17.08	47.8	1004.74	0.03	0.03	0.03
1995	363171	Vazduh	Libelium	0004A30B0021DF70	44.979	16.7091	""	""	Prijedor	""	30588739	2025-04-10T13:02:42	3	NO ERROR	18.33	40.7	1003.99	0	0	0
1996	363171	Vazduh	Libelium	0004A30B0021DF70	44.979	16.7091	""	""	Prijedor	""	30589223	2025-04-10T14:03:24	3	NO ERROR	18.28	39.3	1003.7	0.03	0.06	0.06
1997	363171	Vazduh	Libelium	0004A30B0021DF70	44.979	16.7091	""	""	Prijedor	""	30589726	2025-04-10T15:04:06	3	NO ERROR	19.62	37.2	1002.82	0.05	0.21	0.82
1998	363171	Vazduh	Libelium	0004A30B0021DF70	44.979	16.7091	""	""	Prijedor	""	30590187	2025-04-10T16:04:48	3	NO ERROR	19.31	37.3	1002.49	0	0	0
1999	363171	Vazduh	Libelium	0004A30B0021DF70	44.979	16.7091	""	""	Prijedor	""	30590621	2025-04-10T17:05:30	3	NO ERROR	20.08	37.6	1002.58	0	0	0
2000	363171	Vazduh	Libelium	0004A30B0021DF70	44.979	16.7091	""	""	Prijedor	""	30591108	2025-04-10T18:06:12	3	NO ERROR	16.67	42.5	1002.87	0.16	0.18	0.18
2001	363171	Vazduh	Libelium	0004A30B0021DF70	44.979	16.7091	""	""	Prijedor	""	30591514	2025-04-10T19:06:55	3	NO ERROR	14.64	49.3	1003.57	0.2	0.3	0.33
2002	363171	Vazduh	Libelium	0004A30B0021DF70	44.979	16.7091	""	""	Prijedor	""	30591926	2025-04-10T20:07:37	3	NO ERROR	13.2	53	1004.54	0.03	0.03	0.03
2003	363171	Vazduh	Libelium	0004A30B0021DF70	44.979	16.7091	""	""	Prijedor	""	30592405	2025-04-10T21:08:19	3	NO ERROR	11.94	55.2	1005.45	0.02	0.02	0.02
2004	363171	Vazduh	Libelium	0004A30B0021DF70	44.979	16.7091	""	""	Prijedor	""	30592867	2025-04-10T22:09:07	3	NO ERROR	10.9	59.2	1006.3	0.04	0.08	0.08
2005	363171	Vazduh	Libelium	0004A30B0021DF70	44.979	16.7091	""	""	Prijedor	""	30593306	2025-04-10T23:09:49	3	NO ERROR	9.87	64.4	1006.56	0.1	0.1	0.1
2006	363171	Vazduh	Libelium	0004A30B0021DF70	44.979	16.7091	""	""	Prijedor	""	30593789	2025-04-11T00:10:31	3	NO ERROR	8.4	78.6	1006.94	0.08	0.2	0.28
2007	363171	Vazduh	Libelium	0004A30B0021DF70	44.979	16.7091	""	""	Prijedor	""	30594162	2025-04-11T01:11:13	3	NO ERROR	6.21	93.4	1007.33	0.11	0.12	0.12
2008	363171	Vazduh	Libelium	0004A30B0021DF70	44.979	16.7091	""	""	Prijedor	""	30594490	2025-04-11T02:11:55	3	NO ERROR	5.4	100	1007.27	0.11	0.12	0.12
2009	363171	Vazduh	Libelium	0004A30B0021DF70	44.979	16.7091	""	""	Prijedor	""	30594869	2025-04-11T03:12:37	3	NO ERROR	4.61	100	1006.95	0.03	0.18	0.28
2010	363171	Vazduh	Libelium	0004A30B0021DF70	44.979	16.7091	""	""	Prijedor	""	30595209	2025-04-11T04:13:19	3	NO ERROR	3.73	100	1006.59	0.04	0.07	0.07
2011	363171	Vazduh	Libelium	0004A30B0021DF70	44.979	16.7091	""	""	Prijedor	""	30595563	2025-04-11T05:14:01	3	NO ERROR	3.36	100	1006.23	0.05	0.05	0.05
2012	363171	Vazduh	Libelium	0004A30B0021DF70	44.979	16.7091	""	""	Prijedor	""	30596000	2025-04-11T06:14:43	3	NO ERROR	2.97	100	1005.8	0.08	0.09	0.09
2013	363171	Vazduh	Libelium	0004A30B0021DF70	44.979	16.7091	""	""	Prijedor	""	30596374	2025-04-11T07:15:26	3	NO ERROR	7.84	97.6	1005.45	0.08	0.11	0.11
2014	363171	Vazduh	Libelium	0004A30B0021DF70	44.979	16.7091	""	""	Prijedor	""	30596751	2025-04-11T08:16:08	3	NO ERROR	11.48	70.2	1004.99	0.05	0.05	0.05
2015	363171	Vazduh	Libelium	0004A30B0021DF70	44.979	16.7091	""	""	Prijedor	""	30597145	2025-04-11T09:16:50	3	NO ERROR	13.06	67.8	1004.02	0	0	0
2016	363171	Vazduh	Libelium	0004A30B0021DF70	44.979	16.7091	""	""	Prijedor	""	30597460	2025-04-11T10:17:32	3	NO ERROR	14.45	56.9	1003.56	0.03	0.06	0.06
2017	363171	Vazduh	Libelium	0004A30B0021DF70	44.979	16.7091	""	""	Prijedor	""	30597829	2025-04-11T11:18:14	3	NO ERROR	16.01	51.5	1002.48	0.19	0.29	0.29
2018	363171	Vazduh	Libelium	0004A30B0021DF70	44.979	16.7091	""	""	Prijedor	""	30598298	2025-04-11T12:18:56	3	NO ERROR	19.03	45.4	1001.08	0.17	0.23	0.23
2019	363171	Vazduh	Libelium	0004A30B0021DF70	44.979	16.7091	""	""	Prijedor	""	30598734	2025-04-11T13:19:38	3	NO ERROR	22.22	38.8	999.37	0.02	0.02	0.02
2020	363171	Vazduh	Libelium	0004A30B0021DF70	44.979	16.7091	""	""	Prijedor	""	30599228	2025-04-11T14:20:20	3	NO ERROR	25.24	31	998.01	0.05	0.06	0.06
2021	363171	Vazduh	Libelium	0004A30B0021DF70	44.979	16.7091	""	""	Prijedor	""	30599720	2025-04-11T15:21:02	3	NO ERROR	27.64	27.4	996.72	0.05	0.09	0.09
2022	363171	Vazduh	Libelium	0004A30B0021DF70	44.979	16.7091	""	""	Prijedor	""	30600176	2025-04-11T16:21:44	3	NO ERROR	28.21	26.8	995.97	0.05	0.08	0.08
2023	363171	Vazduh	Libelium	0004A30B0021DF70	44.979	16.7091	""	""	Prijedor	""	30600615	2025-04-11T17:22:26	3	NO ERROR	25.84	27.4	995.72	0.03	0.03	0.03
2024	363171	Vazduh	Libelium	0004A30B0021DF70	44.979	16.7091	""	""	Prijedor	""	30601047	2025-04-11T18:23:08	3	NO ERROR	23.18	31.7	995.35	0	0	0
2025	363171	Vazduh	Libelium	0004A30B0021DF70	44.979	16.7091	""	""	Prijedor	""	30601457	2025-04-11T19:23:51	3	NO ERROR	20.86	36.1	995.64	0.22	0.38	0.4
2026	363171	Vazduh	Libelium	0004A30B0021DF70	44.979	16.7091	""	""	Prijedor	""	30601895	2025-04-11T20:24:33	3	NO ERROR	18.4	42	996.37	0.25	0.32	0.32
2027	363171	Vazduh	Libelium	0004A30B0021DF70	44.979	16.7091	""	""	Prijedor	""	30602376	2025-04-11T21:25:15	3	NO ERROR	16.17	49.3	997.05	0.02	0.05	0.05
2028	363171	Vazduh	Libelium	0004A30B0021DF70	44.979	16.7091	""	""	Prijedor	""	30602807	2025-04-11T22:25:57	3	NO ERROR	15.35	54.7	998.09	0.1	0.17	0.18
2029	363171	Vazduh	Libelium	0004A30B0021DF70	44.979	16.7091	""	""	Prijedor	""	30603273	2025-04-11T23:26:39	3	NO ERROR	14.58	57.2	998.62	0.18	0.26	0.26
2030	363171	Vazduh	Libelium	0004A30B0021DF70	44.979	16.7091	""	""	Prijedor	""	30603728	2025-04-12T00:27:21	3	NO ERROR	13.19	70.9	999.15	0.01	0.03	0.03
2031	363171	Vazduh	Libelium	0004A30B0021DF70	44.979	16.7091	""	""	Prijedor	""	30604135	2025-04-12T01:28:03	3	NO ERROR	11.99	78	999.55	0	0	0
2032	363171	Vazduh	Libelium	0004A30B0021DF70	44.979	16.7091	""	""	Prijedor	""	30604535	2025-04-12T02:28:45	3	NO ERROR	11.65	78.2	1000.08	0.07	0.09	0.09
2033	363171	Vazduh	Libelium	0004A30B0021DF70	44.979	16.7091	""	""	Prijedor	""	30604971	2025-04-12T03:29:27	3	NO ERROR	11.09	78.7	1000.53	0.04	0.07	0.08
2034	363171	Vazduh	Libelium	0004A30B0021DF70	44.979	16.7091	""	""	Prijedor	""	30605363	2025-04-12T04:30:09	3	NO ERROR	10.61	76.3	1001.29	0.2	0.28	0.29
2035	363171	Vazduh	Libelium	0004A30B0021DF70	44.979	16.7091	""	""	Prijedor	""	30605839	2025-04-12T05:30:51	3	NO ERROR	10.57	75.8	1001.76	0.44	0.53	0.53
2036	363171	Vazduh	Libelium	0004A30B0021DF70	44.979	16.7091	""	""	Prijedor	""	30606335	2025-04-12T06:31:33	3	NO ERROR	10.37	79.5	1002.57	0.35	0.48	0.49
2037	363171	Vazduh	Libelium	0004A30B0021DF70	44.979	16.7091	""	""	Prijedor	""	30606794	2025-04-12T07:32:15	3	NO ERROR	15.58	59.2	1003.21	0.05	0.06	0.06
2038	363171	Vazduh	Libelium	0004A30B0021DF70	44.979	16.7091	""	""	Prijedor	""	30607273	2025-04-12T08:32:57	3	NO ERROR	20.63	46.8	1003.31	0.25	0.48	0.62
2039	363171	Vazduh	Libelium	0004A30B0021DF70	44.979	16.7091	""	""	Prijedor	""	30607737	2025-04-12T09:33:40	3	NO ERROR	21.92	41.6	1003.32	0.07	0.08	0.08
2040	363171	Vazduh	Libelium	0004A30B0021DF70	44.979	16.7091	""	""	Prijedor	""	30608122	2025-04-12T10:34:22	3	NO ERROR	19.34	44.9	1003.24	0.07	0.08	0.08
2041	363171	Vazduh	Libelium	0004A30B0021DF70	44.979	16.7091	""	""	Prijedor	""	30608572	2025-04-12T11:35:04	3	NO ERROR	18.93	47.2	1003.03	0.11	0.14	0.14
2042	363171	Vazduh	Libelium	0004A30B0021DF70	44.979	16.7091	""	""	Prijedor	""	30609022	2025-04-12T12:35:52	3	NO ERROR	19.61	46.7	1002.76	0.05	0.05	0.05
2043	363171	Vazduh	Libelium	0004A30B0021DF70	44.979	16.7091	""	""	Prijedor	""	30609518	2025-04-12T13:36:34	3	NO ERROR	20.53	45.6	1002.5	0	0	0
2044	363171	Vazduh	Libelium	0004A30B0021DF70	44.979	16.7091	""	""	Prijedor	""	30610049	2025-04-12T14:37:16	3	NO ERROR	21.6	41.4	1002.09	0.15	0.19	0.19
2045	363171	Vazduh	Libelium	0004A30B0021DF70	44.979	16.7091	""	""	Prijedor	""	30610538	2025-04-12T15:38:04	3	NO ERROR	22.76	40.3	1001.51	0.13	0.15	0.15
2046	363171	Vazduh	Libelium	0004A30B0021DF70	44.979	16.7091	""	""	Prijedor	""	30610981	2025-04-12T16:38:46	3	NO ERROR	24.14	36.8	1000.51	0.26	0.39	0.42
2047	363171	Vazduh	Libelium	0004A30B0021DF70	44.979	16.7091	""	""	Prijedor	""	30611466	2025-04-12T17:39:28	3	NO ERROR	21.18	38.1	999.97	0.02	0.02	0.02
2048	363171	Vazduh	Libelium	0004A30B0021DF70	44.979	16.7091	""	""	Prijedor	""	30611894	2025-04-12T18:40:17	3	NO ERROR	19.94	42.1	999.27	0.07	0.1	0.1
2049	363171	Vazduh	Libelium	0004A30B0021DF70	44.979	16.7091	""	""	Prijedor	""	30612317	2025-04-12T19:40:58	3	NO ERROR	18.3	47.7	999.22	0.13	0.19	0.19
2050	363171	Vazduh	Libelium	0004A30B0021DF70	44.979	16.7091	""	""	Prijedor	""	30612763	2025-04-12T20:41:40	3	NO ERROR	16.06	59.8	999.75	0	0	0
2051	363171	Vazduh	Libelium	0004A30B0021DF70	44.979	16.7091	""	""	Prijedor	""	30613230	2025-04-12T21:42:29	3	NO ERROR	14.17	71.8	999.78	0.34	0.5	0.51
2052	363171	Vazduh	Libelium	0004A30B0021DF70	44.979	16.7091	""	""	Prijedor	""	30613677	2025-04-12T22:43:11	3	NO ERROR	12.14	90.6	999.8	0.05	0.1	0.1
2053	363171	Vazduh	Libelium	0004A30B0021DF70	44.979	16.7091	""	""	Prijedor	""	30614143	2025-04-12T23:43:53	3	NO ERROR	11.43	95.9	999.62	0.2	0.28	0.28
2054	363171	Vazduh	Libelium	0004A30B0021DF70	44.979	16.7091	""	""	Prijedor	""	30615365	2025-04-13T02:46:11	3	NO ERROR	9.23	100	999.36	0.02	0.06	0.07
2055	363171	Vazduh	Libelium	0004A30B0021DF70	44.979	16.7091	""	""	Prijedor	""	30687657	2025-04-20T01:43:54	3	NO ERROR	9.79	100	997.8	0.11	0.16	0.16
2056	363171	Vazduh	Libelium	0004A30B0021DF70	44.979	16.7091	""	""	Prijedor	""	30688089	2025-04-20T02:44:36	3	NO ERROR	8.1	100	997.69	0.31	0.41	0.41
2057	363171	Vazduh	Libelium	0004A30B0021DF70	44.979	16.7091	""	""	Prijedor	""	30688440	2025-04-20T03:45:18	3	NO ERROR	8.38	100	997.45	0.04	0.07	0.07
2058	363171	Vazduh	Libelium	0004A30B0021DF70	44.979	16.7091	""	""	Prijedor	""	30688822	2025-04-20T04:46:00	3	NO ERROR	8.25	100	997.03	0.03	0.03	0.03
2059	363171	Vazduh	Libelium	0004A30B0021DF70	44.979	16.7091	""	""	Prijedor	""	30689242	2025-04-20T05:46:42	3	NO ERROR	7.92	100	997.2	0.07	0.12	0.12
2060	363171	Vazduh	Libelium	0004A30B0021DF70	44.979	16.7091	""	""	Prijedor	""	30689670	2025-04-20T06:47:24	3	NO ERROR	10.17	100	997.4	0.05	0.08	0.08
2061	363171	Vazduh	Libelium	0004A30B0021DF70	44.979	16.7091	""	""	Prijedor	""	30690087	2025-04-20T07:48:06	3	NO ERROR	13.44	100	997.5	0.09	0.1	0.1
2062	363171	Vazduh	Libelium	0004A30B0021DF70	44.979	16.7091	""	""	Prijedor	""	30690485	2025-04-20T08:48:48	3	NO ERROR	13.24	100	997.52	0.22	0.3	0.31
2063	363171	Vazduh	Libelium	0004A30B0021DF70	44.979	16.7091	""	""	Prijedor	""	30690853	2025-04-20T09:49:30	3	NO ERROR	19.11	71.6	997.04	0.06	0.06	0.06
2064	363171	Vazduh	Libelium	0004A30B0021DF70	44.979	16.7091	""	""	Prijedor	""	30691172	2025-04-20T10:50:12	3	NO ERROR	20.83	59.5	996.61	0	0	0
2065	363171	Vazduh	Libelium	0004A30B0021DF70	44.979	16.7091	""	""	Prijedor	""	30691616	2025-04-20T11:50:55	3	NO ERROR	23.24	45.8	996.03	0.05	0.05	0.05
2066	363171	Vazduh	Libelium	0004A30B0021DF70	44.979	16.7091	""	""	Prijedor	""	30692080	2025-04-20T12:51:37	3	NO ERROR	24.77	42.9	995.6	0.02	0.02	0.02
2067	363171	Vazduh	Libelium	0004A30B0021DF70	44.979	16.7091	""	""	Prijedor	""	30692541	2025-04-20T13:52:19	3	NO ERROR	25.26	42.5	995.27	0.03	0.03	0.03
2068	363171	Vazduh	Libelium	0004A30B0021DF70	44.979	16.7091	""	""	Prijedor	""	30693047	2025-04-20T14:53:01	3	NO ERROR	26.97	40.5	994.64	0.03	0.04	0.04
2069	363171	Vazduh	Libelium	0004A30B0021DF70	44.979	16.7091	""	""	Prijedor	""	30693538	2025-04-20T15:53:43	3	NO ERROR	29.6	36.6	994.12	0.03	0.05	0.05
2070	363171	Vazduh	Libelium	0004A30B0021DF70	44.979	16.7091	""	""	Prijedor	""	30693960	2025-04-20T16:54:25	3	NO ERROR	27.38	38.7	994.01	0.15	0.3	0.59
2071	363171	Vazduh	Libelium	0004A30B0021DF70	44.979	16.7091	""	""	Prijedor	""	30694421	2025-04-20T17:55:13	3	NO ERROR	26.4	40.6	994.16	0.1	0.15	0.16
2072	363171	Vazduh	Libelium	0004A30B0021DF70	44.979	16.7091	""	""	Prijedor	""	30694833	2025-04-20T18:55:55	3	NO ERROR	23.65	46.2	994.3	0.12	0.14	0.14
2073	363171	Vazduh	Libelium	0004A30B0021DF70	44.979	16.7091	""	""	Prijedor	""	30695250	2025-04-20T19:56:37	3	NO ERROR	20.87	54.6	994.93	0.04	0.07	0.07
2074	363171	Vazduh	Libelium	0004A30B0021DF70	44.979	16.7091	""	""	Prijedor	""	30695698	2025-04-20T20:57:32	3	NO ERROR	18.65	64.3	995.72	0.27	0.39	0.41
2075	363171	Vazduh	Libelium	0004A30B0021DF70	44.979	16.7091	""	""	Prijedor	""	30696186	2025-04-20T21:58:13	3	NO ERROR	17.02	73.9	996.08	0.14	0.15	0.15
2076	363171	Vazduh	Libelium	0004A30B0021DF70	44.979	16.7091	""	""	Prijedor	""	30696612	2025-04-20T22:58:56	3	NO ERROR	15.91	84.7	996.21	0.2	0.24	0.24
2077	363171	Vazduh	Libelium	0004A30B0021DF70	44.979	16.7091	""	""	Prijedor	""	30697071	2025-04-20T23:59:44	3	NO ERROR	14.15	100	996.06	0.08	0.12	0.13
2078	363171	Vazduh	Libelium	0004A30B0021DF70	44.979	16.7091	""	""	Prijedor	""	30759462	2025-04-27T11:49:19	3	NO ERROR	18.78	77.5	1008.57	0.02	0.02	0.02
2079	363171	Vazduh	Libelium	0004A30B0021DF70	44.979	16.7091	""	""	Prijedor	""	30759907	2025-04-27T12:50:01	3	NO ERROR	19.36	72.8	1008.41	0.1	0.19	0.21
2080	363171	Vazduh	Libelium	0004A30B0021DF70	44.979	16.7091	""	""	Prijedor	""	30760393	2025-04-27T13:50:50	3	NO ERROR	21.04	64	1008.36	0.07	0.16	0.18
2081	363171	Vazduh	Libelium	0004A30B0021DF70	44.979	16.7091	""	""	Prijedor	""	30760886	2025-04-27T14:51:32	3	NO ERROR	20.88	55.7	1008.43	0.16	0.24	0.25
2082	363171	Vazduh	Libelium	0004A30B0021DF70	44.979	16.7091	""	""	Prijedor	""	30761335	2025-04-27T15:52:14	3	NO ERROR	23.72	49.5	1008.06	0.14	0.3	0.47
2083	363171	Vazduh	Libelium	0004A30B0021DF70	44.979	16.7091	""	""	Prijedor	""	30761741	2025-04-27T16:52:56	3	NO ERROR	23.53	53.1	1007.99	0.12	0.13	0.13
2084	363171	Vazduh	Libelium	0004A30B0021DF70	44.979	16.7091	""	""	Prijedor	""	30762203	2025-04-27T17:53:38	3	NO ERROR	19.84	62	1007.88	0.17	0.34	0.37
2085	363171	Vazduh	Libelium	0004A30B0021DF70	44.979	16.7091	""	""	Prijedor	""	30762615	2025-04-27T18:54:20	3	NO ERROR	18.94	62.4	1007.78	0.02	0.12	0.2
2086	363171	Vazduh	Libelium	0004A30B0021DF70	44.979	16.7091	""	""	Prijedor	""	30763022	2025-04-27T19:55:02	3	NO ERROR	17.4	73.9	1008.32	0.01	0.03	0.03
2087	363171	Vazduh	Libelium	0004A30B0021DF70	44.979	16.7091	""	""	Prijedor	""	30763478	2025-04-27T20:55:44	3	NO ERROR	15.9	83	1009.09	0.16	0.26	0.29
2088	363171	Vazduh	Libelium	0004A30B0021DF70	44.979	16.7091	""	""	Prijedor	""	30763921	2025-04-27T21:56:26	3	NO ERROR	14.61	99.5	1009.74	0.05	0.2	0.28
2089	363171	Vazduh	Libelium	0004A30B0021DF70	44.979	16.7091	""	""	Prijedor	""	30764408	2025-04-27T22:57:08	3	NO ERROR	11.95	100	1010.08	0.04	0.15	0.24
2090	363171	Vazduh	Libelium	0004A30B0021DF70	44.979	16.7091	""	""	Prijedor	""	30764884	2025-04-27T23:57:50	3	NO ERROR	10.72	100	1010.07	0.13	0.26	0.27
2091	363171	Vazduh	Libelium	0004A30B0021DF70	44.979	16.7091	""	""	Prijedor	""	30765297	2025-04-28T00:58:32	3	NO ERROR	9.72	100	1010.15	0.13	0.14	0.14
2092	363171	Vazduh	Libelium	0004A30B0021DF70	44.979	16.7091	""	""	Prijedor	""	30765680	2025-04-28T01:59:14	3	NO ERROR	9.48	100	1009.66	0.03	0.03	0.03
2093	363171	Vazduh	Libelium	0004A30B0021DF70	44.979	16.7091	""	""	Prijedor	""	30766133	2025-04-28T02:59:57	3	NO ERROR	9.18	100	1009.49	0.05	0.05	0.05
2094	363171	Vazduh	Libelium	0004A30B0021DF70	44.979	16.7091	""	""	Prijedor	""	30766494	2025-04-28T04:00:39	3	NO ERROR	8.98	100	1009.61	0.04	0.08	0.09
2095	363171	Vazduh	Libelium	0004A30B0021DF70	44.979	16.7091	""	""	Prijedor	""	30766820	2025-04-28T05:01:27	3	NO ERROR	8.64	100	1009.83	0.06	0.07	0.07
2096	363171	Vazduh	Libelium	0004A30B0021DF70	44.979	16.7091	""	""	Prijedor	""	30767260	2025-04-28T06:02:09	3	NO ERROR	8.59	100	1010.15	0.12	0.17	0.17
2097	363171	Vazduh	Libelium	0004A30B0021DF70	44.979	16.7091	""	""	Prijedor	""	30767687	2025-04-28T07:02:51	3	NO ERROR	11.6	100	1010.52	0.27	0.39	0.42
2098	363171	Vazduh	Libelium	0004A30B0021DF70	44.979	16.7091	""	""	Prijedor	""	30768078	2025-04-28T08:03:33	3	NO ERROR	16.41	96.4	1010.91	0	0	0
2099	363171	Vazduh	Libelium	0004A30B0021DF70	44.979	16.7091	""	""	Prijedor	""	30768498	2025-04-28T09:04:15	3	NO ERROR	16.45	100	1010.98	0.05	0.05	0.05
2100	363171	Vazduh	Libelium	0004A30B0021DF70	44.979	16.7091	""	""	Prijedor	""	30768835	2025-04-28T10:04:57	3	NO ERROR	18.23	99.5	1011.03	0.03	0.06	0.06
2101	363171	Vazduh	Libelium	0004A30B0021DF70	44.979	16.7091	""	""	Prijedor	""	30769177	2025-04-28T11:05:39	3	NO ERROR	19.95	86.2	1011.03	0.12	0.14	0.14
2102	363171	Vazduh	Libelium	0004A30B0021DF70	44.979	16.7091	""	""	Prijedor	""	30769586	2025-04-28T12:06:21	3	NO ERROR	21.05	81.4	1010.82	0.14	0.25	0.27
2103	363171	Vazduh	Libelium	0004A30B0021DF70	44.979	16.7091	""	""	Prijedor	""	30769988	2025-04-28T13:07:03	3	NO ERROR	19.98	87	1010.28	0.02	0.09	0.17
2104	363171	Vazduh	Libelium	0004A30B0021DF70	44.979	16.7091	""	""	Prijedor	""	30770451	2025-04-28T14:07:45	3	NO ERROR	19.89	88.4	1010.13	0.1	0.16	0.18
2105	363171	Vazduh	Libelium	0004A30B0021DF70	44.979	16.7091	""	""	Prijedor	""	30770938	2025-04-28T15:08:27	3	NO ERROR	20.59	84.2	1009.53	0.08	0.09	0.09
2106	363171	Vazduh	Libelium	0004A30B0021DF70	44.979	16.7091	""	""	Prijedor	""	30771418	2025-04-28T16:09:09	3	NO ERROR	20.57	80.3	1009.33	0.16	0.21	0.21
2107	363171	Vazduh	Libelium	0004A30B0021DF70	44.979	16.7091	""	""	Prijedor	""	30771812	2025-04-28T17:09:52	3	NO ERROR	20.45	82.1	1009.16	0.06	0.06	0.06
2108	363171	Vazduh	Libelium	0004A30B0021DF70	44.979	16.7091	""	""	Prijedor	""	30772238	2025-04-28T18:10:34	3	NO ERROR	19.93	83.6	1008.91	0.07	0.07	0.07
2109	363171	Vazduh	Libelium	0004A30B0021DF70	44.979	16.7091	""	""	Prijedor	""	30772638	2025-04-28T19:11:16	3	NO ERROR	18.93	94.1	1009.02	0.02	0.02	0.02
2110	363171	Vazduh	Libelium	0004A30B0021DF70	44.979	16.7091	""	""	Prijedor	""	30773031	2025-04-28T20:11:58	3	NO ERROR	17.84	100	1008.91	0.17	0.19	0.19
2111	363171	Vazduh	Libelium	0004A30B0021DF70	44.979	16.7091	""	""	Prijedor	""	30773491	2025-04-28T21:12:40	3	NO ERROR	15.92	100	1009.34	0.1	0.13	0.13
2112	363171	Vazduh	Libelium	0004A30B0021DF70	44.979	16.7091	""	""	Prijedor	""	30773969	2025-04-28T22:13:22	3	NO ERROR	14.93	100	1009.44	0.08	0.17	0.18
2113	363171	Vazduh	Libelium	0004A30B0021DF70	44.979	16.7091	""	""	Prijedor	""	30774392	2025-04-28T23:14:10	3	NO ERROR	14.22	100	1009.58	0.09	0.18	0.27
2114	363171	Vazduh	Libelium	0004A30B0021DF70	44.979	16.7091	""	""	Prijedor	""	30774875	2025-04-29T00:14:52	3	NO ERROR	13.2	100	1009.62	0.39	0.45	0.45
2115	363171	Vazduh	Libelium	0004A30B0021DF70	44.979	16.7091	""	""	Prijedor	""	30775291	2025-04-29T01:15:34	3	NO ERROR	12.18	100	1009.5	0.18	0.3	0.42
2116	363171	Vazduh	Libelium	0004A30B0021DF70	44.979	16.7091	""	""	Prijedor	""	30775691	2025-04-29T02:16:16	3	NO ERROR	10.82	100	1009.29	0.38	0.41	0.41
2117	363171	Vazduh	Libelium	0004A30B0021DF70	44.979	16.7091	""	""	Prijedor	""	30776154	2025-04-29T03:16:58	3	NO ERROR	11.77	100	1009.01	5.59	11.32	121.35
2118	363171	Vazduh	Libelium	0004A30B0021DF70	44.979	16.7091	""	""	Prijedor	""	30776554	2025-04-29T04:17:40	3	NO ERROR	11.14	100	1009	3.52	9.82	53.91
2119	363171	Vazduh	Libelium	0004A30B0021DF70	44.979	16.7091	""	""	Prijedor	""	30776982	2025-04-29T05:18:23	3	NO ERROR	11.31	100	1009.15	8.64	14.56	75.97
2120	363171	Vazduh	Libelium	0004A30B0021DF70	44.979	16.7091	""	""	Prijedor	""	30777534	2025-04-29T06:19:05	3	NO ERROR	11.04	100	1009.52	7.5	15.67	110.87
2121	363171	Vazduh	Libelium	0004A30B0021DF70	44.979	16.7091	""	""	Prijedor	""	30778027	2025-04-29T07:19:47	3	NO ERROR	11.39	100	1009.96	1.14	5.48	70.4
2122	363171	Vazduh	Libelium	0004A30B0021DF70	44.979	16.7091	""	""	Prijedor	""	30778511	2025-04-29T08:20:29	3	NO ERROR	11.78	100	1010.14	0.24	0.98	4.96
2123	363171	Vazduh	Libelium	0004A30B0021DF70	44.979	16.7091	""	""	Prijedor	""	30779000	2025-04-29T09:21:11	3	NO ERROR	13.11	100	1010.05	0.29	0.32	0.32
2124	363171	Vazduh	Libelium	0004A30B0021DF70	44.979	16.7091	""	""	Prijedor	""	30779442	2025-04-29T10:22:05	3	NO ERROR	14.81	100	1009.82	0.08	0.09	0.09
2125	363171	Vazduh	Libelium	0004A30B0021DF70	44.979	16.7091	""	""	Prijedor	""	30779904	2025-04-29T11:22:47	3	NO ERROR	17.73	100	1009.23	0.19	0.24	0.24
2126	363171	Vazduh	Libelium	0004A30B0021DF70	44.979	16.7091	""	""	Prijedor	""	30780362	2025-04-29T12:23:29	3	NO ERROR	20.66	78.5	1008.57	0.04	0.13	0.21
2127	363171	Vazduh	Libelium	0004A30B0021DF70	44.979	16.7091	""	""	Prijedor	""	30782238	2025-04-29T18:29:37	3	NO ERROR	22.24	39.1	1005.9	0.1	0.14	0.14
2128	363171	Vazduh	Libelium	0004A30B0021DF70	44.979	16.7091	""	""	Prijedor	""	30782674	2025-04-29T19:30:25	3	NO ERROR	20.51	45.7	1005.96	0.12	0.19	0.2
2129	363171	Vazduh	Libelium	0004A30B0021DF70	44.979	16.7091	""	""	Prijedor	""	30783102	2025-04-29T20:31:07	3	NO ERROR	18.26	52.1	1006.32	0.02	0.06	0.07
2130	363171	Vazduh	Libelium	0004A30B0021DF70	44.979	16.7091	""	""	Prijedor	""	30783602	2025-04-29T21:31:49	3	NO ERROR	14.7	80.8	1006.91	0.2	0.25	0.25
2131	363171	Vazduh	Libelium	0004A30B0021DF70	44.979	16.7091	""	""	Prijedor	""	30784056	2025-04-29T22:32:31	3	NO ERROR	12.42	99.1	1007.24	0.03	0.03	0.03
2132	363171	Vazduh	Libelium	0004A30B0021DF70	44.979	16.7091	""	""	Prijedor	""	30784545	2025-04-29T23:33:13	3	NO ERROR	10.88	100	1007.46	0.03	0.03	0.03
2133	363171	Vazduh	Libelium	0004A30B0021DF70	44.979	16.7091	""	""	Prijedor	""	30784996	2025-04-30T00:33:55	3	NO ERROR	9.51	100	1007.52	0	0	0
2134	363171	Vazduh	Libelium	0004A30B0021DF70	44.979	16.7091	""	""	Prijedor	""	30785411	2025-04-30T01:34:37	3	NO ERROR	8.78	100	1007.51	0.06	0.08	0.08
2135	363171	Vazduh	Libelium	0004A30B0021DF70	44.979	16.7091	""	""	Prijedor	""	30785823	2025-04-30T02:35:19	3	NO ERROR	8.01	100	1007.46	0.05	0.05	0.05
2136	363171	Vazduh	Libelium	0004A30B0021DF70	44.979	16.7091	""	""	Prijedor	""	30786262	2025-04-30T03:36:01	3	NO ERROR	7.57	100	1007.5	0.06	0.11	0.11
2137	363171	Vazduh	Libelium	0004A30B0021DF70	44.979	16.7091	""	""	Prijedor	""	30786685	2025-04-30T04:36:43	3	NO ERROR	7.23	100	1007.66	0.06	0.11	0.11
2138	363171	Vazduh	Libelium	0004A30B0021DF70	44.979	16.7091	""	""	Prijedor	""	30787186	2025-04-30T05:37:25	3	NO ERROR	5.91	100	1007.91	0.05	0.05	0.05
2139	363171	Vazduh	Libelium	0004A30B0021DF70	44.979	16.7091	""	""	Prijedor	""	30787603	2025-04-30T06:38:07	3	NO ERROR	8.71	100	1008.35	0.02	0.02	0.02
2140	363171	Vazduh	Libelium	0004A30B0021DF70	44.979	16.7091	""	""	Prijedor	""	30787981	2025-04-30T07:38:56	3	NO ERROR	15.21	78.8	1008.61	0.03	0.03	0.03
2141	363171	Vazduh	Libelium	0004A30B0021DF70	44.979	16.7091	""	""	Prijedor	""	30788397	2025-04-30T08:39:38	3	NO ERROR	18.81	63.8	1008.48	0.07	0.15	0.17
2142	363171	Vazduh	Libelium	0004A30B0021DF70	44.979	16.7091	""	""	Prijedor	""	30788789	2025-04-30T09:40:20	3	NO ERROR	20.22	57.6	1008.16	0.13	0.15	0.15
2143	363171	Vazduh	Libelium	0004A30B0021DF70	44.979	16.7091	""	""	Prijedor	""	30789112	2025-04-30T10:41:02	3	NO ERROR	19.33	60.5	1007.87	0.03	0.03	0.03
2144	363171	Vazduh	Libelium	0004A30B0021DF70	44.979	16.7091	""	""	Prijedor	""	30789537	2025-04-30T11:41:44	3	NO ERROR	22.33	57.1	1007.41	0.08	0.12	0.12
2145	363171	Vazduh	Libelium	0004A30B0021DF70	44.979	16.7091	""	""	Prijedor	""	30790009	2025-04-30T12:42:26	3	NO ERROR	23.11	48.3	1006.86	0.17	0.22	0.22
2146	363171	Vazduh	Libelium	0004A30B0021DF70	44.979	16.7091	""	""	Prijedor	""	30790609	2025-04-30T13:43:08	3	NO ERROR	24.02	47.5	1006.32	0.07	0.09	0.09
2147	363171	Vazduh	Libelium	0004A30B0021DF70	44.979	16.7091	""	""	Prijedor	""	30791274	2025-04-30T14:43:50	3	NO ERROR	26.37	41.5	1005.72	0.12	0.23	0.34
2148	363171	Vazduh	Libelium	0004A30B0021DF70	44.979	16.7091	""	""	Prijedor	""	30791901	2025-04-30T15:44:32	3	NO ERROR	29.28	38.2	1004.81	0.02	0.05	0.05
2149	363171	Vazduh	Libelium	0004A30B0021DF70	44.979	16.7091	""	""	Prijedor	""	30792495	2025-04-30T16:45:14	3	NO ERROR	28.59	37.3	1004.41	0	0	0
2150	363171	Vazduh	Libelium	0004A30B0021DF70	44.979	16.7091	""	""	Prijedor	""	30793136	2025-04-30T17:45:56	3	NO ERROR	24.27	45.1	1004.19	0.03	0.03	0.03
2151	363171	Vazduh	Libelium	0004A30B0021DF70	44.979	16.7091	""	""	Prijedor	""	30793712	2025-04-30T18:46:39	3	NO ERROR	23.07	48.2	1004.05	0.16	0.26	0.26
2152	363171	Vazduh	Libelium	0004A30B0021DF70	44.979	16.7091	""	""	Prijedor	""	30794286	2025-04-30T19:47:21	3	NO ERROR	20.98	56.4	1004.1	0.24	0.33	0.33
2153	363171	Vazduh	Libelium	0004A30B0021DF70	44.979	16.7091	""	""	Prijedor	""	30794904	2025-04-30T20:48:09	3	NO ERROR	18.32	76.5	1004.7	0.14	0.25	0.27
2154	363171	Vazduh	Libelium	0004A30B0021DF70	44.979	16.7091	""	""	Prijedor	""	30795536	2025-04-30T21:48:51	3	NO ERROR	16.04	99.2	1005.11	0.16	0.25	0.26
2155	363171	Vazduh	Libelium	0004A30B0021DF70	44.979	16.7091	""	""	Prijedor	""	30796142	2025-04-30T22:49:33	3	NO ERROR	14.33	100	1005.32	0.13	0.18	0.18
2156	363171	Vazduh	Libelium	0004A30B0021DF70	44.979	16.7091	""	""	Prijedor	""	30796757	2025-04-30T23:50:15	3	NO ERROR	13.25	100	1005.42	0.15	0.17	0.17
2157	363171	Vazduh	Libelium	0004A30B0021DF70	44.979	16.7091	""	""	Prijedor	""	30797354	2025-05-01T00:50:57	3	NO ERROR	11.13	100	1005.44	0.15	0.17	0.17
2158	363171	Vazduh	Libelium	0004A30B0021DF70	44.979	16.7091	""	""	Prijedor	""	30797932	2025-05-01T01:51:39	3	NO ERROR	10.63	100	1005.39	0.06	0.07	0.07
2159	363171	Vazduh	Libelium	0004A30B0021DF70	44.979	16.7091	""	""	Prijedor	""	30798539	2025-05-01T02:52:21	3	NO ERROR	10.26	100	1005.34	0.05	0.08	0.08
2160	363171	Vazduh	Libelium	0004A30B0021DF70	44.979	16.7091	""	""	Prijedor	""	30799133	2025-05-01T03:53:03	3	NO ERROR	9.33	100	1005.48	0.07	0.09	0.09
2161	363171	Vazduh	Libelium	0004A30B0021DF70	44.979	16.7091	""	""	Prijedor	""	30799741	2025-05-01T04:53:51	3	NO ERROR	8.61	100	1005.42	0.18	0.19	0.19
2162	363171	Vazduh	Libelium	0004A30B0021DF70	44.979	16.7091	""	""	Prijedor	""	30800460	2025-05-01T05:54:33	3	NO ERROR	8.42	100	1005.72	0.02	0.02	0.02
2163	363171	Vazduh	Libelium	0004A30B0021DF70	44.979	16.7091	""	""	Prijedor	""	30801167	2025-05-01T06:55:15	3	NO ERROR	11.87	100	1006.09	0.02	0.09	0.17
2164	363171	Vazduh	Libelium	0004A30B0021DF70	44.979	16.7091	""	""	Prijedor	""	30801788	2025-05-01T07:55:58	3	NO ERROR	16.54	84.2	1006.21	0.07	0.07	0.07
2165	363171	Vazduh	Libelium	0004A30B0021DF70	44.979	16.7091	""	""	Prijedor	""	30802509	2025-05-01T08:56:40	3	NO ERROR	18.67	75.3	1006.01	0.02	0.09	0.17
2166	363171	Vazduh	Libelium	0004A30B0021DF70	44.979	16.7091	""	""	Prijedor	""	30803116	2025-05-01T09:57:22	3	NO ERROR	20.25	66.8	1006.05	0.07	0.07	0.07
2167	363171	Vazduh	Libelium	0004A30B0021DF70	44.979	16.7091	""	""	Prijedor	""	30803660	2025-05-01T10:58:04	3	NO ERROR	23.96	61.7	1005.67	0.16	0.21	0.21
2168	363171	Vazduh	Libelium	0004A30B0021DF70	44.979	16.7091	""	""	Prijedor	""	30804301	2025-05-01T11:58:46	3	NO ERROR	24.34	61.1	1004.98	0.03	0.03	0.03
2169	363171	Vazduh	Libelium	0004A30B0021DF70	44.979	16.7091	""	""	Prijedor	""	30804894	2025-05-01T12:59:28	3	NO ERROR	24.91	54.3	1004.38	0.02	0.02	0.02
2170	363171	Vazduh	Libelium	0004A30B0021DF70	44.979	16.7091	""	""	Prijedor	""	30805522	2025-05-01T14:00:10	3	NO ERROR	26.26	44.1	1004.1	0.23	0.25	0.25
2171	363171	Vazduh	Libelium	0004A30B0021DF70	44.979	16.7091	""	""	Prijedor	""	30806174	2025-05-01T15:00:52	3	NO ERROR	26.7	43.7	1003.89	0.06	0.08	0.08
2172	363171	Vazduh	Libelium	0004A30B0021DF70	44.979	16.7091	""	""	Prijedor	""	30806788	2025-05-01T16:01:40	3	NO ERROR	28.78	40.6	1003.45	0.02	0.02	0.02
2173	363171	Vazduh	Libelium	0004A30B0021DF70	44.979	16.7091	""	""	Prijedor	""	30807366	2025-05-01T17:02:22	3	NO ERROR	29.56	39.1	1003.12	0.04	0.1	0.12
2174	363171	Vazduh	Libelium	0004A30B0021DF70	44.979	16.7091	""	""	Prijedor	""	30807967	2025-05-01T18:03:05	3	NO ERROR	25.39	44.8	1002.92	0.07	0.09	0.09
2175	363171	Vazduh	Libelium	0004A30B0021DF70	44.979	16.7091	""	""	Prijedor	""	30808535	2025-05-01T19:03:47	3	NO ERROR	24.02	46.3	1002.81	0.15	0.2	0.2
2176	363171	Vazduh	Libelium	0004A30B0021DF70	44.979	16.7091	""	""	Prijedor	""	30809114	2025-05-01T20:04:29	3	NO ERROR	21.85	56.2	1002.88	0.07	0.14	0.15
2177	363171	Vazduh	Libelium	0004A30B0021DF70	44.979	16.7091	""	""	Prijedor	""	30809717	2025-05-01T21:05:11	3	NO ERROR	18.75	80.7	1003.65	0.07	0.16	0.17
2178	363171	Vazduh	Libelium	0004A30B0021DF70	44.979	16.7091	""	""	Prijedor	""	30810220	2025-05-01T22:05:53	3	NO ERROR	16.54	100	1003.86	0.2	0.36	0.36
2179	363171	Vazduh	Libelium	0004A30B0021DF70	44.979	16.7091	""	""	Prijedor	""	30810640	2025-05-01T23:06:35	3	NO ERROR	15.08	100	1004.26	0.07	0.09	0.09
2180	363171	Vazduh	Libelium	0004A30B0021DF70	44.979	16.7091	""	""	Prijedor	""	30811128	2025-05-02T00:07:17	3	NO ERROR	13.82	100	1004.69	0.12	0.14	0.14
2181	363171	Vazduh	Libelium	0004A30B0021DF70	44.979	16.7091	""	""	Prijedor	""	30811526	2025-05-02T01:08:05	3	NO ERROR	12.72	100	1004.67	0.06	0.08	0.08
2182	363171	Vazduh	Libelium	0004A30B0021DF70	44.979	16.7091	""	""	Prijedor	""	30811919	2025-05-02T02:08:47	3	NO ERROR	11.68	100	1004.85	0.02	0.02	0.02
2183	363171	Vazduh	Libelium	0004A30B0021DF70	44.979	16.7091	""	""	Prijedor	""	30812336	2025-05-02T03:09:29	3	NO ERROR	10.81	100	1005.05	0.03	0.06	0.06
2184	363171	Vazduh	Libelium	0004A30B0021DF70	44.979	16.7091	""	""	Prijedor	""	30812671	2025-05-02T04:10:11	3	NO ERROR	10.75	100	1005.11	0	0	0
2185	363171	Vazduh	Libelium	0004A30B0021DF70	44.979	16.7091	""	""	Prijedor	""	30813017	2025-05-02T05:10:53	3	NO ERROR	9.6	100	1005.21	0.11	0.12	0.12
2186	363171	Vazduh	Libelium	0004A30B0021DF70	44.979	16.7091	""	""	Prijedor	""	30813459	2025-05-02T06:11:35	3	NO ERROR	10.31	100	1005.56	0.02	0.02	0.02
2187	363171	Vazduh	Libelium	0004A30B0021DF70	44.979	16.7091	""	""	Prijedor	""	30813808	2025-05-02T07:12:18	3	NO ERROR	11.95	100	1005.88	0.83	6.67	72.49
2188	363171	Vazduh	Libelium	0004A30B0021DF70	44.979	16.7091	""	""	Prijedor	""	30814196	2025-05-02T08:13:00	3	NO ERROR	19.79	79	1005.83	0.02	0.06	0.07
2189	363171	Vazduh	Libelium	0004A30B0021DF70	44.979	16.7091	""	""	Prijedor	""	30814586	2025-05-02T09:13:42	3	NO ERROR	23.65	63.2	1005.7	0.16	0.21	0.22
2190	363171	Vazduh	Libelium	0004A30B0021DF70	44.979	16.7091	""	""	Prijedor	""	30814901	2025-05-02T10:14:24	3	NO ERROR	21.87	66.4	1005.42	0.03	0.03	0.03
2191	363171	Vazduh	Libelium	0004A30B0021DF70	44.979	16.7091	""	""	Prijedor	""	30815226	2025-05-02T11:15:06	3	NO ERROR	24.48	54.4	1005.1	0.08	0.18	0.27
2192	363171	Vazduh	Libelium	0004A30B0021DF70	44.979	16.7091	""	""	Prijedor	""	30815603	2025-05-02T12:15:48	3	NO ERROR	25.65	53.5	1004.38	0.1	0.25	4
2193	363171	Vazduh	Libelium	0004A30B0021DF70	44.979	16.7091	""	""	Prijedor	""	30815970	2025-05-02T13:16:36	3	NO ERROR	27.26	39.2	1003.89	0.12	0.14	0.14
2194	363171	Vazduh	Libelium	0004A30B0021DF70	44.979	16.7091	""	""	Prijedor	""	30816437	2025-05-02T14:17:18	3	NO ERROR	30.45	32.9	1003.24	0.03	0.03	0.03
2195	363171	Vazduh	Libelium	0004A30B0021DF70	44.979	16.7091	""	""	Prijedor	""	30816930	2025-05-02T15:18:00	3	NO ERROR	30.17	31.6	1002.39	0.09	0.1	0.1
2196	363171	Vazduh	Libelium	0004A30B0021DF70	44.979	16.7091	""	""	Prijedor	""	30817395	2025-05-02T16:18:42	3	NO ERROR	33.95	29.2	1001.65	0.07	0.1	0.1
2197	363171	Vazduh	Libelium	0004A30B0021DF70	44.979	16.7091	""	""	Prijedor	""	30817812	2025-05-02T17:19:25	3	NO ERROR	33.43	26.5	1001.08	0.04	0.07	0.07
2198	363171	Vazduh	Libelium	0004A30B0021DF70	44.979	16.7091	""	""	Prijedor	""	30818243	2025-05-02T18:20:07	3	NO ERROR	27.78	32.3	1000.48	0.03	0.04	0.04
2199	363171	Vazduh	Libelium	0004A30B0021DF70	44.979	16.7091	""	""	Prijedor	""	30818651	2025-05-02T19:20:55	3	NO ERROR	26.14	34	1000.16	0.03	0.06	0.06
2200	363171	Vazduh	Libelium	0004A30B0021DF70	44.979	16.7091	""	""	Prijedor	""	30819056	2025-05-02T20:21:37	3	NO ERROR	21.79	54.9	1000.61	0.05	0.1	0.1
2201	363171	Vazduh	Libelium	0004A30B0021DF70	44.979	16.7091	""	""	Prijedor	""	30819520	2025-05-02T21:22:19	3	NO ERROR	18.81	78.7	1000.98	0.11	0.12	0.12
2202	363171	Vazduh	Libelium	0004A30B0021DF70	44.979	16.7091	""	""	Prijedor	""	30819977	2025-05-02T22:23:01	3	NO ERROR	16.43	93.9	1001.57	0.07	0.07	0.07
2203	363171	Vazduh	Libelium	0004A30B0021DF70	44.979	16.7091	""	""	Prijedor	""	30820392	2025-05-02T23:23:43	3	NO ERROR	15.99	100	1001.84	0.27	0.34	0.34
2204	363171	Vazduh	Libelium	0004A30B0021DF70	44.979	16.7091	""	""	Prijedor	""	30820778	2025-05-03T00:24:25	3	NO ERROR	14.41	100	1001.78	0.07	0.09	0.09
2205	363171	Vazduh	Libelium	0004A30B0021DF70	44.979	16.7091	""	""	Prijedor	""	30821107	2025-05-03T01:25:13	3	NO ERROR	13.13	100	1001.48	0.17	0.24	0.26
2206	363171	Vazduh	Libelium	0004A30B0021DF70	44.979	16.7091	""	""	Prijedor	""	30821413	2025-05-03T02:25:55	3	NO ERROR	12.47	100	1001.28	0.16	0.19	0.19
2207	363171	Vazduh	Libelium	0004A30B0021DF70	44.979	16.7091	""	""	Prijedor	""	30821770	2025-05-03T03:26:37	3	NO ERROR	11.7	100	1001.15	0.11	0.25	0.66
2208	363171	Vazduh	Libelium	0004A30B0021DF70	44.979	16.7091	""	""	Prijedor	""	30822089	2025-05-03T04:27:26	3	NO ERROR	10.19	100	1001.04	0.03	0.06	0.06
2209	363171	Vazduh	Libelium	0004A30B0021DF70	44.979	16.7091	""	""	Prijedor	""	30822441	2025-05-03T05:28:08	3	NO ERROR	9.96	100	1001.02	0.08	0.09	0.09
2210	363171	Vazduh	Libelium	0004A30B0021DF70	44.979	16.7091	""	""	Prijedor	""	30822852	2025-05-03T06:28:50	3	NO ERROR	11.85	100	1001.12	0.02	0.06	0.07
2211	363171	Vazduh	Libelium	0004A30B0021DF70	44.979	16.7091	""	""	Prijedor	""	30823230	2025-05-03T07:29:32	3	NO ERROR	14.82	100	1001.21	0.03	0.13	0.43
2212	363171	Vazduh	Libelium	0004A30B0021DF70	44.979	16.7091	""	""	Prijedor	""	30823592	2025-05-03T08:30:14	3	NO ERROR	21.62	63.2	1000.91	0.05	0.2	0.32
2213	363171	Vazduh	Libelium	0004A30B0021DF70	44.979	16.7091	""	""	Prijedor	""	30824093	2025-05-03T09:31:02	3	NO ERROR	24.12	55.3	1000.32	0.06	0.1	0.1
2214	363171	Vazduh	Libelium	0004A30B0021DF70	44.979	16.7091	""	""	Prijedor	""	30824570	2025-05-03T10:31:44	3	NO ERROR	24.37	53.1	1000	0.03	0.09	0.11
2215	363171	Vazduh	Libelium	0004A30B0021DF70	44.979	16.7091	""	""	Prijedor	""	30825104	2025-05-03T11:32:26	3	NO ERROR	26.26	48.2	999.58	0.03	0.12	0.2
2216	363171	Vazduh	Libelium	0004A30B0021DF70	44.979	16.7091	""	""	Prijedor	""	30826248	2025-05-03T13:33:50	3	NO ERROR	29.93	36.8	998.02	0.03	0.03	0.03
2217	363171	Vazduh	Libelium	0004A30B0021DF70	44.979	16.7091	""	""	Prijedor	""	30826879	2025-05-03T14:34:32	3	NO ERROR	33.16	30.8	996.88	0.17	0.31	0.32
2218	363171	Vazduh	Libelium	0004A30B0021DF70	44.979	16.7091	""	""	Prijedor	""	30827510	2025-05-03T15:35:14	3	NO ERROR	34.45	30.1	996.3	0	0	0
2219	363171	Vazduh	Libelium	0004A30B0021DF70	44.979	16.7091	""	""	Prijedor	""	30875827	2025-05-07T02:33:57	3	NO ERROR	10.98	100	999.23	0.11	0.15	0.16
2220	363171	Vazduh	Libelium	0004A30B0021DF70	44.979	16.7091	""	""	Prijedor	""	30876334	2025-05-07T03:34:39	3	NO ERROR	10.76	100	999.46	0.56	0.63	0.63
2221	363171	Vazduh	Libelium	0004A30B0021DF70	44.979	16.7091	""	""	Prijedor	""	30876795	2025-05-07T04:35:21	3	NO ERROR	10.65	100	999.64	0.54	0.65	0.66
2222	363171	Vazduh	Libelium	0004A30B0021DF70	44.979	16.7091	""	""	Prijedor	""	30877348	2025-05-07T05:36:03	3	NO ERROR	10.61	100	999.53	0.07	0.07	0.07
2223	363171	Vazduh	Libelium	0004A30B0021DF70	44.979	16.7091	""	""	Prijedor	""	30877907	2025-05-07T06:36:45	3	NO ERROR	11.02	100	999.66	0.07	0.07	0.07
2224	363171	Vazduh	Libelium	0004A30B0021DF70	44.979	16.7091	""	""	Prijedor	""	30878436	2025-05-07T07:37:40	3	NO ERROR	12.01	100	999.93	0.05	0.05	0.05
2225	363171	Vazduh	Libelium	0004A30B0021DF70	44.979	16.7091	""	""	Prijedor	""	30879002	2025-05-07T08:38:21	3	NO ERROR	13.51	100	1000.06	0.13	0.15	0.15
2226	363171	Vazduh	Libelium	0004A30B0021DF70	44.979	16.7091	""	""	Prijedor	""	30879549	2025-05-07T09:39:03	3	NO ERROR	13.88	100	1000.38	0	0	0
2227	363171	Vazduh	Libelium	0004A30B0021DF70	44.979	16.7091	""	""	Prijedor	""	30880009	2025-05-07T10:39:46	3	NO ERROR	16.91	100	1000.25	0.04	0.08	0.09
2228	363171	Vazduh	Libelium	0004A30B0021DF70	44.979	16.7091	""	""	Prijedor	""	30880577	2025-05-07T11:40:28	3	NO ERROR	18.78	76.6	1000.08	0	0	0
2229	363171	Vazduh	Libelium	0004A30B0021DF70	44.979	16.7091	""	""	Prijedor	""	30881110	2025-05-07T12:41:10	3	NO ERROR	18.69	77	999.78	0.07	0.09	0.09
2230	363171	Vazduh	Libelium	0004A30B0021DF70	44.979	16.7091	""	""	Prijedor	""	30881635	2025-05-07T13:41:52	3	NO ERROR	19.34	70.3	999.24	0.01	0.03	0.03
2231	363171	Vazduh	Libelium	0004A30B0021DF70	44.979	16.7091	""	""	Prijedor	""	30882195	2025-05-07T14:42:34	3	NO ERROR	17.69	82.1	998.75	0.13	0.15	0.15
2232	363171	Vazduh	Libelium	0004A30B0021DF70	44.979	16.7091	""	""	Prijedor	""	30882684	2025-05-07T15:43:16	3	NO ERROR	21.3	66.6	998.07	0.05	0.08	0.08
2233	363171	Vazduh	Libelium	0004A30B0021DF70	44.979	16.7091	""	""	Prijedor	""	30883175	2025-05-07T16:43:58	3	NO ERROR	20.05	64.1	997.95	0.05	0.08	0.08
2234	363171	Vazduh	Libelium	0004A30B0021DF70	44.979	16.7091	""	""	Prijedor	""	30883692	2025-05-07T17:44:40	3	NO ERROR	18.64	72.9	997.7	0.07	0.08	0.08
2235	363171	Vazduh	Libelium	0004A30B0021DF70	44.979	16.7091	""	""	Prijedor	""	30884208	2025-05-07T18:45:28	3	NO ERROR	17.82	76.9	997.5	0.02	0.02	0.02
2236	363171	Vazduh	Libelium	0004A30B0021DF70	44.979	16.7091	""	""	Prijedor	""	30884704	2025-05-07T19:46:10	3	NO ERROR	16.86	87	997.37	0.09	0.13	0.13
2237	363171	Vazduh	Libelium	0004A30B0021DF70	44.979	16.7091	""	""	Prijedor	""	30885203	2025-05-07T20:46:58	3	NO ERROR	16.15	95.1	997.49	0.03	0.03	0.03
2238	363171	Vazduh	Libelium	0004A30B0021DF70	44.979	16.7091	""	""	Prijedor	""	30885770	2025-05-07T21:47:40	3	NO ERROR	15.88	100	997.59	0.08	0.18	0.27
2239	363171	Vazduh	Libelium	0004A30B0021DF70	44.979	16.7091	""	""	Prijedor	""	30886292	2025-05-07T22:48:22	3	NO ERROR	15.54	100	996.99	0.04	0.09	0.09
2240	363171	Vazduh	Libelium	0004A30B0021DF70	44.979	16.7091	""	""	Prijedor	""	30886824	2025-05-07T23:49:05	3	NO ERROR	15.1	100	997.15	0.1	0.14	0.14
2241	363171	Vazduh	Libelium	0004A30B0021DF70	44.979	16.7091	""	""	Prijedor	""	30887332	2025-05-08T00:49:47	3	NO ERROR	14.13	100	996.55	0.07	0.09	0.09
2242	363171	Vazduh	Libelium	0004A30B0021DF70	44.979	16.7091	""	""	Prijedor	""	30887823	2025-05-08T01:50:41	3	NO ERROR	13.04	100	995.82	0.18	0.2	0.2
2243	363171	Vazduh	Libelium	0004A30B0021DF70	44.979	16.7091	""	""	Prijedor	""	30888304	2025-05-08T02:51:23	3	NO ERROR	12.87	100	994.92	0.31	0.38	0.38
2244	363171	Vazduh	Libelium	0004A30B0021DF70	44.979	16.7091	""	""	Prijedor	""	30888804	2025-05-08T03:52:05	3	NO ERROR	12.75	100	994.78	0.1	0.11	0.11
2245	363171	Vazduh	Libelium	0004A30B0021DF70	44.979	16.7091	""	""	Prijedor	""	30889300	2025-05-08T04:52:47	3	NO ERROR	12.3	100	994.05	0.26	0.41	0.54
2246	363171	Vazduh	Libelium	0004A30B0021DF70	44.979	16.7091	""	""	Prijedor	""	30889876	2025-05-08T05:53:29	3	NO ERROR	12.17	100	994	0.44	0.5	0.5
2247	363171	Vazduh	Libelium	0004A30B0021DF70	44.979	16.7091	""	""	Prijedor	""	30890378	2025-05-08T06:54:11	3	NO ERROR	12	100	994	0.2	0.22	0.22
2248	363171	Vazduh	Libelium	0004A30B0021DF70	44.979	16.7091	""	""	Prijedor	""	30890844	2025-05-08T07:54:53	3	NO ERROR	12.27	100	993.96	0.29	0.39	2.59
2249	363171	Vazduh	Libelium	0004A30B0021DF70	44.979	16.7091	""	""	Prijedor	""	30891338	2025-05-08T08:55:35	3	NO ERROR	13.1	100	994.17	0.02	0.02	0.02
2250	363171	Vazduh	Libelium	0004A30B0021DF70	44.979	16.7091	""	""	Prijedor	""	30891771	2025-05-08T09:56:17	3	NO ERROR	13.75	100	994.55	0.03	0.03	0.03
2251	363171	Vazduh	Libelium	0004A30B0021DF70	44.979	16.7091	""	""	Prijedor	""	30892188	2025-05-08T10:56:59	3	NO ERROR	13.31	100	995.47	0.03	0.03	0.03
2252	363171	Vazduh	Libelium	0004A30B0021DF70	44.979	16.7091	""	""	Prijedor	""	30892675	2025-05-08T11:57:54	3	NO ERROR	14.45	100	995.87	0.02	0.02	0.02
2253	363171	Vazduh	Libelium	0004A30B0021DF70	44.979	16.7091	""	""	Prijedor	""	30893156	2025-05-08T12:58:35	3	NO ERROR	14.88	100	996.19	0.02	0.02	0.02
2254	363171	Vazduh	Libelium	0004A30B0021DF70	44.979	16.7091	""	""	Prijedor	""	30893625	2025-05-08T13:59:18	3	NO ERROR	14.13	100	996.91	0.02	0.02	0.02
2255	363171	Vazduh	Libelium	0004A30B0021DF70	44.979	16.7091	""	""	Prijedor	""	30894092	2025-05-08T15:00:00	3	NO ERROR	15.25	100	997.28	0.02	0.02	0.02
2256	363171	Vazduh	Libelium	0004A30B0021DF70	44.979	16.7091	""	""	Prijedor	""	30894535	2025-05-08T16:00:42	3	NO ERROR	15.62	100	997.39	0	0	0
2257	363171	Vazduh	Libelium	0004A30B0021DF70	44.979	16.7091	""	""	Prijedor	""	30894981	2025-05-08T17:01:24	3	NO ERROR	14.81	100	997.63	0	0	0
2258	363171	Vazduh	Libelium	0004A30B0021DF70	44.979	16.7091	""	""	Prijedor	""	30895446	2025-05-08T18:02:06	3	NO ERROR	13.84	100	997.9	0	0	0
2259	363171	Vazduh	Libelium	0004A30B0021DF70	44.979	16.7091	""	""	Prijedor	""	30895869	2025-05-08T19:02:48	3	NO ERROR	12.84	100	998.42	0.02	0.02	0.02
2260	363171	Vazduh	Libelium	0004A30B0021DF70	44.979	16.7091	""	""	Prijedor	""	30896292	2025-05-08T20:03:30	3	NO ERROR	12.56	100	998.99	0	0	0
2261	363171	Vazduh	Libelium	0004A30B0021DF70	44.979	16.7091	""	""	Prijedor	""	30896794	2025-05-08T21:04:12	3	NO ERROR	12.46	100	999.77	0	0	0
2262	363171	Vazduh	Libelium	0004A30B0021DF70	44.979	16.7091	""	""	Prijedor	""	30897305	2025-05-08T22:04:54	3	NO ERROR	12.33	100	1000.23	0.03	0.06	0.06
2263	363171	Vazduh	Libelium	0004A30B0021DF70	44.979	16.7091	""	""	Prijedor	""	30897749	2025-05-08T23:05:36	3	NO ERROR	11.73	100	1000.64	0.09	0.1	0.1
2264	363171	Vazduh	Libelium	0004A30B0021DF70	44.979	16.7091	""	""	Prijedor	""	30898243	2025-05-09T00:06:18	3	NO ERROR	11.65	100	1000.79	0	0	0
2265	363171	Vazduh	Libelium	0004A30B0021DF70	44.979	16.7091	""	""	Prijedor	""	30898719	2025-05-09T01:07:00	3	NO ERROR	11.3	100	1000.53	0.11	0.12	0.12
2266	363171	Vazduh	Libelium	0004A30B0021DF70	44.979	16.7091	""	""	Prijedor	""	30899150	2025-05-09T02:07:42	3	NO ERROR	11.24	100	1000.3	0.05	0.05	0.05
2267	363171	Vazduh	Libelium	0004A30B0021DF70	44.979	16.7091	""	""	Prijedor	""	30899604	2025-05-09T03:08:24	3	NO ERROR	10.98	100	1000.06	0.06	0.07	0.07
2268	363171	Vazduh	Libelium	0004A30B0021DF70	44.979	16.7091	""	""	Prijedor	""	30900054	2025-05-09T04:09:07	3	NO ERROR	10.72	100	1000.11	0.03	0.03	0.03
2269	363171	Vazduh	Libelium	0004A30B0021DF70	44.979	16.7091	""	""	Prijedor	""	30937031	2025-05-12T02:58:48	3	NO ERROR	10.01	100	997.41	0.02	0.02	0.02
2270	363171	Vazduh	Libelium	0004A30B0021DF70	44.979	16.7091	""	""	Prijedor	""	30937500	2025-05-12T03:59:36	3	NO ERROR	9.21	100	997.36	0.02	0.02	0.02
2271	363171	Vazduh	Libelium	0004A30B0021DF70	44.979	16.7091	""	""	Prijedor	""	30937977	2025-05-12T05:00:18	3	NO ERROR	8.75	100	997.29	0.02	0.02	0.02
2272	363171	Vazduh	Libelium	0004A30B0021DF70	44.979	16.7091	""	""	Prijedor	""	30938527	2025-05-12T06:01:00	3	NO ERROR	8.42	100	997.35	0.02	0.02	0.02
2273	363171	Vazduh	Libelium	0004A30B0021DF70	44.979	16.7091	""	""	Prijedor	""	30939043	2025-05-12T07:01:42	3	NO ERROR	10.5	100	997.34	0.02	0.02	0.02
2274	363171	Vazduh	Libelium	0004A30B0021DF70	44.979	16.7091	""	""	Prijedor	""	30939558	2025-05-12T08:02:24	3	NO ERROR	11.71	100	997.38	0.25	0.47	2.27
2275	363171	Vazduh	Libelium	0004A30B0021DF70	44.979	16.7091	""	""	Prijedor	""	30940100	2025-05-12T09:03:06	3	NO ERROR	12.87	100	997.22	0.1	0.12	0.12
2276	363171	Vazduh	Libelium	0004A30B0021DF70	44.979	16.7091	""	""	Prijedor	""	30940589	2025-05-12T10:03:48	3	NO ERROR	16.62	92.4	997.18	0.02	0.02	0.02
2277	363171	Vazduh	Libelium	0004A30B0021DF70	44.979	16.7091	""	""	Prijedor	""	30941049	2025-05-12T11:04:37	3	NO ERROR	16.99	87	997.26	0	0	0
2278	363171	Vazduh	Libelium	0004A30B0021DF70	44.979	16.7091	""	""	Prijedor	""	30941567	2025-05-12T12:05:19	3	NO ERROR	18.14	72.3	997.27	0	0	0
2279	363171	Vazduh	Libelium	0004A30B0021DF70	44.979	16.7091	""	""	Prijedor	""	30942128	2025-05-12T13:06:01	3	NO ERROR	21.19	63.2	997.01	0	0	0
2280	363171	Vazduh	Libelium	0004A30B0021DF70	44.979	16.7091	""	""	Prijedor	""	30942745	2025-05-12T14:06:43	3	NO ERROR	21.26	65.3	996.95	0	0	0
2281	363171	Vazduh	Libelium	0004A30B0021DF70	44.979	16.7091	""	""	Prijedor	""	30943342	2025-05-12T15:07:25	3	NO ERROR	18.39	77.1	997.37	0.05	0.16	0.24
2282	363171	Vazduh	Libelium	0004A30B0021DF70	44.979	16.7091	""	""	Prijedor	""	30943921	2025-05-12T16:08:07	3	NO ERROR	18.53	75	997.77	0.01	0.03	0.04
2283	363171	Vazduh	Libelium	0004A30B0021DF70	44.979	16.7091	""	""	Prijedor	""	30944498	2025-05-12T17:08:49	3	NO ERROR	18.09	80.7	997.85	0.05	0.08	0.08
2284	363171	Vazduh	Libelium	0004A30B0021DF70	44.979	16.7091	""	""	Prijedor	""	30945056	2025-05-12T18:09:31	3	NO ERROR	16.17	80	998.28	0.03	0.03	0.03
2285	363171	Vazduh	Libelium	0004A30B0021DF70	44.979	16.7091	""	""	Prijedor	""	30945620	2025-05-12T19:10:13	3	NO ERROR	15.86	78.9	998.69	0	0.07	0.15
2286	363171	Vazduh	Libelium	0004A30B0021DF70	44.979	16.7091	""	""	Prijedor	""	30946171	2025-05-12T20:10:55	3	NO ERROR	14.43	83.6	999.2	0.06	0.07	0.07
2287	363171	Vazduh	Libelium	0004A30B0021DF70	44.979	16.7091	""	""	Prijedor	""	30946783	2025-05-12T21:11:43	3	NO ERROR	13.12	95.7	1000.11	0.02	0.02	0.02
2288	363171	Vazduh	Libelium	0004A30B0021DF70	44.979	16.7091	""	""	Prijedor	""	30947366	2025-05-12T22:12:26	3	NO ERROR	11.88	100	1000.5	0.03	0.03	0.03
2289	363171	Vazduh	Libelium	0004A30B0021DF70	44.979	16.7091	""	""	Prijedor	""	30947894	2025-05-12T23:13:08	3	NO ERROR	11.45	100	1000.81	0.05	0.09	0.09
2290	363171	Vazduh	Libelium	0004A30B0021DF70	44.979	16.7091	""	""	Prijedor	""	30948469	2025-05-13T00:13:50	3	NO ERROR	9.57	100	1000.8	0.03	0.03	0.03
2291	363171	Vazduh	Libelium	0004A30B0021DF70	44.979	16.7091	""	""	Prijedor	""	30948968	2025-05-13T01:14:32	3	NO ERROR	8.69	100	1000.7	0.03	0.03	0.03
2292	363171	Vazduh	Libelium	0004A30B0021DF70	44.979	16.7091	""	""	Prijedor	""	30949414	2025-05-13T02:15:14	3	NO ERROR	7.71	100	1000.72	0	0	0
2293	363171	Vazduh	Libelium	0004A30B0021DF70	44.979	16.7091	""	""	Prijedor	""	30949928	2025-05-13T03:15:57	3	NO ERROR	7.45	100	1000.99	0.08	0.11	0.11
2294	363171	Vazduh	Libelium	0004A30B0021DF70	44.979	16.7091	""	""	Prijedor	""	30962253	2025-05-14T02:32:42	3	NO ERROR	5.89	100	1002.77	0	0	0
2295	363171	Vazduh	Libelium	0004A30B0021DF70	44.979	16.7091	""	""	Prijedor	""	30962766	2025-05-14T03:33:24	3	NO ERROR	5.66	100	1003.11	0.13	0.27	0.3
2296	363171	Vazduh	Libelium	0004A30B0021DF70	44.979	16.7091	""	""	Prijedor	""	30963245	2025-05-14T04:34:06	3	NO ERROR	4.57	100	1003.22	0	0	0
2297	363171	Vazduh	Libelium	0004A30B0021DF70	44.979	16.7091	""	""	Prijedor	""	30963767	2025-05-14T05:34:55	3	NO ERROR	4.27	100	1003.44	0.02	0.02	0.02
2298	363171	Vazduh	Libelium	0004A30B0021DF70	44.979	16.7091	""	""	Prijedor	""	30964315	2025-05-14T06:35:37	3	NO ERROR	6.89	100	1003.58	0.14	0.15	0.15
2299	363171	Vazduh	Libelium	0004A30B0021DF70	44.979	16.7091	""	""	Prijedor	""	30964812	2025-05-14T07:36:19	3	NO ERROR	12.04	89.5	1003.46	0.07	0.09	0.09
2300	363171	Vazduh	Libelium	0004A30B0021DF70	44.979	16.7091	""	""	Prijedor	""	30965341	2025-05-14T08:37:01	3	NO ERROR	17.02	63.8	1003.45	0	0	0
2301	363171	Vazduh	Libelium	0004A30B0021DF70	44.979	16.7091	""	""	Prijedor	""	30965825	2025-05-14T09:37:43	3	NO ERROR	16.99	59.6	1003.02	0.02	0.02	0.02
2302	363171	Vazduh	Libelium	0004A30B0021DF70	44.979	16.7091	""	""	Prijedor	""	30966294	2025-05-14T10:38:25	3	NO ERROR	19.69	50	1002.6	0.19	0.29	0.3
2303	363171	Vazduh	Libelium	0004A30B0021DF70	44.979	16.7091	""	""	Prijedor	""	30966815	2025-05-14T11:39:07	3	NO ERROR	20.36	42.5	1002.18	0.1	0.17	0.18
2304	363171	Vazduh	Libelium	0004A30B0021DF70	44.979	16.7091	""	""	Prijedor	""	30967364	2025-05-14T12:39:49	3	NO ERROR	20.73	41.7	1001.6	0.04	0.06	0.06
2305	363171	Vazduh	Libelium	0004A30B0021DF70	44.979	16.7091	""	""	Prijedor	""	30967975	2025-05-14T13:40:31	3	NO ERROR	21.47	41	1000.98	0.01	0.03	0.04
2306	363171	Vazduh	Libelium	0004A30B0021DF70	44.979	16.7091	""	""	Prijedor	""	30968604	2025-05-14T14:41:19	3	NO ERROR	24.39	38.8	1000.45	0.02	0.02	0.02
2307	363171	Vazduh	Libelium	0004A30B0021DF70	44.979	16.7091	""	""	Prijedor	""	30969213	2025-05-14T15:42:01	3	NO ERROR	25.17	36.7	999.86	0	0	0
2308	363171	Vazduh	Libelium	0004A30B0021DF70	44.979	16.7091	""	""	Prijedor	""	30969793	2025-05-14T16:42:44	3	NO ERROR	27.24	32.8	999.38	0.02	0.02	0.02
2309	363171	Vazduh	Libelium	0004A30B0021DF70	44.979	16.7091	""	""	Prijedor	""	30970398	2025-05-14T17:43:26	3	NO ERROR	22.23	38.3	998.88	0.09	0.12	0.12
2310	363171	Vazduh	Libelium	0004A30B0021DF70	44.979	16.7091	""	""	Prijedor	""	30970944	2025-05-14T18:44:08	3	NO ERROR	21.04	38.3	998.35	0.02	0.02	0.02
2311	363171	Vazduh	Libelium	0004A30B0021DF70	44.979	16.7091	""	""	Prijedor	""	30971519	2025-05-14T19:44:50	3	NO ERROR	19.74	39.4	998.08	0.07	0.12	0.12
2312	363171	Vazduh	Libelium	0004A30B0021DF70	44.979	16.7091	""	""	Prijedor	""	30972090	2025-05-14T20:45:32	3	NO ERROR	16.75	58.1	998.05	0.23	0.29	0.29
2313	363171	Vazduh	Libelium	0004A30B0021DF70	44.979	16.7091	""	""	Prijedor	""	30972672	2025-05-14T21:46:14	3	NO ERROR	13.79	79.1	998.38	0.14	0.15	0.15
2314	363171	Vazduh	Libelium	0004A30B0021DF70	44.979	16.7091	""	""	Prijedor	""	30973182	2025-05-14T22:46:56	3	NO ERROR	11.9	95.2	998.42	0	0	0
2315	363171	Vazduh	Libelium	0004A30B0021DF70	44.979	16.7091	""	""	Prijedor	""	30973714	2025-05-14T23:47:44	3	NO ERROR	10.56	100	998.59	0.09	0.15	0.15
2316	363171	Vazduh	Libelium	0004A30B0021DF70	44.979	16.7091	""	""	Prijedor	""	30974224	2025-05-15T00:48:26	3	NO ERROR	8.84	100	998.41	0.03	0.03	0.03
2317	363171	Vazduh	Libelium	0004A30B0021DF70	44.979	16.7091	""	""	Prijedor	""	30974708	2025-05-15T01:49:08	3	NO ERROR	8.19	100	998.08	0.02	0.02	0.02
2318	363171	Vazduh	Libelium	0004A30B0021DF70	44.979	16.7091	""	""	Prijedor	""	30975207	2025-05-15T02:49:57	3	NO ERROR	7.33	100	997.83	0.05	0.05	0.05
2319	363171	Vazduh	Libelium	0004A30B0021DF70	44.979	16.7091	""	""	Prijedor	""	30975702	2025-05-15T03:50:39	3	NO ERROR	7.11	100	997.46	0.03	0.03	0.03
2320	363171	Vazduh	Libelium	0004A30B0021DF70	44.979	16.7091	""	""	Prijedor	""	30976199	2025-05-15T04:51:21	3	NO ERROR	6.24	100	996.88	0.05	0.05	0.05
2321	363171	Vazduh	Libelium	0004A30B0021DF70	44.979	16.7091	""	""	Prijedor	""	30976752	2025-05-15T05:52:03	3	NO ERROR	6.78	100	996.63	0.02	0.02	0.02
2322	363171	Vazduh	Libelium	0004A30B0021DF70	44.979	16.7091	""	""	Prijedor	""	30977311	2025-05-15T06:52:45	3	NO ERROR	11.54	98.2	996.25	0.06	0.19	0.27
2323	363171	Vazduh	Libelium	0004A30B0021DF70	44.979	16.7091	""	""	Prijedor	""	30987726	2025-05-16T02:06:29	3	NO ERROR	8.91	100	999.93	0.02	0.02	0.02
2324	363171	Vazduh	Libelium	0004A30B0021DF70	44.979	16.7091	""	""	Prijedor	""	30988242	2025-05-16T03:07:11	3	NO ERROR	8.64	100	999.57	0.02	0.02	0.02
2325	363171	Vazduh	Libelium	0004A30B0021DF70	44.979	16.7091	""	""	Prijedor	""	30988726	2025-05-16T04:07:53	3	NO ERROR	8.46	100	999.24	0.14	0.16	0.16
2326	363171	Vazduh	Libelium	0004A30B0021DF70	44.979	16.7091	""	""	Prijedor	""	30989207	2025-05-16T05:08:35	3	NO ERROR	7.27	100	999.04	0.09	0.1	0.1
2327	363171	Vazduh	Libelium	0004A30B0021DF70	44.979	16.7091	""	""	Prijedor	""	30989786	2025-05-16T06:09:18	3	NO ERROR	7.43	100	999.55	3.5	9.24	38.99
2328	363171	Vazduh	Libelium	0004A30B0021DF70	44.979	16.7091	""	""	Prijedor	""	30990292	2025-05-16T07:10:00	3	NO ERROR	10.85	100	999.53	0.05	0.08	0.08
2329	363171	Vazduh	Libelium	0004A30B0021DF70	44.979	16.7091	""	""	Prijedor	""	30990833	2025-05-16T08:10:42	3	NO ERROR	13.33	100	999.47	0.06	0.08	0.08
2330	363171	Vazduh	Libelium	0004A30B0021DF70	44.979	16.7091	""	""	Prijedor	""	30991359	2025-05-16T09:11:24	3	NO ERROR	15.93	70	999.01	0	0	0
2331	363171	Vazduh	Libelium	0004A30B0021DF70	44.979	16.7091	""	""	Prijedor	""	30991846	2025-05-16T10:12:06	3	NO ERROR	14.51	65.4	998.99	0	0	0
2332	363171	Vazduh	Libelium	0004A30B0021DF70	44.979	16.7091	""	""	Prijedor	""	30992344	2025-05-16T11:12:48	3	NO ERROR	16.03	52	998.97	0	0	0
2333	363171	Vazduh	Libelium	0004A30B0021DF70	44.979	16.7091	""	""	Prijedor	""	30992864	2025-05-16T12:13:36	3	NO ERROR	15.79	52.2	998.63	0.01	0.03	0.04
2334	363171	Vazduh	Libelium	0004A30B0021DF70	44.979	16.7091	""	""	Prijedor	""	30993409	2025-05-16T13:14:18	3	NO ERROR	16.16	49.4	998.06	0	0	0
2335	363171	Vazduh	Libelium	0004A30B0021DF70	44.979	16.7091	""	""	Prijedor	""	30993952	2025-05-16T14:15:00	3	NO ERROR	15.87	51.1	997.68	0	0	0
2336	363171	Vazduh	Libelium	0004A30B0021DF70	44.979	16.7091	""	""	Prijedor	""	30994483	2025-05-16T15:15:42	3	NO ERROR	15.38	52	997.53	0.07	0.14	0.15
2337	363171	Vazduh	Libelium	0004A30B0021DF70	44.979	16.7091	""	""	Prijedor	""	30995016	2025-05-16T16:16:24	3	NO ERROR	16.52	49.8	997.25	0.02	0.02	0.02
2338	363171	Vazduh	Libelium	0004A30B0021DF70	44.979	16.7091	""	""	Prijedor	""	30995520	2025-05-16T17:17:07	3	NO ERROR	16.12	48.3	997.13	0.11	0.12	0.12
2339	363171	Vazduh	Libelium	0004A30B0021DF70	44.979	16.7091	""	""	Prijedor	""	30996051	2025-05-16T18:17:49	3	NO ERROR	15.86	50.3	996.81	0.07	0.09	0.09
2340	363171	Vazduh	Libelium	0004A30B0021DF70	44.979	16.7091	""	""	Prijedor	""	30996573	2025-05-16T19:18:43	3	NO ERROR	13.93	56.1	996.93	0.03	0.03	0.03
2341	363171	Vazduh	Libelium	0004A30B0021DF70	44.979	16.7091	""	""	Prijedor	""	30997058	2025-05-16T20:19:25	3	NO ERROR	12	65.2	996.9	0.02	0.02	0.02
2342	363171	Vazduh	Libelium	0004A30B0021DF70	44.979	16.7091	""	""	Prijedor	""	30997621	2025-05-16T21:20:07	3	NO ERROR	9.73	86.4	997.5	0.02	0.02	0.02
2343	363171	Vazduh	Libelium	0004A30B0021DF70	44.979	16.7091	""	""	Prijedor	""	30998178	2025-05-16T22:20:49	3	NO ERROR	8.06	100	997.62	0	0	0
2344	363171	Vazduh	Libelium	0004A30B0021DF70	44.979	16.7091	""	""	Prijedor	""	30998705	2025-05-16T23:21:32	3	NO ERROR	6.68	100	997.87	0.05	0.08	0.08
2345	363171	Vazduh	Libelium	0004A30B0021DF70	44.979	16.7091	""	""	Prijedor	""	30999251	2025-05-17T00:22:14	3	NO ERROR	5.74	100	998.27	0.02	0.02	0.02
2346	363171	Vazduh	Libelium	0004A30B0021DF70	44.979	16.7091	""	""	Prijedor	""	30999753	2025-05-17T01:22:56	3	NO ERROR	5.59	100	998.35	0.15	0.19	0.19
2347	363171	Vazduh	Libelium	0004A30B0021DF70	44.979	16.7091	""	""	Prijedor	""	31000220	2025-05-17T02:23:38	3	NO ERROR	6.14	100	998.5	0	0.04	0.06
2348	363171	Vazduh	Libelium	0004A30B0021DF70	44.979	16.7091	""	""	Prijedor	""	31000746	2025-05-17T03:24:21	3	NO ERROR	6.67	100	998.54	0	0	0
2349	363171	Vazduh	Libelium	0004A30B0021DF70	44.979	16.7091	""	""	Prijedor	""	31001227	2025-05-17T04:25:09	3	NO ERROR	6.31	100	998.55	0	0	0
2350	363171	Vazduh	Libelium	0004A30B0021DF70	44.979	16.7091	""	""	Prijedor	""	31001751	2025-05-17T05:25:57	3	NO ERROR	5.97	100	998.91	0.09	0.1	0.1
2351	363171	Vazduh	Libelium	0004A30B0021DF70	44.979	16.7091	""	""	Prijedor	""	31002289	2025-05-17T06:26:39	3	NO ERROR	6.65	100	999.13	0	0	0
2352	363171	Vazduh	Libelium	0004A30B0021DF70	44.979	16.7091	""	""	Prijedor	""	31002850	2025-05-17T07:27:28	3	NO ERROR	10.41	100	999.39	0.02	0.02	0.02
2353	363171	Vazduh	Libelium	0004A30B0021DF70	44.979	16.7091	""	""	Prijedor	""	31003371	2025-05-17T08:28:10	3	NO ERROR	15.87	75.6	999.29	0	0.07	0.15
2354	363171	Vazduh	Libelium	0004A30B0021DF70	44.979	16.7091	""	""	Prijedor	""	31003916	2025-05-17T09:28:52	3	NO ERROR	16.32	65.1	999.37	0.02	0.02	0.02
2355	363171	Vazduh	Libelium	0004A30B0021DF70	44.979	16.7091	""	""	Prijedor	""	31004399	2025-05-17T10:29:34	3	NO ERROR	16.71	68.6	999.13	0.02	0.06	0.07
2356	363171	Vazduh	Libelium	0004A30B0021DF70	44.979	16.7091	""	""	Prijedor	""	31004961	2025-05-17T11:30:16	3	NO ERROR	18.18	50.9	999.03	0.14	0.16	0.16
2357	363171	Vazduh	Libelium	0004A30B0021DF70	44.979	16.7091	""	""	Prijedor	""	31005595	2025-05-17T12:30:58	3	NO ERROR	19.79	48	998.94	0.07	0.08	0.08
2358	363171	Vazduh	Libelium	0004A30B0021DF70	44.979	16.7091	""	""	Prijedor	""	31006224	2025-05-17T13:31:40	3	NO ERROR	20.07	45.6	998.61	0.02	0.02	0.02
2359	363171	Vazduh	Libelium	0004A30B0021DF70	44.979	16.7091	""	""	Prijedor	""	31006822	2025-05-17T14:32:22	3	NO ERROR	17.51	52.4	998.81	0.07	0.12	0.12
2360	363171	Vazduh	Libelium	0004A30B0021DF70	44.979	16.7091	""	""	Prijedor	""	31007443	2025-05-17T15:33:04	3	NO ERROR	17.37	70.1	998.43	0.02	0.02	0.02
2361	363171	Vazduh	Libelium	0004A30B0021DF70	44.979	16.7091	""	""	Prijedor	""	31008041	2025-05-17T16:33:46	3	NO ERROR	20.02	49.5	998.19	0	0	0
2362	363171	Vazduh	Libelium	0004A30B0021DF70	44.979	16.7091	""	""	Prijedor	""	31008625	2025-05-17T17:34:28	3	NO ERROR	16.68	66	998.12	0.03	0.06	0.06
2363	363171	Vazduh	Libelium	0004A30B0021DF70	44.979	16.7091	""	""	Prijedor	""	31009198	2025-05-17T18:35:11	3	NO ERROR	17.06	56.8	997.92	0.15	0.18	0.18
2364	363171	Vazduh	Libelium	0004A30B0021DF70	44.979	16.7091	""	""	Prijedor	""	31009781	2025-05-17T19:35:53	3	NO ERROR	16.31	57.8	998.07	0.04	0.05	0.05
2365	363171	Vazduh	Libelium	0004A30B0021DF70	44.979	16.7091	""	""	Prijedor	""	31010367	2025-05-17T20:36:35	3	NO ERROR	13.79	97.7	998.38	0	0	0
2366	363171	Vazduh	Libelium	0004A30B0021DF70	44.979	16.7091	""	""	Prijedor	""	31011020	2025-05-17T21:37:17	3	NO ERROR	11.37	100	999.07	0	0	0
2367	363171	Vazduh	Libelium	0004A30B0021DF70	44.979	16.7091	""	""	Prijedor	""	31011595	2025-05-17T22:37:59	3	NO ERROR	9.83	100	999.49	0	0	0
2368	363171	Vazduh	Libelium	0004A30B0021DF70	44.979	16.7091	""	""	Prijedor	""	31012130	2025-05-17T23:38:41	3	NO ERROR	8.85	100	999.8	0.02	0.02	0.02
2369	363171	Vazduh	Libelium	0004A30B0021DF70	44.979	16.7091	""	""	Prijedor	""	31012640	2025-05-18T00:39:23	3	NO ERROR	8.1	100	1000.06	0.06	0.07	0.07
2370	363171	Vazduh	Libelium	0004A30B0021DF70	44.979	16.7091	""	""	Prijedor	""	31013134	2025-05-18T01:40:05	3	NO ERROR	7.29	100	999.9	0	0	0
2371	363171	Vazduh	Libelium	0004A30B0021DF70	44.979	16.7091	""	""	Prijedor	""	31013611	2025-05-18T02:40:47	3	NO ERROR	6.54	100	999.72	0.05	0.08	0.08
2372	363171	Vazduh	Libelium	0004A30B0021DF70	44.979	16.7091	""	""	Prijedor	""	31014100	2025-05-18T03:41:42	3	NO ERROR	5.95	100	999.83	0.03	0.03	0.03
2373	363171	Vazduh	Libelium	0004A30B0021DF70	44.979	16.7091	""	""	Prijedor	""	31014583	2025-05-18T04:42:24	3	NO ERROR	6.57	100	999.83	0.1	0.14	0.15
2374	363171	Vazduh	Libelium	0004A30B0021DF70	44.979	16.7091	""	""	Prijedor	""	31015140	2025-05-18T05:43:06	3	NO ERROR	6.56	100	999.75	0	0	0
2375	363171	Vazduh	Libelium	0004A30B0021DF70	44.979	16.7091	""	""	Prijedor	""	31015729	2025-05-18T06:48:08	3	NO ERROR	7.85	100	1000.21	0.02	0.02	0.02
2376	363171	Vazduh	Libelium	0004A30B0021DF70	44.979	16.7091	""	""	Prijedor	""	31016320	2025-05-18T07:56:31	3	NO ERROR	9.91	100	1000.33	0.19	0.21	0.21
2377	363171	Vazduh	Libelium	0004A30B0021DF70	44.979	16.7091	""	""	Prijedor	""	31017008	2025-05-18T09:15:12	3	NO ERROR	16.62	92.8	1000.97	0	0	0
2378	363171	Vazduh	Libelium	0004A30B0021DF70	44.979	16.7091	""	""	Prijedor	""	31017530	2025-05-18T10:22:26	3	NO ERROR	15.72	96	1000.5	0.02	0.02	0.02
2379	363171	Vazduh	Libelium	0004A30B0021DF70	44.979	16.7091	""	""	Prijedor	""	31018058	2025-05-18T11:23:20	3	NO ERROR	20.27	68.5	1000.07	0	0	0
2380	363171	Vazduh	Libelium	0004A30B0021DF70	44.979	16.7091	""	""	Prijedor	""	31018603	2025-05-18T12:25:17	3	NO ERROR	21.08	61.8	999.69	0.02	0.02	0.02
2381	363171	Vazduh	Libelium	0004A30B0021DF70	44.979	16.7091	""	""	Prijedor	""	31019227	2025-05-18T13:27:53	3	NO ERROR	16.43	100	999.13	0.05	0.06	0.06
2382	363171	Vazduh	Libelium	0004A30B0021DF70	44.979	16.7091	""	""	Prijedor	""	31019816	2025-05-18T14:30:16	3	NO ERROR	22.17	53.6	999.36	0	0	0
2383	363171	Vazduh	Libelium	0004A30B0021DF70	44.979	16.7091	""	""	Prijedor	""	31020329	2025-05-18T15:32:13	3	NO ERROR	21.05	58.8	999.63	0.02	0.02	0.02
2384	363171	Vazduh	Libelium	0004A30B0021DF70	44.979	16.7091	""	""	Prijedor	""	31020871	2025-05-18T16:37:33	3	NO ERROR	20.5	63.9	999.62	0	0	0
2385	363171	Vazduh	Libelium	0004A30B0021DF70	44.979	16.7091	""	""	Prijedor	""	31021481	2025-05-18T17:46:23	3	NO ERROR	20.3	60.1	998.99	0.04	0.05	0.05
2386	363171	Vazduh	Libelium	0004A30B0021DF70	44.979	16.7091	""	""	Prijedor	""	31022034	2025-05-18T18:48:52	3	NO ERROR	20.36	52.6	999.07	0.08	0.08	0.08
2387	363171	Vazduh	Libelium	0004A30B0021DF70	44.979	16.7091	""	""	Prijedor	""	31022602	2025-05-18T19:49:58	3	NO ERROR	18.9	58.1	999.48	0.02	0.02	0.02
2388	363171	Vazduh	Libelium	0004A30B0021DF70	44.979	16.7091	""	""	Prijedor	""	31023265	2025-05-18T20:58:27	3	NO ERROR	16.67	63.5	1000.2	0.02	0.02	0.02
2389	363171	Vazduh	Libelium	0004A30B0021DF70	44.979	16.7091	""	""	Prijedor	""	31024101	2025-05-18T22:20:37	3	NO ERROR	13.46	100	1000.81	0.04	0.07	0.07
2390	363171	Vazduh	Libelium	0004A30B0021DF70	44.979	16.7091	""	""	Prijedor	""	31024675	2025-05-18T23:24:16	3	NO ERROR	11.69	100	1001.11	0	0	0
2391	363171	Vazduh	Libelium	0004A30B0021DF70	44.979	16.7091	""	""	Prijedor	""	31025460	2025-05-19T00:45:45	3	NO ERROR	11.77	100	1001.14	0.04	0.13	0.21
2392	363171	Vazduh	Libelium	0004A30B0021DF70	44.979	16.7091	""	""	Prijedor	""	31026035	2025-05-19T01:46:52	3	NO ERROR	11.53	100	1001.08	0.07	0.09	0.09
2393	363171	Vazduh	Libelium	0004A30B0021DF70	44.979	16.7091	""	""	Prijedor	""	31026613	2025-05-19T03:02:01	3	NO ERROR	12.09	100	1000.88	0.08	0.12	0.13
2394	363171	Vazduh	Libelium	0004A30B0021DF70	44.979	16.7091	""	""	Prijedor	""	31027103	2025-05-19T04:03:08	3	NO ERROR	11.5	100	1000.93	0.05	0.06	0.06
2395	363171	Vazduh	Libelium	0004A30B0021DF70	44.979	16.7091	""	""	Prijedor	""	31027713	2025-05-19T05:15:32	3	NO ERROR	11.27	100	1001.34	0.05	0.06	0.06
2396	363171	Vazduh	Libelium	0004A30B0021DF70	44.979	16.7091	""	""	Prijedor	""	31028351	2025-05-19T06:23:36	3	NO ERROR	11.54	100	1001.92	0.02	0.02	0.02
2397	363171	Vazduh	Libelium	0004A30B0021DF70	44.979	16.7091	""	""	Prijedor	""	31028959	2025-05-19T07:31:54	3	NO ERROR	12.34	100	1001.98	0.07	0.09	0.09
2398	363171	Vazduh	Libelium	0004A30B0021DF70	44.979	16.7091	""	""	Prijedor	""	31029536	2025-05-19T08:37:20	3	NO ERROR	13.92	100	1001.8	0.03	0.03	0.03
2399	363171	Vazduh	Libelium	0004A30B0021DF70	44.979	16.7091	""	""	Prijedor	""	31030343	2025-05-19T10:17:47	3	NO ERROR	22.13	68.9	1001.46	0.08	0.09	0.09
2400	363171	Vazduh	Libelium	0004A30B0021DF70	44.979	16.7091	""	""	Prijedor	""	31033483	2025-05-19T15:53:59	3	NO ERROR	25.91	59.6	999.62	0	0.07	0.15
2401	363171	Vazduh	Libelium	0004A30B0021DF70	44.979	16.7091	""	""	Prijedor	""	31034042	2025-05-19T16:54:40	3	NO ERROR	28.51	50.5	999.09	0.07	0.11	0.11
2402	363171	Vazduh	Libelium	0004A30B0021DF70	44.979	16.7091	""	""	Prijedor	""	31034640	2025-05-19T17:55:22	3	NO ERROR	23.76	63.9	999.31	0.12	0.14	0.14
2403	363171	Vazduh	Libelium	0004A30B0021DF70	44.979	16.7091	""	""	Prijedor	""	31035158	2025-05-19T18:56:11	3	NO ERROR	21.33	70.6	999.73	0.02	0.02	0.02
2404	363171	Vazduh	Libelium	0004A30B0021DF70	44.979	16.7091	""	""	Prijedor	""	31035721	2025-05-19T19:56:53	3	NO ERROR	20.16	71.4	999.85	0.03	0.05	0.05
2405	363171	Vazduh	Libelium	0004A30B0021DF70	44.979	16.7091	""	""	Prijedor	""	31036297	2025-05-19T20:57:35	3	NO ERROR	17.35	98.8	1000.59	0.13	0.17	0.17
2406	363171	Vazduh	Libelium	0004A30B0021DF70	44.979	16.7091	""	""	Prijedor	""	31036887	2025-05-19T21:58:23	3	NO ERROR	16.2	100	1001.69	0.17	0.29	0.29
2407	363171	Vazduh	Libelium	0004A30B0021DF70	44.979	16.7091	""	""	Prijedor	""	31037477	2025-05-19T22:59:05	3	NO ERROR	14.93	100	1002.45	0.14	0.19	0.19
2408	363171	Vazduh	Libelium	0004A30B0021DF70	44.979	16.7091	""	""	Prijedor	""	31038054	2025-05-19T23:59:47	3	NO ERROR	13.94	100	1002.88	0.06	0.07	0.07
2409	363171	Vazduh	Libelium	0004A30B0021DF70	44.979	16.7091	""	""	Prijedor	""	31038590	2025-05-20T01:00:29	3	NO ERROR	13.69	100	1002.91	0.23	0.25	0.25
2410	363171	Vazduh	Libelium	0004A30B0021DF70	44.979	16.7091	""	""	Prijedor	""	31039174	2025-05-20T02:01:11	3	NO ERROR	12.76	100	1002.91	0.11	0.11	0.11
2411	363171	Vazduh	Libelium	0004A30B0021DF70	44.979	16.7091	""	""	Prijedor	""	31039740	2025-05-20T03:01:59	3	NO ERROR	11.67	100	1003.07	0.33	0.45	0.46
2412	363171	Vazduh	Libelium	0004A30B0021DF70	44.979	16.7091	""	""	Prijedor	""	31040309	2025-05-20T04:02:41	3	NO ERROR	11.52	100	1003.05	0.03	0.06	0.06
2413	363171	Vazduh	Libelium	0004A30B0021DF70	44.979	16.7091	""	""	Prijedor	""	31040798	2025-05-20T05:03:30	3	NO ERROR	10.47	100	1002.95	0.39	0.79	5.85
2414	363171	Vazduh	Libelium	0004A30B0021DF70	44.979	16.7091	""	""	Prijedor	""	31041376	2025-05-20T06:04:12	3	NO ERROR	11.48	100	1003.23	0.66	2.53	20.55
2415	363171	Vazduh	Libelium	0004A30B0021DF70	44.979	16.7091	""	""	Prijedor	""	31041893	2025-05-20T07:04:54	3	NO ERROR	12.18	100	1003.43	0.24	1.63	29.02
2416	363171	Vazduh	Libelium	0004A30B0021DF70	44.979	16.7091	""	""	Prijedor	""	31042402	2025-05-20T08:05:42	3	NO ERROR	17.44	100	1003.61	0.02	0.02	0.02
2417	363171	Vazduh	Libelium	0004A30B0021DF70	44.979	16.7091	""	""	Prijedor	""	31042965	2025-05-20T09:06:24	3	NO ERROR	21.49	78.2	1003.42	0.08	0.1	0.1
2418	363171	Vazduh	Libelium	0004A30B0021DF70	44.979	16.7091	""	""	Prijedor	""	31043462	2025-05-20T10:07:06	3	NO ERROR	23.16	68.3	1003.02	0.03	0.12	0.2
2419	363171	Vazduh	Libelium	0004A30B0021DF70	44.979	16.7091	""	""	Prijedor	""	31043982	2025-05-20T11:07:48	3	NO ERROR	22.94	68	1002.47	0.09	0.11	0.11
2420	363171	Vazduh	Libelium	0004A30B0021DF70	44.979	16.7091	""	""	Prijedor	""	31044619	2025-05-20T12:08:31	3	NO ERROR	25.08	58.5	1001.65	0.1	0.14	0.14
2421	363171	Vazduh	Libelium	0004A30B0021DF70	44.979	16.7091	""	""	Prijedor	""	31045211	2025-05-20T13:09:13	3	NO ERROR	25.38	59.9	1001.14	0	0	0
2422	363171	Vazduh	Libelium	0004A30B0021DF70	44.979	16.7091	""	""	Prijedor	""	31045820	2025-05-20T14:09:55	3	NO ERROR	26.2	57	1000.35	0.1	0.16	0.18
2423	363171	Vazduh	Libelium	0004A30B0021DF70	44.979	16.7091	""	""	Prijedor	""	31046425	2025-05-20T15:10:37	3	NO ERROR	29.4	45.8	999.73	0.14	0.17	0.17
2424	363171	Vazduh	Libelium	0004A30B0021DF70	44.979	16.7091	""	""	Prijedor	""	31047045	2025-05-20T16:11:19	3	NO ERROR	23.63	83.5	999.54	0.09	0.23	0.72
2425	363171	Vazduh	Libelium	0004A30B0021DF70	44.979	16.7091	""	""	Prijedor	""	31047645	2025-05-20T17:12:01	3	NO ERROR	19.21	100	999.48	0.1	0.13	0.13
2426	363171	Vazduh	Libelium	0004A30B0021DF70	44.979	16.7091	""	""	Prijedor	""	31048217	2025-05-20T18:12:43	3	NO ERROR	20.71	100	999.27	0.07	0.08	0.08
2427	363171	Vazduh	Libelium	0004A30B0021DF70	44.979	16.7091	""	""	Prijedor	""	31048786	2025-05-20T19:13:25	3	NO ERROR	20.54	100	999.27	0.3	0.33	0.33
2428	363171	Vazduh	Libelium	0004A30B0021DF70	44.979	16.7091	""	""	Prijedor	""	31049380	2025-05-20T20:14:07	3	NO ERROR	19.63	100	999.15	0.07	0.13	0.13
2429	363171	Vazduh	Libelium	0004A30B0021DF70	44.979	16.7091	""	""	Prijedor	""	31049965	2025-05-20T21:14:49	3	NO ERROR	18.81	100	999.27	0.07	0.07	0.07
2430	363171	Vazduh	Libelium	0004A30B0021DF70	44.979	16.7091	""	""	Prijedor	""	31051101	2025-05-20T23:16:25	3	NO ERROR	17.95	100	999.23	0.07	0.08	0.08
2431	363171	Vazduh	Libelium	0004A30B0021DF70	44.979	16.7091	""	""	Prijedor	""	31051716	2025-05-21T00:17:07	3	NO ERROR	17.55	100	999.5	0	0	0
2432	363171	Vazduh	Libelium	0004A30B0021DF70	44.979	16.7091	""	""	Prijedor	""	31052278	2025-05-21T01:17:49	3	NO ERROR	16.46	100	999.93	0.03	0.06	0.06
2433	363171	Vazduh	Libelium	0004A30B0021DF70	44.979	16.7091	""	""	Prijedor	""	31052817	2025-05-21T02:18:32	3	NO ERROR	16.06	100	999.21	0.4	0.5	0.5
2434	363171	Vazduh	Libelium	0004A30B0021DF70	44.979	16.7091	""	""	Prijedor	""	31053390	2025-05-21T03:19:14	3	NO ERROR	15.53	100	998.85	0.14	0.18	0.18
2435	363171	Vazduh	Libelium	0004A30B0021DF70	44.979	16.7091	""	""	Prijedor	""	31053926	2025-05-21T04:19:56	3	NO ERROR	15.75	100	998.35	0	0	0
2436	363171	Vazduh	Libelium	0004A30B0021DF70	44.979	16.7091	""	""	Prijedor	""	31054491	2025-05-21T05:20:38	3	NO ERROR	15.49	100	998.02	0.19	0.26	0.27
2437	363171	Vazduh	Libelium	0004A30B0021DF70	44.979	16.7091	""	""	Prijedor	""	31055165	2025-05-21T06:21:20	3	NO ERROR	15.35	100	997.63	0.07	0.07	0.07
2438	363171	Vazduh	Libelium	0004A30B0021DF70	44.979	16.7091	""	""	Prijedor	""	31055756	2025-05-21T07:22:02	3	NO ERROR	15.75	100	998.01	0.12	0.15	0.15
2439	363171	Vazduh	Libelium	0004A30B0021DF70	44.979	16.7091	""	""	Prijedor	""	31056332	2025-05-21T08:22:50	3	NO ERROR	16.43	100	997.86	0.03	0.03	0.03
2440	363171	Vazduh	Libelium	0004A30B0021DF70	44.979	16.7091	""	""	Prijedor	""	31056946	2025-05-21T09:23:32	3	NO ERROR	18.19	100	997.73	0.05	0.12	0.2
2441	363171	Vazduh	Libelium	0004A30B0021DF70	44.979	16.7091	""	""	Prijedor	""	31057463	2025-05-21T10:24:21	3	NO ERROR	18.96	100	997.92	0	0	0
2442	363171	Vazduh	Libelium	0004A30B0021DF70	44.979	16.7091	""	""	Prijedor	""	31059231	2025-05-21T13:26:27	3	NO ERROR	20.44	100	997.2	0	0	0
2443	363171	Vazduh	Libelium	0004A30B0021DF70	44.979	16.7091	""	""	Prijedor	""	31059828	2025-05-21T14:27:09	3	NO ERROR	21.29	100	996.61	0.03	0.05	0.05
2444	363171	Vazduh	Libelium	0004A30B0021DF70	44.979	16.7091	""	""	Prijedor	""	31060455	2025-05-21T15:27:51	3	NO ERROR	21.41	87.8	996.19	0.08	0.1	0.1
2445	363171	Vazduh	Libelium	0004A30B0021DF70	44.979	16.7091	""	""	Prijedor	""	31061039	2025-05-21T16:28:33	3	NO ERROR	22.07	88	995.15	0	0	0
2446	363171	Vazduh	Libelium	0004A30B0021DF70	44.979	16.7091	""	""	Prijedor	""	31061609	2025-05-21T17:29:15	3	NO ERROR	22.75	79.4	994.7	0.09	0.12	0.12
2447	363171	Vazduh	Libelium	0004A30B0021DF70	44.979	16.7091	""	""	Prijedor	""	31062184	2025-05-21T18:30:03	3	NO ERROR	20.69	97.3	994.41	0.02	0.02	0.02
2448	363171	Vazduh	Libelium	0004A30B0021DF70	44.979	16.7091	""	""	Prijedor	""	31062735	2025-05-21T19:30:45	3	NO ERROR	19.67	100	994.51	0.1	0.15	0.15
2449	363171	Vazduh	Libelium	0004A30B0021DF70	44.979	16.7091	""	""	Prijedor	""	31066279	2025-05-22T01:35:10	3	NO ERROR	13.86	100	994.99	0.19	0.27	0.28
2450	363171	Vazduh	Libelium	0004A30B0021DF70	44.979	16.7091	""	""	Prijedor	""	31066822	2025-05-22T02:35:52	3	NO ERROR	13.92	100	994.77	0.68	2.81	12.4
2451	363171	Vazduh	Libelium	0004A30B0021DF70	44.979	16.7091	""	""	Prijedor	""	31067399	2025-05-22T03:36:34	3	NO ERROR	14.25	100	994.48	0.21	0.66	2.01
2452	363171	Vazduh	Libelium	0004A30B0021DF70	44.979	16.7091	""	""	Prijedor	""	31067974	2025-05-22T04:37:16	3	NO ERROR	14.09	100	994.34	0.91	4.06	67.32
2453	363171	Vazduh	Libelium	0004A30B0021DF70	44.979	16.7091	""	""	Prijedor	""	31068576	2025-05-22T05:37:58	3	NO ERROR	13.94	100	994.48	0.52	0.68	0.69
2454	363171	Vazduh	Libelium	0004A30B0021DF70	44.979	16.7091	""	""	Prijedor	""	31069166	2025-05-22T06:38:40	3	NO ERROR	13.96	100	994.68	0.02	0.02	0.02
2455	363171	Vazduh	Libelium	0004A30B0021DF70	44.979	16.7091	""	""	Prijedor	""	31069677	2025-05-22T07:39:29	3	NO ERROR	14.78	100	994.86	0.03	0.03	0.03
2456	363171	Vazduh	Libelium	0004A30B0021DF70	44.979	16.7091	""	""	Prijedor	""	31070212	2025-05-22T08:40:11	3	NO ERROR	16.06	100	995.02	0	0.08	1.09
2457	363171	Vazduh	Libelium	0004A30B0021DF70	44.979	16.7091	""	""	Prijedor	""	31070729	2025-05-22T09:40:53	3	NO ERROR	22.2	99.5	994.58	0.08	0.11	0.11
2458	363171	Vazduh	Libelium	0004A30B0021DF70	44.979	16.7091	""	""	Prijedor	""	31071178	2025-05-22T10:41:35	3	NO ERROR	23.53	83.1	994.5	0.08	0.15	0.15
2459	363171	Vazduh	Libelium	0004A30B0021DF70	44.979	16.7091	""	""	Prijedor	""	31071702	2025-05-22T11:42:29	3	NO ERROR	24.52	63	994.07	0.03	0.05	0.05
2460	363171	Vazduh	Libelium	0004A30B0021DF70	44.979	16.7091	""	""	Prijedor	""	31072239	2025-05-22T12:43:11	3	NO ERROR	26.43	59.8	993.63	0.03	0.04	0.04
2461	363171	Vazduh	Libelium	0004A30B0021DF70	44.979	16.7091	""	""	Prijedor	""	31072803	2025-05-22T13:43:59	3	NO ERROR	25.24	63.1	993.02	0.02	0.02	0.02
2462	363171	Vazduh	Libelium	0004A30B0021DF70	44.979	16.7091	""	""	Prijedor	""	31073452	2025-05-22T14:44:41	3	NO ERROR	27.55	58.4	992.28	0.07	0.09	0.1
2463	363171	Vazduh	Libelium	0004A30B0021DF70	44.979	16.7091	""	""	Prijedor	""	31074065	2025-05-22T15:45:23	3	NO ERROR	26.32	54.8	991.68	0.1	0.13	0.13
2464	363171	Vazduh	Libelium	0004A30B0021DF70	44.979	16.7091	""	""	Prijedor	""	31074649	2025-05-22T16:46:05	3	NO ERROR	27.98	48.1	991.57	0.02	0.02	0.02
2465	363171	Vazduh	Libelium	0004A30B0021DF70	44.979	16.7091	""	""	Prijedor	""	31075214	2025-05-22T17:46:47	3	NO ERROR	26.14	51.7	991.64	0.1	0.15	0.15
2466	363171	Vazduh	Libelium	0004A30B0021DF70	44.979	16.7091	""	""	Prijedor	""	31075793	2025-05-22T18:47:30	3	NO ERROR	24.42	56.3	991.74	0.05	0.1	0.11
2467	363171	Vazduh	Libelium	0004A30B0021DF70	44.979	16.7091	""	""	Prijedor	""	31076362	2025-05-22T19:48:12	3	NO ERROR	22.41	67.3	991.93	0.07	0.1	0.11
2468	363171	Vazduh	Libelium	0004A30B0021DF70	44.979	16.7091	""	""	Prijedor	""	31076947	2025-05-22T20:48:54	3	NO ERROR	21.09	73.8	992.33	0.02	0.02	0.02
2469	363171	Vazduh	Libelium	0004A30B0021DF70	44.979	16.7091	""	""	Prijedor	""	31077558	2025-05-22T21:49:36	3	NO ERROR	19.09	92.6	992.81	0.2	0.21	0.21
2470	363171	Vazduh	Libelium	0004A30B0021DF70	44.979	16.7091	""	""	Prijedor	""	31078152	2025-05-22T22:50:18	3	NO ERROR	17.87	100	992.9	0.16	0.34	0.44
2471	363171	Vazduh	Libelium	0004A30B0021DF70	44.979	16.7091	""	""	Prijedor	""	31078753	2025-05-22T23:51:06	3	NO ERROR	17.24	100	992.98	0.05	0.08	0.08
2472	363171	Vazduh	Libelium	0004A30B0021DF70	44.979	16.7091	""	""	Prijedor	""	31079345	2025-05-23T00:51:48	3	NO ERROR	16.61	100	993.03	0.23	0.34	0.34
2473	363171	Vazduh	Libelium	0004A30B0021DF70	44.979	16.7091	""	""	Prijedor	""	31079913	2025-05-23T01:52:30	3	NO ERROR	16.19	100	993.31	0.17	0.25	0.26
2474	363171	Vazduh	Libelium	0004A30B0021DF70	44.979	16.7091	""	""	Prijedor	""	31080471	2025-05-23T02:53:12	3	NO ERROR	14.54	100	993.39	0.02	0.02	0.02
2475	363171	Vazduh	Libelium	0004A30B0021DF70	44.979	16.7091	""	""	Prijedor	""	31081048	2025-05-23T03:53:54	3	NO ERROR	13.69	100	993.57	0	0	0
2476	363171	Vazduh	Libelium	0004A30B0021DF70	44.979	16.7091	""	""	Prijedor	""	31081643	2025-05-23T04:54:36	3	NO ERROR	13.15	100	993.26	0.08	0.13	0.13
2477	363171	Vazduh	Libelium	0004A30B0021DF70	44.979	16.7091	""	""	Prijedor	""	31082312	2025-05-23T05:55:19	3	NO ERROR	13.07	100	994.16	0.02	0.02	0.02
2478	363171	Vazduh	Libelium	0004A30B0021DF70	44.979	16.7091	""	""	Prijedor	""	31082969	2025-05-23T06:56:07	3	NO ERROR	11.69	100	995.16	0.05	0.05	0.05
2479	363171	Vazduh	Libelium	0004A30B0021DF70	44.979	16.7091	""	""	Prijedor	""	31083625	2025-05-23T07:56:49	3	NO ERROR	10.81	100	996.63	0.19	0.35	0.45
2480	363171	Vazduh	Libelium	0004A30B0021DF70	44.979	16.7091	""	""	Prijedor	""	31084235	2025-05-23T08:57:31	3	NO ERROR	10.2	100	996.5	0.07	0.09	0.09
2481	363171	Vazduh	Libelium	0004A30B0021DF70	44.979	16.7091	""	""	Prijedor	""	31084780	2025-05-23T09:58:13	3	NO ERROR	9.89	100	997.18	0.28	0.38	0.38
2482	363171	Vazduh	Libelium	0004A30B0021DF70	44.979	16.7091	""	""	Prijedor	""	31085317	2025-05-23T10:58:56	3	NO ERROR	9.67	100	997.68	0.09	0.1	0.1
2483	363171	Vazduh	Libelium	0004A30B0021DF70	44.979	16.7091	""	""	Prijedor	""	31085916	2025-05-23T11:59:38	3	NO ERROR	9.54	100	998.54	0.29	0.34	0.34
2484	363171	Vazduh	Libelium	0004A30B0021DF70	44.979	16.7091	""	""	Prijedor	""	31086476	2025-05-23T13:00:20	3	NO ERROR	9.45	100	999.12	0.51	0.58	0.58
2485	363171	Vazduh	Libelium	0004A30B0021DF70	44.979	16.7091	""	""	Prijedor	""	31087020	2025-05-23T14:01:02	3	NO ERROR	9.71	100	999.65	0.44	0.56	0.56
2486	363171	Vazduh	Libelium	0004A30B0021DF70	44.979	16.7091	""	""	Prijedor	""	31087568	2025-05-23T15:01:44	3	NO ERROR	9.55	100	999.68	0.1	0.1	0.1
2487	363171	Vazduh	Libelium	0004A30B0021DF70	44.979	16.7091	""	""	Prijedor	""	31088078	2025-05-23T16:02:26	3	NO ERROR	10.15	100	999.93	0.08	0.09	0.09
2488	363171	Vazduh	Libelium	0004A30B0021DF70	44.979	16.7091	""	""	Prijedor	""	31088571	2025-05-23T17:03:08	3	NO ERROR	10.69	100	1000.21	0.09	0.1	0.1
2489	363171	Vazduh	Libelium	0004A30B0021DF70	44.979	16.7091	""	""	Prijedor	""	31090008	2025-05-23T20:05:15	3	NO ERROR	10.16	100	1001.77	0.06	0.08	0.08
2490	363171	Vazduh	Libelium	0004A30B0021DF70	44.979	16.7091	""	""	Prijedor	""	31090539	2025-05-23T21:05:57	3	NO ERROR	9.02	100	1002.37	0	0.04	0.06
2491	363171	Vazduh	Libelium	0004A30B0021DF70	44.979	16.7091	""	""	Prijedor	""	31091061	2025-05-23T22:06:39	3	NO ERROR	8.97	100	1002.5	0.17	0.22	0.22
2492	363171	Vazduh	Libelium	0004A30B0021DF70	44.979	16.7091	""	""	Prijedor	""	31091567	2025-05-23T23:07:21	3	NO ERROR	8.22	100	1002.92	0.05	0.08	0.08
2493	363171	Vazduh	Libelium	0004A30B0021DF70	44.979	16.7091	""	""	Prijedor	""	31092111	2025-05-24T00:08:03	3	NO ERROR	8.05	100	1002.91	0.13	0.18	0.19
2494	363171	Vazduh	Libelium	0004A30B0021DF70	44.979	16.7091	""	""	Prijedor	""	31092603	2025-05-24T01:08:45	3	NO ERROR	7.54	100	1002.87	0.11	0.14	0.14
2495	363171	Vazduh	Libelium	0004A30B0021DF70	44.979	16.7091	""	""	Prijedor	""	31093053	2025-05-24T02:09:27	3	NO ERROR	5.74	100	1003.03	0.23	0.47	5.27
2496	363171	Vazduh	Libelium	0004A30B0021DF70	44.979	16.7091	""	""	Prijedor	""	31093569	2025-05-24T03:10:10	3	NO ERROR	4.89	100	1003	1.46	4.76	31.35
2497	363171	Vazduh	Libelium	0004A30B0021DF70	44.979	16.7091	""	""	Prijedor	""	31119857	2025-05-26T02:43:59	3	NO ERROR	9.37	100	1000.2	0.08	0.12	0.12
2498	363171	Vazduh	Libelium	0004A30B0021DF70	44.979	16.7091	""	""	Prijedor	""	31120359	2025-05-26T03:44:41	3	NO ERROR	8.93	100	1000.39	0	0	0
2499	363171	Vazduh	Libelium	0004A30B0021DF70	44.979	16.7091	""	""	Prijedor	""	31120864	2025-05-26T04:45:24	3	NO ERROR	9.38	100	1000.54	0.02	0.02	0.02
2500	363171	Vazduh	Libelium	0004A30B0021DF70	44.979	16.7091	""	""	Prijedor	""	31121453	2025-05-26T05:46:06	3	NO ERROR	9.61	100	1000.63	0.01	0.03	0.03
2501	363171	Vazduh	Libelium	0004A30B0021DF70	44.979	16.7091	""	""	Prijedor	""	31121981	2025-05-26T06:46:48	3	NO ERROR	12.95	100	1001.03	0.05	0.05	0.05
2502	363171	Vazduh	Libelium	0004A30B0021DF70	44.979	16.7091	""	""	Prijedor	""	31122526	2025-05-26T07:47:30	3	NO ERROR	16.64	71.1	1000.94	0.03	0.03	0.03
2503	363171	Vazduh	Libelium	0004A30B0021DF70	44.979	16.7091	""	""	Prijedor	""	31123079	2025-05-26T08:48:12	3	NO ERROR	19.34	62	1000.72	0.03	0.06	0.06
2504	363171	Vazduh	Libelium	0004A30B0021DF70	44.979	16.7091	""	""	Prijedor	""	31123595	2025-05-26T09:48:54	3	NO ERROR	20.6	55.8	1000.85	0.07	0.08	0.08
2505	363171	Vazduh	Libelium	0004A30B0021DF70	44.979	16.7091	""	""	Prijedor	""	31124073	2025-05-26T10:49:36	3	NO ERROR	23.34	48.8	1000.58	0.15	0.23	0.23
2506	363171	Vazduh	Libelium	0004A30B0021DF70	44.979	16.7091	""	""	Prijedor	""	31124670	2025-05-26T11:50:18	3	NO ERROR	24.17	50.5	1000.39	0	0	0
2507	363171	Vazduh	Libelium	0004A30B0021DF70	44.979	16.7091	""	""	Prijedor	""	31125266	2025-05-26T12:51:00	3	NO ERROR	25.2	46.4	1000.05	0.06	0.06	0.06
2508	363171	Vazduh	Libelium	0004A30B0021DF70	44.979	16.7091	""	""	Prijedor	""	31125890	2025-05-26T13:51:42	3	NO ERROR	26.67	44.8	999.66	0.11	0.22	0.63
2509	363171	Vazduh	Libelium	0004A30B0021DF70	44.979	16.7091	""	""	Prijedor	""	31126545	2025-05-26T14:52:25	3	NO ERROR	28.5	40.5	999.15	0.04	0.07	0.07
2510	363171	Vazduh	Libelium	0004A30B0021DF70	44.979	16.7091	""	""	Prijedor	""	31127145	2025-05-26T15:53:07	3	NO ERROR	28.11	40.9	999.01	0.02	0.02	0.02
2511	363171	Vazduh	Libelium	0004A30B0021DF70	44.979	16.7091	""	""	Prijedor	""	31127728	2025-05-26T16:53:49	3	NO ERROR	29.49	38.8	998.77	0.03	0.03	0.03
2512	363171	Vazduh	Libelium	0004A30B0021DF70	44.979	16.7091	""	""	Prijedor	""	31128323	2025-05-26T17:54:31	3	NO ERROR	25.64	43.5	998.61	0	0	0
2513	363171	Vazduh	Libelium	0004A30B0021DF70	44.979	16.7091	""	""	Prijedor	""	31128870	2025-05-26T18:55:19	3	NO ERROR	24.54	47.7	999	0.02	0.02	0.02
2514	363171	Vazduh	Libelium	0004A30B0021DF70	44.979	16.7091	""	""	Prijedor	""	31129456	2025-05-26T19:56:01	3	NO ERROR	23.04	56.6	999.64	0.55	0.64	0.66
2515	363171	Vazduh	Libelium	0004A30B0021DF70	44.979	16.7091	""	""	Prijedor	""	31130049	2025-05-26T20:56:43	3	NO ERROR	20.71	70	1000.53	0.05	0.1	0.11
2516	363171	Vazduh	Libelium	0004A30B0021DF70	44.979	16.7091	""	""	Prijedor	""	31130674	2025-05-26T21:57:31	3	NO ERROR	18.75	86.6	1002.24	0.06	0.06	0.06
2517	363171	Vazduh	Libelium	0004A30B0021DF70	44.979	16.7091	""	""	Prijedor	""	31131274	2025-05-26T22:58:13	3	NO ERROR	17.25	100	1002.4	0	0	0
2518	363171	Vazduh	Libelium	0004A30B0021DF70	44.979	16.7091	""	""	Prijedor	""	31131878	2025-05-26T23:58:55	3	NO ERROR	17.13	100	1002.39	0.02	0.02	0.02
2519	363171	Vazduh	Libelium	0004A30B0021DF70	44.979	16.7091	""	""	Prijedor	""	31132476	2025-05-27T00:59:38	3	NO ERROR	16.21	100	1002.57	0	0	0
2520	363171	Vazduh	Libelium	0004A30B0021DF70	44.979	16.7091	""	""	Prijedor	""	31133034	2025-05-27T02:00:20	3	NO ERROR	15.26	100	1002.55	0.03	0.06	0.06
2521	363171	Vazduh	Libelium	0004A30B0021DF70	44.979	16.7091	""	""	Prijedor	""	31133618	2025-05-27T03:01:02	3	NO ERROR	15.3	100	1002.56	0	0	0
2522	363171	Vazduh	Libelium	0004A30B0021DF70	44.979	16.7091	""	""	Prijedor	""	31134213	2025-05-27T04:01:44	3	NO ERROR	14.64	100	1002.46	0	0	0
2523	363171	Vazduh	Libelium	0004A30B0021DF70	44.979	16.7091	""	""	Prijedor	""	31134812	2025-05-27T05:02:26	3	NO ERROR	14.01	100	1003.03	0	0	0
2524	363171	Vazduh	Libelium	0004A30B0021DF70	44.979	16.7091	""	""	Prijedor	""	31135496	2025-05-27T06:03:08	3	NO ERROR	14.72	100	1003.46	0.02	0.02	0.02
2525	363171	Vazduh	Libelium	0004A30B0021DF70	44.979	16.7091	""	""	Prijedor	""	31136155	2025-05-27T07:03:50	3	NO ERROR	18.19	100	1003.9	0	0	0
2526	363171	Vazduh	Libelium	0004A30B0021DF70	44.979	16.7091	""	""	Prijedor	""	31136838	2025-05-27T08:04:32	3	NO ERROR	21.38	85.3	1004.06	0.02	0.02	0.02
2527	363171	Vazduh	Libelium	0004A30B0021DF70	44.979	16.7091	""	""	Prijedor	""	31137545	2025-05-27T09:05:14	3	NO ERROR	25.24	58.7	1004.05	0.03	0.03	0.03
2528	363171	Vazduh	Libelium	0004A30B0021DF70	44.979	16.7091	""	""	Prijedor	""	31138102	2025-05-27T10:06:03	3	NO ERROR	25	56.1	1003.98	0	0	0
2529	363171	Vazduh	Libelium	0004A30B0021DF70	44.979	16.7091	""	""	Prijedor	""	31138662	2025-05-27T11:06:44	3	NO ERROR	23.84	58.3	1003.68	0	0	0
2530	363171	Vazduh	Libelium	0004A30B0021DF70	44.979	16.7091	""	""	Prijedor	""	31139282	2025-05-27T12:07:27	3	NO ERROR	23.71	57.8	1003.42	0.05	0.05	0.05
2531	363171	Vazduh	Libelium	0004A30B0021DF70	44.979	16.7091	""	""	Prijedor	""	31139871	2025-05-27T13:08:09	3	NO ERROR	25.19	49.3	1003.26	0.21	0.32	0.33
2532	363171	Vazduh	Libelium	0004A30B0021DF70	44.979	16.7091	""	""	Prijedor	""	31140493	2025-05-27T14:08:51	3	NO ERROR	26.59	43.3	1002.6	0	0	0
2533	363171	Vazduh	Libelium	0004A30B0021DF70	44.979	16.7091	""	""	Prijedor	""	31141110	2025-05-27T15:09:33	3	NO ERROR	27.76	42.2	1002.1	0	0	0
2534	363171	Vazduh	Libelium	0004A30B0021DF70	44.979	16.7091	""	""	Prijedor	""	31141683	2025-05-27T16:10:15	3	NO ERROR	26.1	45.5	1002.02	0.03	0.11	0.18
2535	363171	Vazduh	Libelium	0004A30B0021DF70	44.979	16.7091	""	""	Prijedor	""	31142836	2025-05-27T18:11:39	3	NO ERROR	23.75	48.1	1001.68	0.13	0.15	0.15
2536	363171	Vazduh	Libelium	0004A30B0021DF70	44.979	16.7091	""	""	Prijedor	""	31143391	2025-05-27T19:12:21	3	NO ERROR	22.52	52.8	1001.98	0	0.07	0.15
2537	363171	Vazduh	Libelium	0004A30B0021DF70	44.979	16.7091	""	""	Prijedor	""	31143974	2025-05-27T20:13:03	3	NO ERROR	20.56	56.6	1002.21	0.14	0.16	0.16
2538	363171	Vazduh	Libelium	0004A30B0021DF70	44.979	16.7091	""	""	Prijedor	""	31144582	2025-05-27T21:13:45	3	NO ERROR	18.66	74.8	1002.81	0.15	0.26	0.36
2539	363171	Vazduh	Libelium	0004A30B0021DF70	44.979	16.7091	""	""	Prijedor	""	31145192	2025-05-27T22:14:27	3	NO ERROR	16.66	95.2	1003.29	0.1	0.14	0.14
2540	363171	Vazduh	Libelium	0004A30B0021DF70	44.979	16.7091	""	""	Prijedor	""	31145796	2025-05-27T23:15:09	3	NO ERROR	15.55	100	1003.59	0.22	0.39	0.48
2541	363171	Vazduh	Libelium	0004A30B0021DF70	44.979	16.7091	""	""	Prijedor	""	31146402	2025-05-28T00:15:52	3	NO ERROR	14.8	100	1003.64	0.07	0.09	0.09
2542	363171	Vazduh	Libelium	0004A30B0021DF70	44.979	16.7091	""	""	Prijedor	""	31147512	2025-05-28T02:17:16	3	NO ERROR	14.34	100	1003.63	0.08	0.11	0.11
2543	363171	Vazduh	Libelium	0004A30B0021DF70	44.979	16.7091	""	""	Prijedor	""	31148115	2025-05-28T03:17:58	3	NO ERROR	14.04	100	1003.43	0.03	0.03	0.03
2544	363171	Vazduh	Libelium	0004A30B0021DF70	44.979	16.7091	""	""	Prijedor	""	31148646	2025-05-28T04:18:40	3	NO ERROR	13.05	100	1003.4	0.08	0.11	0.12
2545	363171	Vazduh	Libelium	0004A30B0021DF70	44.979	16.7091	""	""	Prijedor	""	31149234	2025-05-28T05:19:29	3	NO ERROR	12.74	100	1003.55	0.13	0.14	0.14
2546	363171	Vazduh	Libelium	0004A30B0021DF70	44.979	16.7091	""	""	Prijedor	""	31149884	2025-05-28T06:20:11	3	NO ERROR	12.59	100	1003.63	0.05	0.05	0.05
2547	363171	Vazduh	Libelium	0004A30B0021DF70	44.979	16.7091	""	""	Prijedor	""	31150447	2025-05-28T07:20:53	3	NO ERROR	13.95	100	1004.01	0.18	0.28	0.28
2548	363171	Vazduh	Libelium	0004A30B0021DF70	44.979	16.7091	""	""	Prijedor	""	31151055	2025-05-28T08:21:35	3	NO ERROR	15.55	100	1004.39	0.07	0.07	0.07
2549	363171	Vazduh	Libelium	0004A30B0021DF70	44.979	16.7091	""	""	Prijedor	""	31151668	2025-05-28T09:22:17	3	NO ERROR	21.18	87.4	1004.46	0.05	0.05	0.05
2550	363171	Vazduh	Libelium	0004A30B0021DF70	44.979	16.7091	""	""	Prijedor	""	31152205	2025-05-28T10:23:06	3	NO ERROR	22.41	63.2	1004.15	0.07	0.07	0.07
2551	363171	Vazduh	Libelium	0004A30B0021DF70	44.979	16.7091	""	""	Prijedor	""	31152793	2025-05-28T11:23:48	3	NO ERROR	23.04	49.8	1003.56	0.07	0.09	0.09
2552	363171	Vazduh	Libelium	0004A30B0021DF70	44.979	16.7091	""	""	Prijedor	""	31153405	2025-05-28T12:24:30	3	NO ERROR	24.37	49.8	1003.27	0.08	0.12	0.12
2553	363171	Vazduh	Libelium	0004A30B0021DF70	44.979	16.7091	""	""	Prijedor	""	31154009	2025-05-28T13:25:12	3	NO ERROR	25.65	43.3	1002.37	0.02	0.02	0.02
2554	363171	Vazduh	Libelium	0004A30B0021DF70	44.979	16.7091	""	""	Prijedor	""	31154636	2025-05-28T14:25:54	3	NO ERROR	26.41	43.2	1001.71	0.02	0.02	0.02
2555	363171	Vazduh	Libelium	0004A30B0021DF70	44.979	16.7091	""	""	Prijedor	""	31155242	2025-05-28T15:26:36	3	NO ERROR	26.02	43.7	1001.1	0.03	0.03	0.03
2556	363171	Vazduh	Libelium	0004A30B0021DF70	44.979	16.7091	""	""	Prijedor	""	31155836	2025-05-28T16:27:18	3	NO ERROR	26.8	41.5	1000.11	0.07	0.09	0.09
2557	363171	Vazduh	Libelium	0004A30B0021DF70	44.979	16.7091	""	""	Prijedor	""	31156411	2025-05-28T17:28:00	3	NO ERROR	27.41	41.5	999.64	0.1	0.13	0.13
2558	363171	Vazduh	Libelium	0004A30B0021DF70	44.979	16.7091	""	""	Prijedor	""	31156972	2025-05-28T18:28:42	3	NO ERROR	24.77	47	999.52	0.1	0.13	0.13
2559	363171	Vazduh	Libelium	0004A30B0021DF70	44.979	16.7091	""	""	Prijedor	""	31157522	2025-05-28T19:29:24	3	NO ERROR	23.14	52.7	998.59	0.02	0.05	0.05
2560	363171	Vazduh	Libelium	0004A30B0021DF70	44.979	16.7091	""	""	Prijedor	""	31158106	2025-05-28T20:30:06	3	NO ERROR	21.66	62.4	998.23	0.24	0.31	0.31
2561	363171	Vazduh	Libelium	0004A30B0021DF70	44.979	16.7091	""	""	Prijedor	""	31158729	2025-05-28T21:30:48	3	NO ERROR	20.28	71.1	998.59	0.11	0.13	0.13
2562	363171	Vazduh	Libelium	0004A30B0021DF70	44.979	16.7091	""	""	Prijedor	""	31159350	2025-05-28T22:31:31	3	NO ERROR	19.11	94.1	998.71	0.08	0.18	0.23
2563	363171	Vazduh	Libelium	0004A30B0021DF70	44.979	16.7091	""	""	Prijedor	""	31159953	2025-05-28T23:32:13	3	NO ERROR	16.87	100	999.48	0.17	0.22	0.22
2564	363171	Vazduh	Libelium	0004A30B0021DF70	44.979	16.7091	""	""	Prijedor	""	31160545	2025-05-29T00:32:55	3	NO ERROR	15.73	100	999.87	0.13	0.21	2.28
2565	363171	Vazduh	Libelium	0004A30B0021DF70	44.979	16.7091	""	""	Prijedor	""	31161118	2025-05-29T01:33:37	3	NO ERROR	14.99	100	1000.02	0.27	0.34	0.34
2566	363171	Vazduh	Libelium	0004A30B0021DF70	44.979	16.7091	""	""	Prijedor	""	31161678	2025-05-29T02:34:19	3	NO ERROR	15.45	100	999.88	0.05	0.05	0.05
2567	363171	Vazduh	Libelium	0004A30B0021DF70	44.979	16.7091	""	""	Prijedor	""	31162256	2025-05-29T03:35:01	3	NO ERROR	15.3	100	999.47	0.07	0.08	0.08
2568	363171	Vazduh	Libelium	0004A30B0021DF70	44.979	16.7091	""	""	Prijedor	""	31162799	2025-05-29T04:35:43	3	NO ERROR	15.38	100	1000	0.02	0.02	0.02
2569	363171	Vazduh	Libelium	0004A30B0021DF70	44.979	16.7091	""	""	Prijedor	""	31163455	2025-05-29T05:36:26	3	NO ERROR	14.69	100	1000.35	0.07	0.07	0.07
2570	363171	Vazduh	Libelium	0004A30B0021DF70	44.979	16.7091	""	""	Prijedor	""	31164011	2025-05-29T06:37:08	3	NO ERROR	14.98	100	1000.63	0.07	0.07	0.07
2571	363171	Vazduh	Libelium	0004A30B0021DF70	44.979	16.7091	""	""	Prijedor	""	31164528	2025-05-29T07:37:50	3	NO ERROR	15.96	100	1001.26	0.15	0.18	0.18
2572	363171	Vazduh	Libelium	0004A30B0021DF70	44.979	16.7091	""	""	Prijedor	""	31165068	2025-05-29T08:38:32	3	NO ERROR	17.66	100	1001.76	0.03	0.06	0.06
2573	363171	Vazduh	Libelium	0004A30B0021DF70	44.979	16.7091	""	""	Prijedor	""	31165561	2025-05-29T09:39:20	3	NO ERROR	19.45	100	1001.89	0.07	0.17	0.24
2574	363171	Vazduh	Libelium	0004A30B0021DF70	44.979	16.7091	""	""	Prijedor	""	31166034	2025-05-29T10:40:02	3	NO ERROR	23.4	81.4	1001.72	0.05	0.05	0.05
2575	363171	Vazduh	Libelium	0004A30B0021DF70	44.979	16.7091	""	""	Prijedor	""	31167087	2025-05-29T12:41:51	3	NO ERROR	20.33	77.5	1002.19	0.02	0.02	0.02
2576	363171	Vazduh	Libelium	0004A30B0021DF70	44.979	16.7091	""	""	Prijedor	""	31167625	2025-05-29T13:42:32	3	NO ERROR	19.91	95.8	1002.34	0.02	0.02	0.02
2577	363171	Vazduh	Libelium	0004A30B0021DF70	44.979	16.7091	""	""	Prijedor	""	31168183	2025-05-29T14:43:14	3	NO ERROR	22.69	66.2	1002.91	0.11	0.12	0.12
2578	363171	Vazduh	Libelium	0004A30B0021DF70	44.979	16.7091	""	""	Prijedor	""	31168717	2025-05-29T15:43:57	3	NO ERROR	22.83	63.5	1003.33	0.01	0.03	0.04
2579	363171	Vazduh	Libelium	0004A30B0021DF70	44.979	16.7091	""	""	Prijedor	""	31169279	2025-05-29T16:44:39	3	NO ERROR	19.26	98	1003.34	0.25	0.36	13.01
2580	363171	Vazduh	Libelium	0004A30B0021DF70	44.979	16.7091	""	""	Prijedor	""	31169882	2025-05-29T17:45:21	3	NO ERROR	19.86	100	1003.45	0.05	0.08	0.08
2581	363171	Vazduh	Libelium	0004A30B0021DF70	44.979	16.7091	""	""	Prijedor	""	31170420	2025-05-29T18:46:03	3	NO ERROR	20.46	69.4	1003.69	0.02	0.02	0.02
2582	363171	Vazduh	Libelium	0004A30B0021DF70	44.979	16.7091	""	""	Prijedor	""	31170990	2025-05-29T19:46:45	3	NO ERROR	19.6	65.9	1004.26	0	0	0
2583	363171	Vazduh	Libelium	0004A30B0021DF70	44.979	16.7091	""	""	Prijedor	""	31171595	2025-05-29T20:47:27	3	NO ERROR	17.44	66.4	1004.91	0.06	0.21	0.36
2584	363171	Vazduh	Libelium	0004A30B0021DF70	44.979	16.7091	""	""	Prijedor	""	31172209	2025-05-29T21:48:09	3	NO ERROR	15.73	82.3	1005.87	0.08	0.1	0.1
2585	363171	Vazduh	Libelium	0004A30B0021DF70	44.979	16.7091	""	""	Prijedor	""	31172803	2025-05-29T22:48:51	3	NO ERROR	13.71	100	1006.32	0	0	0
2586	363171	Vazduh	Libelium	0004A30B0021DF70	44.979	16.7091	""	""	Prijedor	""	31173409	2025-05-29T23:49:33	3	NO ERROR	13.73	100	1006.63	0.19	0.22	0.22
2587	363171	Vazduh	Libelium	0004A30B0021DF70	44.979	16.7091	""	""	Prijedor	""	31173984	2025-05-30T00:50:15	3	NO ERROR	13.27	100	1007.01	0.02	0.02	0.02
2588	363171	Vazduh	Libelium	0004A30B0021DF70	44.979	16.7091	""	""	Prijedor	""	31175085	2025-05-30T02:51:40	3	NO ERROR	10.84	100	1007.15	0	0	0
2589	363171	Vazduh	Libelium	0004A30B0021DF70	44.979	16.7091	""	""	Prijedor	""	31175592	2025-05-30T03:52:22	3	NO ERROR	9.87	100	1007.33	0.13	0.18	0.19
2590	363171	Vazduh	Libelium	0004A30B0021DF70	44.979	16.7091	""	""	Prijedor	""	31176083	2025-05-30T04:53:04	3	NO ERROR	9.49	100	1007.71	0.05	0.08	0.08
2591	363171	Vazduh	Libelium	0004A30B0021DF70	44.979	16.7091	""	""	Prijedor	""	31176682	2025-05-30T05:53:46	3	NO ERROR	9.17	100	1007.98	0.05	0.08	0.08
2592	363171	Vazduh	Libelium	0004A30B0021DF70	44.979	16.7091	""	""	Prijedor	""	31178788	2025-05-30T09:56:35	3	NO ERROR	21.4	65.8	1008.19	0.02	0.02	0.02
2593	363171	Vazduh	Libelium	0004A30B0021DF70	44.979	16.7091	""	""	Prijedor	""	31179251	2025-05-30T10:57:17	3	NO ERROR	21.97	55.6	1008.3	0.02	0.02	0.02
2594	363171	Vazduh	Libelium	0004A30B0021DF70	44.979	16.7091	""	""	Prijedor	""	31179809	2025-05-30T11:58:05	3	NO ERROR	22.06	52.8	1008.04	0.05	0.08	0.08
2595	363171	Vazduh	Libelium	0004A30B0021DF70	44.979	16.7091	""	""	Prijedor	""	31180335	2025-05-30T12:58:47	3	NO ERROR	22.42	51.3	1007.92	0.05	0.05	0.05
2596	363171	Vazduh	Libelium	0004A30B0021DF70	44.979	16.7091	""	""	Prijedor	""	31180876	2025-05-30T13:59:29	3	NO ERROR	22.43	51.4	1007.52	0.02	0.02	0.02
2597	363171	Vazduh	Libelium	0004A30B0021DF70	44.979	16.7091	""	""	Prijedor	""	31181454	2025-05-30T15:00:11	3	NO ERROR	22.52	52.3	1007.07	0.02	0.1	1.1
2598	363171	Vazduh	Libelium	0004A30B0021DF70	44.979	16.7091	""	""	Prijedor	""	31181992	2025-05-30T16:00:53	3	NO ERROR	23.83	51.6	1006.57	0.02	0.02	0.02
2599	363171	Vazduh	Libelium	0004A30B0021DF70	44.979	16.7091	""	""	Prijedor	""	31182540	2025-05-30T17:01:35	3	NO ERROR	24.11	51.8	1006.21	0.01	0.03	0.04
2600	363171	Vazduh	Libelium	0004A30B0021DF70	44.979	16.7091	""	""	Prijedor	""	31183153	2025-05-30T18:02:17	3	NO ERROR	21.73	60.4	1006.07	0	0	0
2601	363171	Vazduh	Libelium	0004A30B0021DF70	44.979	16.7091	""	""	Prijedor	""	31183716	2025-05-30T19:03:00	3	NO ERROR	21.22	63.1	1005.98	0	0	0
2602	363171	Vazduh	Libelium	0004A30B0021DF70	44.979	16.7091	""	""	Prijedor	""	31184282	2025-05-30T20:03:42	3	NO ERROR	20.33	73	1006.19	0.13	0.14	0.14
2603	363171	Vazduh	Libelium	0004A30B0021DF70	44.979	16.7091	""	""	Prijedor	""	31184888	2025-05-30T21:04:24	3	NO ERROR	19.14	95.2	1006.39	0.08	0.09	0.09
2604	363171	Vazduh	Libelium	0004A30B0021DF70	44.979	16.7091	""	""	Prijedor	""	31185517	2025-05-30T22:05:06	3	NO ERROR	17.54	100	1006.49	0.14	0.22	0.22
2605	363171	Vazduh	Libelium	0004A30B0021DF70	44.979	16.7091	""	""	Prijedor	""	31186112	2025-05-30T23:05:48	3	NO ERROR	16.13	100	1006.85	0.19	0.22	0.22
2606	363171	Vazduh	Libelium	0004A30B0021DF70	44.979	16.7091	""	""	Prijedor	""	31186745	2025-05-31T00:06:30	3	NO ERROR	14.92	100	1006.79	0.02	0.02	0.02
2607	363171	Vazduh	Libelium	0004A30B0021DF70	44.979	16.7091	""	""	Prijedor	""	31187321	2025-05-31T01:07:13	3	NO ERROR	14.29	100	1006.62	0.07	0.09	0.09
2608	363171	Vazduh	Libelium	0004A30B0021DF70	44.979	16.7091	""	""	Prijedor	""	31187885	2025-05-31T02:07:55	3	NO ERROR	12.97	100	1006.64	0.07	0.09	0.09
2609	363171	Vazduh	Libelium	0004A30B0021DF70	44.979	16.7091	""	""	Prijedor	""	31188480	2025-05-31T03:08:43	3	NO ERROR	12.51	100	1006.42	0.02	0.02	0.02
2610	363171	Vazduh	Libelium	0004A30B0021DF70	44.979	16.7091	""	""	Prijedor	""	31189066	2025-05-31T04:09:26	3	NO ERROR	12.13	100	1006.6	0.07	0.12	0.12
2611	363171	Vazduh	Libelium	0004A30B0021DF70	44.979	16.7091	""	""	Prijedor	""	31189633	2025-05-31T05:10:08	3	NO ERROR	11.27	100	1006.61	0	0.07	0.15
2612	363171	Vazduh	Libelium	0004A30B0021DF70	44.979	16.7091	""	""	Prijedor	""	31190306	2025-05-31T06:10:50	3	NO ERROR	11.34	100	1007.04	0.05	0.08	0.08
2613	363171	Vazduh	Libelium	0004A30B0021DF70	44.979	16.7091	""	""	Prijedor	""	31190918	2025-05-31T07:11:33	3	NO ERROR	17.78	99.3	1007.31	0	0.04	0.06
2614	363171	Vazduh	Libelium	0004A30B0021DF70	44.979	16.7091	""	""	Prijedor	""	31191526	2025-05-31T08:12:15	3	NO ERROR	22.38	74	1007.42	0.02	0.02	0.02
2615	363171	Vazduh	Libelium	0004A30B0021DF70	44.979	16.7091	""	""	Prijedor	""	31192161	2025-05-31T09:12:57	3	NO ERROR	25.01	67.5	1007.31	0	0	0
2616	363171	Vazduh	Libelium	0004A30B0021DF70	44.979	16.7091	""	""	Prijedor	""	31192699	2025-05-31T10:13:39	3	NO ERROR	26.66	58	1007.17	0.08	0.16	0.17
2617	363171	Vazduh	Libelium	0004A30B0021DF70	44.979	16.7091	""	""	Prijedor	""	31193270	2025-05-31T11:14:21	3	NO ERROR	25	66	1006.75	0.04	0.07	0.07
2618	363171	Vazduh	Libelium	0004A30B0021DF70	44.979	16.7091	""	""	Prijedor	""	31193908	2025-05-31T12:15:03	3	NO ERROR	25.91	62.5	1006.23	0.09	0.16	0.18
2619	363171	Vazduh	Libelium	0004A30B0021DF70	44.979	16.7091	""	""	Prijedor	""	31194516	2025-05-31T13:15:45	3	NO ERROR	27.19	59.2	1005.77	0.11	0.11	0.11
2620	363171	Vazduh	Libelium	0004A30B0021DF70	44.979	16.7091	""	""	Prijedor	""	31195126	2025-05-31T14:16:27	3	NO ERROR	27.95	54.6	1005.38	0.06	0.07	0.07
2621	363171	Vazduh	Libelium	0004A30B0021DF70	44.979	16.7091	""	""	Prijedor	""	31195746	2025-05-31T15:17:09	3	NO ERROR	30.48	46.3	1005.07	0.02	0.02	0.02
2622	363171	Vazduh	Libelium	0004A30B0021DF70	44.979	16.7091	""	""	Prijedor	""	31196392	2025-05-31T16:17:58	3	NO ERROR	31.56	43.3	1004.87	0.02	0.02	0.02
2623	363171	Vazduh	Libelium	0004A30B0021DF70	44.979	16.7091	""	""	Prijedor	""	31196962	2025-05-31T17:18:40	3	NO ERROR	29.93	45	1004.35	0.03	0.03	0.03
2624	363171	Vazduh	Libelium	0004A30B0021DF70	44.979	16.7091	""	""	Prijedor	""	31197558	2025-05-31T18:19:22	3	NO ERROR	27.65	48.9	1003.95	0.01	0.03	0.04
2625	363171	Vazduh	Libelium	0004A30B0021DF70	44.979	16.7091	""	""	Prijedor	""	31198140	2025-05-31T19:20:10	3	NO ERROR	26.29	58	1003.81	0.03	0.03	0.03
2626	363171	Vazduh	Libelium	0004A30B0021DF70	44.979	16.7091	""	""	Prijedor	""	31198735	2025-05-31T20:20:52	3	NO ERROR	24.66	71.9	1003.94	0.15	0.23	0.23
2627	363171	Vazduh	Libelium	0004A30B0021DF70	44.979	16.7091	""	""	Prijedor	""	31199360	2025-05-31T21:21:34	3	NO ERROR	22.6	93.4	1004.28	0.23	0.32	0.32
2628	363171	Vazduh	Libelium	0004A30B0021DF70	44.979	16.7091	""	""	Prijedor	""	31199970	2025-05-31T22:22:16	3	NO ERROR	20.14	100	1004.58	0.09	0.11	0.11
2629	363171	Vazduh	Libelium	0004A30B0021DF70	44.979	16.7091	""	""	Prijedor	""	31200544	2025-05-31T23:22:58	3	NO ERROR	18.41	100	1005.01	0.08	0.12	0.13
2630	363171	Vazduh	Libelium	0004A30B0021DF70	44.979	16.7091	""	""	Prijedor	""	31201173	2025-06-01T00:23:40	3	NO ERROR	16.83	100	1004.83	0.02	0.02	0.02
2631	363171	Vazduh	Libelium	0004A30B0021DF70	44.979	16.7091	""	""	Prijedor	""	31216640	2025-06-02T02:42:07	3	NO ERROR	16.84	100	1001.78	0.09	0.13	0.13
2632	363171	Vazduh	Libelium	0004A30B0021DF70	44.979	16.7091	""	""	Prijedor	""	31217222	2025-06-02T03:43:02	3	NO ERROR	16	100	1001.82	0.03	0.06	0.06
2633	363171	Vazduh	Libelium	0004A30B0021DF70	44.979	16.7091	""	""	Prijedor	""	31217772	2025-06-02T04:43:56	3	NO ERROR	14.98	100	1001.99	0.09	0.1	0.1
2634	363171	Vazduh	Libelium	0004A30B0021DF70	44.979	16.7091	""	""	Prijedor	""	31218390	2025-06-02T05:44:38	3	NO ERROR	15.48	100	1002.25	0.05	0.05	0.05
2635	363171	Vazduh	Libelium	0004A30B0021DF70	44.979	16.7091	""	""	Prijedor	""	31219019	2025-06-02T06:45:20	3	NO ERROR	19.08	100	1002.44	0.01	0.11	0.19
2636	363171	Vazduh	Libelium	0004A30B0021DF70	44.979	16.7091	""	""	Prijedor	""	31219631	2025-06-02T07:46:02	3	NO ERROR	23.31	85	1002.55	0.09	0.17	0.24
2637	363171	Vazduh	Libelium	0004A30B0021DF70	44.979	16.7091	""	""	Prijedor	""	31220239	2025-06-02T08:46:44	3	NO ERROR	26.28	63.8	1002.71	0	0.07	0.15
2638	363171	Vazduh	Libelium	0004A30B0021DF70	44.979	16.7091	""	""	Prijedor	""	31220814	2025-06-02T09:47:26	3	NO ERROR	29.31	51	1002.61	0.02	0.02	0.02
2639	363171	Vazduh	Libelium	0004A30B0021DF70	44.979	16.7091	""	""	Prijedor	""	31221359	2025-06-02T10:48:08	3	NO ERROR	31.33	47.8	1002.58	0.01	0.08	0.09
2640	363171	Vazduh	Libelium	0004A30B0021DF70	44.979	16.7091	""	""	Prijedor	""	31221970	2025-06-02T11:48:50	3	NO ERROR	30.46	52.8	1002.23	0.09	0.11	0.11
2641	363171	Vazduh	Libelium	0004A30B0021DF70	44.979	16.7091	""	""	Prijedor	""	31222559	2025-06-02T12:49:33	3	NO ERROR	30.86	52.1	1001.9	0.01	0.11	0.41
2642	363171	Vazduh	Libelium	0004A30B0021DF70	44.979	16.7091	""	""	Prijedor	""	31223168	2025-06-02T13:50:15	3	NO ERROR	33.51	43.5	1001.32	0.05	0.09	0.09
2643	363171	Vazduh	Libelium	0004A30B0021DF70	44.979	16.7091	""	""	Prijedor	""	31223834	2025-06-02T14:50:57	3	NO ERROR	34.92	39.2	1000.87	0.16	0.17	0.17
2644	363171	Vazduh	Libelium	0004A30B0021DF70	44.979	16.7091	""	""	Prijedor	""	31224441	2025-06-02T15:51:39	3	NO ERROR	36.28	37.7	1000.26	0.05	0.13	1.14
2645	363171	Vazduh	Libelium	0004A30B0021DF70	44.979	16.7091	""	""	Prijedor	""	31225031	2025-06-02T16:52:21	3	NO ERROR	34.77	38.6	1000.17	0.13	0.22	0.22
2646	363171	Vazduh	Libelium	0004A30B0021DF70	44.979	16.7091	""	""	Prijedor	""	31225658	2025-06-02T17:53:15	3	NO ERROR	31.26	42.3	1000	0	0	0
2647	363171	Vazduh	Libelium	0004A30B0021DF70	44.979	16.7091	""	""	Prijedor	""	31226224	2025-06-02T18:53:57	3	NO ERROR	30.16	44.6	999.99	0	0	0
2648	363171	Vazduh	Libelium	0004A30B0021DF70	44.979	16.7091	""	""	Prijedor	""	31226778	2025-06-02T19:54:39	3	NO ERROR	27.92	49.2	1000.23	0.07	0.07	0.07
2649	363171	Vazduh	Libelium	0004A30B0021DF70	44.979	16.7091	""	""	Prijedor	""	31227389	2025-06-02T20:55:21	3	NO ERROR	25.5	57.8	1000.6	0.14	0.19	0.19
2650	363171	Vazduh	Libelium	0004A30B0021DF70	44.979	16.7091	""	""	Prijedor	""	31228001	2025-06-02T21:56:03	3	NO ERROR	23.55	71	1001.35	0.31	0.39	0.4
2651	363171	Vazduh	Libelium	0004A30B0021DF70	44.979	16.7091	""	""	Prijedor	""	31228588	2025-06-02T22:56:46	3	NO ERROR	21.67	86.5	1001.56	0.06	0.08	0.08
2652	363171	Vazduh	Libelium	0004A30B0021DF70	44.979	16.7091	""	""	Prijedor	""	31229186	2025-06-02T23:57:28	3	NO ERROR	19.87	100	1001.69	0.16	0.23	0.23
2653	363171	Vazduh	Libelium	0004A30B0021DF70	44.979	16.7091	""	""	Prijedor	""	31229773	2025-06-03T00:58:10	3	NO ERROR	18.63	100	1001.79	0.1	0.15	0.15
2654	363171	Vazduh	Libelium	0004A30B0021DF70	44.979	16.7091	""	""	Prijedor	""	31230338	2025-06-03T01:58:52	3	NO ERROR	18.18	100	1001.64	0.13	0.18	0.19
2655	363171	Vazduh	Libelium	0004A30B0021DF70	44.979	16.7091	""	""	Prijedor	""	31230924	2025-06-03T02:59:34	3	NO ERROR	18.53	100	1001.62	0.32	0.38	0.38
2656	363171	Vazduh	Libelium	0004A30B0021DF70	44.979	16.7091	""	""	Prijedor	""	31231517	2025-06-03T04:00:16	3	NO ERROR	16.92	100	1001.66	0.07	0.11	0.11
2657	363171	Vazduh	Libelium	0004A30B0021DF70	44.979	16.7091	""	""	Prijedor	""	31232081	2025-06-03T05:00:58	3	NO ERROR	17.6	100	1001.44	0.05	0.1	0.11
2658	363171	Vazduh	Libelium	0004A30B0021DF70	44.979	16.7091	""	""	Prijedor	""	31232712	2025-06-03T06:01:40	3	NO ERROR	17.98	100	1001.52	0.05	0.12	0.2
2659	363171	Vazduh	Libelium	0004A30B0021DF70	44.979	16.7091	""	""	Prijedor	""	31233260	2025-06-03T07:02:23	3	NO ERROR	23.86	76	1001.65	0.02	0.02	0.02
2660	363171	Vazduh	Libelium	0004A30B0021DF70	44.979	16.7091	""	""	Prijedor	""	31233781	2025-06-03T08:03:05	3	NO ERROR	24.02	78.2	1001.79	0.18	0.25	0.27
2661	363171	Vazduh	Libelium	0004A30B0021DF70	44.979	16.7091	""	""	Prijedor	""	31234344	2025-06-03T09:03:47	3	NO ERROR	26.11	63.3	1001.74	0.11	0.12	0.12
2662	363171	Vazduh	Libelium	0004A30B0021DF70	44.979	16.7091	""	""	Prijedor	""	31234817	2025-06-03T10:04:29	3	NO ERROR	26.12	63.2	1001.79	0.07	0.07	0.07
2663	363171	Vazduh	Libelium	0004A30B0021DF70	44.979	16.7091	""	""	Prijedor	""	31235287	2025-06-03T11:05:11	3	NO ERROR	29.21	47.1	1001.79	0.07	0.11	0.11
2664	363171	Vazduh	Libelium	0004A30B0021DF70	44.979	16.7091	""	""	Prijedor	""	31235844	2025-06-03T12:05:53	3	NO ERROR	30.73	45.5	1001.65	0.02	0.02	0.02
2665	363171	Vazduh	Libelium	0004A30B0021DF70	44.979	16.7091	""	""	Prijedor	""	31236395	2025-06-03T13:06:35	3	NO ERROR	32.41	46.1	1001.13	0.08	0.12	0.13
2666	363171	Vazduh	Libelium	0004A30B0021DF70	44.979	16.7091	""	""	Prijedor	""	31237010	2025-06-03T14:07:17	3	NO ERROR	35.51	39.9	1000.65	0.11	0.14	0.14
2667	363171	Vazduh	Libelium	0004A30B0021DF70	44.979	16.7091	""	""	Prijedor	""	31237650	2025-06-03T15:07:59	3	NO ERROR	35.33	39.2	1000.26	0.06	0.12	0.12
2668	363171	Vazduh	Libelium	0004A30B0021DF70	44.979	16.7091	""	""	Prijedor	""	31238279	2025-06-03T16:08:41	3	NO ERROR	36.52	35.2	1000.14	0.12	0.17	0.17
2669	363171	Vazduh	Libelium	0004A30B0021DF70	44.979	16.7091	""	""	Prijedor	""	31238854	2025-06-03T17:09:24	3	NO ERROR	33.87	39.3	1000.21	0.09	0.1	0.1
2670	363171	Vazduh	Libelium	0004A30B0021DF70	44.979	16.7091	""	""	Prijedor	""	31239409	2025-06-03T18:10:06	3	NO ERROR	31.22	44.1	1000.06	0.11	0.23	0.26
2671	363171	Vazduh	Libelium	0004A30B0021DF70	44.979	16.7091	""	""	Prijedor	""	31239955	2025-06-03T19:10:54	3	NO ERROR	29.51	48.6	1000.35	0.1	0.13	0.13
2672	363171	Vazduh	Libelium	0004A30B0021DF70	44.979	16.7091	""	""	Prijedor	""	31240538	2025-06-03T20:11:36	3	NO ERROR	27.48	55.3	1000.86	0.02	0.14	0.46
2673	363171	Vazduh	Libelium	0004A30B0021DF70	44.979	16.7091	""	""	Prijedor	""	31241162	2025-06-03T21:12:18	3	NO ERROR	25.03	77.9	1001.17	0.14	0.24	0.25
2674	363171	Vazduh	Libelium	0004A30B0021DF70	44.979	16.7091	""	""	Prijedor	""	31241770	2025-06-03T22:13:00	3	NO ERROR	23.72	84.4	1001.53	0.29	0.51	0.55
2675	363171	Vazduh	Libelium	0004A30B0021DF70	44.979	16.7091	""	""	Prijedor	""	31242355	2025-06-03T23:13:42	3	NO ERROR	20.82	100	1002.32	0.07	0.07	0.07
2676	363171	Vazduh	Libelium	0004A30B0021DF70	44.979	16.7091	""	""	Prijedor	""	31243006	2025-06-04T00:14:30	3	NO ERROR	19.54	100	1002.39	0.23	0.38	0.4
2677	363171	Vazduh	Libelium	0004A30B0021DF70	44.979	16.7091	""	""	Prijedor	""	31243561	2025-06-04T01:15:12	3	NO ERROR	18.6	100	1002.49	0.25	0.37	0.39
2678	363171	Vazduh	Libelium	0004A30B0021DF70	44.979	16.7091	""	""	Prijedor	""	31244089	2025-06-04T02:15:54	3	NO ERROR	16.97	100	1002.61	0.13	0.18	0.18
2679	363171	Vazduh	Libelium	0004A30B0021DF70	44.979	16.7091	""	""	Prijedor	""	31244701	2025-06-04T03:16:37	3	NO ERROR	16.69	100	1002.72	0.12	0.17	0.17
2680	363171	Vazduh	Libelium	0004A30B0021DF70	44.979	16.7091	""	""	Prijedor	""	31245271	2025-06-04T04:17:19	3	NO ERROR	16	100	1002.7	0.04	0.05	0.05
2681	363171	Vazduh	Libelium	0004A30B0021DF70	44.979	16.7091	""	""	Prijedor	""	31245825	2025-06-04T05:18:01	3	NO ERROR	15.8	100	1002.96	0.06	0.08	0.08
2682	363171	Vazduh	Libelium	0004A30B0021DF70	44.979	16.7091	""	""	Prijedor	""	31246517	2025-06-04T06:18:43	3	NO ERROR	16.67	100	1003.12	0.32	0.49	0.49
2683	363171	Vazduh	Libelium	0004A30B0021DF70	44.979	16.7091	""	""	Prijedor	""	31247113	2025-06-04T07:19:25	3	NO ERROR	21.21	99.6	1003.03	0.04	0.07	0.07
2684	363171	Vazduh	Libelium	0004A30B0021DF70	44.979	16.7091	""	""	Prijedor	""	31247713	2025-06-04T08:20:07	3	NO ERROR	24.16	79.5	1002.86	0.2	0.21	0.21
2685	363171	Vazduh	Libelium	0004A30B0021DF70	44.979	16.7091	""	""	Prijedor	""	31248344	2025-06-04T09:20:49	3	NO ERROR	27.07	58.1	1002.65	0.02	0.05	0.05
2686	363171	Vazduh	Libelium	0004A30B0021DF70	44.979	16.7091	""	""	Prijedor	""	31248885	2025-06-04T10:21:31	3	NO ERROR	27.37	57.1	1002.02	0.1	0.16	0.17
2687	363171	Vazduh	Libelium	0004A30B0021DF70	44.979	16.7091	""	""	Prijedor	""	31249475	2025-06-04T11:22:19	3	NO ERROR	29.64	51.5	1001.53	0.24	0.28	0.29
2688	363171	Vazduh	Libelium	0004A30B0021DF70	44.979	16.7091	""	""	Prijedor	""	31250095	2025-06-04T12:23:07	3	NO ERROR	30.95	47.1	1001.25	0.05	0.27	0.5
2689	363171	Vazduh	Libelium	0004A30B0021DF70	44.979	16.7091	""	""	Prijedor	""	31250679	2025-06-04T13:23:49	3	NO ERROR	32.98	40.3	1000.69	0.11	0.18	0.19
2690	363171	Vazduh	Libelium	0004A30B0021DF70	44.979	16.7091	""	""	Prijedor	""	31251310	2025-06-04T14:24:32	3	NO ERROR	33.88	39.6	1000.34	0.17	0.23	0.24
2691	363171	Vazduh	Libelium	0004A30B0021DF70	44.979	16.7091	""	""	Prijedor	""	31251960	2025-06-04T15:25:14	3	NO ERROR	37.22	35	999.93	0.08	0.16	0.18
2692	363171	Vazduh	Libelium	0004A30B0021DF70	44.979	16.7091	""	""	Prijedor	""	31252565	2025-06-04T16:25:56	3	NO ERROR	37.34	35.3	999.58	0.04	0.08	0.09
2693	363171	Vazduh	Libelium	0004A30B0021DF70	44.979	16.7091	""	""	Prijedor	""	31253134	2025-06-04T17:26:44	3	NO ERROR	35.87	38.2	999.43	0.11	0.15	0.15
2694	363171	Vazduh	Libelium	0004A30B0021DF70	44.979	16.7091	""	""	Prijedor	""	31253708	2025-06-04T18:27:26	3	NO ERROR	31.12	43.4	999.03	0.07	0.08	0.08
2695	363171	Vazduh	Libelium	0004A30B0021DF70	44.979	16.7091	""	""	Prijedor	""	31254297	2025-06-04T19:28:08	3	NO ERROR	29.23	46.3	999.18	0.27	0.29	0.29
2696	363171	Vazduh	Libelium	0004A30B0021DF70	44.979	16.7091	""	""	Prijedor	""	31254837	2025-06-04T20:28:50	3	NO ERROR	27.29	49.7	999.62	0.1	0.13	0.13
2697	363171	Vazduh	Libelium	0004A30B0021DF70	44.979	16.7091	""	""	Prijedor	""	31255470	2025-06-04T21:29:45	3	NO ERROR	25.53	58.6	1000.37	0.39	0.47	0.48
2698	363171	Vazduh	Libelium	0004A30B0021DF70	44.979	16.7091	""	""	Prijedor	""	31256112	2025-06-04T22:30:26	3	NO ERROR	22.41	88.9	1000.87	0.22	0.31	0.33
2699	363171	Vazduh	Libelium	0004A30B0021DF70	44.979	16.7091	""	""	Prijedor	""	31256715	2025-06-04T23:31:09	3	NO ERROR	20.56	98.3	1000.94	0.02	0.02	0.02
2700	363171	Vazduh	Libelium	0004A30B0021DF70	44.979	16.7091	""	""	Prijedor	""	31257348	2025-06-05T00:31:51	3	NO ERROR	18.64	100	1000.76	0.25	0.61	1.16
2701	363171	Vazduh	Libelium	0004A30B0021DF70	44.979	16.7091	""	""	Prijedor	""	31257912	2025-06-05T01:32:33	3	NO ERROR	18.2	100	1000.73	0.09	0.17	0.18
2702	363171	Vazduh	Libelium	0004A30B0021DF70	44.979	16.7091	""	""	Prijedor	""	31258450	2025-06-05T02:33:15	3	NO ERROR	16.4	100	1000.55	0.07	0.15	0.17
2703	363171	Vazduh	Libelium	0004A30B0021DF70	44.979	16.7091	""	""	Prijedor	""	31259068	2025-06-05T03:33:57	3	NO ERROR	16.14	100	1000.4	0.05	0.05	0.05
2704	363171	Vazduh	Libelium	0004A30B0021DF70	44.979	16.7091	""	""	Prijedor	""	31259606	2025-06-05T04:34:39	3	NO ERROR	16.01	100	1000.43	0.04	0.07	0.07
2705	363171	Vazduh	Libelium	0004A30B0021DF70	44.979	16.7091	""	""	Prijedor	""	31260203	2025-06-05T05:35:27	3	NO ERROR	15.76	100	1000.91	0.05	0.05	0.05
2706	363171	Vazduh	Libelium	0004A30B0021DF70	44.979	16.7091	""	""	Prijedor	""	31260854	2025-06-05T06:36:09	3	NO ERROR	19.03	100	1001.66	0.13	0.16	0.17
2707	363171	Vazduh	Libelium	0004A30B0021DF70	44.979	16.7091	""	""	Prijedor	""	31261458	2025-06-05T07:36:51	3	NO ERROR	26.02	67.9	1001.81	0.12	0.12	0.12
2708	363171	Vazduh	Libelium	0004A30B0021DF70	44.979	16.7091	""	""	Prijedor	""	31262051	2025-06-05T08:37:34	3	NO ERROR	25.58	59.7	1002.03	0.23	0.33	0.33
2709	363171	Vazduh	Libelium	0004A30B0021DF70	44.979	16.7091	""	""	Prijedor	""	31262649	2025-06-05T09:38:16	3	NO ERROR	28.53	49	1001.65	0.33	0.45	0.45
2710	363171	Vazduh	Libelium	0004A30B0021DF70	44.979	16.7091	""	""	Prijedor	""	31263187	2025-06-05T10:38:58	3	NO ERROR	30.46	43.3	1001.41	0.17	0.33	0.71
2711	363171	Vazduh	Libelium	0004A30B0021DF70	44.979	16.7091	""	""	Prijedor	""	31263767	2025-06-05T11:39:40	3	NO ERROR	30.26	41	1001.16	0.14	0.35	0.75
2712	363171	Vazduh	Libelium	0004A30B0021DF70	44.979	16.7091	""	""	Prijedor	""	31264352	2025-06-05T12:40:22	3	NO ERROR	32.26	39.1	1000.67	0.13	0.14	0.14
2713	363171	Vazduh	Libelium	0004A30B0021DF70	44.979	16.7091	""	""	Prijedor	""	31264968	2025-06-05T13:41:04	3	NO ERROR	33.37	37.1	1000.07	0.11	0.2	0.21
2714	363171	Vazduh	Libelium	0004A30B0021DF70	44.979	16.7091	""	""	Prijedor	""	31265604	2025-06-05T14:41:46	3	NO ERROR	35.96	34.1	999.6	0.12	0.25	0.55
2715	363171	Vazduh	Libelium	0004A30B0021DF70	44.979	16.7091	""	""	Prijedor	""	31266234	2025-06-05T15:42:28	3	NO ERROR	35.65	34.2	999.37	0.12	0.22	0.29
2716	363171	Vazduh	Libelium	0004A30B0021DF70	44.979	16.7091	""	""	Prijedor	""	31266795	2025-06-05T16:43:10	3	NO ERROR	37.41	33.2	998.97	0.13	0.21	0.21
2717	363171	Vazduh	Libelium	0004A30B0021DF70	44.979	16.7091	""	""	Prijedor	""	31267396	2025-06-05T17:43:59	3	NO ERROR	33.72	37.3	998.55	0.05	0.05	0.05
2718	363171	Vazduh	Libelium	0004A30B0021DF70	44.979	16.7091	""	""	Prijedor	""	31267979	2025-06-05T18:44:41	3	NO ERROR	32.33	40	998.14	0.06	0.18	0.26
2719	363171	Vazduh	Libelium	0004A30B0021DF70	44.979	16.7091	""	""	Prijedor	""	31268548	2025-06-05T19:45:23	3	NO ERROR	29.68	57.6	998.31	0.48	0.83	1.39
2720	363171	Vazduh	Libelium	0004A30B0021DF70	44.979	16.7091	""	""	Prijedor	""	31269128	2025-06-05T20:46:05	3	NO ERROR	26.78	82.5	998.72	0.31	0.72	0.85
2721	363171	Vazduh	Libelium	0004A30B0021DF70	44.979	16.7091	""	""	Prijedor	""	31269800	2025-06-05T21:46:47	3	NO ERROR	24.03	100	999.8	0.03	0.03	0.03
2722	363171	Vazduh	Libelium	0004A30B0021DF70	44.979	16.7091	""	""	Prijedor	""	31270394	2025-06-05T22:47:29	3	NO ERROR	22.47	100	1000.13	0.24	0.39	0.53
2723	363171	Vazduh	Libelium	0004A30B0021DF70	44.979	16.7091	""	""	Prijedor	""	31270988	2025-06-05T23:48:11	3	NO ERROR	21.23	100	1000.25	0.11	0.23	0.31
2724	363171	Vazduh	Libelium	0004A30B0021DF70	44.979	16.7091	""	""	Prijedor	""	31271567	2025-06-06T00:48:53	3	NO ERROR	20.05	100	1000.27	0.15	0.18	0.18
2725	363171	Vazduh	Libelium	0004A30B0021DF70	44.979	16.7091	""	""	Prijedor	""	31272160	2025-06-06T01:49:35	3	NO ERROR	19.41	100	1000.38	0.12	0.13	0.13
2726	363171	Vazduh	Libelium	0004A30B0021DF70	44.979	16.7091	""	""	Prijedor	""	31272712	2025-06-06T02:50:17	3	NO ERROR	17.97	100	1000.4	0.29	0.35	0.35
2727	363171	Vazduh	Libelium	0004A30B0021DF70	44.979	16.7091	""	""	Prijedor	""	31273306	2025-06-06T03:51:00	3	NO ERROR	17.07	100	1000.47	0.26	0.43	0.54
2728	363171	Vazduh	Libelium	0004A30B0021DF70	44.979	16.7091	""	""	Prijedor	""	31273853	2025-06-06T04:51:42	3	NO ERROR	15.98	100	1000.82	0.04	0.05	0.05
2729	363171	Vazduh	Libelium	0004A30B0021DF70	44.979	16.7091	""	""	Prijedor	""	31274495	2025-06-06T05:52:24	3	NO ERROR	16.17	100	1001.27	0.2	0.26	0.26
2730	363171	Vazduh	Libelium	0004A30B0021DF70	44.979	16.7091	""	""	Prijedor	""	31275139	2025-06-06T06:53:06	3	NO ERROR	20.26	100	1001.58	0.22	0.36	0.77
2731	363171	Vazduh	Libelium	0004A30B0021DF70	44.979	16.7091	""	""	Prijedor	""	31275712	2025-06-06T07:53:48	3	NO ERROR	22.97	93.9	1001.86	0.2	0.31	0.32
2732	363171	Vazduh	Libelium	0004A30B0021DF70	44.979	16.7091	""	""	Prijedor	""	31276326	2025-06-06T08:54:30	3	NO ERROR	26.48	72.5	1001.79	0.1	0.23	4.11
2733	363171	Vazduh	Libelium	0004A30B0021DF70	44.979	16.7091	""	""	Prijedor	""	31276936	2025-06-06T09:55:12	3	NO ERROR	28.11	59	1001.46	0.19	0.37	0.49
2734	363171	Vazduh	Libelium	0004A30B0021DF70	44.979	16.7091	""	""	Prijedor	""	31277487	2025-06-06T10:55:54	3	NO ERROR	30.73	52.1	1001.48	0.07	0.08	0.08
2735	363171	Vazduh	Libelium	0004A30B0021DF70	44.979	16.7091	""	""	Prijedor	""	31278085	2025-06-06T11:56:36	3	NO ERROR	30.66	41.9	1001.4	0.1	0.13	0.13
2736	363171	Vazduh	Libelium	0004A30B0021DF70	44.979	16.7091	""	""	Prijedor	""	31278715	2025-06-06T12:57:18	3	NO ERROR	32.67	40.2	1000.89	0.2	0.27	0.27
2737	363171	Vazduh	Libelium	0004A30B0021DF70	44.979	16.7091	""	""	Prijedor	""	31279302	2025-06-06T13:58:00	3	NO ERROR	33.46	39.9	1000.34	0.08	0.09	0.09
2738	363171	Vazduh	Libelium	0004A30B0021DF70	44.979	16.7091	""	""	Prijedor	""	31279944	2025-06-06T14:58:43	3	NO ERROR	33.48	41	1000	0.16	0.2	0.2
2739	363171	Vazduh	Libelium	0004A30B0021DF70	44.979	16.7091	""	""	Prijedor	""	31280558	2025-06-06T15:59:25	3	NO ERROR	36.95	33.6	999.67	0.26	0.27	0.27
2740	363171	Vazduh	Libelium	0004A30B0021DF70	44.979	16.7091	""	""	Prijedor	""	31281146	2025-06-06T17:00:07	3	NO ERROR	37.15	33.1	999.51	0.17	0.22	0.22
2741	363171	Vazduh	Libelium	0004A30B0021DF70	44.979	16.7091	""	""	Prijedor	""	31281713	2025-06-06T18:00:49	3	NO ERROR	32.37	39.6	999.25	0.22	0.28	0.28
2742	363171	Vazduh	Libelium	0004A30B0021DF70	44.979	16.7091	""	""	Prijedor	""	31282281	2025-06-06T19:01:37	3	NO ERROR	30.38	45.4	999.57	0.27	0.36	0.37
2743	363171	Vazduh	Libelium	0004A30B0021DF70	44.979	16.7091	""	""	Prijedor	""	31282860	2025-06-06T20:02:19	3	NO ERROR	28.24	56.5	999.82	0.08	0.18	0.19
2744	363171	Vazduh	Libelium	0004A30B0021DF70	44.979	16.7091	""	""	Prijedor	""	31283448	2025-06-06T21:03:01	3	NO ERROR	25.31	85.8	1000.46	0.13	0.17	0.17
2745	363171	Vazduh	Libelium	0004A30B0021DF70	44.979	16.7091	""	""	Prijedor	""	31284086	2025-06-06T22:03:49	3	NO ERROR	22.9	100	1001.12	0.28	0.46	1.07
2746	363171	Vazduh	Libelium	0004A30B0021DF70	44.979	16.7091	""	""	Prijedor	""	31284685	2025-06-06T23:04:38	3	NO ERROR	21.33	100	1001.31	0.08	0.12	0.13
2747	363171	Vazduh	Libelium	0004A30B0021DF70	44.979	16.7091	""	""	Prijedor	""	31285289	2025-06-07T00:05:26	3	NO ERROR	19.86	100	1001.22	0.29	0.34	0.34
2748	363171	Vazduh	Libelium	0004A30B0021DF70	44.979	16.7091	""	""	Prijedor	""	31285887	2025-06-07T01:06:08	3	NO ERROR	18.6	100	1001	0.07	0.09	0.09
2749	363171	Vazduh	Libelium	0004A30B0021DF70	44.979	16.7091	""	""	Prijedor	""	31286393	2025-06-07T02:06:50	3	NO ERROR	17.65	100	1000.86	0.48	0.73	1.16
2750	363171	Vazduh	Libelium	0004A30B0021DF70	44.979	16.7091	""	""	Prijedor	""	31288172	2025-06-07T05:08:56	3	NO ERROR	15.42	100	1000.89	0.08	0.1	0.1
2751	363171	Vazduh	Libelium	0004A30B0021DF70	44.979	16.7091	""	""	Prijedor	""	31288817	2025-06-07T06:09:38	3	NO ERROR	15.78	100	1001.04	0.16	0.2	0.2
2752	363171	Vazduh	Libelium	0004A30B0021DF70	44.979	16.7091	""	""	Prijedor	""	31289440	2025-06-07T07:10:20	3	NO ERROR	23.1	84.6	1001.28	0.18	0.38	0.48
2753	363171	Vazduh	Libelium	0004A30B0021DF70	44.979	16.7091	""	""	Prijedor	""	31290042	2025-06-07T08:11:02	3	NO ERROR	24.45	67.8	1001.18	0.02	0.02	0.02
2754	363171	Vazduh	Libelium	0004A30B0021DF70	44.979	16.7091	""	""	Prijedor	""	31290655	2025-06-07T09:11:44	3	NO ERROR	29.2	51.4	1001.13	0.07	0.07	0.07
2755	363171	Vazduh	Libelium	0004A30B0021DF70	44.979	16.7091	""	""	Prijedor	""	31291222	2025-06-07T10:12:26	3	NO ERROR	30.38	47.5	1000.72	0	0	0
2756	363171	Vazduh	Libelium	0004A30B0021DF70	44.979	16.7091	""	""	Prijedor	""	31315164	2025-06-09T02:41:13	3	NO ERROR	19.05	80	1004.21	0.06	0.07	0.07
2757	363171	Vazduh	Libelium	0004A30B0021DF70	44.979	16.7091	""	""	Prijedor	""	31315782	2025-06-09T03:41:55	3	NO ERROR	19.18	82.7	1004.63	0.07	0.07	0.07
2758	363171	Vazduh	Libelium	0004A30B0021DF70	44.979	16.7091	""	""	Prijedor	""	31316342	2025-06-09T04:42:37	3	NO ERROR	19.83	81	1005.55	0.05	0.09	0.09
2759	363171	Vazduh	Libelium	0004A30B0021DF70	44.979	16.7091	""	""	Prijedor	""	31316982	2025-06-09T05:43:25	3	NO ERROR	19.03	77.7	1006.46	0.03	0.05	0.05
2760	363171	Vazduh	Libelium	0004A30B0021DF70	44.979	16.7091	""	""	Prijedor	""	31317636	2025-06-09T06:44:07	3	NO ERROR	19.77	72.6	1007.35	0.37	0.51	0.51
2761	363171	Vazduh	Libelium	0004A30B0021DF70	44.979	16.7091	""	""	Prijedor	""	31318257	2025-06-09T07:44:49	3	NO ERROR	20.31	56.2	1007.99	0.16	0.32	0.35
2762	363171	Vazduh	Libelium	0004A30B0021DF70	44.979	16.7091	""	""	Prijedor	""	31318860	2025-06-09T08:45:31	3	NO ERROR	20.8	53.4	1008.63	0.02	0.05	0.05
2763	363171	Vazduh	Libelium	0004A30B0021DF70	44.979	16.7091	""	""	Prijedor	""	31319489	2025-06-09T09:46:13	3	NO ERROR	22.2	51.4	1008.8	0.11	0.28	2.86
2764	363171	Vazduh	Libelium	0004A30B0021DF70	44.979	16.7091	""	""	Prijedor	""	31320043	2025-06-09T10:46:55	3	NO ERROR	24.64	45.4	1008.73	0.02	0.06	0.07
2765	363171	Vazduh	Libelium	0004A30B0021DF70	44.979	16.7091	""	""	Prijedor	""	31320627	2025-06-09T11:47:37	3	NO ERROR	23.66	47.5	1008.73	0.08	0.11	0.11
2766	363171	Vazduh	Libelium	0004A30B0021DF70	44.979	16.7091	""	""	Prijedor	""	31321225	2025-06-09T12:48:19	3	NO ERROR	24.47	45.7	1008.36	0.03	0.05	0.05
2767	363171	Vazduh	Libelium	0004A30B0021DF70	44.979	16.7091	""	""	Prijedor	""	31321847	2025-06-09T13:49:01	3	NO ERROR	26.11	42.8	1007.86	0.08	0.09	0.09
2768	363171	Vazduh	Libelium	0004A30B0021DF70	44.979	16.7091	""	""	Prijedor	""	31322455	2025-06-09T14:49:43	3	NO ERROR	26.77	41	1007.44	0.03	0.09	0.11
2769	363171	Vazduh	Libelium	0004A30B0021DF70	44.979	16.7091	""	""	Prijedor	""	31323103	2025-06-09T15:50:26	3	NO ERROR	28.08	38.8	1007.11	0.22	0.27	0.27
2770	363171	Vazduh	Libelium	0004A30B0021DF70	44.979	16.7091	""	""	Prijedor	""	31323695	2025-06-09T16:51:08	3	NO ERROR	26.37	40.2	1006.94	0.05	0.12	0.2
2771	363171	Vazduh	Libelium	0004A30B0021DF70	44.979	16.7091	""	""	Prijedor	""	31324290	2025-06-09T17:51:50	3	NO ERROR	24.84	41.5	1006.71	0.03	0.07	0.42
2772	363171	Vazduh	Libelium	0004A30B0021DF70	44.979	16.7091	""	""	Prijedor	""	31324877	2025-06-09T18:52:32	3	NO ERROR	23.73	43.8	1006.76	0.02	0.09	0.17
2773	363171	Vazduh	Libelium	0004A30B0021DF70	44.979	16.7091	""	""	Prijedor	""	31325455	2025-06-09T19:53:14	3	NO ERROR	22.19	47.5	1007.16	0.1	0.17	0.18
2774	363171	Vazduh	Libelium	0004A30B0021DF70	44.979	16.7091	""	""	Prijedor	""	31326046	2025-06-09T20:53:56	3	NO ERROR	20.95	49.5	1007.41	0	0	0
2775	363171	Vazduh	Libelium	0004A30B0021DF70	44.979	16.7091	""	""	Prijedor	""	31326683	2025-06-09T21:54:38	3	NO ERROR	19.84	51.5	1007.88	0.16	0.21	0.22
2776	363171	Vazduh	Libelium	0004A30B0021DF70	44.979	16.7091	""	""	Prijedor	""	31327288	2025-06-09T22:55:20	3	NO ERROR	16.65	80.5	1007.98	0	0	0
2777	363171	Vazduh	Libelium	0004A30B0021DF70	44.979	16.7091	""	""	Prijedor	""	31327883	2025-06-09T23:56:02	3	NO ERROR	15.07	87.8	1008.12	0.03	0.03	0.03
2778	363171	Vazduh	Libelium	0004A30B0021DF70	44.979	16.7091	""	""	Prijedor	""	31328481	2025-06-10T00:56:45	3	NO ERROR	13.81	98.9	1008.05	0.02	0.05	0.05
2779	363171	Vazduh	Libelium	0004A30B0021DF70	44.979	16.7091	""	""	Prijedor	""	31329044	2025-06-10T01:57:27	3	NO ERROR	13.02	100	1007.78	0.05	0.08	0.08
2780	363171	Vazduh	Libelium	0004A30B0021DF70	44.979	16.7091	""	""	Prijedor	""	31329622	2025-06-10T02:58:09	3	NO ERROR	12.12	100	1007.67	0.1	0.11	0.11
2781	363171	Vazduh	Libelium	0004A30B0021DF70	44.979	16.7091	""	""	Prijedor	""	31330242	2025-06-10T03:58:58	3	NO ERROR	11.74	100	1007.34	0.04	0.08	0.08
2782	363171	Vazduh	Libelium	0004A30B0021DF70	44.979	16.7091	""	""	Prijedor	""	31330795	2025-06-10T04:59:40	3	NO ERROR	10.73	100	1007.33	0.07	0.07	0.07
2783	363171	Vazduh	Libelium	0004A30B0021DF70	44.979	16.7091	""	""	Prijedor	""	31331423	2025-06-10T06:00:22	3	NO ERROR	10.8	100	1007.5	0.08	0.15	0.15
2784	363171	Vazduh	Libelium	0004A30B0021DF70	44.979	16.7091	""	""	Prijedor	""	31332076	2025-06-10T07:01:05	3	NO ERROR	16.48	89.6	1007.43	0	0	0
2785	363171	Vazduh	Libelium	0004A30B0021DF70	44.979	16.7091	""	""	Prijedor	""	31332671	2025-06-10T08:01:47	3	NO ERROR	20.11	63.4	1007.2	0.02	0.02	0.02
2786	363171	Vazduh	Libelium	0004A30B0021DF70	44.979	16.7091	""	""	Prijedor	""	31333290	2025-06-10T09:02:29	3	NO ERROR	23.89	50.8	1006.92	0.05	0.06	0.06
2787	363171	Vazduh	Libelium	0004A30B0021DF70	44.979	16.7091	""	""	Prijedor	""	31333877	2025-06-10T10:03:11	3	NO ERROR	24.06	50.4	1006.58	0.09	0.12	0.12
2788	363171	Vazduh	Libelium	0004A30B0021DF70	44.979	16.7091	""	""	Prijedor	""	31334419	2025-06-10T11:03:54	3	NO ERROR	24.96	47.2	1005.96	0.04	0.07	0.07
2789	363171	Vazduh	Libelium	0004A30B0021DF70	44.979	16.7091	""	""	Prijedor	""	31335076	2025-06-10T12:04:36	3	NO ERROR	24.75	46.3	1005.24	0.06	0.08	0.09
2790	363171	Vazduh	Libelium	0004A30B0021DF70	44.979	16.7091	""	""	Prijedor	""	31335672	2025-06-10T13:05:18	3	NO ERROR	25.98	38.9	1004.4	0.08	0.09	0.09
2791	363171	Vazduh	Libelium	0004A30B0021DF70	44.979	16.7091	""	""	Prijedor	""	31336292	2025-06-10T14:06:00	3	NO ERROR	28.42	36.9	1003.45	0.03	0.03	0.03
2792	363171	Vazduh	Libelium	0004A30B0021DF70	44.979	16.7091	""	""	Prijedor	""	31336921	2025-06-10T15:06:42	3	NO ERROR	29.15	37.1	1002.62	0.03	0.06	0.06
2793	363171	Vazduh	Libelium	0004A30B0021DF70	44.979	16.7091	""	""	Prijedor	""	31337619	2025-06-10T16:12:22	3	NO ERROR	30.55	35.8	1001.79	0.1	0.13	0.13
2794	363171	Vazduh	Libelium	0004A30B0021DF70	44.979	16.7091	""	""	Prijedor	""	31338205	2025-06-10T17:14:52	3	NO ERROR	28.29	38.9	1001.26	0.07	0.09	0.09
2795	363171	Vazduh	Libelium	0004A30B0021DF70	44.979	16.7091	""	""	Prijedor	""	31338823	2025-06-10T18:19:27	3	NO ERROR	27.05	39.6	1000.77	0.02	0.06	0.07
2796	363171	Vazduh	Libelium	0004A30B0021DF70	44.979	16.7091	""	""	Prijedor	""	31339428	2025-06-10T19:21:00	3	NO ERROR	25.83	42.4	1000.6	0.05	0.09	0.09
2797	363171	Vazduh	Libelium	0004A30B0021DF70	44.979	16.7091	""	""	Prijedor	""	31340012	2025-06-10T20:23:42	3	NO ERROR	24.03	47.7	1000.74	0.08	0.12	0.12
2798	363171	Vazduh	Libelium	0004A30B0021DF70	44.979	16.7091	""	""	Prijedor	""	31340742	2025-06-10T21:35:09	3	NO ERROR	20.7	72.1	1000.36	0.14	0.18	0.18
2799	363171	Vazduh	Libelium	0004A30B0021DF70	44.979	16.7091	""	""	Prijedor	""	31341375	2025-06-10T22:36:55	3	NO ERROR	18.42	86.3	1000.93	0.04	0.11	0.13
2800	363171	Vazduh	Libelium	0004A30B0021DF70	44.979	16.7091	""	""	Prijedor	""	31341983	2025-06-10T23:37:37	3	NO ERROR	16.85	95.3	1000.56	0.22	0.33	0.33
2801	363171	Vazduh	Libelium	0004A30B0021DF70	44.979	16.7091	""	""	Prijedor	""	31342789	2025-06-11T00:59:36	3	NO ERROR	14.69	100	1000.82	0.12	0.13	0.13
2802	363171	Vazduh	Libelium	0004A30B0021DF70	44.979	16.7091	""	""	Prijedor	""	31343396	2025-06-11T02:05:27	3	NO ERROR	13.92	100	1000.63	0.08	0.15	2.86
2803	363171	Vazduh	Libelium	0004A30B0021DF70	44.979	16.7091	""	""	Prijedor	""	31343991	2025-06-11T03:06:34	3	NO ERROR	12.84	100	1000.53	0.13	0.14	0.14
2804	363171	Vazduh	Libelium	0004A30B0021DF70	44.979	16.7091	""	""	Prijedor	""	31344648	2025-06-11T04:13:55	3	NO ERROR	12.59	100	1000.41	0.06	0.08	0.08
2805	363171	Vazduh	Libelium	0004A30B0021DF70	44.979	16.7091	""	""	Prijedor	""	31347952	2025-06-11T09:33:39	3	NO ERROR	25.62	55.5	1002.2	0.05	0.05	0.05
2806	363171	Vazduh	Libelium	0004A30B0021DF70	44.979	16.7091	""	""	Prijedor	""	31349268	2025-06-11T11:48:25	3	NO ERROR	27.5	50.2	1002.1	0.08	0.11	0.12
2807	363171	Vazduh	Libelium	0004A30B0021DF70	44.979	16.7091	""	""	Prijedor	""	31350316	2025-06-11T13:29:24	3	NO ERROR	29.16	45.4	1001.65	0.23	0.32	0.34
2808	363171	Vazduh	Libelium	0004A30B0021DF70	44.979	16.7091	""	""	Prijedor	""	31352139	2025-06-11T16:21:16	3	NO ERROR	33.69	34.4	1000.49	0.12	0.22	0.29
2809	363171	Vazduh	Libelium	0004A30B0021DF70	44.979	16.7091	""	""	Prijedor	""	31352722	2025-06-11T17:21:58	3	NO ERROR	31.08	37.1	1000.25	0	0	0
2810	363171	Vazduh	Libelium	0004A30B0021DF70	44.979	16.7091	""	""	Prijedor	""	31353312	2025-06-11T18:22:53	3	NO ERROR	28.97	41.7	1000.18	0.09	0.12	0.12
2811	363171	Vazduh	Libelium	0004A30B0021DF70	44.979	16.7091	""	""	Prijedor	""	31353937	2025-06-11T19:23:34	3	NO ERROR	27.99	44.4	1000.46	0.13	0.16	0.17
2812	363171	Vazduh	Libelium	0004A30B0021DF70	44.979	16.7091	""	""	Prijedor	""	31354528	2025-06-11T20:24:16	3	NO ERROR	25.43	58.9	1000.87	0.15	0.25	0.26
2813	363171	Vazduh	Libelium	0004A30B0021DF70	44.979	16.7091	""	""	Prijedor	""	31355171	2025-06-11T21:24:59	3	NO ERROR	22.99	69.1	1001.55	0.05	0.21	0.26
2814	363171	Vazduh	Libelium	0004A30B0021DF70	44.979	16.7091	""	""	Prijedor	""	31355835	2025-06-11T22:25:47	3	NO ERROR	20.73	90.4	1002.12	0.18	0.23	0.23
2815	363171	Vazduh	Libelium	0004A30B0021DF70	44.979	16.7091	""	""	Prijedor	""	31356426	2025-06-11T23:26:29	3	NO ERROR	19.21	100	1002.55	0.06	0.08	0.08
2816	363171	Vazduh	Libelium	0004A30B0021DF70	44.979	16.7091	""	""	Prijedor	""	31357059	2025-06-12T00:27:11	3	NO ERROR	17.7	100	1002.98	0.32	0.42	0.43
2817	363171	Vazduh	Libelium	0004A30B0021DF70	44.979	16.7091	""	""	Prijedor	""	31357646	2025-06-12T01:27:53	3	NO ERROR	16.56	100	1003.07	0.18	0.22	0.22
2818	363171	Vazduh	Libelium	0004A30B0021DF70	44.979	16.7091	""	""	Prijedor	""	31358179	2025-06-12T02:28:35	3	NO ERROR	15.71	100	1003.51	0.07	0.11	0.13
2819	363171	Vazduh	Libelium	0004A30B0021DF70	44.979	16.7091	""	""	Prijedor	""	31358782	2025-06-12T03:29:17	3	NO ERROR	15.16	100	1003.34	0.07	0.07	0.07
2820	363171	Vazduh	Libelium	0004A30B0021DF70	44.979	16.7091	""	""	Prijedor	""	31359376	2025-06-12T04:29:59	3	NO ERROR	15.54	100	1003.47	0.03	0.08	0.09
2821	363171	Vazduh	Libelium	0004A30B0021DF70	44.979	16.7091	""	""	Prijedor	""	31359998	2025-06-12T05:30:41	3	NO ERROR	15.46	100	1003.63	0.05	0.05	0.05
2822	363171	Vazduh	Libelium	0004A30B0021DF70	44.979	16.7091	""	""	Prijedor	""	31360642	2025-06-12T06:31:24	3	NO ERROR	16.31	100	1004.17	0.11	0.25	0.27
2823	363171	Vazduh	Libelium	0004A30B0021DF70	44.979	16.7091	""	""	Prijedor	""	31361273	2025-06-12T07:32:12	3	NO ERROR	22.77	80.5	1004.42	0	0	0
2824	363171	Vazduh	Libelium	0004A30B0021DF70	44.979	16.7091	""	""	Prijedor	""	31361907	2025-06-12T08:32:54	3	NO ERROR	26.32	55.7	1004.74	0.09	0.18	0.26
2825	363171	Vazduh	Libelium	0004A30B0021DF70	44.979	16.7091	""	""	Prijedor	""	31362536	2025-06-12T09:33:36	3	NO ERROR	27.33	51.2	1004.63	0.11	0.11	0.11
2826	363171	Vazduh	Libelium	0004A30B0021DF70	44.979	16.7091	""	""	Prijedor	""	31363133	2025-06-12T10:34:18	3	NO ERROR	27.45	47.7	1004.31	0.05	0.14	0.22
2827	363171	Vazduh	Libelium	0004A30B0021DF70	44.979	16.7091	""	""	Prijedor	""	31363734	2025-06-12T11:35:00	3	NO ERROR	26.15	51	1004.23	0.05	0.05	0.05
2828	363171	Vazduh	Libelium	0004A30B0021DF70	44.979	16.7091	""	""	Prijedor	""	31364339	2025-06-12T12:35:48	3	NO ERROR	26.8	52	1003.95	0.03	0.05	0.05
2829	363171	Vazduh	Libelium	0004A30B0021DF70	44.979	16.7091	""	""	Prijedor	""	31364977	2025-06-12T13:37:27	3	NO ERROR	28.71	47.4	1003.42	0.04	0.16	0.47
2830	363171	Vazduh	Libelium	0004A30B0021DF70	44.979	16.7091	""	""	Prijedor	""	31365570	2025-06-12T14:38:09	3	NO ERROR	30.98	41.3	1003.12	0	0	0
2831	363171	Vazduh	Libelium	0004A30B0021DF70	44.979	16.7091	""	""	Prijedor	""	31366178	2025-06-12T15:38:51	3	NO ERROR	31.99	40.6	1002.68	0.03	0.06	0.07
2832	363171	Vazduh	Libelium	0004A30B0021DF70	44.979	16.7091	""	""	Prijedor	""	31366802	2025-06-12T16:39:34	3	NO ERROR	33.05	37.8	1002.42	0	0	0
2833	363171	Vazduh	Libelium	0004A30B0021DF70	44.979	16.7091	""	""	Prijedor	""	31367414	2025-06-12T17:40:16	3	NO ERROR	31.47	39.1	1002.41	0.08	0.09	0.09
2834	363171	Vazduh	Libelium	0004A30B0021DF70	44.979	16.7091	""	""	Prijedor	""	31368061	2025-06-12T18:43:54	3	NO ERROR	28.16	43.7	1002.42	0.03	0.03	0.03
2835	363171	Vazduh	Libelium	0004A30B0021DF70	44.979	16.7091	""	""	Prijedor	""	31368634	2025-06-12T19:44:36	3	NO ERROR	27.1	47.4	1002.71	0.02	0.02	0.02
2836	363171	Vazduh	Libelium	0004A30B0021DF70	44.979	16.7091	""	""	Prijedor	""	31369223	2025-06-12T20:45:18	3	NO ERROR	25.34	51.6	1003.29	0.1	0.1	0.1
2837	363171	Vazduh	Libelium	0004A30B0021DF70	44.979	16.7091	""	""	Prijedor	""	31369839	2025-06-12T21:46:00	3	NO ERROR	22.49	82.3	1004.05	0.28	0.33	0.33
2838	363171	Vazduh	Libelium	0004A30B0021DF70	44.979	16.7091	""	""	Prijedor	""	31370499	2025-06-12T22:46:48	3	NO ERROR	20.29	96.6	1004.17	0.15	0.25	0.26
2839	363171	Vazduh	Libelium	0004A30B0021DF70	44.979	16.7091	""	""	Prijedor	""	31371101	2025-06-12T23:47:30	3	NO ERROR	18.71	100	1004.72	0.09	0.1	0.1
2840	363171	Vazduh	Libelium	0004A30B0021DF70	44.979	16.7091	""	""	Prijedor	""	31371692	2025-06-13T00:48:12	3	NO ERROR	17.46	100	1004.71	0.11	0.16	0.16
2841	363171	Vazduh	Libelium	0004A30B0021DF70	44.979	16.7091	""	""	Prijedor	""	31372306	2025-06-13T01:48:55	3	NO ERROR	16.41	100	1004.98	0.07	0.16	0.25
2842	363171	Vazduh	Libelium	0004A30B0021DF70	44.979	16.7091	""	""	Prijedor	""	31372898	2025-06-13T02:49:37	3	NO ERROR	15.89	100	1005.24	0.07	0.09	0.09
2843	363171	Vazduh	Libelium	0004A30B0021DF70	44.979	16.7091	""	""	Prijedor	""	31373513	2025-06-13T03:50:19	3	NO ERROR	15.25	100	1005.26	0.14	0.16	0.16
2844	363171	Vazduh	Libelium	0004A30B0021DF70	44.979	16.7091	""	""	Prijedor	""	31374114	2025-06-13T04:51:02	3	NO ERROR	14.65	100	1005.49	0.14	0.18	0.18
2845	363171	Vazduh	Libelium	0004A30B0021DF70	44.979	16.7091	""	""	Prijedor	""	31374771	2025-06-13T05:51:57	3	NO ERROR	14.44	100	1006.01	0.11	0.22	0.24
2846	363171	Vazduh	Libelium	0004A30B0021DF70	44.979	16.7091	""	""	Prijedor	""	31375440	2025-06-13T06:53:04	3	NO ERROR	18.9	100	1006.47	0.05	0.06	0.06
2847	363171	Vazduh	Libelium	0004A30B0021DF70	44.979	16.7091	""	""	Prijedor	""	31376067	2025-06-13T07:55:08	3	NO ERROR	22.87	81.9	1006.9	0.03	0.03	0.03
2848	363171	Vazduh	Libelium	0004A30B0021DF70	44.979	16.7091	""	""	Prijedor	""	31376901	2025-06-13T09:19:27	3	NO ERROR	27.38	55.9	1007.36	0.03	0.05	0.05
2849	363171	Vazduh	Libelium	0004A30B0021DF70	44.979	16.7091	""	""	Prijedor	""	31377501	2025-06-13T10:23:18	3	NO ERROR	28.76	51.2	1007.38	0.05	0.15	0.23
2850	363171	Vazduh	Libelium	0004A30B0021DF70	44.979	16.7091	""	""	Prijedor	""	31378207	2025-06-13T11:34:45	3	NO ERROR	28.53	52.2	1007.24	0.03	0.04	0.04
2851	363171	Vazduh	Libelium	0004A30B0021DF70	44.979	16.7091	""	""	Prijedor	""	31378824	2025-06-13T12:35:40	3	NO ERROR	28.73	48.6	1007	0.03	0.06	0.06
2852	363171	Vazduh	Libelium	0004A30B0021DF70	44.979	16.7091	""	""	Prijedor	""	31379465	2025-06-13T13:36:34	3	NO ERROR	29.14	47.8	1006.7	0.07	0.08	0.08
2853	363171	Vazduh	Libelium	0004A30B0021DF70	44.979	16.7091	""	""	Prijedor	""	31380082	2025-06-13T14:38:06	3	NO ERROR	30.92	44.3	1006.39	0.11	0.12	0.12
2854	363171	Vazduh	Libelium	0004A30B0021DF70	44.979	16.7091	""	""	Prijedor	""	31380726	2025-06-13T15:39:13	3	NO ERROR	31.71	42.3	1006.31	0.16	0.23	0.23
2855	363171	Vazduh	Libelium	0004A30B0021DF70	44.979	16.7091	""	""	Prijedor	""	31381593	2025-06-13T17:09:01	3	NO ERROR	31.27	39.9	1005.88	0.14	0.15	0.15
2856	363171	Vazduh	Libelium	0004A30B0021DF70	44.979	16.7091	""	""	Prijedor	""	31382230	2025-06-13T18:13:56	3	NO ERROR	28.55	44.5	1005.64	0.02	0.02	0.02
2857	363171	Vazduh	Libelium	0004A30B0021DF70	44.979	16.7091	""	""	Prijedor	""	31382883	2025-06-13T19:20:57	3	NO ERROR	27.37	47.3	1005.76	0.1	0.21	0.28
2858	363171	Vazduh	Libelium	0004A30B0021DF70	44.979	16.7091	""	""	Prijedor	""	31383469	2025-06-13T20:22:30	3	NO ERROR	25.11	54.4	1005.87	0.11	0.2	0.22
